# Wetter Temperatur Luftdruck Luftfeuchtigkeit Sichtweite Windgeschwindigkeit Windrichtung Zeit
1 Clear 17 1012 45 10000 4.12 180 15:55 01.02.2023
2 Clouds 17 1012 45 10000 5.14 220 13:21 01.02.2023
3 Clouds 17 1012 48 10000 4.63 210 12:59 01.02.2023
4 Clouds 17 1012 48 10000 4.63 210 12:26 01.02.2023
5 Clear 14 1014 62 10000 3.09 240 09:42 01.02.2023
6 Clear 8 1010 93 10000 2.57 280 03:45 01.02.2023
7 Clouds 10 1009 93 9000 2.06 180 22:19 31.01.2023
8 Clouds 11 1008 87 9000 3.09 150 20:29 31.01.2023
9 Clear 11 1008 87 9000 2.57 140 19:24 31.01.2023
10 Clouds 14 1007 77 10000 3.09 200 16:34 31.01.2023
11 Clouds 16 1007 59 10000 3.6 220 15:36 31.01.2023
12 Clouds 16 1007 59 10000 3.6 220 15:18 31.01.2023
13 Mist 16 1006 77 3000 4.63 200 12:33 31.01.2023
14 Rain 16 1006 100 2000 4.63 170 11:21 31.01.2023
15 Mist 15 1008 94 1500 5.66 160 09:54 31.01.2023
16 Mist 15 1008 94 1500 5.66 160 09:24 31.01.2023
17 Rain 14 1009 100 1500 5.14 180 08:35 31.01.2023
18 Clouds 13 1007 100 2300 3.09 150 06:18 31.01.2023
19 Clouds 12 1008 100 9000 2.06 160 00:25 31.01.2023
20 Clear 11 1008 100 9000 1.03 190 23:23 30.01.2023
21 Clear 13 1009 82 10000 2.57 130 22:43 30.01.2023
22 Clouds 14 1009 72 10000 2.57 120 21:26 30.01.2023
23 Clouds 15 1009 72 10000 2.06 100 20:42 30.01.2023
24 Clouds 15 1010 72 10000 3.09 100 18:26 30.01.2023
25 Clear 16 1010 67 10000 5.66 100 16:56 30.01.2023
26 Rain 17 1012 57 10000 7.38 124 14:33 30.01.2023
27 Clouds 18 1010 63 10000 7.72 100 13:37 30.01.2023
28 Rain 16 1012 82 4000 7.72 130 11:28 30.01.2023
29 Rain 15 1013 88 2500 4.63 120 10:18 30.01.2023
30 Mist 14 1013 100 2500 6.17 130 09:49 30.01.2023
31 Mist 13 1015 100 2500 5.14 150 08:18 30.01.2023
32 Clouds 12 1012 82 6000 5.14 130 02:33 30.01.2023
33 Haze 13 1013 76 5000 1.03 20 23:35 29.01.2023
34 Haze 13 1014 76 5000 1.54 70 22:38 29.01.2023
35 Clouds 13 1014 76 8000 1.03 30 21:53 29.01.2023
36 Clouds 14 1013 67 8000 1.54 10 20:52 29.01.2023
37 Clouds 14 1013 67 8000 1.54 10 20:18 29.01.2023
38 Clouds 14 1013 67 8000 1.54 50 19:32 29.01.2023
39 Clear 15 1013 63 10000 3.6 300 17:51 29.01.2023
40 Clear 17 1012 55 10000 2.57 280 16:22 29.01.2023
41 Clear 18 1011 48 10000 3.09 250 15:50 29.01.2023
42 Clear 19 1011 48 10000 3.09 180 13:39 29.01.2023
43 Clear 18 1011 45 10000 2.57 160 12:53 29.01.2023
44 Clear 18 1011 45 10000 2.57 160 12:24 29.01.2023
45 Clear 17 1011 51 10000 3.6 150 11:58 29.01.2023
46 Clear 17 1011 51 10000 3.6 150 11:33 29.01.2023
47 Clear 17 1012 48 10000 5.66 150 10:20 29.01.2023
48 Clear 12 1013 62 8000 5.14 140 07:57 29.01.2023
49 Clouds 11 1012 66 8000 8.23 130 03:43 29.01.2023
50 Mist 12 1015 71 5000 6.69 130 23:49 28.01.2023
51 Clouds 14 1017 58 8000 5.14 120 20:52 28.01.2023
52 Clouds 14 1018 58 9000 4.63 110 19:54 28.01.2023
53 Clouds 15 1018 55 8000 4.12 110 18:52 28.01.2023
54 Clouds 15 1018 55 9000 3.6 110 17:27 28.01.2023
55 Clouds 15 1018 55 8000 3.6 110 16:40 28.01.2023
56 Clouds 15 1018 55 8000 3.6 110 16:18 28.01.2023
57 Clouds 16 1018 51 8000 3.6 110 15:22 28.01.2023
58 Haze 17 1019 48 5000 2.57 120 13:48 28.01.2023
59 Haze 17 1020 45 5000 1.54 130 12:21 28.01.2023
60 Clouds 15 1021 55 7000 3.6 140 10:35 28.01.2023
61 Clouds 16 1022 29 10000 2.44 145 09:30 28.01.2023
62 Clear 6 1021 100 6000 1.54 360 02:28 28.01.2023
63 Clear 7 1022 87 6000 1.54 10 00:28 28.01.2023
64 Clear 7 1022 87 7000 2.06 360 23:34 27.01.2023
65 Clear 10 1023 71 7000 2.06 350 19:48 27.01.2023
66 Clear 12 1022 71 10000 2.57 330 17:58 27.01.2023
67 Clear 12 1022 71 10000 2.57 330 17:21 27.01.2023
68 Clear 14 1021 62 10000 3.09 300 16:55 27.01.2023
69 Clear 15 1021 58 10000 3.6 340 15:37 27.01.2023
70 Clear 17 1021 45 10000 3.09 310 14:27 27.01.2023
71 Clear 17 1020 48 10000 3.09 290 13:36 27.01.2023
72 Clouds 16 1022 48 10000 4.63 240 10:20 27.01.2023
73 Dust 13 1023 54 10000 4.12 150 08:34 27.01.2023
74 Clear 7 1021 76 10000 1.54 150 00:28 27.01.2023
75 Clouds 8 1021 76 9000 0.51 280 22:43 26.01.2023
76 Clear 10 1021 66 9000 0 0 20:57 26.01.2023
77 Clear 10 1021 66 9000 0 0 20:26 26.01.2023
78 Clear 11 1021 58 9000 0.51 290 18:19 26.01.2023
79 Clear 14 1020 47 10000 1.54 340 16:54 26.01.2023
80 Clear 14 1020 47 10000 1.54 340 16:21 26.01.2023
81 Clear 16 1020 44 10000 2.57 330 15:43 26.01.2023
82 Clear 16 1020 44 10000 2.57 330 15:24 26.01.2023
83 Clear 17 1020 39 10000 3.6 330 13:54 26.01.2023
84 Clear 17 1020 34 10000 3.09 300 12:33 26.01.2023
85 Clear 15 1021 44 8000 2.57 300 10:56 26.01.2023
86 Clear 15 1021 44 8000 2.57 300 10:26 26.01.2023
87 Clear 13 1022 50 8000 2.06 290 09:42 26.01.2023
88 Clear 9 1022 61 6000 1.03 310 08:25 26.01.2023
89 Clear 7 1020 81 8000 1.03 230 23:58 25.01.2023
90 Clear 7 1020 81 8000 1.03 230 23:36 25.01.2023
91 Clear 9 1020 66 10000 1.54 320 21:54 25.01.2023
92 Clear 9 1020 66 10000 1.54 320 21:20 25.01.2023
93 Clear 12 1019 58 10000 2.57 300 18:31 25.01.2023
94 Clear 13 1019 54 10000 1.54 280 17:29 25.01.2023
95 Clear 15 1019 44 10000 3.6 320 15:40 25.01.2023
96 Clear 16 1019 41 10000 3.6 310 12:51 25.01.2023
97 Clear 13 1020 50 10000 3.09 300 10:46 25.01.2023
98 Clear 11 1021 54 9000 2.57 320 09:41 25.01.2023
99 Mist 5 1020 81 5000 3.09 320 06:57 25.01.2023
100 Clear 6 1020 93 8000 2.06 300 01:29 25.01.2023
101 Clear 7 1020 81 8000 1.54 20 00:21 25.01.2023
102 Clear 9 1021 71 9000 2.57 300 21:32 24.01.2023
103 Clear 10 1021 62 10000 3.09 290 20:19 24.01.2023
104 Clear 12 1021 58 10000 4.12 300 18:42 24.01.2023
105 Clear 12 1020 54 10000 2.57 300 17:20 24.01.2023
106 Clear 14 1020 77 10000 2.06 310 16:52 24.01.2023
107 Clear 16 1020 44 10000 3.6 320 15:21 24.01.2023
108 Clear 17 1020 39 10000 4.21 351 13:22 24.01.2023
109 Clear 18 1021 25 10000 3.65 338 11:20 24.01.2023
110 Clear 10 1023 66 5000 2.57 330 08:23 24.01.2023
111 Haze 8 1023 71 4000 3.09 320 07:54 24.01.2023
112 Haze 8 1023 71 4000 3.09 320 07:25 24.01.2023
113 Clear 7 1022 81 8000 3.09 300 02:23 24.01.2023
114 Clear 7 1022 100 6000 1.54 290 00:25 24.01.2023
115 Clear 10 1022 76 6000 2.06 290 22:28 23.01.2023
116 Clear 11 1022 71 6000 0.51 320 19:55 23.01.2023
117 Clear 11 1022 71 8000 1.54 290 18:51 23.01.2023
118 Clear 14 1021 58 10000 1.54 340 16:39 23.01.2023
119 Clear 16 1021 51 10000 3.09 330 14:59 23.01.2023
120 Clear 16 1021 55 10000 3.09 340 13:55 23.01.2023
121 Clear 16 1021 55 10000 3.6 310 12:55 23.01.2023
122 Clear 16 1022 51 10000 2.57 300 11:45 23.01.2023
123 Clear 15 1022 51 10000 2.57 260 10:40 23.01.2023
124 Clear 10 1023 81 6000 2.06 260 08:24 23.01.2023
125 Clear 8 1021 100 10000 2.57 330 23:53 22.01.2023
126 Clear 10 1022 93 10000 1.54 330 21:50 22.01.2023
127 Clear 11 1021 82 10000 1.54 330 20:58 22.01.2023
128 Clear 11 1021 76 10000 2.57 300 19:54 22.01.2023
129 Clear 11 1021 76 10000 2.57 300 19:21 22.01.2023
130 Clear 12 1021 71 10000 1.54 290 18:25 22.01.2023
131 Clear 13 1021 62 10000 2.57 310 17:55 22.01.2023
132 Clear 13 1021 62 10000 3.09 310 17:24 22.01.2023
133 Clear 16 1021 55 10000 3.6 330 15:25 22.01.2023
134 Clear 17 1021 48 10000 4.63 310 14:25 22.01.2023
135 Clear 17 1021 45 10000 4.12 310 13:26 22.01.2023
136 Clear 17 1021 48 10000 4.12 340 12:28 22.01.2023
137 Clear 17 1021 51 10000 4.12 330 11:23 22.01.2023
138 Haze 15 1022 63 2500 2.57 320 09:34 22.01.2023
139 Clouds 8 1021 100 7000 3.09 320 02:59 22.01.2023
140 Clear 9 1021 93 8000 1.54 340 23:44 21.01.2023
141 Clear 10 1022 87 6000 1.54 330 22:55 21.01.2023
142 Clear 11 1022 82 6000 1.03 310 21:28 21.01.2023
143 Clear 12 1021 71 8000 2.57 330 18:53 21.01.2023
144 Clear 12 1021 71 8000 2.57 330 18:53 21.01.2023
145 Clear 16 1020 55 10000 3.09 320 15:57 21.01.2023
146 Clear 18 1021 42 10000 3.6 360 13:50 21.01.2023
147 Clear 17 1021 51 10000 2.57 350 12:56 21.01.2023
148 Clear 17 1022 51 10000 2.06 360 11:39 21.01.2023
149 Clear 16 1023 59 8000 2.06 310 10:48 21.01.2023
150 Haze 14 1023 77 2000 0.51 0 08:31 21.01.2023
151 Mist 7 1022 100 2500 0.51 270 04:30 21.01.2023
152 Clear 9 1022 93 8000 1.03 0 22:28 20.01.2023
153 Clear 10 1022 87 8000 0 0 21:37 20.01.2023
154 Clear 10 1021 87 10000 0 0 20:54 20.01.2023
155 Clear 12 1022 76 9000 0 0 19:20 20.01.2023
156 Clear 16 1020 41 10000 1.45 330 16:21 20.01.2023
157 Clear 17 1021 55 10000 4.12 310 14:45 20.01.2023
158 Clear 17 1021 55 10000 4.63 310 12:50 20.01.2023
159 Clear 15 1022 67 10000 2.57 260 10:24 20.01.2023
160 Clear 12 1023 87 7000 1.54 290 08:22 20.01.2023
161 Clear 7 1021 100 9000 2.06 280 03:33 20.01.2023
162 Clear 8 1022 93 10000 2.06 290 02:28 20.01.2023
163 Clear 11 1023 100 8000 3.09 270 22:32 19.01.2023
164 Clear 12 1023 94 8000 2.57 270 20:22 19.01.2023
165 Clear 13 1023 88 9000 2.57 270 19:23 19.01.2023
166 Clear 15 1023 72 10000 4.12 280 16:25 19.01.2023
167 Clear 17 1023 67 10000 6.17 290 11:28 19.01.2023
168 Clear 12 1025 94 8000 5.14 300 08:59 19.01.2023
169 Clear 10 1024 100 10000 3.6 290 00:45 19.01.2023
170 Clear 11 1024 93 10000 2.57 270 21:19 18.01.2023
171 Clear 13 1024 82 10000 4.12 280 20:19 18.01.2023
172 Clear 13 1023 82 10000 4.12 280 19:37 18.01.2023
173 Clear 14 1023 82 10000 4.12 270 17:49 18.01.2023
174 Clear 16 1022 67 10000 6.69 280 15:41 18.01.2023
175 Clear 17 1022 63 10000 7.72 290 13:30 18.01.2023
176 Clear 18 1021 43 10000 7.7 322 11:25 18.01.2023
177 Clear 12 1023 82 7000 6.17 310 08:47 18.01.2023
178 Clear 9 1021 81 10000 5.14 310 01:28 18.01.2023
179 Clear 11 1021 82 10000 6.17 290 23:54 17.01.2023
180 Clear 11 1021 100 10000 4.12 260 20:40 17.01.2023
181 Clear 11 1021 93 8000 4.12 250 19:35 17.01.2023
182 Clear 12 1020 82 7000 3.6 280 18:36 17.01.2023
183 Clear 13 1020 82 7000 3.6 290 17:31 17.01.2023
184 Clouds 16 1019 63 10000 7.72 290 14:57 17.01.2023
185 Clouds 16 1019 63 10000 7.72 290 14:22 17.01.2023
186 Haze 15 1019 72 3100 7.72 290 12:48 17.01.2023
187 Haze 15 1019 82 2500 7.2 300 11:44 17.01.2023
188 Mist 12 1021 100 3000 5.14 300 09:35 17.01.2023
189 Mist 10 1021 100 1000 3.09 310 08:20 17.01.2023
190 Fog 7 1020 100 100 4.12 310 05:51 17.01.2023
191 Fog 7 1019 100 100 2.57 320 00:57 17.01.2023
192 Fog 8 1019 100 100 1.54 320 23:40 16.01.2023
193 Fog 10 1020 100 800 0.51 0 21:55 16.01.2023
194 Mist 10 1020 100 1500 1.03 0 20:49 16.01.2023
195 Mist 10 1020 100 3200 1.03 0 19:42 16.01.2023
196 Mist 11 1020 100 3000 0 0 18:55 16.01.2023
197 Mist 11 1020 100 3000 0 0 18:21 16.01.2023
198 Mist 12 1020 100 4500 1.03 340 17:36 16.01.2023
199 Haze 14 1019 77 4000 2.06 320 15:49 16.01.2023
200 Haze 14 1019 77 2600 1.03 0 13:39 16.01.2023
201 Mist 11 1020 93 1000 1.03 0 11:57 16.01.2023
202 Fog 10 1021 100 500 1.54 180 10:21 16.01.2023
203 Fog 8 1021 100 100 1.03 280 00:55 16.01.2023
204 Mist 9 1021 100 1500 1.03 230 22:27 15.01.2023
205 Mist 9 1022 100 2900 1.54 230 20:47 15.01.2023
206 Mist 10 1021 100 3200 1.03 0 19:59 15.01.2023
207 Mist 11 1021 100 3600 1.54 220 18:19 15.01.2023
208 Mist 13 1021 88 5000 2.57 280 16:38 15.01.2023
209 Clouds 14 1020 82 8000 4.63 290 12:51 15.01.2023
210 Clouds 14 1020 82 5000 3.6 290 11:38 15.01.2023
211 Mist 14 1021 88 4000 4.12 260 10:41 15.01.2023
212 Mist 14 1021 88 4000 4.12 260 10:21 15.01.2023
213 Rain 11 1019 100 5000 4.12 350 01:55 15.01.2023
214 Rain 11 1019 100 2500 6.69 310 23:27 14.01.2023
215 Rain 12 1019 100 3100 3.09 340 22:31 14.01.2023
216 Mist 12 1019 100 3200 2.06 360 21:36 14.01.2023
217 Mist 12 1019 100 3200 2.06 360 21:18 14.01.2023
218 Rain 12 1019 100 2000 3.09 10 20:39 14.01.2023
219 Rain 12 1019 100 3200 3.09 30 19:27 14.01.2023
220 Mist 13 1019 94 4200 1.03 0 17:39 14.01.2023
221 Mist 14 1019 72 2800 4.12 60 15:30 14.01.2023
222 Rain 14 1019 77 2600 2.06 40 14:26 14.01.2023
223 Rain 15 1019 67 3900 3.09 100 13:43 14.01.2023
224 Haze 14 1020 67 4500 3.09 90 11:58 14.01.2023
225 Mist 14 1021 67 4900 2.57 80 10:47 14.01.2023
226 Mist 12 1022 94 2500 2.57 100 08:19 14.01.2023
227 Mist 9 1022 100 3000 1.54 10 23:49 13.01.2023
228 Mist 9 1023 100 4000 0.51 150 22:58 13.01.2023
229 Mist 9 1023 100 4000 0.51 150 22:40 13.01.2023
230 Mist 9 1023 100 4000 0 0 21:56 13.01.2023
231 Mist 9 1023 100 5000 1.03 40 19:53 13.01.2023
232 Clouds 11 1022 82 6000 2.06 40 18:54 13.01.2023
233 Clear 12 1022 66 10000 2.06 110 16:57 13.01.2023
234 Clouds 15 1022 51 10000 3.09 130 14:40 13.01.2023
235 Clouds 14 1022 54 10000 3.09 110 12:21 13.01.2023
236 Clouds 13 1023 62 6000 2.57 160 10:32 13.01.2023
237 Clear 11 1024 71 10000 1.03 0 09:54 13.01.2023
238 Clear 11 1024 71 10000 1.03 0 09:34 13.01.2023
239 Clouds 9 1024 81 7000 1.54 350 08:47 13.01.2023
240 Fog 6 1024 100 900 1.54 270 06:55 13.01.2023
241 Mist 4 1023 100 1400 1.03 40 05:44 13.01.2023
242 Mist 6 1022 100 3000 0 0 00:46 13.01.2023
243 Mist 8 1022 100 5000 1.54 250 22:45 12.01.2023
244 Clear 8 1022 100 6000 1.54 210 20:57 12.01.2023
245 Clear 8 1022 100 6000 1.54 210 20:30 12.01.2023
246 Clear 12 1022 71 10000 1.03 0 17:59 12.01.2023
247 Clear 13 1022 71 10000 1.54 310 16:48 12.01.2023
248 Clear 16 1022 48 10000 1.54 190 14:54 12.01.2023
249 Clear 16 1022 48 10000 1.54 190 14:25 12.01.2023
250 Clear 16 1022 51 10000 1.03 0 13:33 12.01.2023
251 Clear 14 1023 62 10000 2.06 260 11:44 12.01.2023
252 Clear 12 1023 62 10000 2.57 220 10:24 12.01.2023
253 Mist 4 1024 100 5000 1.54 320 06:45 12.01.2023
254 Clear 6 1025 81 10000 3.6 300 00:31 12.01.2023
255 Clear 7 1025 87 10000 2.57 270 23:48 11.01.2023
256 Clear 7 1025 87 10000 2.57 270 23:30 11.01.2023
257 Clear 7 1025 87 10000 2.57 270 23:30 11.01.2023
258 Clear 7 1025 87 10000 2.06 280 22:55 11.01.2023
259 Clear 8 1025 81 10000 3.09 290 21:20 11.01.2023
260 Clear 10 1025 81 10000 3.09 270 18:51 11.01.2023
261 Clear 10 1025 81 10000 3.09 270 18:51 11.01.2023
262 Clear 10 1025 81 10000 3.09 260 17:31 11.01.2023
263 Clear 13 1025 62 10000 5.14 290 15:38 11.01.2023
264 Clear 14 1024 54 10000 5.14 300 13:56 11.01.2023
265 Clear 14 1024 51 10000 5.14 300 12:27 11.01.2023
266 Clear 15 1024 31 10000 5.26 328 11:20 11.01.2023
267 Clear 8 1027 81 10000 4.63 290 08:50 11.01.2023
268 Clear 7 1027 93 7000 3.6 300 07:29 11.01.2023
269 Mist 5 1026 100 5000 2.57 260 06:23 11.01.2023
270 Clear 7 1024 100 10000 3.09 280 23:44 10.01.2023
271 Clear 7 1024 100 8000 3.09 270 22:18 10.01.2023
272 Clear 8 1024 100 9000 3.09 280 21:20 10.01.2023
273 Clear 9 1024 93 10000 5.66 290 19:54 10.01.2023
274 Clear 9 1024 93 10000 5.66 290 19:21 10.01.2023
275 Clear 9 1024 100 10000 5.14 270 18:31 10.01.2023
276 Clear 10 1023 93 10000 4.63 270 17:26 10.01.2023
277 Clouds 11 1022 82 9000 6.69 290 15:33 10.01.2023
278 Clouds 12 1022 71 10000 8.23 290 14:47 10.01.2023
279 Clouds 12 1022 76 10000 9.26 280 13:25 10.01.2023
280 Clear 12 1022 76 10000 9.26 290 10:36 10.01.2023
281 Haze 10 1022 87 4000 9.77 300 08:39 10.01.2023
282 Haze 8 1022 100 3000 9.26 290 07:57 10.01.2023
283 Haze 8 1022 100 3000 9.26 290 07:24 10.01.2023
284 Rain 11 1020 100 6000 2.57 320 00:47 10.01.2023
285 Rain 11 1020 100 6000 2.06 340 22:41 09.01.2023
286 Rain 12 1020 100 6000 1.54 330 20:55 09.01.2023
287 Rain 12 1020 100 6000 1.54 330 20:25 09.01.2023
288 Mist 12 1020 100 6000 1.03 320 18:40 09.01.2023
289 Mist 12 1020 100 5000 3.09 160 17:50 09.01.2023
290 Mist 13 1019 94 5000 1.54 120 16:34 09.01.2023
291 Mist 13 1019 88 4000 2.06 130 15:43 09.01.2023
292 Mist 13 1019 88 4000 2.06 130 15:22 09.01.2023
293 Haze 14 1019 77 3500 1.54 80 14:42 09.01.2023
294 Mist 14 1019 82 2500 3.09 40 12:54 09.01.2023
295 Mist 13 1020 88 1100 3.09 40 11:59 09.01.2023
296 Mist 13 1020 88 1100 3.09 40 11:19 09.01.2023
297 Fog 11 1021 100 700 2.57 20 07:20 09.01.2023
298 Mist 9 1021 100 1200 1.03 340 04:46 09.01.2023
299 Mist 10 1021 100 3500 0.51 290 02:52 09.01.2023
300 Rain 11 1022 100 5000 2.06 290 22:29 08.01.2023
301 Rain 11 1022 100 5000 1.03 0 21:22 08.01.2023
302 Rain 11 1022 100 7000 1.54 210 20:53 08.01.2023
303 Clouds 11 1022 93 8000 0 0 18:52 08.01.2023
304 Clear 11 1022 82 10000 2.06 240 17:37 08.01.2023
305 Clear 11 1022 82 10000 2.06 240 17:18 08.01.2023
306 Clear 13 1021 67 10000 1.03 230 15:36 08.01.2023
307 Clear 13 1021 67 10000 1.54 320 14:18 08.01.2023
308 Clouds 13 1021 67 10000 2.57 260 13:32 08.01.2023
309 Clouds 13 1021 71 10000 4.12 240 12:57 08.01.2023
310 Clouds 12 1022 87 9000 1.03 0 10:52 08.01.2023
311 Clouds 12 1022 87 10000 0.51 0 09:37 08.01.2023
312 Clouds 10 1023 93 10000 1.54 260 07:50 08.01.2023
313 Mist 11 1021 100 2900 1.54 140 00:30 08.01.2023
314 Mist 12 1021 100 3600 1.54 140 22:49 07.01.2023
315 Mist 12 1021 100 3600 1.54 140 22:24 07.01.2023
316 Rain 12 1021 100 3700 3.09 140 21:49 07.01.2023
317 Drizzle 12 1021 100 4000 3.6 150 20:54 07.01.2023
318 Drizzle 12 1021 100 4000 3.6 150 20:24 07.01.2023
319 Mist 12 1021 100 4300 4.12 110 18:52 07.01.2023
320 Mist 12 1021 100 4300 4.12 110 18:52 07.01.2023
321 Mist 13 1021 94 4200 3.09 90 17:59 07.01.2023
322 Mist 13 1021 94 4200 3.09 90 17:36 07.01.2023
323 Rain 12 1020 100 4400 3.09 70 16:38 07.01.2023
324 Mist 13 1020 94 2600 1.54 110 15:50 07.01.2023
325 Mist 13 1020 94 2600 1.54 110 15:30 07.01.2023
326 Mist 13 1021 100 2700 1.03 360 14:32 07.01.2023
327 Rain 12 1020 100 2200 3.6 90 13:54 07.01.2023
328 Rain 12 1020 100 2200 3.6 90 13:35 07.01.2023
329 Haze 13 1021 88 4500 4.12 140 12:23 07.01.2023
330 Mist 12 1021 100 2000 3.6 140 11:52 07.01.2023
331 Mist 10 1022 100 1200 4.12 150 10:26 07.01.2023
332 Clouds 14 1023 57 10000 3.29 158 08:46 07.01.2023
333 Fog 5 1024 100 200 1.54 180 07:47 07.01.2023
334 Fog 5 1024 100 200 1.54 180 07:20 07.01.2023
335 Fog 6 1023 100 250 1.03 0 04:51 07.01.2023
336 Mist 8 1023 100 2500 1.03 200 22:57 06.01.2023
337 Mist 8 1023 100 2500 1.03 200 22:20 06.01.2023
338 Mist 9 1024 100 3200 0.51 0 21:44 06.01.2023
339 Mist 10 1024 100 4000 0 0 19:59 06.01.2023
340 Mist 10 1024 100 4000 0 0 19:41 06.01.2023
341 Mist 10 1024 100 4000 0 0 19:23 06.01.2023
342 Mist 11 1024 100 3800 1.03 0 18:50 06.01.2023
343 Mist 11 1023 100 3800 1.54 120 17:41 06.01.2023
344 Dust 12 1023 94 4300 2.06 140 16:51 06.01.2023
345 Dust 12 1023 94 4300 2.06 140 16:20 06.01.2023
346 Dust 13 1023 88 2300 2.06 120 15:50 06.01.2023
347 Haze 13 1023 76 3500 1.54 90 14:55 06.01.2023
348 Haze 14 1023 72 3500 0.51 0 12:55 06.01.2023
349 Mist 12 1024 94 3000 1.54 80 10:59 06.01.2023
350 Mist 12 1025 94 2300 1.54 110 09:32 06.01.2023
351 Mist 11 1025 100 2400 1.54 100 08:30 06.01.2023
352 Mist 9 1022 100 5000 1.54 60 03:40 06.01.2023
353 Drizzle 10 1022 100 2500 1.54 90 22:56 05.01.2023
354 Drizzle 10 1022 100 2500 1.54 150 21:55 05.01.2023
355 Mist 10 1021 100 2500 2.06 110 19:49 05.01.2023
356 Mist 10 1020 100 2500 1.54 90 17:28 05.01.2023
357 Mist 10 1019 100 3800 1.54 70 16:30 05.01.2023
358 Mist 10 1019 100 2300 1.03 30 15:48 05.01.2023
359 Mist 10 1018 100 1300 0.51 20 14:53 05.01.2023
360 Mist 10 1017 100 1500 1.54 50 13:19 05.01.2023
361 Mist 10 1017 100 1200 1.54 50 12:33 05.01.2023
362 Drizzle 10 1017 100 800 2.06 10 09:55 05.01.2023
363 Drizzle 10 1017 100 1000 2.06 10 09:32 05.01.2023
364 Drizzle 9 1015 100 1000 3.09 100 07:21 05.01.2023
365 Drizzle 9 1014 100 800 5.14 100 06:36 05.01.2023
366 Clouds 11 1013 81 10000 5.77 165 00:25 05.01.2023
367 Mist 10 1011 100 1800 8.75 160 21:33 04.01.2023
368 Mist 11 1010 100 4500 8.75 140 20:58 04.01.2023
369 Mist 12 1010 100 5000 8.23 120 19:57 04.01.2023
370 Mist 12 1010 100 5000 8.23 120 19:34 04.01.2023
371 Mist 12 1010 100 4000 7.72 110 18:59 04.01.2023
372 Mist 11 1011 100 2000 7.72 110 16:32 04.01.2023
373 Mist 10 1011 100 2000 7.72 100 15:56 04.01.2023
374 Mist 10 1012 100 2300 6.69 90 14:47 04.01.2023
375 Rain 9 1015 100 2000 7.2 90 11:45 04.01.2023
376 Rain 9 1015 100 2000 7.2 90 11:22 04.01.2023
377 Mist 9 1016 100 1500 8.23 90 10:43 04.01.2023
378 Rain 9 1016 100 1500 8.23 90 10:23 04.01.2023
379 Rain 11 1018 76 3000 3.6 110 08:58 04.01.2023
380 Rain 11 1019 66 2600 2.57 70 05:37 04.01.2023
381 Clouds 8 1022 93 8000 0 0 00:39 04.01.2023
382 Clouds 8 1023 87 9000 1.03 0 23:36 03.01.2023
383 Clouds 10 1024 76 9000 2.06 270 22:55 03.01.2023
384 Clear 9 1024 71 10000 0.51 0 21:21 03.01.2023
385 Clouds 10 1025 71 9000 2.06 330 19:51 03.01.2023
386 Clear 12 1026 62 10000 2.06 280 17:57 03.01.2023
387 Clear 13 1026 58 10000 1.03 0 16:39 03.01.2023
388 Clear 17 1026 39 10000 2.06 310 13:59 03.01.2023
389 Clear 17 1026 39 10000 2.06 310 13:31 03.01.2023
390 Clear 17 1026 39 10000 2.06 310 13:31 03.01.2023
391 Clear 17 1026 39 10000 2.57 310 12:58 03.01.2023
392 Clear 17 1026 39 10000 2.57 310 12:58 03.01.2023
393 Clear 17 1026 39 10000 2.57 310 12:31 03.01.2023
394 Clear 16 1027 41 10000 3.09 280 11:41 03.01.2023
395 Clear 5 1029 81 7000 2.06 310 07:55 03.01.2023
396 Clear 2 1028 100 10000 1.03 290 04:23 03.01.2023
397 Clear 3 1027 93 10000 2.06 320 03:45 03.01.2023
398 Clear 3 1027 93 10000 2.06 320 03:20 03.01.2023
399 Clear 7 1028 100 7000 1.03 330 22:44 02.01.2023
400 Clear 7 1028 100 7000 1.03 330 22:24 02.01.2023
401 Clear 9 1028 87 9000 2.06 250 20:46 02.01.2023
402 Clear 9 1028 87 9000 2.06 250 20:26 02.01.2023
403 Clear 10 1028 76 10000 1.03 270 18:26 02.01.2023
404 Clear 15 1027 51 10000 3.09 310 15:43 02.01.2023
405 Clear 18 1026 36 10000 3.6 310 13:39 02.01.2023
406 Clear 17 1026 42 10000 3.6 300 12:18 02.01.2023
407 Clear 14 1028 51 10000 3.6 310 10:53 02.01.2023
408 Clear 9 1029 61 8000 4.63 310 07:39 02.01.2023
409 Clear 5 1027 81 10000 2.57 280 03:32 02.01.2023
410 Clear 8 1028 76 10000 1.54 290 22:43 01.01.2023
411 Clear 8 1028 87 10000 2.57 310 21:43 01.01.2023
412 Clouds 8 1029 93 9000 2.57 320 20:48 01.01.2023
413 Clouds 8 1029 93 9000 2.57 320 20:18 01.01.2023
414 Clear 9 1029 87 10000 2.57 290 18:39 01.01.2023
415 Clear 11 1029 82 10000 2.57 300 17:23 01.01.2023
416 Clear 13 1029 71 10000 3.09 280 16:34 01.01.2023
417 Clear 14 1029 72 10000 3.09 270 15:27 01.01.2023
418 Clear 15 1028 63 10000 4.12 300 13:42 01.01.2023
419 Clear 15 1029 58 10000 5.14 310 12:41 01.01.2023
420 Haze 14 1029 62 8000 5.14 300 11:39 01.01.2023
421 Clear 13 1030 71 6000 3.6 300 10:47 01.01.2023
422 Haze 11 1031 82 7000 3.09 270 09:23 01.01.2023
423 Mist 9 1031 93 6000 3.09 290 08:24 01.01.2023
424 Mist 6 1031 100 3000 2.57 310 07:29 01.01.2023
425 Fog 4 1030 100 500 2.06 260 05:58 01.01.2023
426 Mist 8 1029 100 4000 2.57 310 23:44 31.12.2022
427 Mist 8 1029 100 5000 2.57 320 22:59 31.12.2022
428 Mist 9 1029 100 4000 4.12 300 21:45 31.12.2022
429 Mist 9 1029 100 4000 4.12 300 21:22 31.12.2022
430 Mist 8 1029 100 4000 1.54 270 20:20 31.12.2022
431 Mist 9 1028 100 5000 2.57 220 18:45 31.12.2022
432 Mist 9 1028 100 5000 2.57 220 18:20 31.12.2022
433 Clouds 10 1028 100 6000 2.57 230 17:55 31.12.2022
434 Clear 10 1028 100 6000 2.57 230 17:22 31.12.2022
435 Clear 12 1028 87 8000 2.57 250 16:31 31.12.2022
436 Clouds 13 1027 88 9000 3.09 240 15:28 31.12.2022
437 Haze 14 1027 77 9000 4.12 280 13:53 31.12.2022
438 Haze 14 1027 77 9000 4.12 280 13:24 31.12.2022
439 Mist 13 1027 82 8000 4.63 260 12:21 31.12.2022
440 Mist 11 1028 93 7000 4.63 270 11:51 31.12.2022
441 Clouds 10 1029 93 4000 5.66 270 10:55 31.12.2022
442 Mist 10 1029 100 5000 5.14 280 09:56 31.12.2022
443 Mist 10 1029 100 5000 5.14 280 09:36 31.12.2022
444 Mist 10 1030 100 4000 6.69 290 08:22 31.12.2022
445 Fog 8 1029 100 200 2.06 280 00:59 31.12.2022
446 Fog 8 1029 100 300 2.06 290 00:27 31.12.2022
447 Mist 9 1029 100 4600 2.57 290 22:55 30.12.2022
448 Mist 9 1029 100 4600 2.57 290 22:18 30.12.2022
449 Mist 10 1029 100 5000 3.09 300 21:37 30.12.2022
450 Clear 10 1029 100 7000 2.06 270 20:55 30.12.2022
451 Clear 12 1029 87 9000 2.57 280 18:28 30.12.2022
452 Clear 12 1029 82 10000 2.06 280 17:34 30.12.2022
453 Clear 12 1029 82 10000 2.06 310 16:41 30.12.2022
454 Clouds 15 1028 67 10000 4.63 310 14:55 30.12.2022
455 Clouds 15 1028 72 10000 4.12 310 12:54 30.12.2022
456 Clear 12 1030 87 5000 2.06 320 08:23 30.12.2022
457 Mist 7 1028 100 4200 2.06 300 03:50 30.12.2022
458 Mist 8 1028 100 1500 2.06 300 02:26 30.12.2022
459 Mist 9 1028 100 5000 2.06 320 23:45 29.12.2022
460 Clear 9 1028 100 9000 1.54 280 21:55 29.12.2022
461 Clear 10 1028 100 9000 1.03 280 20:54 29.12.2022
462 Clear 10 1028 100 9000 1.03 280 20:34 29.12.2022
463 Clear 12 1028 82 10000 1.03 300 18:38 29.12.2022
464 Clear 13 1028 71 10000 1.03 0 17:53 29.12.2022
465 Clear 13 1028 71 10000 1.03 0 17:25 29.12.2022
466 Clear 14 1028 67 10000 1.03 0 16:54 29.12.2022
467 Clear 15 1027 67 10000 2.06 320 15:49 29.12.2022
468 Clouds 16 1027 55 10000 1.54 250 13:37 29.12.2022
469 Clouds 15 1027 67 10000 2.06 240 11:51 29.12.2022
470 Mist 14 1029 77 3500 1.03 0 09:36 29.12.2022
471 Mist 7 1027 100 1500 0.51 0 03:34 29.12.2022
472 Clear 8 1026 100 8000 1.54 280 23:28 28.12.2022
473 Clear 10 1026 100 8000 1.54 220 21:57 28.12.2022
474 Clear 10 1026 100 8000 1.54 220 21:19 28.12.2022
475 Clear 11 1026 100 10000 2.06 260 19:54 28.12.2022
476 Clear 12 1026 87 10000 1.54 270 18:25 28.12.2022
477 Clear 13 1025 76 10000 3.09 300 16:20 28.12.2022
478 Clouds 16 1024 63 10000 6.17 300 13:55 28.12.2022
479 Clouds 16 1024 63 10000 6.17 300 12:48 28.12.2022
480 Clear 15 1024 72 5000 5.14 290 11:33 28.12.2022
481 Mist 13 1025 76 4000 4.63 290 09:30 28.12.2022
482 Mist 10 1025 93 3000 4.63 300 07:31 28.12.2022
483 Mist 9 1024 93 5000 4.63 310 06:44 28.12.2022
484 Mist 10 1023 100 4000 3.6 270 00:56 28.12.2022
485 Clouds 11 1022 87 8000 2.57 290 21:29 27.12.2022
486 Mist 11 1022 100 5000 1.54 280 19:50 27.12.2022
487 Mist 12 1022 100 5000 3.09 290 18:21 27.12.2022
488 Mist 13 1021 94 5000 3.09 290 16:59 27.12.2022
489 Mist 14 1020 94 3500 2.57 320 15:53 27.12.2022
490 Haze 15 1020 82 4000 3.6 310 14:20 27.12.2022
491 Mist 15 1019 88 900 1.03 0 12:23 27.12.2022
492 Fog 13 1020 94 900 0 0 09:47 27.12.2022
493 Fog 13 1020 94 900 0 0 09:24 27.12.2022
494 Fog 11 1020 100 800 0 0 08:47 27.12.2022
495 Mist 10 1019 93 3400 2.06 70 04:54 27.12.2022
496 Mist 11 1019 100 2700 3.09 110 23:29 26.12.2022
497 Mist 12 1019 100 1900 3.6 100 21:41 26.12.2022
498 Mist 12 1019 100 2000 3.6 100 20:43 26.12.2022
499 Mist 12 1019 100 2200 2.57 90 19:37 26.12.2022
500 Mist 13 1019 100 2700 3.09 90 18:41 26.12.2022
501 Mist 14 1019 100 4200 2.57 100 16:51 26.12.2022
502 Mist 15 1018 94 2600 3.09 90 15:25 26.12.2022
503 Clouds 16 1018 77 4100 2.06 140 12:55 26.12.2022
504 Mist 12 1020 100 1000 1.54 100 09:44 26.12.2022
505 Fog 10 1019 100 700 2.06 140 05:41 26.12.2022
506 Fog 11 1018 100 1100 2.06 120 23:39 25.12.2022
507 Fog 11 1018 100 1300 3.09 120 22:48 25.12.2022
508 Fog 12 1019 100 750 3.09 120 21:50 25.12.2022
509 Mist 13 1019 100 2500 2.06 100 19:38 25.12.2022
510 Mist 13 1019 100 3200 2.57 90 17:52 25.12.2022
511 Mist 13 1019 100 3200 2.57 90 17:34 25.12.2022
512 Clear 14 1019 94 6000 2.57 100 16:38 25.12.2022
513 Haze 17 1018 67 4000 2.57 130 13:28 25.12.2022
514 Haze 16 1018 72 3500 3.09 110 11:35 25.12.2022
515 Fog 6 1018 100 200 1.03 120 03:20 25.12.2022
516 Mist 9 1017 100 2500 2.06 150 22:39 24.12.2022
517 Clear 11 1016 100 6000 2.06 170 19:52 24.12.2022
518 Clouds 13 1014 100 8000 1.54 280 16:59 24.12.2022
519 Clouds 14 1014 100 7000 2.06 310 15:28 24.12.2022
520 Clouds 14 1013 94 7000 1.54 320 14:22 24.12.2022
521 Mist 13 1011 94 4000 4.63 310 11:54 24.12.2022
522 Drizzle 12 1011 100 2000 7.2 300 10:23 24.12.2022
523 Rain 13 1011 94 6000 5.14 310 09:37 24.12.2022
524 Rain 12 1010 100 2000 4.12 300 08:36 24.12.2022
525 Rain 13 1003 100 8000 3.09 60 02:51 24.12.2022
526 Rain 12 1006 87 5531 11.41 27 00:29 24.12.2022
527 Rain 13 1002 100 5000 6.69 50 22:30 23.12.2022
528 Thunderstorm 13 1004 100 3000 10.29 70 21:33 23.12.2022
529 Thunderstorm 14 1006 100 3000 12.86 70 19:40 23.12.2022
530 Rain 14 1006 100 3000 12.86 70 19:22 23.12.2022
531 Thunderstorm 14 1006 100 5000 11.83 70 18:53 23.12.2022
532 Thunderstorm 14 1007 100 3000 7.2 60 18:21 23.12.2022
533 Rain 14 1008 100 3000 4.63 30 17:43 23.12.2022
534 Rain 15 1009 88 5000 2.57 330 15:45 23.12.2022
535 Haze 16 1011 77 5000 4.12 140 12:53 23.12.2022
536 Haze 15 1014 77 4000 3.09 120 09:53 23.12.2022
537 Haze 15 1014 77 4000 3.09 120 09:34 23.12.2022
538 Clouds 14 1014 72 7000 3.09 40 07:29 23.12.2022
539 Mist 9 1014 100 2800 2.06 340 06:49 23.12.2022
540 Clouds 13 1016 88 10000 2.06 10 23:42 22.12.2022
541 Clouds 13 1016 88 10000 2.06 10 23:19 22.12.2022
542 Clouds 14 1016 77 10000 2.57 30 21:55 22.12.2022
543 Clouds 15 1017 67 10000 3.09 30 19:48 22.12.2022
544 Clouds 15 1017 67 10000 3.09 30 19:19 22.12.2022
545 Clouds 16 1016 52 10000 4.48 66 17:59 22.12.2022
546 Clouds 16 1016 67 10000 4.63 50 16:52 22.12.2022
547 Clouds 16 1015 72 10000 5.14 50 15:47 22.12.2022
548 Clouds 16 1015 72 10000 5.14 50 15:29 22.12.2022
549 Rain 16 1015 72 10000 4.12 50 14:27 22.12.2022
550 Rain 17 1015 67 10000 4.63 80 13:20 22.12.2022
551 Rain 17 1015 67 10000 5.14 70 11:42 22.12.2022
552 Rain 19 1015 48 10000 5.39 108 10:31 22.12.2022
553 Clouds 16 1017 67 10000 3.6 80 09:24 22.12.2022
554 Clouds 15 1017 72 10000 5.14 90 08:53 22.12.2022
555 Rain 14 1017 82 10000 4.12 100 07:52 22.12.2022
556 Rain 14 1016 77 10000 4.63 120 04:19 22.12.2022
557 Clouds 14 1015 82 10000 5.14 110 00:46 22.12.2022
558 Rain 14 1016 82 10000 7.2 100 22:40 21.12.2022
559 Rain 14 1016 88 8000 6.17 100 21:49 21.12.2022
560 Rain 14 1016 82 5000 6.17 100 21:19 21.12.2022
561 Clouds 15 1016 72 10000 5.14 80 20:34 21.12.2022
562 Clouds 16 1016 49 10000 3.66 109 19:47 21.12.2022
563 Clouds 17 1016 45 10000 2.69 126 19:29 21.12.2022
564 Rain 15 1016 67 9000 4.12 30 18:54 21.12.2022
565 Rain 15 1016 67 9000 4.12 30 18:35 21.12.2022
566 Rain 15 1016 67 10000 3.09 90 16:19 21.12.2022
567 Clouds 18 1015 48 10000 4.12 80 14:20 21.12.2022
568 Clouds 20 1015 37 10000 4.63 110 12:18 21.12.2022
569 Clouds 19 1016 39 10000 3.09 100 11:21 21.12.2022
570 Clouds 19 1017 37 8000 4.63 110 10:30 21.12.2022
571 Haze 16 1019 48 5000 3.6 100 08:49 21.12.2022
572 Mist 8 1018 87 2000 1.54 110 06:30 21.12.2022
573 Mist 8 1018 87 2000 1.54 110 06:30 21.12.2022
574 Clear 8 1017 81 8000 1.03 60 00:27 21.12.2022
575 Clear 10 1018 66 10000 1.54 110 21:47 20.12.2022
576 Clear 10 1018 66 10000 1.54 110 21:47 20.12.2022
577 Clear 11 1018 66 10000 1.03 0 20:58 20.12.2022
578 Clear 12 1017 62 10000 1.03 150 19:59 20.12.2022
579 Clear 14 1017 54 10000 1.03 120 18:48 20.12.2022
580 Clear 14 1017 54 10000 1.03 120 18:23 20.12.2022
581 Clear 14 1017 54 10000 1.54 150 17:50 20.12.2022
582 Clear 14 1017 54 10000 1.54 150 17:25 20.12.2022
583 Clear 17 1017 48 10000 0.51 0 16:19 20.12.2022
584 Clear 20 1017 37 10000 3.09 200 14:56 20.12.2022
585 Clear 20 1017 37 10000 3.09 200 14:36 20.12.2022
586 Clear 21 1016 32 10000 3.6 150 13:30 20.12.2022
587 Clear 21 1017 37 10000 2.57 150 12:37 20.12.2022
588 Clear 20 1017 40 10000 0.51 0 11:55 20.12.2022
589 Clear 19 1019 45 10000 1.54 0 10:29 20.12.2022
590 Clear 10 1020 71 6000 1.03 0 07:28 20.12.2022
591 Clear 8 1019 87 8000 1.03 0 00:20 20.12.2022
592 Clear 10 1019 76 8000 1.54 290 22:29 19.12.2022
593 Clear 10 1019 76 10000 1.03 270 21:24 19.12.2022
594 Clear 12 1019 66 10000 1.03 0 19:41 19.12.2022
595 Clear 17 1019 40 10000 2.54 297 18:59 19.12.2022
596 Clear 14 1019 58 10000 1.03 280 17:58 19.12.2022
597 Clear 16 1019 55 10000 1.54 320 16:20 19.12.2022
598 Clear 22 1019 35 10000 2.57 250 13:22 19.12.2022
599 Clear 21 1019 40 10000 2.06 260 11:46 19.12.2022
600 Clear 13 1021 62 10000 2.57 300 08:23 19.12.2022
601 Clear 11 1021 66 8000 3.6 310 07:22 19.12.2022
602 Clear 10 1021 76 10000 2.06 260 00:54 19.12.2022
603 Clear 11 1021 71 10000 2.06 320 21:50 18.12.2022
604 Clear 11 1021 71 10000 2.06 320 21:31 18.12.2022
605 Clear 11 1021 71 10000 2.57 300 20:56 18.12.2022
606 Clear 14 1021 62 10000 2.06 280 19:44 18.12.2022
607 Clear 14 1021 62 10000 2.06 280 19:23 18.12.2022
608 Clear 15 1021 58 10000 0.51 0 17:52 18.12.2022
609 Clear 17 1021 51 10000 2.06 300 16:18 18.12.2022
610 Clear 18 1020 52 10000 2.06 300 15:37 18.12.2022
611 Clear 18 1020 52 10000 2.06 300 15:18 18.12.2022
612 Clear 21 1020 43 10000 3.6 300 13:29 18.12.2022
613 Clear 21 1020 43 10000 3.6 300 12:51 18.12.2022
614 Clear 20 1021 42 10000 3.09 300 11:51 18.12.2022
615 Clear 18 1022 52 10000 3.09 290 10:18 18.12.2022
616 Clear 14 1023 62 10000 2.57 300 08:46 18.12.2022
617 Clear 11 1022 76 7000 4.12 310 07:20 18.12.2022
618 Mist 10 1022 87 3500 2.57 300 06:19 18.12.2022
619 Clear 11 1021 100 7000 4.12 280 01:57 18.12.2022
620 Clear 12 1021 100 7000 3.6 280 23:39 17.12.2022
621 Clear 13 1021 94 8000 4.12 280 21:33 17.12.2022
622 Clear 14 1021 82 9000 3.09 270 18:50 17.12.2022
623 Clear 17 1020 67 9000 5.14 290 15:51 17.12.2022
624 Clear 18 1020 63 6000 5.66 290 13:33 17.12.2022
625 Haze 16 1020 72 4000 6.69 290 11:23 17.12.2022
626 Dust 15 1021 82 3600 5.14 280 10:44 17.12.2022
627 Mist 15 1022 88 3000 5.66 290 09:40 17.12.2022
628 Mist 12 1022 100 4100 6.17 290 07:24 17.12.2022
629 Mist 11 1022 100 2300 4.12 290 06:45 17.12.2022
630 Mist 11 1022 100 2300 4.12 290 06:45 17.12.2022
631 Clear 13 1021 88 8000 4.12 290 23:32 16.12.2022
632 Clear 14 1021 82 9000 3.6 280 20:34 16.12.2022
633 Clear 16 1021 72 10000 4.63 280 18:46 16.12.2022
634 Clouds 18 1020 63 7000 5.14 290 15:37 16.12.2022
635 Clear 20 1020 60 9000 6.17 290 14:47 16.12.2022
636 Clear 21 1020 56 8000 5.14 290 13:40 16.12.2022
637 Clear 20 1020 60 7000 4.63 300 11:58 16.12.2022
638 Clear 17 1022 67 8000 5.14 300 09:53 16.12.2022
639 Clear 17 1022 67 8000 5.14 300 09:24 16.12.2022
640 Mist 14 1022 88 4000 4.12 290 07:55 16.12.2022
641 Mist 14 1022 88 4000 4.12 290 07:31 16.12.2022
642 Clouds 13 1020 94 8000 0.51 0 23:30 15.12.2022
643 Clouds 15 1020 82 8000 1.03 140 22:20 15.12.2022
644 Clear 16 1020 77 10000 0.51 0 20:33 15.12.2022
645 Clear 17 1020 67 10000 1.03 310 19:36 15.12.2022
646 Clouds 18 1020 63 10000 0.51 250 18:20 15.12.2022
647 Clear 20 1020 60 10000 1.03 0 17:24 15.12.2022
648 Rain 21 1018 52 10000 0 0 15:35 15.12.2022
649 Clouds 23 1018 46 10000 2.06 100 13:30 15.12.2022
650 Clear 22 1018 53 10000 2.06 70 12:33 15.12.2022
651 Clear 20 1020 56 10000 4.12 110 09:36 15.12.2022
652 Clouds 19 1020 59 8000 3.6 90 08:53 15.12.2022
653 Haze 15 1019 67 4500 1.03 350 06:19 15.12.2022
654 Rain 13 1018 67 10000 2.06 350 04:40 15.12.2022
655 Clear 18 1018 48 10000 4.63 90 21:25 14.12.2022
656 Clear 18 1018 52 10000 3.6 100 20:59 14.12.2022
657 Clear 18 1018 52 10000 3.6 100 20:29 14.12.2022
658 Clear 19 1018 52 10000 3.6 80 18:26 14.12.2022
659 Clear 20 1018 52 10000 2.57 90 16:57 14.12.2022
660 Clear 20 1017 52 10000 3.09 90 15:40 14.12.2022
661 Clear 22 1017 43 10000 5.66 120 13:53 14.12.2022
662 Clouds 24 1016 31 10000 7.17 128 11:31 14.12.2022
663 Clear 21 1018 46 10000 8.23 120 10:34 14.12.2022
664 Clear 18 1019 48 10000 7.2 110 08:54 14.12.2022
665 Clear 18 1015 48 10000 4.63 120 23:22 13.12.2022
666 Clear 19 1015 45 10000 5.66 120 21:49 13.12.2022
667 Clear 19 1015 45 10000 6.69 120 20:49 13.12.2022
668 Clear 19 1015 45 10000 6.69 120 20:25 13.12.2022
669 Clouds 20 1015 45 10000 5.14 110 17:50 13.12.2022
670 Clouds 20 1014 52 10000 4.63 100 15:58 13.12.2022
671 Clouds 21 1014 46 10000 5.14 110 14:52 13.12.2022
672 Clear 22 1014 43 10000 6.17 120 12:27 13.12.2022
673 Clouds 21 1015 46 8000 7.2 120 10:38 13.12.2022
674 Clouds 19 1016 48 8000 7.2 120 09:44 13.12.2022
675 Clouds 15 1017 63 5000 5.66 110 07:51 13.12.2022
676 Clear 16 1016 59 10000 4.12 100 22:23 12.12.2022
677 Clear 14 1016 62 10000 3.09 100 21:39 12.12.2022
678 Clouds 15 1016 67 6000 0 0 19:32 12.12.2022
679 Clouds 15 1016 72 8000 1.54 10 17:34 12.12.2022
680 Clouds 18 1016 59 7000 0.51 0 15:23 12.12.2022
681 Clouds 19 1017 52 7000 3.09 100 12:43 12.12.2022
682 Haze 17 1019 59 2500 2.57 110 09:20 12.12.2022
683 Mist 8 1019 100 2000 1.03 120 05:44 12.12.2022
684 Mist 8 1019 100 5000 1.03 340 03:53 12.12.2022
685 Clouds 10 1019 81 7000 2.06 310 23:51 11.12.2022
686 Clear 11 1020 87 6000 0.51 10 21:43 11.12.2022
687 Clear 12 1020 82 6000 1.03 310 20:26 11.12.2022
688 Clear 12 1020 76 8000 1.54 250 19:37 11.12.2022
689 Clear 14 1020 72 8000 1.03 0 18:29 11.12.2022
690 Clear 15 1020 63 10000 1.03 0 17:33 11.12.2022
691 Clear 15 1020 63 10000 1.03 0 16:52 11.12.2022
692 Clear 16 1019 59 10000 2.06 340 15:48 11.12.2022
693 Clear 16 1019 59 10000 2.06 340 15:28 11.12.2022
694 Clear 19 1019 48 10000 2.06 250 13:23 11.12.2022
695 Clear 19 1019 52 10000 2.06 310 12:40 11.12.2022
696 Clear 15 1022 63 6000 2.57 270 09:47 11.12.2022
697 Clear 11 1020 87 8000 2.57 270 00:39 11.12.2022
698 Clear 11 1020 87 8000 2.57 270 00:21 11.12.2022
699 Clear 12 1020 82 8000 3.6 270 22:33 10.12.2022
700 Clear 12 1020 82 9000 2.57 270 21:26 10.12.2022
701 Clear 13 1020 76 10000 3.09 280 20:41 10.12.2022
702 Clear 14 1020 77 10000 3.6 270 19:55 10.12.2022
703 Clear 15 1019 72 10000 4.12 280 17:33 10.12.2022
704 Clear 16 1019 63 10000 4.12 290 16:37 10.12.2022
705 Clear 17 1019 55 10000 4.12 290 15:40 10.12.2022
706 Clear 17 1019 55 10000 4.12 290 15:40 10.12.2022
707 Clear 17 1019 55 10000 4.12 290 15:40 10.12.2022
708 Clear 18 1019 55 10000 5.14 290 14:59 10.12.2022
709 Clear 19 1019 55 10000 5.66 290 13:33 10.12.2022
710 Clear 19 1019 45 10000 6.17 300 11:55 10.12.2022
711 Clear 18 1020 55 10000 5.66 310 10:49 10.12.2022
712 Clear 17 1021 59 8000 5.66 300 09:41 10.12.2022
713 Clear 12 1021 87 7000 6.17 290 07:22 10.12.2022
714 Clear 9 1020 100 8000 3.6 270 04:56 10.12.2022
715 Clear 11 1020 100 6000 3.09 280 23:34 09.12.2022
716 Clear 12 1021 100 6000 3.09 280 22:41 09.12.2022
717 Clouds 13 1021 88 6000 4.12 280 21:28 09.12.2022
718 Clouds 13 1021 82 6000 4.12 290 20:58 09.12.2022
719 Clouds 13 1021 82 7000 3.09 270 19:43 09.12.2022
720 Clouds 15 1021 72 9000 5.14 280 17:56 09.12.2022
721 Clear 16 1021 63 10000 4.12 280 16:47 09.12.2022
722 Clear 16 1021 63 10000 4.12 280 16:18 09.12.2022
723 Clear 17 1021 59 10000 5.14 290 15:24 09.12.2022
724 Clear 19 1021 45 10000 7.2 290 12:25 09.12.2022
725 Clouds 17 1022 51 8000 4.63 290 10:48 09.12.2022
726 Clouds 17 1022 51 8000 4.63 290 10:19 09.12.2022
727 Mist 9 1023 100 3000 3.09 320 05:37 09.12.2022
728 Clear 9 1023 93 9000 3.6 310 03:18 09.12.2022
729 Clear 11 1023 87 8000 2.06 300 22:41 08.12.2022
730 Clear 12 1023 82 10000 2.06 330 20:51 08.12.2022
731 Clouds 15 1023 72 10000 2.57 310 18:41 08.12.2022
732 Clouds 17 1023 59 8000 2.06 320 15:45 08.12.2022
733 Clouds 18 1022 55 8000 3.09 300 14:28 08.12.2022
734 Clouds 18 1023 59 6000 3.09 290 11:47 08.12.2022
735 Haze 17 1024 59 4000 2.57 300 10:23 08.12.2022
736 Clouds 16 1024 63 6000 2.06 290 09:28 08.12.2022
737 Mist 10 1024 100 1800 2.06 300 06:47 08.12.2022
738 Mist 12 1022 87 5000 1.03 0 22:19 07.12.2022
739 Mist 11 1022 87 5000 1.03 0 21:51 07.12.2022
740 Mist 11 1022 87 5000 1.03 0 21:31 07.12.2022
741 Mist 12 1021 82 5000 1.54 350 19:47 07.12.2022
742 Clear 15 1021 72 10000 1.54 360 17:41 07.12.2022
743 Clouds 18 1020 55 10000 1.54 350 14:41 07.12.2022
744 Clouds 18 1020 55 10000 1.54 310 12:39 07.12.2022
745 Rain 17 1021 55 5000 0.51 0 10:46 07.12.2022
746 Clouds 16 1022 59 3000 1.03 0 09:56 07.12.2022
747 Rain 15 1022 63 3000 1.03 0 08:51 07.12.2022
748 Haze 10 1021 87 3000 0 0 06:49 07.12.2022
749 Clear 9 1021 93 5000 1.03 260 05:23 07.12.2022
750 Clear 11 1019 87 8000 1.54 310 23:44 06.12.2022
751 Clear 12 1020 87 7000 0 0 21:24 06.12.2022
752 Clear 14 1019 72 10000 1.03 0 18:35 06.12.2022
753 Clear 16 1019 63 10000 0 0 17:18 06.12.2022
754 Clear 16 1019 63 10000 1.03 260 16:21 06.12.2022
755 Clear 18 1018 55 10000 1.54 320 15:35 06.12.2022
756 Clear 19 1018 55 10000 2.57 300 14:34 06.12.2022
757 Clear 20 1018 49 10000 3.09 290 13:39 06.12.2022
758 Clear 21 1017 31 10000 2.83 303 12:40 06.12.2022
759 Haze 17 1019 77 4900 2.06 300 10:39 06.12.2022
760 Fog 11 1020 100 150 1.54 310 07:38 06.12.2022
761 Fog 7 1018 100 10000 1.54 280 02:22 06.12.2022
762 Clear 10 1019 93 6000 1.03 270 22:47 05.12.2022
763 Clear 11 1020 93 6000 0.51 0 21:39 05.12.2022
764 Clear 11 1020 87 6000 1.03 300 20:48 05.12.2022
765 Clear 13 1020 71 7000 1.03 240 19:51 05.12.2022
766 Clear 13 1020 71 7000 1.03 240 19:32 05.12.2022
767 Clear 16 1019 63 10000 1.54 320 16:49 05.12.2022
768 Clear 17 1019 63 8000 2.06 340 15:28 05.12.2022
769 Clear 19 1019 48 6000 2.57 290 13:47 05.12.2022
770 Haze 18 1019 59 5000 2.57 320 12:57 05.12.2022
771 Haze 18 1019 59 5000 2.57 320 12:37 05.12.2022
772 Clear 22 1018 30 10000 3.48 303 11:31 05.12.2022
773 Fog 10 1020 100 700 3.09 290 06:48 05.12.2022
774 Mist 12 1019 100 5000 3.09 300 00:18 05.12.2022
775 Mist 13 1019 100 5000 4.12 300 22:41 04.12.2022
776 Mist 13 1019 100 5000 4.12 300 22:18 04.12.2022
777 Mist 14 1019 94 5000 2.57 290 21:31 04.12.2022
778 Clouds 15 1019 82 6000 3.09 300 19:59 04.12.2022
779 Clouds 15 1019 82 6000 3.09 300 19:23 04.12.2022
780 Clouds 16 1019 77 8000 3.6 280 18:32 04.12.2022
781 Clouds 16 1019 77 6000 4.12 290 17:22 04.12.2022
782 Haze 17 1019 72 5000 4.12 310 16:36 04.12.2022
783 Haze 17 1019 72 5000 4.12 310 16:18 04.12.2022
784 Clouds 20 1017 40 10000 4.06 341 15:26 04.12.2022
785 Haze 19 1018 63 5000 4.12 310 14:18 04.12.2022
786 Haze 18 1019 68 3000 4.12 300 12:51 04.12.2022
787 Haze 18 1019 68 3000 4.12 300 12:33 04.12.2022
788 Haze 17 1019 77 2500 3.6 300 11:34 04.12.2022
789 Fog 11 1021 100 100 2.06 280 07:36 04.12.2022
790 Fog 11 1020 100 100 3.09 320 02:51 04.12.2022
791 Mist 12 1020 100 2000 2.06 310 23:44 03.12.2022
792 Mist 12 1020 100 2500 3.09 320 22:35 03.12.2022
793 Mist 12 1020 100 3500 2.06 300 21:50 03.12.2022
794 Mist 12 1020 100 4000 2.57 310 20:45 03.12.2022
795 Mist 14 1019 100 5000 2.06 320 18:41 03.12.2022
796 Clouds 16 1019 82 7000 1.54 330 17:49 03.12.2022
797 Clouds 19 1018 63 10000 3.6 280 15:52 03.12.2022
798 Clouds 20 1017 56 10000 4.63 250 13:43 03.12.2022
799 Clouds 22 1016 41 10000 4.13 299 12:51 03.12.2022
800 Clouds 22 1016 41 10000 3.69 299 11:57 03.12.2022
801 Clear 18 1019 68 10000 3.09 270 09:28 03.12.2022
802 Clouds 11 1019 100 7000 1.54 240 04:18 03.12.2022
803 Clouds 13 1018 94 8000 2.06 250 00:20 03.12.2022
804 Clouds 14 1019 94 9000 1.54 240 22:19 02.12.2022
805 Clear 13 1019 94 9000 0 0 20:21 02.12.2022
806 Clear 15 1019 77 10000 2.06 310 17:39 02.12.2022
807 Clear 18 1019 59 10000 4.12 310 15:57 02.12.2022
808 Clear 20 1018 56 10000 4.63 290 14:37 02.12.2022
809 Clear 20 1018 56 10000 4.63 290 14:18 02.12.2022
810 Clear 21 1018 52 10000 6.17 280 12:44 02.12.2022
811 Clouds 20 1020 60 10000 5.14 280 10:43 02.12.2022
812 Clear 15 1021 94 6000 2.57 290 07:54 02.12.2022
813 Clear 15 1021 94 6000 2.57 290 07:22 02.12.2022
814 Clear 16 1020 82 10000 3.6 270 22:54 01.12.2022
815 Clear 16 1020 77 10000 2.06 290 21:44 01.12.2022
816 Clear 16 1020 82 10000 3.09 290 20:56 01.12.2022
817 Clear 16 1019 77 10000 2.06 300 19:18 01.12.2022
818 Clear 19 1019 63 10000 3.6 290 17:30 01.12.2022
819 Clear 22 1018 53 10000 3.09 300 14:47 01.12.2022
820 Clear 22 1019 56 10000 3.09 260 11:22 01.12.2022
821 Clear 20 1020 68 8000 2.57 260 09:55 01.12.2022
822 Clear 20 1020 68 8000 2.57 260 09:37 01.12.2022
823 Haze 17 1020 82 5000 1.54 240 07:18 01.12.2022
824 Clear 15 1018 100 10000 1.03 320 23:59 30.11.2022
825 Clear 15 1018 94 10000 1.03 0 22:21 30.11.2022
826 Clear 16 1018 88 10000 1.03 0 21:19 30.11.2022
827 Clear 16 1017 88 10000 1.03 300 20:25 30.11.2022
828 Clear 18 1017 77 10000 2.57 290 19:35 30.11.2022
829 Clear 19 1016 77 10000 2.57 260 18:33 30.11.2022
830 Clear 19 1016 77 10000 1.54 310 17:33 30.11.2022
831 Clouds 22 1015 64 10000 1.54 240 14:46 30.11.2022
832 Clouds 22 1015 64 10000 1.54 240 14:27 30.11.2022
833 Clouds 22 1014 64 10000 2.06 240 12:32 30.11.2022
834 Clouds 20 1016 73 10000 3.09 190 10:24 30.11.2022
835 Rain 19 1016 77 8000 3.6 220 08:38 30.11.2022
836 Rain 18 1016 100 8000 3.6 220 07:25 30.11.2022
837 Clear 20 1013 60 10000 5.66 180 23:33 29.11.2022
838 Clear 20 1012 60 10000 4.12 170 22:25 29.11.2022
839 Clouds 22 1012 53 8000 5.66 120 20:53 29.11.2022
840 Clouds 22 1012 53 8000 5.14 110 20:33 29.11.2022
841 Clear 23 1013 53 10000 5.14 80 18:57 29.11.2022
842 Clouds 23 1014 56 7000 2.57 50 16:58 29.11.2022
843 Clouds 23 1014 56 7000 2.57 50 16:22 29.11.2022
844 Clear 25 1013 44 10000 2.06 30 14:49 29.11.2022
845 Clear 26 1014 36 10000 3.09 60 12:45 29.11.2022
846 Clear 26 1014 36 10000 4.12 60 11:32 29.11.2022
847 Clouds 25 1015 33 10000 4.63 20 10:52 29.11.2022
848 Clouds 23 1017 40 10000 3.6 350 09:37 29.11.2022
849 Clouds 18 1017 63 7000 2.06 20 07:48 29.11.2022
850 Rain 16 1018 82 10000 2.06 230 00:35 29.11.2022
851 Rain 16 1018 82 10000 2.06 230 00:35 29.11.2022
852 Clouds 17 1016 67 10000 3.09 350 23:29 28.11.2022
853 Clear 15 1017 82 10000 1.54 330 22:32 28.11.2022
854 Clear 15 1017 82 10000 2.57 350 21:43 28.11.2022
855 Clear 15 1018 82 10000 2.57 330 20:33 28.11.2022
856 Clear 16 1018 77 10000 3.09 320 19:38 28.11.2022
857 Clouds 19 1017 32 10000 2.54 348 18:29 28.11.2022
858 Clear 18 1018 68 10000 2.57 300 17:44 28.11.2022
859 Clear 19 1017 59 10000 2.06 320 15:22 28.11.2022
860 Clear 20 1017 49 10000 2.57 350 14:24 28.11.2022
861 Clear 21 1017 49 10000 3.09 10 13:46 28.11.2022
862 Clouds 20 1017 56 10000 3.6 330 11:53 28.11.2022
863 Clouds 18 1019 68 9000 3.09 340 09:27 28.11.2022
864 Clouds 13 1018 100 6000 2.57 340 05:49 28.11.2022
865 Clouds 13 1018 94 9000 2.06 310 04:41 28.11.2022
866 Clouds 13 1018 100 9000 2.57 320 03:23 28.11.2022
867 Clear 13 1018 94 10000 3.09 300 00:43 28.11.2022
868 Clear 13 1019 94 10000 2.57 320 22:28 27.11.2022
869 Clear 14 1018 82 10000 2.57 320 21:27 27.11.2022
870 Clear 15 1019 77 10000 2.57 300 19:28 27.11.2022
871 Clear 18 1018 63 10000 2.57 320 16:45 27.11.2022
872 Clear 21 1018 49 10000 4.12 340 14:29 27.11.2022
873 Clear 22 1018 49 10000 3.09 330 12:31 27.11.2022
874 Clear 20 1020 56 10000 2.57 330 10:40 27.11.2022
875 Clouds 17 1021 77 6000 2.57 320 07:55 27.11.2022
876 Clouds 17 1018 72 10000 3.09 350 23:43 26.11.2022
877 Clouds 18 1018 63 10000 1.03 0 21:52 26.11.2022
878 Clouds 19 1018 59 10000 1.54 250 20:36 26.11.2022
879 Clouds 19 1018 59 10000 3.6 180 19:21 26.11.2022
880 Clouds 20 1017 56 10000 3.09 150 16:49 26.11.2022
881 Clouds 21 1017 52 10000 3.09 180 15:38 26.11.2022
882 Clouds 24 1017 43 10000 3.09 200 12:55 26.11.2022
883 Clear 23 1017 49 10000 1.54 170 11:24 26.11.2022
884 Clear 20 1018 64 10000 2.57 200 09:44 26.11.2022
885 Clear 18 1018 68 10000 3.09 190 08:46 26.11.2022
886 Mist 14 1015 100 5000 2.57 150 23:23 25.11.2022
887 Clear 16 1014 100 6000 2.06 170 21:41 25.11.2022
888 Clear 16 1014 100 6000 2.06 170 21:19 25.11.2022
889 Clear 18 1013 82 8000 1.54 200 19:44 25.11.2022
890 Mist 21 1011 73 4000 4.63 200 16:40 25.11.2022
891 Haze 22 1011 73 4000 6.17 130 13:43 25.11.2022
892 Mist 19 1011 82 4000 8.23 110 09:20 25.11.2022
893 Rain 18 1013 100 2000 2.06 70 08:40 25.11.2022
894 Rain 16 1014 100 1700 2.57 260 06:53 25.11.2022
895 Clouds 20 1011 60 10000 5.66 130 02:31 25.11.2022
896 Clouds 21 1011 46 10000 5.66 110 23:47 24.11.2022
897 Rain 21 1012 46 10000 6.69 120 22:42 24.11.2022
898 Clouds 21 1012 46 10000 5.66 130 21:45 24.11.2022
899 Rain 21 1013 49 9000 2.57 130 19:50 24.11.2022
900 Clouds 22 1013 46 9000 1.03 120 17:48 24.11.2022
901 Clouds 22 1013 46 9000 1.03 120 17:24 24.11.2022
902 Clouds 23 1013 43 8000 3.09 80 16:50 24.11.2022
903 Clouds 25 1013 36 10000 2.06 150 14:27 24.11.2022
904 Clouds 26 1013 31 10000 3.09 120 13:29 24.11.2022
905 Clear 25 1014 33 10000 4.12 120 11:46 24.11.2022
906 Clear 25 1014 33 10000 4.12 120 11:45 24.11.2022
907 Clear 25 1014 33 10000 4.12 120 11:45 24.11.2022
908 Smoke 21 1016 46 2600 2.57 210 09:23 24.11.2022
909 Smoke 16 1017 67 1900 0.51 20 06:25 24.11.2022
910 Dust 17 1016 59 4000 1.03 50 00:48 24.11.2022
911 Dust 17 1017 63 4000 1.03 70 23:32 23.11.2022
912 Dust 15 1017 67 4400 0.51 0 21:53 23.11.2022
913 Dust 15 1017 67 4400 0.51 0 21:18 23.11.2022
914 Clear 16 1017 67 6000 1.54 50 19:57 23.11.2022
915 Clear 18 1017 55 7000 1.54 60 18:57 23.11.2022
916 Clear 18 1017 55 7000 1.54 60 18:57 23.11.2022
917 Clear 18 1017 55 7000 1.54 60 18:20 23.11.2022
918 Clear 23 1017 35 9000 0 0 15:55 23.11.2022
919 Clear 26 1017 29 7000 1.03 0 13:25 23.11.2022
920 Clear 26 1017 25 7000 1.03 0 12:48 23.11.2022
921 Clear 25 1018 29 7000 1.54 360 11:53 23.11.2022
922 Clear 24 1019 31 7000 1.03 0 10:59 23.11.2022
923 Clear 24 1019 31 7000 1.03 0 10:40 23.11.2022
924 Haze 24 1019 35 5000 1.03 0 09:41 23.11.2022
925 Haze 24 1019 35 5000 1.03 0 09:22 23.11.2022
926 Haze 21 1020 46 3900 1.03 0 08:36 23.11.2022
927 Haze 12 1019 76 3500 3.09 310 05:21 23.11.2022
928 Clouds 15 1018 67 6000 1.03 330 01:57 23.11.2022
929 Clouds 17 1018 59 7000 1.03 0 22:37 22.11.2022
930 Clouds 18 1018 55 7000 3.6 90 21:52 22.11.2022
931 Clouds 18 1018 55 7000 3.6 90 21:32 22.11.2022
932 Clouds 16 1019 67 8000 1.03 0 20:45 22.11.2022
933 Clear 18 1019 59 10000 1.03 290 19:52 22.11.2022
934 Clear 19 1019 52 10000 0.51 0 17:54 22.11.2022
935 Clear 21 1019 43 10000 0.51 0 16:48 22.11.2022
936 Clear 25 1018 31 10000 1.54 210 14:55 22.11.2022
937 Clear 25 1018 31 10000 1.54 260 13:21 22.11.2022
938 Clear 23 1019 40 10000 2.06 220 10:23 22.11.2022
939 Clouds 17 1021 59 5000 0.51 0 08:59 22.11.2022
940 Clouds 13 1020 82 7000 1.54 260 06:46 22.11.2022
941 Clear 12 1019 76 10000 1.03 320 01:35 22.11.2022
942 Clear 13 1019 71 10000 1.54 280 23:33 21.11.2022
943 Clear 12 1019 76 10000 2.06 270 22:26 21.11.2022
944 Clear 15 1019 63 10000 1.03 0 21:58 21.11.2022
945 Clear 15 1019 63 10000 0 0 20:35 21.11.2022
946 Clear 16 1019 59 10000 1.03 0 19:41 21.11.2022
947 Clear 16 1019 59 10000 1.03 0 18:53 21.11.2022
948 Clear 20 1019 45 10000 2.06 280 17:46 21.11.2022
949 Clear 22 1019 40 10000 2.57 270 16:52 21.11.2022
950 Clear 22 1019 40 10000 2.57 270 16:34 21.11.2022
951 Clear 23 1018 40 10000 2.06 260 15:24 21.11.2022
952 Clear 25 1018 31 10000 4.63 320 13:55 21.11.2022
953 Clear 25 1018 31 10000 4.63 320 13:34 21.11.2022
954 Clear 23 1019 35 10000 4.12 300 10:24 21.11.2022
955 Clear 18 1021 52 10000 3.6 300 08:21 21.11.2022
956 Clear 13 1020 71 10000 4.63 290 05:44 21.11.2022
957 Clear 16 1020 63 10000 3.6 280 22:25 20.11.2022
958 Clear 16 1020 63 10000 3.6 270 21:24 20.11.2022
959 Clear 16 1020 63 10000 3.09 280 20:23 20.11.2022
960 Clear 16 1020 67 10000 3.09 300 18:25 20.11.2022
961 Clear 22 1020 49 10000 5.14 290 15:59 20.11.2022
962 Clear 22 1020 49 10000 5.14 290 15:28 20.11.2022
963 Clear 23 1020 46 10000 7.72 300 14:30 20.11.2022
964 Clear 23 1020 46 10000 8.75 290 13:32 20.11.2022
965 Clear 23 1020 46 10000 8.75 290 13:32 20.11.2022
966 Clear 24 1021 43 10000 9.26 300 12:31 20.11.2022
967 Clear 22 1022 49 10000 8.23 310 10:59 20.11.2022
968 Clear 22 1022 49 10000 8.23 310 10:23 20.11.2022
969 Clear 19 1024 63 8000 7.2 300 08:59 20.11.2022
970 Clear 19 1024 63 8000 7.2 300 08:34 20.11.2022
971 Clear 17 1024 72 6000 5.66 300 07:29 20.11.2022
972 Clear 14 1023 88 9000 4.12 290 02:18 20.11.2022
973 Clear 14 1023 88 10000 3.09 290 01:19 20.11.2022
974 Clear 14 1023 77 10000 3.09 310 00:41 20.11.2022
975 Clear 14 1023 77 10000 3.09 310 00:22 20.11.2022
976 Clear 14 1023 77 10000 3.09 300 23:49 19.11.2022
977 Clear 14 1023 77 10000 3.09 300 23:22 19.11.2022
978 Clear 14 1024 82 10000 3.09 300 22:35 19.11.2022
979 Clear 14 1024 82 10000 3.09 300 21:32 19.11.2022
980 Clear 15 1024 82 10000 3.6 310 20:56 19.11.2022
981 Clear 15 1024 82 10000 3.6 310 20:29 19.11.2022
982 Clear 17 1024 67 10000 3.09 300 18:55 19.11.2022
983 Clear 18 1023 68 10000 4.63 290 17:40 19.11.2022
984 Clear 18 1023 68 10000 4.63 290 17:19 19.11.2022
985 Clear 20 1023 56 10000 5.14 300 15:40 19.11.2022
986 Clear 22 1023 49 10000 7.2 310 14:27 19.11.2022
987 Clear 22 1023 49 8000 7.72 310 11:58 19.11.2022
988 Clear 20 1023 56 8000 6.69 310 10:40 19.11.2022
989 Haze 17 1024 77 4400 5.14 310 08:39 19.11.2022
990 Mist 11 1023 100 2500 3.09 300 04:51 19.11.2022
991 Clear 11 1022 100 7000 2.57 300 01:55 19.11.2022
992 Clear 12 1022 100 6000 3.09 330 23:44 18.11.2022
993 Clear 14 1022 94 6000 2.57 300 22:35 18.11.2022
994 Clear 14 1022 94 6000 2.06 300 21:37 18.11.2022
995 Clear 14 1022 100 6000 1.03 310 20:59 18.11.2022
996 Clear 14 1022 100 6000 1.03 310 20:30 18.11.2022
997 Clear 15 1022 94 6000 3.09 330 19:46 18.11.2022
998 Clear 15 1022 88 6000 2.57 330 18:36 18.11.2022
999 Clear 17 1021 77 7000 3.6 320 16:44 18.11.2022
1000 Clear 20 1020 64 8000 5.66 310 13:57 18.11.2022
1001 Mist 19 1020 72 5000 5.14 320 11:31 18.11.2022
1002 Mist 16 1022 88 2500 2.57 290 08:46 18.11.2022
1003 Mist 14 1022 100 2000 3.09 300 07:51 18.11.2022
1004 Mist 11 1021 100 1500 2.57 270 05:18 18.11.2022
1005 Fog 12 1019 100 100 1.03 260 00:50 18.11.2022
1006 Mist 14 1019 100 4000 1.03 190 21:52 17.11.2022
1007 Mist 14 1018 100 5000 0.51 0 20:46 17.11.2022
1008 Clear 14 1018 100 6000 2.06 320 19:51 17.11.2022
1009 Clear 15 1018 100 6000 4.12 310 18:35 17.11.2022
1010 Rain 16 1017 94 6000 3.09 320 17:32 17.11.2022
1011 Clear 17 1017 88 6000 4.63 290 16:53 17.11.2022
1012 Haze 19 1016 77 3400 4.12 280 14:40 17.11.2022
1013 Clouds 20 1015 61 10000 0.87 352 11:22 17.11.2022
1014 Mist 18 1017 82 5000 1.54 220 08:32 17.11.2022
1015 Mist 15 1015 100 5000 1.03 0 05:30 17.11.2022
1016 Clouds 15 1014 94 7000 2.06 10 00:21 17.11.2022
1017 Clouds 15 1015 94 7000 0.51 0 22:30 16.11.2022
1018 Clouds 16 1015 82 8000 2.57 60 20:54 16.11.2022
1019 Clouds 17 1015 82 8000 2.06 20 19:53 16.11.2022
1020 Clouds 17 1015 77 8000 2.57 30 18:45 16.11.2022
1021 Rain 19 1015 77 6000 1.54 100 17:26 16.11.2022
1022 Dust 19 1015 72 5000 2.06 120 13:59 16.11.2022
1023 Clouds 19 1016 68 10000 5.14 120 09:48 16.11.2022
1024 Clouds 16 1017 63 10000 2.57 190 06:38 16.11.2022
1025 Clear 17 1015 48 8000 0 0 01:26 16.11.2022
1026 Haze 15 1017 72 4100 1.54 350 22:33 15.11.2022
1027 Clear 15 1017 77 6000 2.06 360 20:45 15.11.2022
1028 Clear 17 1018 63 8000 0.51 0 19:34 15.11.2022
1029 Clear 19 1018 48 10000 2.06 40 18:42 15.11.2022
1030 Clear 19 1018 52 10000 1.03 90 17:21 15.11.2022
1031 Clear 21 1018 37 10000 1.03 70 16:19 15.11.2022
1032 Clear 24 1018 31 10000 2.57 30 14:54 15.11.2022
1033 Clear 25 1018 27 10000 2.57 50 13:38 15.11.2022
1034 Clear 25 1018 25 10000 3.09 40 11:43 15.11.2022
1035 Clear 25 1018 25 10000 3.09 40 11:18 15.11.2022
1036 Clear 22 1020 37 5000 2.06 40 08:35 15.11.2022
1037 Clouds 13 1018 94 9000 0.51 340 00:36 15.11.2022
1038 Clear 14 1018 77 10000 1.54 220 23:56 14.11.2022
1039 Clear 15 1018 77 9000 0.51 0 21:32 14.11.2022
1040 Clear 16 1019 72 10000 0.51 220 20:40 14.11.2022
1041 Clear 18 1019 63 10000 1.03 220 18:50 14.11.2022
1042 Clear 23 1018 40 10000 2.06 240 15:54 14.11.2022
1043 Clear 25 1018 33 10000 2.57 270 12:54 14.11.2022
1044 Clear 25 1018 33 10000 1.54 0 11:42 14.11.2022
1045 Clear 22 1020 49 8000 2.06 250 09:29 14.11.2022
1046 Clear 16 1020 63 8000 2.06 310 07:54 14.11.2022
1047 Clear 13 1020 71 10000 2.06 320 06:40 14.11.2022
1048 Clear 14 1018 77 10000 2.57 340 00:18 14.11.2022
1049 Clear 16 1019 77 10000 2.57 330 21:55 13.11.2022
1050 Clear 16 1019 77 10000 2.57 330 21:36 13.11.2022
1051 Clear 19 1020 68 10000 2.57 270 19:44 13.11.2022
1052 Clear 21 1020 60 10000 2.06 270 18:23 13.11.2022
1053 Clear 21 1020 64 10000 3.09 270 17:44 13.11.2022
1054 Clear 25 1019 47 10000 3.6 340 14:58 13.11.2022
1055 Clear 25 1019 47 10000 3.6 340 14:23 13.11.2022
1056 Clear 25 1020 53 10000 5.66 310 12:38 13.11.2022
1057 Clear 24 1020 60 8000 5.14 300 11:20 13.11.2022
1058 Clear 24 1020 60 8000 5.14 300 11:20 13.11.2022
1059 Mist 19 1023 88 3000 4.12 310 08:56 13.11.2022
1060 Mist 15 1022 100 5000 2.57 330 02:24 13.11.2022
1061 Mist 16 1022 100 4500 1.54 320 22:57 12.11.2022
1062 Clear 18 1022 100 6000 1.03 320 21:24 12.11.2022
1063 Clear 18 1022 100 6000 1.54 340 20:21 12.11.2022
1064 Clear 19 1022 94 10000 2.06 360 18:27 12.11.2022
1065 Rain 20 1021 77 10000 1.54 40 16:27 12.11.2022
1066 Rain 21 1021 73 10000 2.06 50 15:23 12.11.2022
1067 Clouds 20 1021 94 10000 4.12 100 12:38 12.11.2022
1068 Rain 20 1021 88 10000 5.14 100 09:29 12.11.2022
1069 Thunderstorm 19 1021 88 9000 4.12 120 06:55 12.11.2022
1070 Rain 21 1018 35 10000 1.03 0 22:51 11.11.2022
1071 Clear 24 1019 29 10000 4.63 70 20:52 11.11.2022
1072 Clear 23 1018 31 10000 3.6 360 19:50 11.11.2022
1073 Clear 23 1018 31 10000 3.6 360 19:23 11.11.2022
1074 Clear 24 1017 33 10000 3.6 360 17:57 11.11.2022
1075 Clouds 24 1017 35 10000 4.12 350 16:33 11.11.2022
1076 Clear 29 1017 21 10000 4.12 30 14:28 11.11.2022
1077 Clear 29 1017 21 10000 5.14 40 13:30 11.11.2022
1078 Clouds 28 1019 24 9000 4.63 360 10:32 11.11.2022
1079 Clouds 25 1020 33 9000 3.6 340 08:28 11.11.2022
1080 Clouds 22 1019 37 10000 3.32 25 06:29 11.11.2022
1081 Smoke 17 1019 55 4000 1.54 330 23:58 10.11.2022
1082 Smoke 19 1019 48 4000 0 0 22:49 10.11.2022
1083 Smoke 20 1018 52 3500 0.51 30 21:38 10.11.2022
1084 Smoke 20 1018 52 3500 0.51 30 21:19 10.11.2022
1085 Smoke 19 1018 55 3000 1.54 330 20:23 10.11.2022
1086 Smoke 20 1018 45 5000 0.51 20 19:46 10.11.2022
1087 Clear 20 1018 45 10000 0.51 10 18:44 10.11.2022
1088 Clear 23 1017 35 10000 0 0 16:26 10.11.2022
1089 Clear 27 1017 28 10000 2.57 210 14:43 10.11.2022
1090 Clear 27 1016 26 10000 1.54 0 13:18 10.11.2022
1091 Clear 25 1017 31 9000 0.51 0 09:19 10.11.2022
1092 Clear 16 1016 59 10000 0.51 0 06:59 10.11.2022
1093 Clear 16 1014 48 10000 1.54 260 00:56 10.11.2022
1094 Clouds 19 1014 42 9000 1.54 10 22:47 09.11.2022
1095 Clouds 19 1014 42 9000 1.54 10 22:47 09.11.2022
1096 Clouds 18 1014 48 9000 2.06 320 21:21 09.11.2022
1097 Clouds 20 1014 40 10000 1.54 320 20:40 09.11.2022
1098 Clouds 20 1013 40 8000 2.06 310 19:59 09.11.2022
1099 Clouds 20 1013 40 8000 2.06 310 19:25 09.11.2022
1100 Clouds 21 1013 40 8000 2.06 350 17:41 09.11.2022
1101 Clouds 26 1012 25 8000 2.06 340 14:56 09.11.2022
1102 Clouds 26 1012 25 8000 2.06 340 14:27 09.11.2022
1103 Clouds 26 1013 25 8000 2.06 340 13:44 09.11.2022
1104 Clouds 27 1013 24 8000 3.6 320 12:52 09.11.2022
1105 Clear 25 1015 33 10000 1.54 350 09:29 09.11.2022
1106 Clouds 20 1015 49 8000 1.03 0 07:47 09.11.2022
1107 Clouds 16 1014 67 9000 2.57 320 06:33 09.11.2022
1108 Rain 18 1013 59 10000 2.06 110 22:38 08.11.2022
1109 Clouds 19 1013 45 10000 3.09 50 21:40 08.11.2022
1110 Clear 19 1013 39 10000 3.6 40 20:54 08.11.2022
1111 Clear 19 1013 39 10000 3.6 40 20:21 08.11.2022
1112 Clear 20 1012 40 10000 5.14 20 19:28 08.11.2022
1113 Clouds 20 1013 49 10000 3.6 50 17:37 08.11.2022
1114 Clouds 20 1013 49 10000 3.09 60 15:37 08.11.2022
1115 Thunderstorm 24 1013 33 9000 2.06 230 14:36 08.11.2022
1116 Clouds 25 1012 27 10000 2.06 180 13:29 08.11.2022
1117 Clouds 26 1012 22 10000 3.09 160 11:30 08.11.2022
1118 Clear 22 1014 24 10000 3.6 120 07:45 08.11.2022
1119 Clear 17 1014 39 6000 1.03 0 06:28 08.11.2022
1120 Clear 15 1014 47 6000 0 0 22:59 07.11.2022
1121 Clear 15 1014 47 7000 0 0 21:56 07.11.2022
1122 Clear 15 1014 41 9000 0.51 160 20:58 07.11.2022
1123 Clear 16 1014 48 9000 0 0 19:52 07.11.2022
1124 Clear 20 1014 32 10000 1.54 20 17:44 07.11.2022
1125 Clear 25 1013 25 10000 2.06 340 15:55 07.11.2022
1126 Clear 25 1013 25 10000 2.06 340 15:32 07.11.2022
1127 Clear 27 1014 18 10000 3.09 340 13:51 07.11.2022
1128 Clear 27 1014 19 10000 3.09 340 12:32 07.11.2022
1129 Clear 26 1016 24 10000 2.57 340 10:46 07.11.2022
1130 Clear 25 1017 27 8000 2.06 20 09:19 07.11.2022
1131 Dust 15 1018 51 4000 1.03 0 06:55 07.11.2022
1132 Clear 13 1017 47 10000 1.03 280 02:20 07.11.2022
1133 Clear 14 1017 54 10000 0 0 23:49 06.11.2022
1134 Clear 17 1017 39 6000 1.03 0 21:52 06.11.2022
1135 Clear 17 1017 39 6000 1.03 0 21:18 06.11.2022
1136 Clear 16 1017 39 10000 0.51 160 19:58 06.11.2022
1137 Clear 16 1017 39 10000 0.51 160 19:28 06.11.2022
1138 Clear 19 1017 37 10000 0.51 110 18:21 06.11.2022
1139 Clear 20 1017 40 10000 0 0 17:46 06.11.2022
1140 Clear 20 1017 40 10000 0 0 17:19 06.11.2022
1141 Clear 23 1017 28 10000 1.03 30 16:20 06.11.2022
1142 Clear 26 1016 22 10000 1.54 240 15:39 06.11.2022
1143 Clear 28 1017 21 10000 3.09 330 12:48 06.11.2022
1144 Clear 27 1017 19 10000 2.06 290 11:42 06.11.2022
1145 Clear 27 1018 22 10000 2.57 360 10:34 06.11.2022
1146 Haze 20 1019 32 3000 1.54 330 07:44 06.11.2022
1147 Smoke 12 1018 54 5000 1.03 310 00:46 06.11.2022
1148 Clear 15 1018 44 7000 0.51 0 22:35 05.11.2022
1149 Clear 17 1018 42 10000 0.51 0 19:20 05.11.2022
1150 Clear 23 1017 19 10000 2.32 20 16:57 05.11.2022
1151 Clear 25 1017 23 10000 1.54 340 15:20 05.11.2022
1152 Clear 27 1017 19 10000 2.57 290 13:51 05.11.2022
1153 Clear 27 1017 19 10000 2.06 0 12:30 05.11.2022
1154 Clear 26 1019 21 10000 1.03 0 09:33 05.11.2022
1155 Clear 21 1019 30 8000 1.54 340 07:25 05.11.2022
1156 Clear 17 1019 45 8000 1.03 20 06:57 05.11.2022
1157 Clear 14 1017 47 10000 2.06 210 00:46 05.11.2022
1158 Clear 13 1017 47 10000 1.54 210 23:32 04.11.2022
1159 Clear 14 1017 62 10000 0 0 21:40 04.11.2022
1160 Clear 16 1017 36 10000 0 0 19:40 04.11.2022
1161 Clear 20 1016 26 10000 1.03 0 17:45 04.11.2022
1162 Clear 25 1016 20 10000 3.09 290 15:27 04.11.2022
1163 Clear 27 1015 17 10000 4.51 303 13:19 04.11.2022
1164 Clear 27 1015 17 10000 4.12 290 12:19 04.11.2022
1165 Clear 24 1017 23 10000 3.09 260 09:31 04.11.2022
1166 Clear 21 1018 28 10000 2.57 260 08:20 04.11.2022
1167 Clear 15 1017 44 10000 2.57 280 06:51 04.11.2022
1168 Clear 14 1015 41 10000 1.54 290 00:56 04.11.2022
1169 Clear 18 1015 32 10000 2.06 260 21:48 03.11.2022
1170 Clear 18 1015 32 10000 1.03 0 20:47 03.11.2022
1171 Clear 18 1015 32 10000 1.54 260 19:42 03.11.2022
1172 Clear 19 1015 26 10000 2.57 270 18:27 03.11.2022
1173 Clear 23 1015 20 10000 2.57 280 17:37 03.11.2022
1174 Clear 26 1013 24 10000 4.63 300 15:24 03.11.2022
1175 Clear 28 1013 23 10000 4.12 290 13:37 03.11.2022
1176 Clear 28 1013 23 10000 3.09 290 12:35 03.11.2022
1177 Clear 28 1013 20 10000 3.6 250 11:41 03.11.2022
1178 Clear 21 1015 40 10000 3.6 310 07:48 03.11.2022
1179 Clear 17 1013 36 10000 1.03 0 22:29 02.11.2022
1180 Clear 19 1013 37 10000 1.54 320 20:56 02.11.2022
1181 Clear 19 1013 37 10000 1.54 320 20:25 02.11.2022
1182 Clear 21 1013 28 10000 3.6 300 18:42 02.11.2022
1183 Clear 24 1012 29 10000 2.57 320 16:28 02.11.2022
1184 Clear 27 1012 22 10000 3.6 320 15:30 02.11.2022
1185 Clear 29 1012 23 10000 5.14 320 12:58 02.11.2022
1186 Clear 29 1012 23 10000 5.14 320 12:28 02.11.2022
1187 Clear 29 1013 23 10000 4.63 330 10:23 02.11.2022
1188 Clear 25 1015 33 7000 2.57 330 08:38 02.11.2022
1189 Clear 17 1014 55 10000 3.09 350 02:40 02.11.2022
1190 Clear 18 1015 45 10000 3.09 320 22:41 01.11.2022
1191 Clear 18 1015 45 10000 3.09 320 22:18 01.11.2022
1192 Clear 19 1015 52 10000 1.54 310 20:55 01.11.2022
1193 Clouds 20 1015 52 8000 1.54 300 20:23 01.11.2022
1194 Clouds 21 1014 49 7000 2.06 290 19:41 01.11.2022
1195 Clouds 23 1014 40 7000 1.54 270 18:26 01.11.2022
1196 Clouds 25 1013 38 10000 0 0 16:48 01.11.2022
1197 Clouds 28 1013 30 10000 2.06 330 14:45 01.11.2022
1198 Clouds 28 1013 32 10000 3.09 340 12:57 01.11.2022
1199 Clouds 28 1013 32 10000 3.09 340 12:25 01.11.2022
1200 Clouds 28 1013 34 9000 3.6 330 11:20 01.11.2022
1201 Clouds 22 1014 53 8000 3.6 320 09:24 01.11.2022
1202 Clouds 19 1014 59 8000 3.09 330 07:53 01.11.2022
1203 Clouds 19 1014 59 8000 3.09 330 07:28 01.11.2022
1204 Clouds 18 1013 59 10000 3.09 290 06:46 01.11.2022
1205 Clear 17 1012 63 10000 1.03 0 05:23 01.11.2022
1206 Clear 22 1010 35 10000 3.09 260 22:51 31.10.2022
1207 Clear 24 1010 38 10000 3.09 270 21:34 31.10.2022
1208 Clear 26 1010 31 10000 4.12 300 19:57 31.10.2022
1209 Clouds 27 1009 29 10000 3.6 260 18:42 31.10.2022
1210 Clouds 30 1009 26 10000 2.57 280 16:44 31.10.2022
1211 Clear 31 1008 27 6000 1.03 270 15:35 31.10.2022
1212 Clouds 33 1009 21 9000 6.17 120 12:39 31.10.2022
1213 Clouds 29 1012 23 8000 3.6 80 09:44 31.10.2022
1214 Dust 26 1014 25 5000 2.57 80 07:41 31.10.2022
1215 Clear 23 1013 27 10000 2.57 20 02:47 31.10.2022
1216 Clear 23 1013 31 10000 1.03 0 01:48 31.10.2022
1217 Clouds 27 1013 17 10000 4.12 50 22:22 30.10.2022
1218 Clouds 26 1014 21 10000 3.09 30 20:43 30.10.2022
1219 Rain 26 1016 22 10000 2.06 50 19:52 30.10.2022
1220 Clouds 27 1016 24 10000 2.57 40 16:42 30.10.2022
1221 Clouds 30 1015 21 10000 4.63 10 14:54 30.10.2022
1222 Clear 31 1015 20 10000 3.6 10 13:51 30.10.2022
1223 Clouds 31 1016 18 10000 3.6 340 12:27 30.10.2022
1224 Dust 29 1017 26 3500 2.57 170 10:25 30.10.2022
1225 Clouds 29 1018 20 10000 1.54 70 09:35 30.10.2022
1226 Haze 25 1017 25 3000 3.09 20 07:57 30.10.2022
1227 Clear 18 1016 52 8000 1.54 350 00:29 30.10.2022
1228 Clear 18 1016 48 9000 1.03 310 23:47 29.10.2022
1229 Clear 19 1016 39 10000 1.03 280 22:31 29.10.2022
1230 Clear 22 1016 33 10000 2.06 310 19:41 29.10.2022
1231 Clouds 27 1015 24 10000 1.03 20 17:24 29.10.2022
1232 Clouds 29 1014 21 10000 2.06 350 15:40 29.10.2022
1233 Clouds 29 1014 20 10000 3.09 350 14:56 29.10.2022
1234 Clouds 29 1014 20 10000 3.09 350 14:36 29.10.2022
1235 Clear 30 1015 20 10000 3.6 350 12:33 29.10.2022
1236 Clouds 24 1016 31 8000 3.09 340 09:43 29.10.2022
1237 Clouds 17 1016 51 8000 2.06 310 07:31 29.10.2022
1238 Clear 15 1015 51 10000 2.57 300 05:55 29.10.2022
1239 Clear 20 1015 42 10000 2.06 280 00:27 29.10.2022
1240 Clear 23 1014 38 10000 3.09 280 22:23 28.10.2022
1241 Clear 23 1014 38 10000 2.57 250 20:45 28.10.2022
1242 Clear 27 1013 29 10000 3.6 270 18:51 28.10.2022
1243 Clear 27 1013 29 10000 3.6 270 18:30 28.10.2022
1244 Clear 31 1011 25 7000 7.72 280 15:29 28.10.2022
1245 Dust 32 1011 25 4000 7.72 270 13:44 28.10.2022
1246 Clear 31 1011 25 10000 5.66 290 12:26 28.10.2022
1247 Clear 29 1012 30 10000 6.17 280 11:34 28.10.2022
1248 Clear 26 1012 36 8000 3.6 270 10:45 28.10.2022
1249 Clear 24 1012 38 10000 4.12 290 09:47 28.10.2022
1250 Clear 21 1012 46 10000 1.54 290 08:21 28.10.2022
1251 Clear 19 1011 45 10000 0.51 0 03:42 28.10.2022
1252 Clouds 23 1012 38 9000 2.06 10 23:48 27.10.2022
1253 Clouds 23 1012 38 8000 2.06 40 22:40 27.10.2022
1254 Clouds 23 1012 40 9000 3.09 330 21:35 27.10.2022
1255 Clouds 26 1012 34 10000 2.06 350 19:55 27.10.2022
1256 Clouds 27 1012 34 10000 2.06 360 18:22 27.10.2022
1257 Rain 32 1013 22 10000 2.06 30 13:58 27.10.2022
1258 Clouds 27 1016 29 8000 2.57 10 09:20 27.10.2022
1259 Clear 20 1014 40 10000 2.57 340 06:21 27.10.2022
1260 Clear 24 1016 31 10000 3.6 290 23:55 26.10.2022
1261 Clear 26 1015 27 10000 2.57 30 22:47 26.10.2022
1262 Clear 26 1015 27 10000 2.57 30 22:22 26.10.2022
1263 Clouds 23 1016 33 9000 1.54 310 19:34 26.10.2022
1264 Clouds 29 1015 21 10000 2.57 10 16:35 26.10.2022
1265 Clouds 30 1016 20 10000 4.63 340 14:36 26.10.2022
1266 Clear 29 1016 21 10000 6.17 350 12:37 26.10.2022
1267 Clouds 27 1018 28 8000 4.12 350 10:24 26.10.2022
1268 Clouds 21 1018 35 8000 4.63 330 08:54 26.10.2022
1269 Clouds 21 1018 35 8000 4.63 330 08:24 26.10.2022
1270 Clear 19 1016 42 10000 1.03 330 00:46 26.10.2022
1271 Clear 19 1016 42 10000 1.03 330 00:21 26.10.2022
1272 Clear 21 1016 37 10000 2.57 330 21:52 25.10.2022
1273 Clear 21 1016 37 10000 2.57 330 21:22 25.10.2022
1274 Clear 21 1015 40 10000 3.09 310 19:40 25.10.2022
1275 Clear 25 1015 33 10000 2.06 340 17:52 25.10.2022
1276 Clear 29 1014 23 10000 4.12 340 14:56 25.10.2022
1277 Clear 28 1015 26 10000 5.14 330 11:38 25.10.2022
1278 Clear 27 1015 26 10000 6.69 330 10:38 25.10.2022
1279 Clear 25 1016 31 10000 5.14 330 09:53 25.10.2022
1280 Clear 22 1016 37 10000 5.14 330 08:19 25.10.2022
1281 Clear 19 1015 45 10000 4.12 320 07:54 25.10.2022
1282 Clear 17 1015 55 10000 4.12 310 06:59 25.10.2022
1283 Clear 19 1014 52 10000 4.12 320 03:48 25.10.2022
1284 Clear 19 1014 55 10000 4.12 320 00:40 25.10.2022
1285 Clear 20 1014 56 10000 4.12 310 23:49 24.10.2022
1286 Clear 21 1014 52 10000 3.09 330 22:24 24.10.2022
1287 Clear 22 1014 49 10000 3.6 320 21:33 24.10.2022
1288 Clear 23 1014 46 10000 4.12 320 20:42 24.10.2022
1289 Clear 24 1013 46 10000 3.09 330 18:52 24.10.2022
1290 Clouds 26 1013 41 10000 3.09 330 17:50 24.10.2022
1291 Clouds 28 1012 39 10000 3.6 350 16:34 24.10.2022
1292 Rain 31 1012 30 9000 5.14 360 14:23 24.10.2022
1293 Dust 31 1012 29 5000 5.66 20 13:40 24.10.2022
1294 Dust 30 1014 26 3000 7.2 20 11:54 24.10.2022
1295 Clouds 25 1015 38 7000 5.14 360 08:45 24.10.2022
1296 Clear 22 1014 46 10000 3.6 310 00:52 24.10.2022
1297 Clear 24 1015 46 10000 3.09 350 21:23 23.10.2022
1298 Clear 26 1015 44 10000 2.57 340 19:51 23.10.2022
1299 Clear 28 1014 42 10000 3.09 330 17:59 23.10.2022
1300 Clear 28 1014 42 10000 3.09 330 17:27 23.10.2022
1301 Clear 32 1014 40 9000 4.12 340 15:19 23.10.2022
1302 Clouds 32 1015 37 7000 3.6 340 12:59 23.10.2022
1303 Dust 29 1017 42 5000 3.6 300 10:59 23.10.2022
1304 Clouds 26 1016 47 8000 3.09 60 08:18 23.10.2022
1305 Clear 24 1015 53 10000 2.06 310 23:56 22.10.2022
1306 Clouds 24 1015 50 10000 2.57 340 22:31 22.10.2022
1307 Clouds 25 1015 47 10000 3.09 330 21:42 22.10.2022
1308 Clouds 27 1015 41 10000 3.09 350 20:49 22.10.2022
1309 Clouds 27 1015 39 10000 3.09 330 19:45 22.10.2022
1310 Clouds 27 1015 39 10000 3.09 330 19:24 22.10.2022
1311 Clouds 30 1014 37 10000 4.12 340 17:37 22.10.2022
1312 Clouds 34 1013 33 7000 3.6 200 15:37 22.10.2022
1313 Clouds 34 1013 33 6000 5.66 120 14:42 22.10.2022
1314 Dust 34 1013 33 5000 4.12 100 13:45 22.10.2022
1315 Clouds 29 1017 32 10000 7.72 30 09:59 22.10.2022
1316 Clouds 29 1017 32 10000 7.72 30 09:36 22.10.2022
1317 Clouds 26 1017 41 10000 6.69 30 07:58 22.10.2022
1318 Clouds 26 1016 38 10000 7.2 360 02:59 22.10.2022
1319 Clouds 27 1015 34 6000 5.66 360 23:49 21.10.2022
1320 Clouds 27 1016 34 10000 5.66 330 21:35 21.10.2022
1321 Clouds 28 1015 32 10000 4.63 340 20:59 21.10.2022
1322 Clouds 29 1014 30 10000 4.63 340 19:33 21.10.2022
1323 Clouds 32 1013 22 10000 4.63 320 16:51 21.10.2022
1324 Clouds 34 1012 20 8000 3.6 350 13:57 21.10.2022
1325 Clouds 34 1012 20 8000 4.63 10 12:57 21.10.2022
1326 Dust 31 1014 22 2500 2.06 50 10:59 21.10.2022
1327 Dust 28 1014 30 2500 2.06 290 09:50 21.10.2022
1328 Dust 25 1014 33 3500 2.57 290 08:39 21.10.2022
1329 Haze 23 1013 38 4800 2.57 340 07:28 21.10.2022
1330 Clear 24 1010 29 10000 2.06 150 00:59 21.10.2022
1331 Clear 26 1010 27 10000 5.14 230 22:26 20.10.2022
1332 Clear 28 1010 24 10000 4.12 130 20:38 20.10.2022
1333 Clear 29 1009 21 10000 3.6 130 19:38 20.10.2022
1334 Dust 32 1009 23 5000 3.09 110 17:53 20.10.2022
1335 Dust 32 1009 23 5000 3.09 110 17:33 20.10.2022
1336 Clouds 34 1010 21 8000 2.06 150 12:37 20.10.2022
1337 Clouds 34 1010 21 8000 2.06 150 12:18 20.10.2022
1338 Clouds 33 1011 21 8000 2.06 180 11:20 20.10.2022
1339 Clouds 31 1012 22 7000 2.57 190 10:45 20.10.2022
1340 Clouds 26 1012 29 7000 1.03 70 08:18 20.10.2022
1341 Clouds 28 1010 15 10000 3.03 166 05:38 20.10.2022
1342 Clouds 20 1010 56 9000 1.54 50 01:49 20.10.2022
1343 Clouds 22 1011 40 8000 0 0 22:46 19.10.2022
1344 Clouds 24 1011 31 9000 1.03 0 21:57 19.10.2022
1345 Clouds 25 1011 25 9000 2.06 230 20:53 19.10.2022
1346 Clear 27 1011 22 9000 0 0 18:50 19.10.2022
1347 Clear 32 1011 17 9000 0.51 0 17:38 19.10.2022
1348 Clear 37 1010 12 10000 3.6 310 15:47 19.10.2022
1349 Clear 37 1011 13 10000 4.12 300 13:52 19.10.2022
1350 Dust 29 1014 23 5000 4.63 310 09:42 19.10.2022
1351 Dust 26 1014 25 3000 3.6 300 08:35 19.10.2022
1352 Clear 27 1012 16 10000 3.36 334 06:25 19.10.2022
1353 Clear 21 1012 40 6000 1.54 330 01:26 19.10.2022
1354 Clear 22 1013 37 6000 1.03 130 23:18 18.10.2022
1355 Clear 24 1014 33 5000 1.54 10 21:45 18.10.2022
1356 Clear 25 1014 33 7000 1.03 310 20:59 18.10.2022
1357 Clouds 26 1014 31 7000 1.03 290 19:58 18.10.2022
1358 Clouds 30 1013 26 7000 1.54 310 17:48 18.10.2022
1359 Clouds 35 1013 17 7000 2.06 280 16:52 18.10.2022
1360 Clouds 37 1014 15 7000 2.06 210 14:32 18.10.2022
1361 Dust 37 1014 15 5000 1.03 0 12:33 18.10.2022
1362 Dust 35 1015 18 4000 1.03 0 11:22 18.10.2022
1363 Haze 30 1016 23 2000 1.03 0 09:58 18.10.2022
1364 Smoke 24 1016 35 3000 2.57 250 07:57 18.10.2022
1365 Dust 21 1014 40 5000 0 0 03:45 18.10.2022
1366 Dust 22 1015 37 4000 1.03 140 22:37 17.10.2022
1367 Clouds 24 1015 23 6000 1.03 60 20:55 17.10.2022
1368 Clouds 24 1015 23 6000 1.03 60 20:32 17.10.2022
1369 Clouds 27 1015 29 7000 1.03 30 19:52 17.10.2022
1370 Clouds 27 1015 29 7000 1.03 30 19:18 17.10.2022
1371 Clouds 34 1015 20 8000 2.06 350 16:55 17.10.2022
1372 Clouds 36 1015 17 8000 2.57 360 15:29 17.10.2022
1373 Clouds 36 1015 17 7000 1.54 340 14:35 17.10.2022
1374 Dust 33 1016 19 5000 2.06 350 11:52 17.10.2022
1375 Clouds 23 1015 33 8000 2.57 140 06:42 17.10.2022
1376 Clear 25 1014 27 10000 2.57 140 23:35 16.10.2022
1377 Clear 26 1014 25 10000 3.09 130 21:58 16.10.2022
1378 Clear 28 1014 24 10000 3.6 130 20:56 16.10.2022
1379 Clear 29 1014 23 10000 3.6 120 19:47 16.10.2022
1380 Clouds 32 1013 19 9000 3.09 120 17:58 16.10.2022
1381 Clouds 32 1013 19 9000 3.09 120 17:39 16.10.2022
1382 Clouds 32 1013 19 9000 3.09 120 17:39 16.10.2022
1383 Clear 38 1013 12 10000 3.09 180 15:58 16.10.2022
1384 Clear 38 1013 11 10000 4.63 190 14:34 16.10.2022
1385 Clear 38 1014 12 10000 3.6 190 12:23 16.10.2022
1386 Clear 35 1014 15 7000 3.6 180 10:28 16.10.2022
1387 Clear 32 1014 18 7000 3.6 160 09:26 16.10.2022
1388 Clear 22 1011 33 10000 4.12 120 02:37 16.10.2022
1389 Clear 28 1010 20 10000 5.14 140 23:41 15.10.2022
1390 Clear 30 1010 19 10000 5.14 140 21:29 15.10.2022
1391 Clear 30 1010 17 10000 4.63 140 20:57 15.10.2022
1392 Clear 30 1009 20 10000 4.12 130 19:28 15.10.2022
1393 Dust 37 1008 15 3500 1.54 130 15:59 15.10.2022
1394 Dust 37 1008 15 3500 1.54 130 15:38 15.10.2022
1395 Clear 38 1009 14 10000 7.2 180 12:33 15.10.2022
1396 Clouds 36 1010 17 9000 5.66 180 11:27 15.10.2022
1397 Clear 27 1011 29 7000 4.63 130 08:56 15.10.2022
1398 Smoke 20 1010 52 4000 1.03 90 05:46 15.10.2022
1399 Clouds 23 1009 38 10000 1.03 0 00:40 15.10.2022
1400 Clear 23 1009 35 10000 1.54 140 22:25 14.10.2022
1401 Clear 25 1009 31 10000 2.06 130 21:37 14.10.2022
1402 Clear 27 1009 26 10000 2.57 150 20:28 14.10.2022
1403 Clear 31 1008 23 10000 2.57 200 17:35 14.10.2022
1404 Clear 36 1007 14 10000 5.14 210 15:30 14.10.2022
1405 Clear 34 1008 21 10000 3.6 150 12:46 14.10.2022
1406 Clear 31 1009 22 10000 4.12 80 10:53 14.10.2022
1407 Clear 29 1010 21 6000 3.09 70 08:25 14.10.2022
1408 Clear 25 1010 27 7000 4.12 70 06:19 14.10.2022
1409 Dust 24 1009 27 5000 3.09 50 05:59 14.10.2022
1410 Dust 24 1009 27 5000 3.09 50 05:41 14.10.2022
1411 Clear 26 1010 29 9000 3.09 50 01:46 14.10.2022
1412 Clear 24 1011 35 6000 2.06 50 23:20 13.10.2022
1413 Clear 25 1011 36 6000 1.54 40 21:32 13.10.2022
1414 Clear 27 1011 32 7000 2.06 30 20:22 13.10.2022
1415 Clear 30 1010 19 10000 4.2 66 19:42 13.10.2022
1416 Clear 30 1010 18 10000 4.31 66 19:42 13.10.2022
1417 Clear 26 1011 31 10000 1.54 70 18:45 13.10.2022
1418 Clear 26 1011 31 10000 1.54 70 18:20 13.10.2022
1419 Clear 33 1010 16 10000 2.92 45 15:49 13.10.2022
1420 Clear 33 1010 16 10000 2.92 45 15:49 13.10.2022
1421 Clear 34 1011 18 10000 2.06 70 14:59 13.10.2022
1422 Clear 34 1011 18 8000 2.06 100 13:50 13.10.2022
1423 Dust 33 1013 18 5000 2.57 100 11:46 13.10.2022
1424 Clear 31 1013 22 6000 3.09 120 10:18 13.10.2022
1425 Clear 29 1014 24 8000 2.06 30 08:33 13.10.2022
1426 Clear 29 1014 24 8000 2.06 30 08:33 13.10.2022
1427 Clouds 24 1013 38 7000 0 0 07:36 13.10.2022
1428 Clear 21 1012 40 10000 1.03 300 03:45 13.10.2022
1429 Clear 20 1013 42 10000 0 0 01:39 13.10.2022
1430 Clear 22 1013 37 10000 1.03 320 00:21 13.10.2022
1431 Clouds 21 1013 43 8000 2.06 310 22:44 12.10.2022
1432 Clear 22 1013 37 8000 1.03 280 21:25 12.10.2022
1433 Clear 25 1013 31 7000 1.03 0 20:56 12.10.2022
1434 Clear 25 1013 31 7000 1.03 0 20:27 12.10.2022
1435 Clear 25 1013 31 7000 1.03 0 20:27 12.10.2022
1436 Clear 25 1013 31 7000 1.03 0 20:27 12.10.2022
1437 Clear 26 1013 29 10000 1.03 0 19:19 12.10.2022
1438 Clear 29 1012 24 10000 1.54 360 17:54 12.10.2022
1439 Clear 32 1012 20 10000 3.09 360 16:48 12.10.2022
1440 Clear 34 1012 18 10000 3.6 340 14:20 12.10.2022
1441 Clear 34 1012 20 10000 3.09 340 13:36 12.10.2022
1442 Clear 31 1015 22 10000 3.6 340 10:57 12.10.2022
1443 Clear 29 1015 24 10000 3.6 340 09:23 12.10.2022
1444 Clear 23 1015 35 10000 2.06 330 07:41 12.10.2022
1445 Clear 20 1015 42 10000 3.6 300 06:43 12.10.2022
1446 Clear 20 1014 49 10000 2.57 320 03:59 12.10.2022
1447 Clear 22 1014 35 10000 2.57 300 23:40 11.10.2022
1448 Clear 26 1014 27 10000 2.57 280 20:59 11.10.2022
1449 Clear 26 1014 27 10000 2.57 280 20:26 11.10.2022
1450 Clear 29 1013 26 10000 2.57 350 17:56 11.10.2022
1451 Clear 33 1013 19 10000 5.14 310 15:55 11.10.2022
1452 Clear 33 1014 19 10000 5.14 310 13:37 11.10.2022
1453 Clear 31 1016 23 10000 3.09 310 10:47 11.10.2022
1454 Clear 31 1016 23 10000 3.09 310 10:26 11.10.2022
1455 Clear 27 1016 29 6000 2.57 290 08:32 11.10.2022
1456 Clear 20 1014 42 10000 3.09 330 02:59 11.10.2022
1457 Clear 21 1015 43 10000 3.6 320 00:47 11.10.2022
1458 Clear 22 1015 40 10000 3.6 320 23:52 10.10.2022
1459 Clear 24 1015 33 10000 3.6 320 20:58 10.10.2022
1460 Clear 26 1015 31 10000 3.6 320 19:40 10.10.2022
1461 Clear 30 1014 28 10000 3.6 350 17:52 10.10.2022
1462 Clear 32 1014 23 10000 4.63 350 16:37 10.10.2022
1463 Clear 33 1014 22 10000 5.66 350 14:22 10.10.2022
1464 Clear 33 1014 21 10000 7.72 330 12:23 10.10.2022
1465 Clear 32 1015 22 10000 5.66 340 10:20 10.10.2022
1466 Clear 25 1015 36 8000 4.12 340 07:41 10.10.2022
1467 Clear 22 1014 40 10000 3.09 330 05:37 10.10.2022
1468 Clear 25 1012 36 10000 4.12 340 01:58 10.10.2022
1469 Clear 25 1012 36 10000 4.12 340 01:58 10.10.2022
1470 Clear 25 1012 36 10000 4.12 340 01:58 10.10.2022
1471 Clear 25 1012 36 10000 4.12 340 01:58 10.10.2022
1472 Clear 26 1012 34 10000 5.14 330 00:23 10.10.2022
1473 Clouds 28 1012 36 10000 6.17 320 22:27 09.10.2022
1474 Clear 29 1011 32 10000 7.2 300 21:49 09.10.2022
1475 Dust 30 1011 28 5000 5.14 290 20:49 09.10.2022
1476 Dust 28 1011 32 5000 3.09 310 19:52 09.10.2022
1477 Dust 28 1011 32 5000 3.09 310 19:20 09.10.2022
1478 Clear 29 1010 30 6000 3.09 320 18:27 09.10.2022
1479 Clear 36 1009 20 10000 3.09 270 16:56 09.10.2022
1480 Clear 36 1009 20 10000 3.09 270 16:25 09.10.2022
1481 Clear 38 1009 18 10000 4.12 280 15:33 09.10.2022
1482 Clear 39 1009 13 10000 4.12 240 14:28 09.10.2022
1483 Clear 39 1009 13 10000 4.12 240 14:28 09.10.2022
1484 Clear 39 1009 12 10000 3.09 190 12:57 09.10.2022
1485 Clear 38 1010 12 10000 4.63 190 11:42 09.10.2022
1486 Clear 35 1011 15 6000 2.06 180 09:57 09.10.2022
1487 Clear 29 1010 21 6000 1.54 240 07:52 09.10.2022
1488 Clear 22 1008 35 10000 2.06 120 03:32 09.10.2022
1489 Clear 25 1008 33 9000 2.57 120 02:23 09.10.2022
1490 Smoke 26 1008 31 4000 1.54 100 23:56 08.10.2022
1491 Smoke 26 1008 31 5000 2.06 110 22:53 08.10.2022
1492 Smoke 28 1009 28 5000 1.54 110 21:43 08.10.2022
1493 Clear 30 1009 25 10000 0 0 19:57 08.10.2022
1494 Clear 31 1008 33 10000 1.54 90 18:24 08.10.2022
1495 Clear 40 1008 11 10000 3.09 260 15:56 08.10.2022
1496 Clear 40 1008 13 10000 4.12 250 14:32 08.10.2022
1497 Clear 39 1009 14 8000 4.12 210 12:38 08.10.2022
1498 Clear 35 1010 23 8000 2.57 220 10:37 08.10.2022
1499 Clear 33 1010 25 8000 1.03 0 09:52 08.10.2022
1500 Clear 30 1010 26 8000 2.57 200 08:41 08.10.2022
1501 Clear 22 1008 30 10000 1.03 0 03:50 08.10.2022
1502 Clear 26 1008 25 10000 2.06 310 00:37 08.10.2022
1503 Clear 26 1008 25 10000 2.06 320 23:21 07.10.2022
1504 Clear 26 1008 29 9000 2.57 310 22:41 07.10.2022
1505 Clear 29 1008 26 8000 2.06 330 20:59 07.10.2022
1506 Clear 29 1008 28 6000 1.54 320 19:32 07.10.2022
1507 Clear 36 1007 19 9000 2.06 250 17:47 07.10.2022
1508 Clear 40 1007 13 10000 2.06 260 16:41 07.10.2022
1509 Clear 41 1007 10 10000 3.6 280 14:59 07.10.2022
1510 Clear 42 1007 9 10000 4.12 260 13:22 07.10.2022
1511 Clear 37 1009 15 9000 2.57 330 09:56 07.10.2022
1512 Clear 37 1009 15 9000 2.57 330 09:19 07.10.2022
1513 Clear 33 1009 17 9000 3.6 300 08:18 07.10.2022
1514 Clear 24 1008 25 10000 2.06 330 01:54 07.10.2022
1515 Clear 28 1009 23 10000 2.06 320 22:51 06.10.2022
1516 Clear 28 1009 24 10000 2.06 310 21:48 06.10.2022
1517 Clear 28 1009 24 10000 2.06 310 21:25 06.10.2022
1518 Clear 30 1009 20 9000 2.57 290 20:34 06.10.2022
1519 Clear 32 1009 18 9000 1.54 290 18:46 06.10.2022
1520 Clear 32 1009 18 9000 1.54 290 18:19 06.10.2022
1521 Clear 41 1008 10 10000 4.12 340 15:33 06.10.2022
1522 Clear 41 1009 9 10000 5.14 310 12:29 06.10.2022
1523 Clear 32 1012 22 6000 3.6 280 08:20 06.10.2022
1524 Clear 24 1011 35 6000 1.54 290 03:39 06.10.2022
1525 Clear 26 1011 31 6000 1.54 220 00:44 06.10.2022
1526 Clear 33 1011 12 10000 1.57 110 21:52 05.10.2022
1527 Clear 31 1012 27 8000 1.54 130 19:31 05.10.2022
1528 Clear 36 1011 20 10000 3.09 130 17:37 05.10.2022
1529 Clear 40 1011 11 10000 2.57 140 16:22 05.10.2022
1530 Clear 41 1012 11 10000 3.6 200 14:52 05.10.2022
1531 Clear 41 1012 11 10000 3.6 200 14:19 05.10.2022
1532 Clear 39 1013 13 10000 4.12 230 12:28 05.10.2022
1533 Clear 36 1014 19 10000 3.6 200 10:36 05.10.2022
1534 Clear 29 1014 24 8000 1.54 150 07:57 05.10.2022
1535 Clear 23 1014 33 8000 1.03 110 06:22 05.10.2022
1536 Clear 21 1013 32 10000 2.06 120 04:35 05.10.2022
1537 Clear 25 1012 29 10000 2.57 130 02:20 05.10.2022
1538 Clear 27 1012 24 10000 3.6 140 00:28 05.10.2022
1539 Clear 30 1012 21 8000 4.63 120 22:51 04.10.2022
1540 Clear 34 1011 18 8000 3.09 90 20:40 04.10.2022
1541 Clear 34 1011 20 8000 3.09 80 19:47 04.10.2022
1542 Clear 34 1010 22 8000 3.6 90 18:39 04.10.2022
1543 Clear 36 1010 17 10000 2.06 80 17:50 04.10.2022
1544 Clear 39 1010 13 10000 3.09 120 16:41 04.10.2022
1545 Clear 40 1011 12 10000 4.12 100 13:52 04.10.2022
1546 Clear 36 1012 16 10000 2.57 160 09:52 04.10.2022
1547 Clear 27 1011 24 10000 3.09 140 07:34 04.10.2022
1548 Clear 24 1008 27 10000 2.06 120 02:41 04.10.2022
1549 Clear 25 1008 27 10000 2.06 120 23:42 03.10.2022
1550 Clear 24 1008 27 10000 2.57 140 22:19 03.10.2022
1551 Clear 26 1008 27 10000 1.54 150 21:23 03.10.2022
1552 Clear 27 1008 28 10000 0.51 0 20:32 03.10.2022
1553 Clear 32 1007 18 10000 1.03 0 18:46 03.10.2022
1554 Clear 33 1006 17 10000 1.54 290 17:28 03.10.2022
1555 Clear 38 1006 11 10000 3.09 220 15:51 03.10.2022
1556 Clear 38 1006 12 10000 3.6 200 14:22 03.10.2022
1557 Clear 38 1006 14 10000 3.6 180 12:34 03.10.2022
1558 Clear 36 1006 16 10000 1.54 100 10:40 03.10.2022
1559 Clear 33 1006 25 9000 2.06 90 09:44 03.10.2022
1560 Clear 25 1006 33 9000 1.54 120 07:32 03.10.2022
1561 Clear 20 1004 40 10000 0.51 0 03:52 03.10.2022
1562 Clear 24 1004 35 9000 3.6 150 22:55 02.10.2022
1563 Clear 25 1004 33 10000 3.09 140 21:33 02.10.2022
1564 Clear 28 1004 28 10000 2.06 130 19:39 02.10.2022
1565 Clear 35 1004 16 10000 1.54 270 17:55 02.10.2022
1566 Clear 37 1004 14 10000 3.09 270 16:50 02.10.2022
1567 Clear 37 1004 14 10000 3.09 270 16:27 02.10.2022
1568 Clear 38 1004 16 10000 4.12 240 14:53 02.10.2022
1569 Clear 37 1004 15 10000 4.12 250 13:46 02.10.2022
1570 Clear 36 1005 23 9000 2.57 210 12:39 02.10.2022
1571 Clear 35 1006 23 9000 1.03 0 11:43 02.10.2022
1572 Clear 35 1006 23 9000 1.03 0 11:23 02.10.2022
1573 Clear 31 1006 25 8000 2.06 280 09:49 02.10.2022
1574 Clear 27 1007 29 10000 2.06 270 08:27 02.10.2022
1575 Clear 20 1006 42 10000 1.54 200 05:18 02.10.2022
1576 Clear 22 1006 37 10000 1.03 0 00:57 02.10.2022
1577 Clear 22 1006 37 10000 1.03 0 00:37 02.10.2022
1578 Clear 30 1006 17 10000 3.02 295 23:24 01.10.2022
1579 Clear 25 1007 31 10000 1.03 0 21:38 01.10.2022
1580 Clear 31 1007 22 10000 2.06 320 18:54 01.10.2022
1581 Clear 33 1007 19 10000 2.57 290 17:26 01.10.2022
1582 Clear 38 1008 17 10000 5.14 280 14:50 01.10.2022
1583 Clear 39 1008 16 10000 5.14 270 13:44 01.10.2022
1584 Clear 38 1009 18 10000 5.14 300 12:34 01.10.2022
1585 Clear 36 1010 26 10000 5.66 310 11:22 01.10.2022
1586 Clear 34 1010 26 10000 4.63 300 10:47 01.10.2022
1587 Clear 34 1010 26 10000 4.63 300 10:26 01.10.2022
1588 Clear 31 1011 29 10000 5.14 300 09:21 01.10.2022
1589 Clear 29 1011 34 10000 4.63 290 08:26 01.10.2022
1590 Clear 23 1009 35 10000 2.57 280 03:39 01.10.2022
1591 Clear 24 1009 29 10000 3.09 290 01:31 01.10.2022
1592 Clear 22 1009 35 10000 2.06 290 23:20 30.09.2022
1593 Clear 23 1009 31 10000 1.03 300 21:57 30.09.2022
1594 Clear 27 1010 24 10000 2.06 290 20:45 30.09.2022
1595 Clear 27 1010 24 10000 2.06 290 20:20 30.09.2022
1596 Clear 34 1009 16 10000 2.57 280 17:59 30.09.2022
1597 Clear 37 1008 14 10000 4.12 300 16:31 30.09.2022
1598 Clear 37 1008 16 10000 3.6 280 14:22 30.09.2022
1599 Clear 36 1009 23 10000 3.09 270 12:29 30.09.2022
1600 Clear 35 1010 26 7000 3.09 270 11:54 30.09.2022
1601 Clear 27 1010 36 10000 4.12 290 08:57 30.09.2022
1602 Clear 21 1010 49 9000 1.54 240 06:38 30.09.2022
1603 Clear 20 1008 52 10000 2.06 300 02:51 30.09.2022
1604 Clear 21 1007 49 10000 2.06 300 00:53 30.09.2022
1605 Clear 22 1008 46 10000 1.03 0 21:39 29.09.2022
1606 Clear 22 1008 46 10000 1.03 0 21:19 29.09.2022
1607 Clear 30 1007 30 10000 2.57 270 18:54 29.09.2022
1608 Clear 32 1006 27 10000 3.09 270 17:49 29.09.2022
1609 Clear 34 1006 24 10000 5.14 280 16:29 29.09.2022
1610 Clear 34 1006 26 10000 6.17 270 15:37 29.09.2022
1611 Clear 34 1006 27 10000 6.17 290 14:59 29.09.2022
1612 Clear 33 1008 31 10000 6.69 280 11:54 29.09.2022
1613 Clear 28 1009 39 10000 7.2 290 08:44 29.09.2022
1614 Clear 20 1008 37 10000 4.63 310 04:22 29.09.2022
1615 Clear 23 1007 35 10000 4.12 310 01:47 29.09.2022
1616 Clear 27 1007 19 10000 5.14 270 23:20 28.09.2022
1617 Clear 28 1007 16 10000 5.14 280 21:31 28.09.2022
1618 Clear 29 1007 16 10000 4.63 270 20:49 28.09.2022
1619 Clear 30 1007 17 10000 5.66 270 19:56 28.09.2022
1620 Clear 35 1006 11 10000 6.69 270 16:35 28.09.2022
1621 Clear 36 1007 11 10000 6.69 270 13:28 28.09.2022
1622 Clear 35 1008 17 10000 7.72 300 11:45 28.09.2022
1623 Clear 29 1009 26 8000 5.14 300 09:37 28.09.2022
1624 Clear 25 1009 27 8000 5.14 280 07:43 28.09.2022
1625 Clear 20 1009 30 10000 2.57 260 05:37 28.09.2022
1626 Clear 22 1008 21 10000 3.09 300 01:44 28.09.2022
1627 Clear 23 1008 20 10000 3.6 300 00:36 28.09.2022
1628 Clear 23 1008 25 10000 1.03 280 22:40 27.09.2022
1629 Clear 25 1009 19 10000 1.54 270 21:20 27.09.2022
1630 Clear 25 1008 20 10000 1.03 0 20:34 27.09.2022
1631 Clear 27 1008 17 10000 1.54 240 19:40 27.09.2022
1632 Clear 33 1008 13 10000 3.6 290 17:47 27.09.2022
1633 Clear 36 1008 11 10000 6.69 290 16:56 27.09.2022
1634 Clear 36 1008 11 10000 7.72 290 15:18 27.09.2022
1635 Clear 37 1008 10 10000 6.69 280 14:21 27.09.2022
1636 Clear 35 1009 12 10000 4.63 270 12:39 27.09.2022
1637 Clear 35 1009 12 10000 4.63 270 12:39 27.09.2022
1638 Clear 30 1010 19 10000 3.09 270 10:45 27.09.2022
1639 Clear 25 1010 25 10000 3.6 260 08:36 27.09.2022
1640 Clear 19 1009 32 10000 1.54 250 05:22 27.09.2022
1641 Clear 22 1008 26 10000 3.6 310 01:40 27.09.2022
1642 Clear 24 1009 17 10000 3.09 300 00:28 27.09.2022
1643 Clear 25 1009 19 10000 2.57 270 23:24 26.09.2022
1644 Clear 27 1009 17 10000 4.12 260 21:37 26.09.2022
1645 Clear 29 1009 16 10000 4.63 250 20:18 26.09.2022
1646 Clear 30 1009 17 10000 4.12 260 19:19 26.09.2022
1647 Clear 33 1009 17 10000 5.66 280 17:27 26.09.2022
1648 Clear 35 1008 16 10000 6.69 280 15:44 26.09.2022
1649 Clear 34 1009 18 8000 9.26 290 12:42 26.09.2022
1650 Clear 34 1010 20 8000 9.26 290 11:28 26.09.2022
1651 Clear 33 1010 19 7000 10.29 290 10:36 26.09.2022
1652 Clear 33 1010 19 7000 10.29 290 10:18 26.09.2022
1653 Dust 33 1010 19 5000 9.77 290 09:52 26.09.2022
1654 Clear 31 1010 27 9000 6.69 280 09:21 26.09.2022
1655 Clear 21 1010 43 10000 3.6 280 05:49 26.09.2022
1656 Clear 24 1010 35 10000 5.14 290 02:35 26.09.2022
1657 Clear 26 1011 34 10000 6.17 290 23:25 25.09.2022
1658 Clear 28 1011 23 10000 6.17 270 21:48 25.09.2022
1659 Clear 28 1011 23 10000 6.17 270 21:25 25.09.2022
1660 Clear 29 1011 30 10000 6.69 270 20:37 25.09.2022
1661 Clear 30 1011 28 10000 5.66 280 19:25 25.09.2022
1662 Clear 31 1011 23 10000 6.17 280 18:29 25.09.2022
1663 Clear 31 1011 23 10000 6.17 280 18:29 25.09.2022
1664 Clear 32 1010 25 10000 7.2 280 17:29 25.09.2022
1665 Clear 33 1010 24 10000 9.77 290 16:21 25.09.2022
1666 Clear 35 1010 23 10000 9.77 310 14:55 25.09.2022
1667 Clear 35 1010 23 10000 9.77 310 14:19 25.09.2022
1668 Clear 34 1012 26 8000 8.23 320 11:35 25.09.2022
1669 Clear 32 1013 27 6000 7.72 320 09:48 25.09.2022
1670 Clear 27 1012 34 10000 5.14 320 07:43 25.09.2022
1671 Clear 22 1011 43 7000 4.12 320 05:27 25.09.2022
1672 Clear 28 1010 34 10000 5.66 310 23:37 24.09.2022
1673 Clear 28 1010 34 10000 5.66 310 23:37 24.09.2022
1674 Clear 29 1011 30 10000 5.14 290 21:25 24.09.2022
1675 Clear 30 1011 26 10000 4.63 290 20:34 24.09.2022
1676 Clear 32 1010 25 10000 5.14 300 19:20 24.09.2022
1677 Clear 35 1010 21 10000 8.23 310 16:57 24.09.2022
1678 Clear 36 1010 20 10000 8.75 300 15:29 24.09.2022
1679 Clear 37 1010 19 10000 7.72 280 14:47 24.09.2022
1680 Clear 37 1010 19 10000 8.23 290 13:22 24.09.2022
1681 Clear 37 1011 19 10000 7.72 310 12:25 24.09.2022
1682 Clear 32 1013 25 10000 4.12 320 09:59 24.09.2022
1683 Clear 32 1013 25 10000 4.12 320 09:21 24.09.2022
1684 Clear 30 1013 28 10000 4.12 320 08:40 24.09.2022
1685 Clear 22 1011 40 10000 3.6 310 04:55 24.09.2022
1686 Clear 22 1011 40 10000 3.6 310 04:27 24.09.2022
1687 Clear 28 1010 42 10000 6.69 300 23:25 23.09.2022
1688 Clear 29 1010 28 10000 5.14 300 21:41 23.09.2022
1689 Clear 29 1010 28 10000 5.14 300 21:22 23.09.2022
1690 Clear 27 1009 26 10000 3.09 310 20:54 23.09.2022
1691 Clear 29 1009 24 10000 2.57 330 19:20 23.09.2022
1692 Clear 35 1008 16 10000 5.66 280 17:50 23.09.2022
1693 Clear 38 1008 17 10000 5.14 330 13:40 23.09.2022
1694 Clear 36 1009 21 10000 6.17 340 10:24 23.09.2022
1695 Clear 28 1009 39 10000 2.57 340 07:43 23.09.2022
1696 Clear 27 1007 36 10000 3.6 320 02:32 23.09.2022
1697 Clear 30 1006 32 10000 3.6 320 23:29 22.09.2022
1698 Clear 31 1006 29 10000 4.63 300 22:28 22.09.2022
1699 Clear 30 1006 28 10000 2.57 340 21:35 22.09.2022
1700 Clear 32 1006 25 10000 4.12 320 20:23 22.09.2022
1701 Clear 35 1005 24 10000 3.6 270 18:58 22.09.2022
1702 Clouds 39 1004 22 8000 2.06 210 15:39 22.09.2022
1703 Clouds 35 1005 28 7000 1.54 220 10:51 22.09.2022
1704 Clouds 35 1005 28 7000 1.54 220 10:19 22.09.2022
1705 Clouds 32 1005 29 8000 2.06 10 07:55 22.09.2022
1706 Clouds 27 1004 34 6000 2.06 290 05:22 22.09.2022
1707 Clouds 26 1004 36 7000 1.54 130 01:19 22.09.2022
1708 Clear 28 1004 36 10000 1.03 0 22:29 21.09.2022
1709 Clear 30 1004 32 10000 1.54 20 21:18 21.09.2022
1710 Clear 33 1003 24 10000 2.06 230 18:51 21.09.2022
1711 Clouds 36 1003 21 10000 3.09 170 17:44 21.09.2022
1712 Clouds 39 1003 19 10000 5.66 190 15:47 21.09.2022
1713 Clouds 41 1003 14 10000 5.66 170 13:54 21.09.2022
1714 Clouds 40 1003 20 9000 5.66 110 11:43 21.09.2022
1715 Clouds 37 1005 22 6000 4.12 140 10:59 21.09.2022
1716 Clouds 31 1005 27 5000 3.09 170 09:40 21.09.2022
1717 Clouds 30 1005 28 9000 4.12 170 08:43 21.09.2022
1718 Clear 29 1003 24 10000 3.6 110 03:56 21.09.2022
1719 Clear 25 1003 31 10000 2.57 140 02:38 21.09.2022
1720 Clear 27 1003 26 10000 1.54 130 01:58 21.09.2022
1721 Clear 29 1003 23 10000 2.06 200 00:20 21.09.2022
1722 Clear 34 1003 18 10000 5.14 100 21:53 20.09.2022
1723 Clear 35 1003 17 10000 4.63 120 20:33 20.09.2022
1724 Clouds 36 1003 17 10000 4.12 120 18:51 20.09.2022
1725 Clear 41 1003 13 10000 4.12 100 15:57 20.09.2022
1726 Clear 42 1003 10 10000 3.6 130 14:29 20.09.2022
1727 Clear 42 1004 10 10000 6.17 140 12:32 20.09.2022
1728 Clear 32 1006 20 9000 3.6 130 08:50 20.09.2022
1729 Clear 32 1006 20 9000 3.6 130 08:24 20.09.2022
1730 Clear 25 1004 38 8000 1.03 0 04:40 20.09.2022
1731 Clear 26 1004 34 10000 1.03 0 02:34 20.09.2022
1732 Clear 29 1004 30 10000 0 0 22:46 19.09.2022
1733 Clear 28 1009 12 8000 0 0 21:36 19.09.2022
1734 Clear 32 1005 27 10000 1.54 330 20:40 19.09.2022
1735 Clear 33 1004 24 10000 0.51 0 19:20 19.09.2022
1736 Clear 38 1004 17 10000 0.51 0 17:37 19.09.2022
1737 Clear 41 1004 14 10000 2.06 0 13:53 19.09.2022
1738 Clear 41 1005 16 8000 1.03 0 12:33 19.09.2022
1739 Clear 36 1006 24 6000 2.57 240 10:31 19.09.2022
1740 Clear 32 1005 27 8000 1.03 0 08:42 19.09.2022
1741 Clear 21 1004 49 10000 1.03 0 04:39 19.09.2022
1742 Clear 26 1003 34 10000 1.03 0 01:18 19.09.2022
1743 Clear 28 1004 30 10000 1.54 0 23:22 18.09.2022
1744 Clear 29 1003 32 10000 1.03 0 21:32 18.09.2022
1745 Clear 34 1003 24 10000 2.06 200 19:58 18.09.2022
1746 Clear 38 1002 17 10000 0 0 17:53 18.09.2022
1747 Clear 38 1002 17 10000 0 0 17:19 18.09.2022
1748 Clear 42 1002 12 10000 2.06 270 15:34 18.09.2022
1749 Clear 40 1003 18 10000 3.6 240 13:47 18.09.2022
1750 Clear 43 1002 8 10000 4.57 294 12:33 18.09.2022
1751 Clear 35 1004 28 8000 2.57 310 10:45 18.09.2022
1752 Clear 26 1002 29 10000 2.06 260 03:40 18.09.2022
1753 Clear 27 1001 28 10000 2.06 270 01:24 18.09.2022
1754 Clear 28 1002 26 10000 2.57 280 00:21 18.09.2022
1755 Clear 30 1002 21 10000 3.6 240 21:36 17.09.2022
1756 Clear 29 1002 20 10000 2.06 210 19:42 17.09.2022
1757 Clear 37 1001 14 10000 2.57 270 18:57 17.09.2022
1758 Clear 40 1001 12 10000 6.17 260 15:58 17.09.2022
1759 Clear 40 1001 9 10000 5.9 299 13:56 17.09.2022
1760 Clear 39 1003 11 10000 6.69 305 10:56 17.09.2022
1761 Clear 36 1004 15 10000 6.62 309 08:55 17.09.2022
1762 Clear 26 1004 41 10000 4.12 280 06:24 17.09.2022
1763 Clear 28 1004 28 10000 3.09 270 23:59 16.09.2022
1764 Clear 29 1005 24 10000 3.6 270 22:52 16.09.2022
1765 Clear 30 1005 23 10000 4.12 260 21:22 16.09.2022
1766 Clear 33 1004 16 10000 4.68 294 19:50 16.09.2022
1767 Clear 37 1005 14 10000 8.75 280 16:38 16.09.2022
1768 Clear 38 1005 15 8000 9.26 280 14:58 16.09.2022
1769 Clear 38 1006 15 9000 10.29 290 13:57 16.09.2022
1770 Clear 38 1007 16 10000 9.26 300 11:31 16.09.2022
1771 Clear 32 1009 25 10000 5.14 320 08:19 16.09.2022
1772 Clear 29 1009 30 10000 3.6 310 07:19 16.09.2022
1773 Clear 25 1008 36 10000 4.12 310 06:47 16.09.2022
1774 Clear 27 1007 39 10000 3.09 320 02:40 16.09.2022
1775 Clear 30 1008 28 10000 4.63 300 22:52 15.09.2022
1776 Clear 33 1009 22 10000 5.14 280 20:57 15.09.2022
1777 Clear 34 1008 20 10000 5.66 290 19:49 15.09.2022
1778 Clear 35 1008 18 10000 6.17 290 18:29 15.09.2022
1779 Clear 36 1008 17 10000 7.2 290 17:32 15.09.2022
1780 Clear 38 1008 16 10000 8.23 290 16:43 15.09.2022
1781 Clear 39 1008 17 10000 8.75 290 14:36 15.09.2022
1782 Clear 39 1009 18 10000 6.69 310 12:21 15.09.2022
1783 Clear 33 1010 29 10000 4.63 310 09:54 15.09.2022
1784 Clear 29 1009 34 10000 2.57 310 07:50 15.09.2022
1785 Clear 27 1007 41 10000 2.06 300 03:56 15.09.2022
1786 Clear 27 1007 44 10000 2.57 330 01:20 15.09.2022
1787 Clear 32 1007 31 10000 5.66 290 21:39 14.09.2022
1788 Clear 35 1006 17 10000 4.63 290 19:34 14.09.2022
1789 Clear 36 1005 16 10000 5.14 280 18:32 14.09.2022
1790 Clear 37 1004 14 10000 6.77 299 16:57 14.09.2022
1791 Clear 41 1004 15 10000 6.17 290 15:38 14.09.2022
1792 Clear 40 1004 17 10000 5.66 330 13:54 14.09.2022
1793 Clear 39 1005 18 8000 6.69 330 11:39 14.09.2022
1794 Clear 37 1006 25 9000 6.17 350 09:48 14.09.2022
1795 Clear 30 1005 32 10000 4.12 330 07:29 14.09.2022
1796 Clear 34 1004 22 10000 6.9 340 06:46 14.09.2022
1797 Clear 31 1003 25 10000 5.59 335 04:33 14.09.2022
1798 Clear 30 1002 28 10000 3.6 330 01:47 14.09.2022
1799 Clear 30 1002 28 10000 3.6 330 01:27 14.09.2022
1800 Clear 31 1001 27 10000 3.6 330 00:48 14.09.2022
1801 Clear 32 1001 27 10000 5.66 320 23:54 13.09.2022
1802 Clear 32 1001 27 10000 5.66 320 23:36 13.09.2022
1803 Clear 32 1001 27 10000 5.66 320 23:18 13.09.2022
1804 Clear 32 1001 25 10000 3.6 320 21:50 13.09.2022
1805 Clear 36 1000 20 10000 4.12 290 19:45 13.09.2022
1806 Clear 40 999 17 10000 0.51 140 17:44 13.09.2022
1807 Clear 44 999 13 10000 4.63 170 15:55 13.09.2022
1808 Clear 44 999 13 10000 5.14 190 14:36 13.09.2022
1809 Clear 43 1000 14 10000 3.09 140 12:40 13.09.2022
1810 Clear 36 1001 24 6000 0.51 0 08:50 13.09.2022
1811 Dust 26 1001 38 4900 1.54 190 05:45 13.09.2022
1812 Clear 27 1000 32 9000 0.51 0 00:19 13.09.2022
1813 Clear 30 1000 30 9000 1.03 120 22:50 12.09.2022
1814 Clear 36 1000 12 10000 3.77 313 21:37 12.09.2022
1815 Clear 37 1000 12 10000 3.89 314 20:25 12.09.2022
1816 Clear 36 1000 20 10000 2.06 310 18:44 12.09.2022
1817 Clear 42 1000 13 10000 3.09 290 16:38 12.09.2022
1818 Clear 42 1000 13 10000 3.09 270 14:36 12.09.2022
1819 Clear 41 1002 15 10000 3.09 350 11:29 12.09.2022
1820 Clear 36 1003 20 10000 3.6 350 09:56 12.09.2022
1821 Clear 26 1001 36 10000 3.09 320 04:51 12.09.2022
1822 Clear 26 1001 36 10000 3.09 320 04:24 12.09.2022
1823 Clear 32 1002 27 8000 2.06 330 23:35 11.09.2022
1824 Clear 33 1002 25 10000 3.09 360 22:28 11.09.2022
1825 Clear 33 1003 19 10000 1.03 0 20:50 11.09.2022
1826 Clear 35 1003 20 10000 0 0 19:57 11.09.2022
1827 Clear 35 1003 20 10000 0 0 19:25 11.09.2022
1828 Clear 37 1002 19 10000 1.54 360 18:21 11.09.2022
1829 Clear 42 1002 13 10000 3.09 360 16:46 11.09.2022
1830 Clear 43 1003 12 10000 3.09 320 14:53 11.09.2022
1831 Clear 42 1004 11 10000 2.57 360 12:50 11.09.2022
1832 Clear 37 1006 19 6000 2.57 340 09:25 11.09.2022
1833 Clear 37 1006 19 6000 2.57 340 09:25 11.09.2022
1834 Clear 31 1006 23 5000 3.09 290 07:19 11.09.2022
1835 Clear 32 1004 22 10000 1.54 40 00:54 11.09.2022
1836 Clear 34 1005 22 10000 1.54 40 22:56 10.09.2022
1837 Clear 35 1006 21 10000 4.12 10 21:33 10.09.2022
1838 Clear 34 1006 26 10000 2.06 340 19:48 10.09.2022
1839 Clear 34 1006 26 10000 2.06 340 19:29 10.09.2022
1840 Clear 35 1005 23 10000 2.57 340 18:55 10.09.2022
1841 Clear 42 1005 14 10000 3.09 340 16:51 10.09.2022
1842 Clear 42 1006 14 10000 4.63 340 14:43 10.09.2022
1843 Clear 43 1007 14 10000 5.14 340 12:53 10.09.2022
1844 Clear 41 1007 13 10000 3.6 40 11:35 10.09.2022
1845 Clear 40 1008 16 10000 3.09 20 09:51 10.09.2022
1846 Clear 37 1008 23 7000 2.57 340 08:37 10.09.2022
1847 Clear 35 1008 23 9000 2.57 340 07:49 10.09.2022
1848 Clear 35 1006 23 10000 4.63 360 00:51 10.09.2022
1849 Clear 35 1007 23 10000 3.6 360 23:34 09.09.2022
1850 Clear 36 1007 21 10000 4.12 360 22:20 09.09.2022
1851 Clear 35 1008 26 10000 3.09 350 20:48 09.09.2022
1852 Clear 35 1007 26 10000 3.09 350 19:25 09.09.2022
1853 Clear 36 1006 23 10000 3.09 330 18:53 09.09.2022
1854 Clear 42 1006 15 10000 4.63 340 16:33 09.09.2022
1855 Clear 44 1007 14 10000 5.66 340 13:51 09.09.2022
1856 Clear 44 1007 14 10000 5.14 350 12:47 09.09.2022
1857 Clear 43 1008 14 10000 5.66 360 10:22 09.09.2022
1858 Clear 36 1007 19 10000 5.14 20 06:45 09.09.2022
1859 Clear 35 1006 20 10000 5.66 20 03:24 09.09.2022
1860 Clear 34 1007 27 10000 3.6 340 21:57 08.09.2022
1861 Clear 34 1007 27 10000 3.6 340 21:36 08.09.2022
1862 Clear 33 1007 27 9000 3.6 330 20:38 08.09.2022
1863 Clear 33 1007 27 9000 3.6 330 20:19 08.09.2022
1864 Clear 38 1005 22 10000 1.03 360 18:26 08.09.2022
1865 Clear 43 1004 15 10000 2.57 340 16:27 08.09.2022
1866 Clear 43 1005 17 9000 2.06 350 14:41 08.09.2022
1867 Clear 43 1005 13 7000 4.12 340 13:27 08.09.2022
1868 Clear 43 1005 15 6000 3.6 20 12:33 08.09.2022
1869 Clear 41 1006 16 7000 3.6 40 10:58 08.09.2022
1870 Clear 41 1006 16 7000 3.6 40 10:58 08.09.2022
1871 Clear 37 1006 19 7000 6.17 10 08:59 08.09.2022
1872 Clear 33 1005 24 8000 5.14 10 06:43 08.09.2022
1873 Clear 29 1004 34 10000 3.09 340 02:37 08.09.2022
1874 Clear 29 1004 34 10000 3.09 340 02:19 08.09.2022
1875 Clear 28 1004 34 10000 4.12 320 01:38 08.09.2022
1876 Clear 32 1004 27 10000 2.57 330 22:55 07.09.2022
1877 Clear 32 1004 29 10000 3.09 330 21:43 07.09.2022
1878 Clear 34 1004 26 10000 4.12 230 20:56 07.09.2022
1879 Clear 35 1003 23 10000 3.09 300 19:54 07.09.2022
1880 Clear 39 1002 21 10000 3.6 300 18:39 07.09.2022
1881 Clear 44 1001 15 10000 2.06 10 14:56 07.09.2022
1882 Clear 41 1003 18 7000 3.09 40 10:50 07.09.2022
1883 Clear 41 1003 18 7000 3.09 40 10:24 07.09.2022
1884 Clear 32 1002 29 6000 4.12 310 07:36 07.09.2022
1885 Clear 28 1001 32 10000 3.09 310 04:39 07.09.2022
1886 Clear 29 1001 32 9000 2.57 310 00:25 07.09.2022
1887 Clear 36 1001 23 7000 1.03 360 21:45 06.09.2022
1888 Clear 36 1001 23 7000 1.03 360 21:24 06.09.2022
1889 Clear 38 1000 20 8000 2.57 340 18:53 06.09.2022
1890 Clear 38 1000 20 8000 2.57 340 18:27 06.09.2022
1891 Clear 42 1000 15 8000 4.63 290 17:23 06.09.2022
1892 Clear 44 1000 14 10000 4.12 270 16:40 06.09.2022
1893 Clear 44 1000 14 9000 3.6 290 15:23 06.09.2022
1894 Clear 45 1001 13 7000 3.09 250 13:46 06.09.2022
1895 Clear 45 1001 13 7000 3.09 250 13:25 06.09.2022
1896 Clear 45 1002 13 6000 2.57 310 12:37 06.09.2022
1897 Dust 42 1003 17 3000 2.06 340 10:46 06.09.2022
1898 Dust 35 1003 24 4000 2.57 350 08:53 06.09.2022
1899 Clear 32 1003 25 5000 2.57 330 07:51 06.09.2022
1900 Clear 27 1002 32 10000 3.09 310 04:48 06.09.2022
1901 Clear 31 1002 25 10000 3.09 330 23:42 05.09.2022
1902 Clear 32 1002 25 10000 3.09 330 22:31 05.09.2022
1903 Clear 37 1002 16 10000 3.6 300 20:58 05.09.2022
1904 Clear 39 1002 16 10000 5.14 290 19:50 05.09.2022
1905 Clear 41 1001 14 10000 4.63 280 18:49 05.09.2022
1906 Clear 41 1001 14 10000 4.63 280 18:22 05.09.2022
1907 Clear 43 1001 12 10000 4.12 280 17:31 05.09.2022
1908 Clear 45 1001 11 10000 6.69 270 15:52 05.09.2022
1909 Clear 46 1002 11 10000 4.63 340 13:39 05.09.2022
1910 Clear 45 1002 11 10000 5.66 340 12:29 05.09.2022
1911 Clear 42 1003 16 8000 6.17 320 10:34 05.09.2022
1912 Clear 34 1003 26 9000 5.66 290 07:43 05.09.2022
1913 Clear 33 1001 17 10000 4.63 320 02:58 05.09.2022
1914 Clear 33 1002 18 10000 3.6 310 23:48 04.09.2022
1915 Clear 35 1002 14 10000 4.63 300 22:28 04.09.2022
1916 Clear 37 1002 12 10000 4.12 290 21:45 04.09.2022
1917 Clear 39 1001 13 10000 4.12 270 19:44 04.09.2022
1918 Clear 41 1001 12 10000 3.6 280 18:21 04.09.2022
1919 Clear 44 1001 10 10000 5.14 270 17:24 04.09.2022
1920 Clear 47 1001 8 10000 4.63 340 14:59 04.09.2022
1921 Clear 47 1001 8 10000 4.63 340 14:22 04.09.2022
1922 Clear 46 1002 9 10000 6.17 310 12:24 04.09.2022
1923 Clear 42 1003 12 10000 3.6 290 10:58 04.09.2022
1924 Clear 40 1004 14 10000 4.63 300 09:24 04.09.2022
1925 Clear 29 1004 30 10000 2.06 290 06:27 04.09.2022
1926 Clear 30 1003 25 10000 2.06 290 02:31 04.09.2022
1927 Clear 35 1003 17 10000 2.06 280 22:26 03.09.2022
1928 Clear 35 1003 17 10000 2.06 280 22:26 03.09.2022
1929 Clear 36 1004 16 10000 2.06 280 21:24 03.09.2022
1930 Clear 38 1004 15 10000 3.6 250 20:51 03.09.2022
1931 Clear 44 1003 14 10000 2.57 250 17:37 03.09.2022
1932 Clear 46 1003 10 10000 4.12 240 16:49 03.09.2022
1933 Clear 47 1003 10 10000 4.63 270 14:48 03.09.2022
1934 Clear 47 1003 10 10000 4.63 270 14:30 03.09.2022
1935 Clear 46 1004 9 10000 4.63 270 13:44 03.09.2022
1936 Clear 45 1005 9 7000 4.12 250 11:31 03.09.2022
1937 Clear 36 1006 24 8000 2.57 200 08:57 03.09.2022
1938 Clear 31 1007 27 8000 3.09 200 07:45 03.09.2022
1939 Clear 27 1005 29 10000 3.6 320 04:48 03.09.2022
1940 Clear 31 1005 23 10000 2.06 310 02:35 03.09.2022
1941 Clear 30 1005 25 9000 1.03 210 23:35 02.09.2022
1942 Clear 33 1005 21 10000 2.06 160 21:46 02.09.2022
1943 Clear 36 1005 15 10000 1.03 0 20:40 02.09.2022
1944 Clear 37 1005 15 9000 1.54 270 19:47 02.09.2022
1945 Clear 37 1005 15 9000 1.54 270 19:47 02.09.2022
1946 Clear 39 1004 15 10000 1.54 270 18:50 02.09.2022
1947 Clear 39 1004 15 10000 1.54 270 18:24 02.09.2022
1948 Clear 43 1003 6 10000 1.96 309 17:23 02.09.2022
1949 Clear 45 1004 9 10000 3.09 280 16:22 02.09.2022
1950 Clear 45 1005 10 10000 3.09 250 13:25 02.09.2022
1951 Clear 42 1006 14 8000 2.06 220 10:39 02.09.2022
1952 Clear 39 1007 18 9000 3.09 210 09:42 02.09.2022
1953 Clear 37 1006 19 7000 2.57 210 08:43 02.09.2022
1954 Smoke 28 1005 34 3000 0.51 0 06:44 02.09.2022
1955 Clear 36 1005 12 10000 0.74 106 05:32 02.09.2022
1956 Clear 32 1004 20 9000 2.57 330 23:19 01.09.2022
1957 Clear 33 1004 22 10000 0.51 0 21:47 01.09.2022
1958 Clear 33 1004 22 10000 0.51 0 21:27 01.09.2022
1959 Clear 36 1004 19 10000 2.06 10 20:52 01.09.2022
1960 Clear 35 1003 20 10000 1.54 340 19:25 01.09.2022
1961 Clear 38 1003 14 10000 2.06 190 18:18 01.09.2022
1962 Clear 45 1002 10 10000 4.12 200 16:47 01.09.2022
1963 Clear 46 1003 10 10000 5.66 200 14:41 01.09.2022
1964 Clear 45 1003 10 10000 3.6 160 13:21 01.09.2022
1965 Clear 45 1003 11 10000 4.63 160 12:42 01.09.2022
1966 Clear 44 1004 12 9000 3.09 140 11:50 01.09.2022
1967 Clear 44 1004 12 9000 3.09 140 11:19 01.09.2022
1968 Clear 42 1005 15 10000 4.12 140 09:31 01.09.2022
1969 Smoke 28 1004 26 3000 1.54 150 06:31 01.09.2022
1970 Clear 29 1003 24 10000 3.09 100 02:33 01.09.2022
1971 Clear 32 1003 20 10000 2.06 150 01:29 01.09.2022
1972 Clear 31 1004 27 10000 1.54 340 22:22 31.08.2022
1973 Clear 35 1004 24 10000 0 0 20:35 31.08.2022
1974 Clear 40 1003 15 10000 1.54 110 18:32 31.08.2022
1975 Clear 45 1003 10 10000 4.63 280 16:35 31.08.2022
1976 Clouds 45 1003 10 10000 4.63 250 15:18 31.08.2022
1977 Clear 46 1005 10 10000 3.6 250 12:37 31.08.2022
1978 Clear 44 1005 12 10000 2.06 270 11:48 31.08.2022
1979 Clear 40 1006 17 5000 2.3 285 09:31 31.08.2022
1980 Clear 34 1006 21 9000 2.06 270 07:28 31.08.2022
1981 Clear 29 1005 24 10000 2.06 280 01:57 31.08.2022
1982 Clear 31 1006 23 10000 0.51 0 22:18 30.08.2022
1983 Clear 33 1006 21 10000 0 0 21:27 30.08.2022
1984 Clear 37 1005 16 10000 2.57 240 19:26 30.08.2022
1985 Clear 45 1005 8 10000 3.09 360 16:47 30.08.2022
1986 Clear 45 1006 9 10000 5.66 340 13:37 30.08.2022
1987 Clear 44 1007 10 10000 5.66 340 11:23 30.08.2022
1988 Clear 42 1007 12 10000 5.66 350 10:57 30.08.2022
1989 Clear 36 1007 16 10000 5.66 320 08:51 30.08.2022
1990 Clear 27 1006 21 10000 3.09 330 03:57 30.08.2022
1991 Clear 31 1005 16 10000 3.09 330 00:26 30.08.2022
1992 Clear 32 1005 13 10000 5.14 300 22:36 29.08.2022
1993 Clear 33 1005 16 10000 1.54 320 21:48 29.08.2022
1994 Clear 35 1005 17 10000 0.51 0 20:34 29.08.2022
1995 Clear 39 1003 14 10000 2.06 320 18:55 29.08.2022
1996 Clear 42 1003 11 10000 2.57 330 17:26 29.08.2022
1997 Clear 45 1003 9 10000 3.09 340 16:56 29.08.2022
1998 Clear 45 1003 9 10000 4.12 340 15:18 29.08.2022
1999 Clear 45 1004 9 10000 6.17 350 13:40 29.08.2022
2000 Clear 43 1005 12 10000 4.63 340 11:44 29.08.2022
2001 Clear 41 1005 13 10000 5.66 320 10:42 29.08.2022
2002 Clear 35 1006 18 10000 6.69 300 08:40 29.08.2022
2003 Clear 30 1005 21 10000 4.12 310 06:29 29.08.2022
2004 Clear 31 1004 16 10000 4.12 310 01:58 29.08.2022
2005 Clear 35 1004 13 7000 5.14 320 22:55 28.08.2022
2006 Clear 35 1004 14 8000 4.63 320 21:46 28.08.2022
2007 Clear 37 1004 12 7000 5.14 300 20:59 28.08.2022
2008 Clear 37 1004 13 7000 5.14 300 19:59 28.08.2022
2009 Clear 41 1002 10 8000 5.66 280 18:22 28.08.2022
2010 Clear 43 1002 12 10000 2.57 290 17:45 28.08.2022
2011 Clear 44 1002 10 10000 3.6 340 16:42 28.08.2022
2012 Clear 45 1002 10 10000 6.17 330 14:46 28.08.2022
2013 Clear 45 1002 10 10000 6.17 330 14:46 28.08.2022
2014 Clear 43 1003 12 10000 5.66 360 12:56 28.08.2022
2015 Clear 43 1004 12 10000 7.72 310 11:19 28.08.2022
2016 Clear 41 1004 12 10000 7.72 310 10:19 28.08.2022
2017 Clear 35 1005 18 10000 8.75 310 08:42 28.08.2022
2018 Clear 34 1005 18 10000 8.23 300 07:50 28.08.2022
2019 Clear 33 1004 15 9000 7.2 320 03:44 28.08.2022
2020 Dust 34 1005 20 4000 6.69 300 00:34 28.08.2022
2021 Dust 37 1005 18 1100 7.2 300 22:50 27.08.2022
2022 Dust 37 1005 18 1100 7.2 300 22:19 27.08.2022
2023 Clouds 40 1004 13 800 8.23 290 20:27 27.08.2022
2024 Dust 41 1003 12 800 6.69 280 18:50 27.08.2022
2025 Dust 43 1003 10 2500 6.17 310 16:26 27.08.2022
2026 Dust 44 1003 10 3000 6.69 310 15:30 27.08.2022
2027 Clear 43 1004 12 9000 7.72 310 12:55 27.08.2022
2028 Clear 42 1004 12 9000 8.23 320 11:56 27.08.2022
2029 Clear 38 1005 19 9000 8.23 310 09:52 27.08.2022
2030 Clear 38 1005 19 9000 8.23 310 09:25 27.08.2022
2031 Clear 29 1004 26 10000 5.14 310 05:24 27.08.2022
2032 Clear 33 1003 21 8000 6.17 310 00:51 27.08.2022
2033 Clear 34 1003 20 6000 6.69 310 23:35 26.08.2022
2034 Clear 36 1002 20 6000 7.2 300 21:45 26.08.2022
2035 Clear 38 1002 17 6000 7.2 300 19:40 26.08.2022
2036 Dust 41 1001 14 2000 6.69 280 17:49 26.08.2022
2037 Dust 42 1001 15 2000 9.26 280 15:40 26.08.2022
2038 Dust 43 1001 13 2000 9.77 280 14:56 26.08.2022
2039 Clear 43 1002 12 2500 10.29 290 12:54 26.08.2022
2040 Dust 42 1002 13 2500 10.29 300 11:42 26.08.2022
2041 Dust 42 1002 13 2500 10.29 300 11:21 26.08.2022
2042 Clear 33 1003 21 6000 7.2 310 07:56 26.08.2022
2043 Clear 32 1001 31 10000 5.66 300 02:43 26.08.2022
2044 Clear 35 1002 24 10000 6.17 280 23:45 25.08.2022
2045 Clear 35 1002 26 10000 4.12 260 21:55 25.08.2022
2046 Clear 36 1001 24 10000 3.6 250 20:53 25.08.2022
2047 Clear 37 1001 23 10000 3.09 240 19:27 25.08.2022
2048 Clear 38 1001 22 9000 3.6 270 18:29 25.08.2022
2049 Clear 40 1001 20 10000 4.63 270 17:31 25.08.2022
2050 Clear 41 1001 17 10000 6.69 280 16:36 25.08.2022
2051 Clear 42 1001 15 10000 6.69 290 15:28 25.08.2022
2052 Clear 41 1002 18 10000 7.72 280 13:20 25.08.2022
2053 Clear 40 1003 24 10000 6.69 300 10:49 25.08.2022
2054 Clear 38 1004 30 10000 6.17 290 09:46 25.08.2022
2055 Clear 39 1003 20 10000 6.18 325 07:31 25.08.2022
2056 Clear 29 1003 37 10000 3.09 310 02:41 25.08.2022
2057 Clear 33 1003 27 10000 3.6 290 23:30 24.08.2022
2058 Clear 34 1003 24 10000 3.6 270 22:54 24.08.2022
2059 Clear 35 1003 23 10000 4.63 270 21:39 24.08.2022
2060 Clear 35 1003 23 10000 4.63 270 21:20 24.08.2022
2061 Clear 37 1003 19 10000 3.6 270 19:52 24.08.2022
2062 Clear 41 1002 16 10000 7.72 270 16:51 24.08.2022
2063 Clear 42 1002 14 10000 7.72 280 15:53 24.08.2022
2064 Clear 42 1002 16 10000 7.72 260 14:58 24.08.2022
2065 Clear 42 1003 14 10000 8.23 290 12:28 24.08.2022
2066 Clear 42 1003 16 10000 8.23 280 11:18 24.08.2022
2067 Clear 35 1004 28 10000 6.69 300 08:38 24.08.2022
2068 Clear 31 1002 30 10000 4.12 310 03:54 24.08.2022
2069 Clear 33 1002 33 10000 5.66 300 00:41 24.08.2022
2070 Clear 34 1003 26 10000 3.6 270 22:35 23.08.2022
2071 Clear 35 1003 21 10000 3.6 260 21:49 23.08.2022
2072 Clear 36 1002 19 10000 3.09 250 20:40 23.08.2022
2073 Clear 39 1001 17 10000 3.6 260 18:58 23.08.2022
2074 Clear 41 1001 14 10000 6.17 270 17:56 23.08.2022
2075 Clear 41 1001 14 10000 6.17 270 17:21 23.08.2022
2076 Clear 42 1001 14 10000 4.12 240 15:54 23.08.2022
2077 Clear 43 1002 14 10000 5.14 310 13:54 23.08.2022
2078 Clear 43 1002 13 10000 3.6 330 12:46 23.08.2022
2079 Clear 41 1003 21 10000 1.54 320 10:57 23.08.2022
2080 Clear 41 1003 21 10000 1.54 320 10:33 23.08.2022
2081 Clear 35 1003 29 9000 3.09 290 08:58 23.08.2022
2082 Clear 35 1003 29 9000 3.09 290 08:38 23.08.2022
2083 Clear 35 1003 29 9000 3.09 290 08:18 23.08.2022
2084 Clear 34 1002 26 8000 2.57 360 07:25 23.08.2022
2085 Clear 29 1002 32 10000 2.06 330 06:22 23.08.2022
2086 Clear 33 1001 25 10000 4.63 250 01:44 23.08.2022
2087 Clear 32 1001 27 10000 3.6 250 00:26 23.08.2022
2088 Clear 32 1001 29 10000 3.6 240 23:32 22.08.2022
2089 Clear 33 1001 25 10000 4.12 240 22:24 22.08.2022
2090 Clear 38 1001 17 10000 4.12 290 20:29 22.08.2022
2091 Clear 38 1001 19 10000 3.09 260 19:41 22.08.2022
2092 Clear 39 1001 19 10000 4.12 280 18:37 22.08.2022
2093 Clear 43 1000 15 10000 4.12 290 15:46 22.08.2022
2094 Clear 43 1000 15 10000 4.12 290 15:18 22.08.2022
2095 Dust 40 1001 27 1500 8.23 280 11:45 22.08.2022
2096 Dust 37 1000 28 3000 5.66 280 09:24 22.08.2022
2097 Clear 26 999 36 10000 2.57 240 05:51 22.08.2022
2098 Clear 30 997 28 10000 2.57 110 00:57 22.08.2022
2099 Clear 30 997 28 10000 2.57 110 00:36 22.08.2022
2100 Clear 31 998 23 10000 1.54 140 23:32 21.08.2022
2101 Clear 36 998 16 10000 1.54 270 21:55 21.08.2022
2102 Clear 36 998 16 10000 1.54 270 21:19 21.08.2022
2103 Clear 38 997 17 10000 3.6 210 19:58 21.08.2022
2104 Clear 40 997 15 10000 3.6 220 18:36 21.08.2022
2105 Clear 45 997 12 10000 3.09 240 16:50 21.08.2022
2106 Clear 45 997 13 10000 3.6 240 15:52 21.08.2022
2107 Clear 45 997 13 10000 3.09 250 14:51 21.08.2022
2108 Clear 45 997 14 10000 3.6 270 13:50 21.08.2022
2109 Clear 44 998 14 8000 3.6 240 12:56 21.08.2022
2110 Clear 41 998 21 7000 4.12 350 10:40 21.08.2022
2111 Clear 37 999 26 7000 5.14 280 08:57 21.08.2022
2112 Clear 37 999 26 7000 5.14 280 08:39 21.08.2022
2113 Clear 37 999 26 7000 5.14 280 08:18 21.08.2022
2114 Clear 31 999 40 10000 5.14 250 06:33 21.08.2022
2115 Clear 32 997 25 10000 2.57 330 01:50 21.08.2022
2116 Clear 36 998 21 10000 2.57 300 23:34 20.08.2022
2117 Clouds 35 998 28 7000 1.54 310 21:55 20.08.2022
2118 Clouds 37 998 26 8000 2.06 340 20:51 20.08.2022
2119 Clouds 38 998 25 8000 1.54 350 19:44 20.08.2022
2120 Clouds 39 998 21 9000 1.54 350 18:50 20.08.2022
2121 Clouds 39 998 21 9000 1.54 350 18:26 20.08.2022
2122 Clouds 44 997 15 9000 3.6 280 17:21 20.08.2022
2123 Clear 46 997 15 8000 3.09 270 15:57 20.08.2022
2124 Clouds 46 998 13 8000 3.09 360 14:26 20.08.2022
2125 Dust 45 999 13 3800 4.12 290 11:58 20.08.2022
2126 Dust 45 999 13 3800 4.12 290 11:37 20.08.2022
2127 Clouds 43 1000 11 10000 5.73 348 09:20 20.08.2022
2128 Dust 34 999 29 5000 2.57 340 07:30 20.08.2022
2129 Clear 30 998 32 10000 1.03 0 04:50 20.08.2022
2130 Clear 35 999 23 10000 2.06 320 00:58 20.08.2022
2131 Clouds 36 998 21 10000 4.12 320 23:45 19.08.2022
2132 Clouds 36 999 21 10000 4.12 300 22:45 19.08.2022
2133 Clear 35 999 21 10000 2.06 280 21:20 19.08.2022
2134 Clear 41 997 16 10000 3.09 260 18:59 19.08.2022
2135 Clear 41 997 16 10000 3.09 260 18:59 19.08.2022
2136 Clear 46 997 12 10000 5.66 290 16:23 19.08.2022
2137 Clear 46 998 14 10000 5.66 270 13:56 19.08.2022
2138 Clear 43 999 14 10000 4.63 290 11:51 19.08.2022
2139 Clear 42 999 16 10000 5.14 330 10:33 19.08.2022
2140 Clear 36 999 20 10000 3.6 340 08:43 19.08.2022
2141 Clear 26 998 31 10000 3.6 320 04:39 19.08.2022
2142 Clear 31 997 30 10000 2.06 340 00:42 19.08.2022
2143 Clear 31 997 30 10000 2.06 340 00:19 19.08.2022
2144 Clear 35 997 23 10000 3.6 290 22:57 18.08.2022
2145 Clear 35 997 23 10000 3.6 290 22:23 18.08.2022
2146 Clear 37 997 19 10000 5.66 290 21:49 18.08.2022
2147 Clear 39 998 17 10000 5.66 290 20:55 18.08.2022
2148 Clear 40 997 17 10000 5.66 290 19:39 18.08.2022
2149 Clear 40 997 17 10000 5.66 290 19:20 18.08.2022
2150 Clear 45 997 13 10000 6.69 290 17:32 18.08.2022
2151 Clear 47 997 11 10000 9.77 310 15:53 18.08.2022
2152 Clear 47 997 11 10000 9.26 310 14:21 18.08.2022
2153 Clear 47 998 10 10000 9.26 310 13:44 18.08.2022
2154 Clear 45 998 11 10000 7.72 320 12:28 18.08.2022
2155 Clear 44 999 11 10000 7.2 320 11:20 18.08.2022
2156 Clear 39 1000 16 10000 8.75 310 09:43 18.08.2022
2157 Clear 31 999 22 10000 7.2 300 07:27 18.08.2022
2158 Clear 28 999 26 10000 3.6 330 06:30 18.08.2022
2159 Clear 30 998 32 10000 4.12 320 01:44 18.08.2022
2160 Clear 36 998 23 7000 6.17 300 22:45 17.08.2022
2161 Clear 38 999 17 6000 5.66 290 20:21 17.08.2022
2162 Dust 39 999 17 5000 6.17 290 19:58 17.08.2022
2163 Dust 41 998 16 2500 6.69 290 18:33 17.08.2022
2164 Dust 42 998 14 4000 8.23 290 17:21 17.08.2022
2165 Dust 44 998 10 3000 10.8 300 15:46 17.08.2022
2166 Dust 44 999 13 3000 10.8 290 14:41 17.08.2022
2167 Dust 43 999 15 2000 10.8 290 12:30 17.08.2022
2168 Dust 43 1000 15 2000 10.29 290 11:23 17.08.2022
2169 Clear 40 1001 16 5000 7.72 320 09:22 17.08.2022
2170 Clear 30 1001 26 10000 4.63 320 06:34 17.08.2022
2171 Clear 31 1000 19 10000 5.66 320 01:22 17.08.2022
2172 Clear 34 1000 22 9000 8.23 300 23:27 16.08.2022
2173 Dust 37 1001 19 4300 6.17 300 21:32 16.08.2022
2174 Dust 38 1001 17 3500 8.23 300 20:22 16.08.2022
2175 Dust 39 1001 15 3000 8.23 300 19:27 16.08.2022
2176 Dust 42 1001 13 1300 8.23 290 17:56 16.08.2022
2177 Dust 43 1001 14 1300 9.77 300 16:55 16.08.2022
2178 Clear 44 1000 7 10000 10.62 318 15:45 16.08.2022
2179 Dust 43 1001 12 1000 10.8 320 14:54 16.08.2022
2180 Dust 43 1001 12 1000 10.8 320 14:36 16.08.2022
2181 Dust 43 1002 11 1200 11.83 310 12:39 16.08.2022
2182 Clear 40 1003 18 7000 8.75 310 10:23 16.08.2022
2183 Clear 34 1004 26 9000 5.66 320 08:55 16.08.2022
2184 Clear 34 1004 26 9000 5.66 320 08:26 16.08.2022
2185 Clear 30 1003 28 10000 4.63 320 06:48 16.08.2022
2186 Clear 31 1002 29 10000 5.14 320 01:20 16.08.2022
2187 Clear 34 1002 31 10000 6.17 300 22:26 15.08.2022
2188 Clear 36 1002 24 10000 6.17 290 21:51 15.08.2022
2189 Clear 37 1002 22 10000 6.69 300 20:35 15.08.2022
2190 Clear 38 1002 20 10000 6.69 290 19:59 15.08.2022
2191 Clear 40 1000 12 10000 7.17 316 18:00 15.08.2022
2192 Clear 44 1001 13 10000 8.23 310 16:25 15.08.2022
2193 Clear 44 1001 13 10000 8.75 310 15:54 15.08.2022
2194 Clear 43 1002 17 10000 7.2 330 13:54 15.08.2022
2195 Clear 42 1002 20 9000 6.69 350 11:25 15.08.2022
2196 Clear 38 1003 25 5000 5.14 330 09:53 15.08.2022
2197 Clear 31 1002 30 10000 5.14 320 07:49 15.08.2022
2198 Clear 25 1000 33 10000 4.12 310 04:35 15.08.2022
2199 Clear 29 999 32 10000 2.57 320 00:54 15.08.2022
2200 Clear 30 999 28 10000 3.6 320 22:38 14.08.2022
2201 Clear 32 999 25 10000 3.6 320 21:38 14.08.2022
2202 Clear 36 998 20 10000 3.09 300 19:54 14.08.2022
2203 Clear 39 998 18 10000 3.6 290 18:58 14.08.2022
2204 Clear 39 998 18 10000 3.6 290 18:19 14.08.2022
2205 Clear 42 998 16 10000 7.2 270 16:53 14.08.2022
2206 Clear 43 998 17 8000 6.17 270 15:49 14.08.2022
2207 Dust 43 998 18 3000 7.2 290 14:33 14.08.2022
2208 Dust 43 999 18 3000 6.69 280 13:50 14.08.2022
2209 Dust 43 999 18 3000 6.69 280 13:20 14.08.2022
2210 Dust 42 999 19 3000 5.66 310 12:28 14.08.2022
2211 Dust 39 1000 24 1000 6.17 330 10:50 14.08.2022
2212 Dust 35 1000 31 1000 8.75 310 08:51 14.08.2022
2213 Clear 32 1000 37 9000 6.17 310 06:22 14.08.2022
2214 Clear 32 997 23 10000 3.6 290 02:49 14.08.2022
2215 Clear 31 997 23 10000 2.57 300 00:19 14.08.2022
2216 Clear 34 997 20 10000 2.57 270 22:56 13.08.2022
2217 Clear 33 997 22 10000 2.06 260 21:19 13.08.2022
2218 Clear 36 997 19 10000 3.09 260 20:43 13.08.2022
2219 Clear 37 996 18 10000 3.09 260 19:44 13.08.2022
2220 Clear 42 996 13 10000 6.69 290 17:59 13.08.2022
2221 Clear 43 996 15 8000 7.72 280 15:32 13.08.2022
2222 Clear 44 997 16 6000 7.72 290 14:28 13.08.2022
2223 Dust 43 997 18 5000 8.75 290 13:41 13.08.2022
2224 Dust 42 998 21 4000 8.23 290 11:53 13.08.2022
2225 Dust 40 998 27 2500 9.77 300 10:31 13.08.2022
2226 Clear 38 999 32 6000 8.23 300 09:18 13.08.2022
2227 Clear 29 998 45 10000 5.66 280 05:57 13.08.2022
2228 Clear 34 998 26 10000 5.66 280 00:29 13.08.2022
2229 Clear 35 998 26 10000 6.17 280 22:23 12.08.2022
2230 Clear 36 999 21 10000 6.17 290 20:58 12.08.2022
2231 Clear 37 999 20 10000 5.66 290 19:43 12.08.2022
2232 Clear 38 998 20 10000 6.17 290 18:52 12.08.2022
2233 Clear 40 998 17 10000 7.72 280 17:57 12.08.2022
2234 Clear 42 998 14 10000 7.72 290 16:24 12.08.2022
2235 Clear 43 999 14 9000 10.29 300 14:47 12.08.2022
2236 Dust 42 1000 17 3100 11.32 310 12:57 12.08.2022
2237 Dust 42 1000 17 5000 10.29 320 11:19 12.08.2022
2238 Clear 35 1001 34 8000 7.72 310 08:47 12.08.2022
2239 Dust 32 1001 40 4500 8.75 310 07:44 12.08.2022
2240 Clear 30 1000 42 10000 4.12 320 03:41 12.08.2022
2241 Clear 33 999 31 10000 6.17 300 00:31 12.08.2022
2242 Clear 34 1000 29 10000 6.17 290 23:40 11.08.2022
2243 Clear 35 1000 28 10000 6.17 290 22:35 11.08.2022
2244 Clear 35 1000 26 10000 5.66 290 21:43 11.08.2022
2245 Clear 35 1000 26 10000 5.66 290 21:22 11.08.2022
2246 Clear 36 1000 24 10000 5.66 290 20:29 11.08.2022
2247 Clear 37 1000 23 10000 6.17 290 19:33 11.08.2022
2248 Clear 38 999 22 10000 6.69 290 18:39 11.08.2022
2249 Clear 42 999 16 10000 7.2 290 16:38 11.08.2022
2250 Clear 42 999 19 10000 8.75 300 15:37 11.08.2022
2251 Dust 42 1000 21 4000 9.26 300 13:51 11.08.2022
2252 Clear 41 1001 24 9000 9.26 300 11:26 11.08.2022
2253 Clear 33 1001 35 7000 7.72 310 07:56 11.08.2022
2254 Clear 29 999 37 10000 4.63 320 04:53 11.08.2022
2255 Clear 31 998 35 10000 4.12 310 01:55 11.08.2022
2256 Clear 34 999 31 10000 6.17 290 22:54 10.08.2022
2257 Clear 35 999 28 10000 6.17 290 21:44 10.08.2022
2258 Dust 36 999 24 7000 6.17 290 20:56 10.08.2022
2259 Clear 37 998 25 7000 6.69 290 19:58 10.08.2022
2260 Clear 38 998 22 6000 6.69 280 18:45 10.08.2022
2261 Clear 40 998 21 10000 8.23 290 17:20 10.08.2022
2262 Clouds 43 999 20 900 10.29 300 13:49 10.08.2022
2263 Clouds 42 999 20 300 9.26 290 12:50 10.08.2022
2264 Clear 43 999 14 10000 10.48 317 10:31 10.08.2022
2265 Dust 35 1000 29 2000 11.32 300 08:37 10.08.2022
2266 Clear 33 1000 33 7000 10.29 300 07:22 10.08.2022
2267 Clear 33 999 25 10000 7.59 327 04:50 10.08.2022
2268 Clear 33 998 29 10000 4.63 300 00:50 10.08.2022
2269 Clear 34 999 27 10000 5.66 290 23:27 09.08.2022
2270 Clear 37 1000 22 10000 6.69 280 21:41 09.08.2022
2271 Clear 37 1000 22 10000 6.69 280 21:22 09.08.2022
2272 Clear 39 999 14 10000 7.72 302 18:56 09.08.2022
2273 Clear 42 999 14 10000 6.69 280 17:31 09.08.2022
2274 Clear 43 998 10 10000 8.78 310 16:46 09.08.2022
2275 Clear 44 998 9 10000 9.63 313 16:22 09.08.2022
2276 Clear 45 998 9 10000 9.68 314 14:50 09.08.2022
2277 Clear 42 1001 16 10000 8.75 310 11:29 09.08.2022
2278 Clear 36 1002 21 9000 6.69 320 08:53 09.08.2022
2279 Clear 39 1001 12 10000 8.25 327 07:58 09.08.2022
2280 Clear 28 1001 26 10000 3.6 310 05:24 09.08.2022
2281 Clear 31 1000 25 10000 3.6 320 00:59 09.08.2022
2282 Clear 31 1000 25 10000 3.6 320 00:59 09.08.2022
2283 Clear 34 1000 21 10000 4.63 320 23:25 08.08.2022
2284 Clear 37 1000 17 10000 5.4 341 22:42 08.08.2022
2285 Clear 34 1001 15 10000 3.09 310 21:44 08.08.2022
2286 Clear 38 1001 14 10000 5.73 324 20:39 08.08.2022
2287 Clear 39 1001 13 10000 5.14 290 19:35 08.08.2022
2288 Clear 41 1000 14 10000 5.14 280 18:18 08.08.2022
2289 Clear 45 1000 15 9000 7.2 290 15:54 08.08.2022
2290 Clear 45 1000 15 9000 7.2 290 15:36 08.08.2022
2291 Clear 44 1001 14 8000 5.14 320 12:30 08.08.2022
2292 Dust 41 1002 20 2500 5.66 340 10:33 08.08.2022
2293 Dust 35 1001 24 5000 4.12 300 07:59 08.08.2022
2294 Clear 30 999 35 10000 3.09 320 04:31 08.08.2022
2295 Clear 33 998 29 10000 1.54 320 00:33 08.08.2022
2296 Clear 37 998 20 10000 3.6 310 21:42 07.08.2022
2297 Clear 37 998 20 10000 3.6 310 21:24 07.08.2022
2298 Clear 39 998 18 10000 4.12 300 20:24 07.08.2022
2299 Clear 41 998 18 10000 4.63 280 19:52 07.08.2022
2300 Clear 41 998 18 10000 4.63 280 19:22 07.08.2022
2301 Clear 43 997 18 6000 6.17 280 17:45 07.08.2022
2302 Dust 45 997 15 4000 6.69 280 16:52 07.08.2022
2303 Dust 46 997 13 3000 6.17 300 15:40 07.08.2022
2304 Dust 46 997 12 3100 5.14 330 14:27 07.08.2022
2305 Dust 46 998 9 5000 7.2 310 12:41 07.08.2022
2306 Dust 42 999 14 2000 8.23 310 10:53 07.08.2022
2307 Dust 42 999 14 2000 8.23 310 10:21 07.08.2022
2308 Dust 33 996 27 5000 3.6 310 04:41 07.08.2022
2309 Clear 35 996 29 6000 3.6 300 02:35 07.08.2022
2310 Clear 40 996 22 10000 4.63 300 22:40 06.08.2022
2311 Clear 40 996 22 10000 4.63 300 22:18 06.08.2022
2312 Clear 41 996 22 8000 3.09 270 20:19 06.08.2022
2313 Clear 43 996 19 10000 4.12 280 19:37 06.08.2022
2314 Clear 45 995 13 10000 6.16 306 17:52 06.08.2022
2315 Clear 47 996 15 9000 6.17 270 16:30 06.08.2022
2316 Clear 47 997 15 10000 4.63 280 13:52 06.08.2022
2317 Clear 47 998 16 10000 5.14 310 12:50 06.08.2022
2318 Clouds 45 998 16 7000 4.63 300 11:21 06.08.2022
2319 Clouds 41 999 21 6000 4.63 300 09:50 06.08.2022
2320 Clear 38 999 25 6000 3.09 340 07:36 06.08.2022
2321 Clear 35 998 24 10000 3.6 310 02:22 06.08.2022
2322 Clear 37 998 23 10000 2.06 310 22:40 05.08.2022
2323 Clear 38 998 20 8000 3.09 300 21:36 05.08.2022
2324 Clear 42 998 20 8000 3.09 300 19:22 05.08.2022
2325 Clear 43 998 18 8000 3.6 310 18:44 05.08.2022
2326 Clear 43 998 18 8000 3.6 310 18:44 05.08.2022
2327 Clear 46 998 17 8000 3.6 340 17:26 05.08.2022
2328 Clear 47 998 15 8000 5.14 340 16:43 05.08.2022
2329 Clear 49 997 9 10000 8.7 321 15:21 05.08.2022
2330 Clear 48 999 14 10000 6.17 340 13:43 05.08.2022
2331 Clear 48 999 14 10000 6.17 340 13:22 05.08.2022
2332 Clear 49 1000 11 10000 7.72 320 12:24 05.08.2022
2333 Clouds 47 1000 10 10000 7.8 327 10:30 05.08.2022
2334 Clear 37 1001 20 10000 4.63 310 07:58 05.08.2022
2335 Clear 39 1000 16 10000 4.88 352 05:30 05.08.2022
2336 Clear 34 1000 24 10000 3.09 330 00:30 05.08.2022
2337 Clear 35 1001 21 10000 4.12 310 22:25 04.08.2022
2338 Clear 36 1001 21 10000 2.57 300 21:25 04.08.2022
2339 Clear 39 1001 19 10000 2.57 310 20:42 04.08.2022
2340 Clear 41 1001 17 10000 2.57 300 19:23 04.08.2022
2341 Clear 43 1001 17 10000 2.57 320 18:35 04.08.2022
2342 Clear 46 1000 16 10000 3.6 340 17:37 04.08.2022
2343 Clear 48 1002 12 10000 3.6 10 13:57 04.08.2022
2344 Clear 48 1002 12 10000 4.12 330 12:43 04.08.2022
2345 Clear 46 1002 14 10000 4.12 340 10:50 04.08.2022
2346 Clear 36 1002 24 7000 3.09 310 07:52 04.08.2022
2347 Clear 31 1001 27 10000 2.57 320 04:30 04.08.2022
2348 Clear 32 1000 25 10000 2.57 320 02:27 04.08.2022
2349 Clear 34 1001 24 10000 2.57 320 23:44 03.08.2022
2350 Clear 35 1000 24 10000 2.06 290 22:29 03.08.2022
2351 Clear 41 1000 20 10000 2.57 270 20:45 03.08.2022
2352 Clear 41 1000 17 9000 1.54 280 19:35 03.08.2022
2353 Clear 43 999 18 9000 2.06 350 18:23 03.08.2022
2354 Clear 48 999 13 10000 2.57 270 16:24 03.08.2022
2355 Clear 48 999 14 8000 3.6 250 14:45 03.08.2022
2356 Dust 47 1000 15 3500 3.6 250 12:30 03.08.2022
2357 Dust 43 1000 15 3000 2.57 120 08:26 03.08.2022
2358 Clear 31 999 27 8000 0.51 0 04:47 03.08.2022
2359 Clear 30 999 32 10000 3.09 320 03:30 03.08.2022
2360 Clear 32 998 27 7000 1.03 0 01:35 03.08.2022
2361 Clear 35 998 21 8000 2.06 150 23:23 02.08.2022
2362 Clear 36 998 26 10000 1.54 150 21:55 02.08.2022
2363 Clear 36 998 26 10000 1.54 150 21:30 02.08.2022
2364 Clear 39 998 18 9000 3.6 150 19:19 02.08.2022
2365 Clear 48 997 11 10000 3.6 150 16:38 02.08.2022
2366 Clear 47 999 11 10000 4.63 170 12:55 02.08.2022
2367 Clear 41 1000 21 7000 3.6 80 09:42 02.08.2022
2368 Clear 39 999 22 6000 3.09 80 08:26 02.08.2022
2369 Clear 37 999 20 6000 3.6 100 07:50 02.08.2022
2370 Clear 31 998 27 10000 3.09 90 04:55 02.08.2022
2371 Clear 31 997 29 10000 1.54 150 01:26 02.08.2022
2372 Clear 35 998 21 10000 1.03 170 22:57 01.08.2022
2373 Clear 38 997 23 10000 2.06 100 20:57 01.08.2022
2374 Clear 41 997 15 10000 1.54 120 19:44 01.08.2022
2375 Clear 42 997 15 10000 2.06 340 18:53 01.08.2022
2376 Clear 48 996 8 10000 2.57 220 16:54 01.08.2022
2377 Clear 48 996 8 10000 2.57 220 16:29 01.08.2022
2378 Clear 48 997 7 10000 5.14 190 15:33 01.08.2022
2379 Clear 48 997 8 10000 4.63 210 14:43 01.08.2022
2380 Clear 47 998 8 10000 5.14 190 12:57 01.08.2022
2381 Clear 45 998 10 10000 4.63 170 10:47 01.08.2022
2382 Clear 40 998 16 6000 3.6 90 08:45 01.08.2022
2383 Clear 33 998 24 8000 2.06 170 06:50 01.08.2022
2384 Clear 29 997 30 10000 1.54 270 04:29 01.08.2022
2385 Clear 30 996 26 10000 1.03 120 00:56 01.08.2022
2386 Clear 34 997 22 10000 1.03 0 22:42 31.07.2022
2387 Clear 36 997 19 10000 1.54 140 21:46 31.07.2022
2388 Clear 35 997 28 10000 1.03 0 20:21 31.07.2022
2389 Clear 42 996 12 10000 1.54 10 18:38 31.07.2022
2390 Clear 47 996 8 10000 3.6 270 16:22 31.07.2022
2391 Clear 46 998 10 10000 4.63 260 13:59 31.07.2022
2392 Clear 46 998 9 10000 2.57 280 12:43 31.07.2022
2393 Clear 43 999 13 10000 2.06 320 10:22 31.07.2022
2394 Clear 39 1000 13 10000 3.09 320 08:29 31.07.2022
2395 Clear 29 999 24 10000 2.57 290 04:46 31.07.2022
2396 Clear 36 998 11 10000 3.65 351 00:56 31.07.2022
2397 Clear 36 1000 15 10000 2.06 250 22:40 30.07.2022
2398 Clear 36 1000 15 10000 1.03 0 21:50 30.07.2022
2399 Clear 39 999 8 10000 4.67 304 21:24 30.07.2022
2400 Clear 38 1000 13 10000 2.57 260 20:28 30.07.2022
2401 Clear 41 1000 11 10000 4.63 280 19:42 30.07.2022
2402 Clear 45 999 8 10000 6.17 300 17:52 30.07.2022
2403 Clear 46 999 7 10000 8.75 290 16:37 30.07.2022
2404 Clear 46 1000 8 10000 7.2 270 15:29 30.07.2022
2405 Clear 46 1001 8 10000 5.66 280 13:23 30.07.2022
2406 Clear 45 1002 9 10000 4.12 260 12:22 30.07.2022
2407 Clear 42 1003 12 10000 2.57 280 10:45 30.07.2022
2408 Clear 42 1003 12 10000 2.57 280 10:19 30.07.2022
2409 Clear 37 1003 18 8000 2.57 280 08:54 30.07.2022
2410 Clear 32 1003 27 10000 1.03 0 06:58 30.07.2022
2411 Clear 28 1001 24 10000 1.54 290 02:33 30.07.2022
2412 Clear 32 1002 17 10000 1.03 280 23:57 29.07.2022
2413 Clear 35 1002 14 10000 3.6 300 21:37 29.07.2022
2414 Clear 39 1002 12 10000 5.14 280 20:50 29.07.2022
2415 Clear 40 1001 11 10000 5.14 280 19:46 29.07.2022
2416 Clear 44 1000 9 10000 6.69 290 17:25 29.07.2022
2417 Clear 46 1001 8 10000 7.2 280 14:48 29.07.2022
2418 Clear 45 1002 11 10000 4.12 300 12:42 29.07.2022
2419 Clear 37 1003 16 10000 3.09 310 08:52 29.07.2022
2420 Clear 37 1003 16 10000 3.09 310 08:23 29.07.2022
2421 Clear 29 1002 24 8000 3.09 260 05:22 29.07.2022
2422 Clear 31 1001 19 10000 2.06 310 01:19 29.07.2022
2423 Clear 33 1002 16 10000 3.6 310 21:41 28.07.2022
2424 Clear 38 1002 12 10000 5.14 290 20:54 28.07.2022
2425 Clear 38 1002 12 10000 5.14 290 20:18 28.07.2022
2426 Clear 40 1001 11 10000 4.63 280 19:40 28.07.2022
2427 Clear 42 1000 6 10000 5.85 305 18:20 28.07.2022
2428 Clear 42 1000 6 10000 5.85 305 17:36 28.07.2022
2429 Clear 44 1000 9 10000 8.75 300 16:41 28.07.2022
2430 Clear 46 1001 8 10000 6.69 280 14:28 28.07.2022
2431 Clear 45 1002 9 10000 5.66 320 12:41 28.07.2022
2432 Clear 40 1003 13 9000 3.6 340 09:25 28.07.2022
2433 Clear 26 1001 27 10000 2.06 300 05:45 28.07.2022
2434 Clear 26 1001 27 10000 2.06 300 05:21 28.07.2022
2435 Clear 34 999 18 10000 4.12 340 00:28 28.07.2022
2436 Clear 34 1000 16 10000 3.6 300 21:58 27.07.2022
2437 Clear 35 1000 16 10000 2.57 300 20:20 27.07.2022
2438 Clear 38 999 13 10000 4.12 290 19:30 27.07.2022
2439 Clear 44 998 10 10000 7.2 300 16:33 27.07.2022
2440 Clear 44 999 10 10000 7.2 290 15:51 27.07.2022
2441 Clear 45 999 9 10000 6.17 310 14:42 27.07.2022
2442 Clear 45 999 10 10000 5.66 280 13:58 27.07.2022
2443 Clear 43 1000 12 10000 4.12 270 11:49 27.07.2022
2444 Clear 33 1000 21 10000 2.06 290 07:53 27.07.2022
2445 Clear 25 999 36 10000 2.57 310 05:23 27.07.2022
2446 Clear 31 998 18 10000 1.03 320 23:41 26.07.2022
2447 Clear 32 998 19 10000 2.06 330 22:24 26.07.2022
2448 Clear 32 999 20 10000 1.54 330 21:19 26.07.2022
2449 Clear 35 998 18 10000 2.57 320 19:39 26.07.2022
2450 Clear 39 998 12 10000 3.6 300 18:41 26.07.2022
2451 Clear 42 998 12 10000 4.63 280 17:57 26.07.2022
2452 Clear 43 999 10 10000 5.66 300 15:47 26.07.2022
2453 Clear 43 999 10 10000 6.17 280 14:44 26.07.2022
2454 Clear 42 1000 12 10000 5.14 270 12:41 26.07.2022
2455 Clear 40 1000 17 10000 4.63 300 10:57 26.07.2022
2456 Clear 34 1001 22 10000 4.12 270 08:31 26.07.2022
2457 Clear 26 999 31 10000 3.6 230 03:58 26.07.2022
2458 Clear 29 998 23 10000 1.54 360 00:24 26.07.2022
2459 Clear 30 999 19 10000 3.09 320 22:43 25.07.2022
2460 Clear 30 999 19 10000 3.09 320 22:21 25.07.2022
2461 Clear 32 999 17 10000 3.09 300 21:38 25.07.2022
2462 Clear 32 999 17 10000 2.06 320 20:39 25.07.2022
2463 Clear 35 998 14 10000 2.57 320 19:26 25.07.2022
2464 Clear 38 998 11 10000 3.6 320 18:18 25.07.2022
2465 Clear 41 998 9 10000 7.2 290 17:24 25.07.2022
2466 Clear 42 998 10 10000 7.2 270 14:23 25.07.2022
2467 Clear 39 999 17 10000 5.14 290 11:39 25.07.2022
2468 Clear 34 1000 21 10000 3.6 280 08:22 25.07.2022
2469 Clear 31 997 16 9000 3.6 320 01:49 25.07.2022
2470 Clear 34 997 20 10000 4.12 300 23:49 24.07.2022
2471 Clear 35 997 17 9000 4.63 290 22:51 24.07.2022
2472 Clear 35 997 17 9000 4.63 290 22:24 24.07.2022
2473 Clear 35 997 16 8000 2.57 260 21:18 24.07.2022
2474 Clear 36 997 19 8000 3.09 250 20:46 24.07.2022
2475 Clear 38 996 17 10000 3.09 230 19:38 24.07.2022
2476 Clear 39 996 15 8000 3.09 240 18:30 24.07.2022
2477 Clear 42 996 10 10000 5.66 270 15:57 24.07.2022
2478 Clear 43 996 10 10000 6.69 290 15:33 24.07.2022
2479 Clear 42 996 12 10000 5.14 280 13:54 24.07.2022
2480 Clear 41 997 13 10000 5.66 240 12:52 24.07.2022
2481 Clear 40 997 15 10000 4.63 240 11:38 24.07.2022
2482 Clear 39 998 16 10000 4.63 270 10:59 24.07.2022
2483 Clear 35 998 20 10000 4.12 280 08:31 24.07.2022
2484 Clear 32 998 27 10000 5.66 290 07:47 24.07.2022
2485 Clear 27 998 32 10000 3.09 300 05:44 24.07.2022
2486 Clear 30 997 19 10000 3.6 310 00:28 24.07.2022
2487 Clear 37 999 13 10000 6.17 280 21:28 23.07.2022
2488 Clear 38 999 12 10000 4.63 280 19:59 23.07.2022
2489 Clear 39 999 11 9000 6.69 280 18:50 23.07.2022
2490 Clear 41 999 10 10000 7.72 290 17:28 23.07.2022
2491 Clear 42 999 8 10000 8.75 290 16:33 23.07.2022
2492 Clear 43 999 6 10000 8.16 306 15:22 23.07.2022
2493 Clouds 43 999 11 9000 9.77 280 14:58 23.07.2022
2494 Clouds 43 999 11 9000 9.77 280 14:27 23.07.2022
2495 Clear 42 1000 13 10000 7.72 280 13:26 23.07.2022
2496 Clear 40 1001 15 10000 5.66 300 10:45 23.07.2022
2497 Clear 40 1001 15 10000 5.66 300 10:21 23.07.2022
2498 Clear 36 1002 17 9000 5.66 310 08:31 23.07.2022
2499 Clear 27 1001 32 10000 3.09 320 03:39 23.07.2022
2500 Clear 34 1001 16 10000 4.98 331 01:27 23.07.2022
2501 Clear 34 1001 18 10000 4.63 320 22:42 22.07.2022
2502 Clear 37 1001 15 10000 4.63 290 20:56 22.07.2022
2503 Clear 37 1001 16 10000 4.12 310 19:41 22.07.2022
2504 Clear 40 1000 11 10000 5.82 321 18:28 22.07.2022
2505 Clear 44 1000 10 10000 8.23 290 16:55 22.07.2022
2506 Clear 45 1000 9 10000 6.69 270 14:55 22.07.2022
2507 Clear 43 1001 14 9000 5.14 340 11:36 22.07.2022
2508 Dust 40 1002 17 5000 5.66 300 09:26 22.07.2022
2509 Dust 36 1002 19 4000 5.66 310 08:37 22.07.2022
2510 Dust 34 1001 21 3000 5.66 300 07:20 22.07.2022
2511 Clear 34 1000 16 10000 4.82 352 03:43 22.07.2022
2512 Clear 35 1000 23 10000 3.6 320 22:45 21.07.2022
2513 Clear 37 1000 19 10000 3.6 300 21:34 21.07.2022
2514 Clear 41 999 15 8000 4.63 270 19:30 21.07.2022
2515 Clear 44 998 13 10000 4.63 270 17:45 21.07.2022
2516 Clear 45 997 8 10000 6.91 302 17:19 21.07.2022
2517 Dust 46 998 12 2000 5.66 290 15:22 21.07.2022
2518 Clear 46 998 12 7000 4.63 290 14:39 21.07.2022
2519 Clear 45 999 14 8000 5.66 310 12:46 21.07.2022
2520 Clear 43 999 15 10000 5.14 310 11:19 21.07.2022
2521 Clear 40 1000 18 10000 6.17 310 09:42 21.07.2022
2522 Clear 37 999 18 9000 6.17 300 08:52 21.07.2022
2523 Clear 34 999 20 9000 7.2 310 07:50 21.07.2022
2524 Clear 31 999 22 10000 5.14 300 06:25 21.07.2022
2525 Clear 32 997 25 10000 3.6 320 01:42 21.07.2022
2526 Clear 40 997 12 10000 6.56 322 22:22 20.07.2022
2527 Clear 40 997 12 10000 6.56 322 22:22 20.07.2022
2528 Clear 39 998 16 10000 5.66 290 21:42 20.07.2022
2529 Clear 41 998 15 10000 7.2 280 20:39 20.07.2022
2530 Clear 41 997 10 10000 7.16 308 19:43 20.07.2022
2531 Clear 43 997 14 10000 6.69 280 18:52 20.07.2022
2532 Clear 43 997 14 10000 6.69 280 18:29 20.07.2022
2533 Clear 47 997 10 10000 5.66 290 16:46 20.07.2022
2534 Clear 47 997 9 10000 10.29 300 15:32 20.07.2022
2535 Clear 47 998 10 10000 9.77 280 14:32 20.07.2022
2536 Clear 48 998 9 9000 9.26 300 12:34 20.07.2022
2537 Clear 45 1000 12 10000 5.66 320 10:28 20.07.2022
2538 Clear 28 1000 24 10000 2.57 320 05:44 20.07.2022
2539 Clear 30 999 21 10000 4.12 320 00:54 20.07.2022
2540 Clear 30 999 21 10000 4.12 320 00:36 20.07.2022
2541 Clear 34 999 20 10000 2.57 330 22:35 19.07.2022
2542 Clear 35 999 16 10000 3.09 310 21:53 19.07.2022
2543 Clear 39 999 14 10000 4.12 300 20:49 19.07.2022
2544 Clear 41 999 13 10000 4.12 290 19:22 19.07.2022
2545 Clear 43 999 13 10000 5.66 280 18:35 19.07.2022
2546 Clear 45 998 11 10000 6.69 290 17:53 19.07.2022
2547 Clear 47 998 10 10000 5.14 320 15:27 19.07.2022
2548 Clear 47 999 11 10000 4.63 330 13:33 19.07.2022
2549 Clear 46 1000 12 10000 5.14 360 11:32 19.07.2022
2550 Clear 46 1001 7 10000 6.79 331 09:51 19.07.2022
2551 Clear 40 1001 17 8000 5.14 340 08:46 19.07.2022
2552 Clear 37 1001 19 8000 3.09 300 07:46 19.07.2022
2553 Clear 37 1001 19 8000 3.09 300 07:18 19.07.2022
2554 Clear 29 1000 28 10000 3.09 320 05:18 19.07.2022
2555 Clear 29 999 28 10000 2.57 310 02:38 19.07.2022
2556 Clear 34 999 22 10000 2.06 330 23:54 18.07.2022
2557 Clear 34 999 22 10000 2.06 330 23:20 18.07.2022
2558 Clear 34 999 21 10000 1.54 320 22:27 18.07.2022
2559 Clear 35 1000 20 10000 1.54 270 21:24 18.07.2022
2560 Clear 36 1000 19 10000 1.03 0 20:34 18.07.2022
2561 Clear 42 999 14 10000 4.63 270 18:32 18.07.2022
2562 Clear 45 998 11 10000 7.2 280 16:45 18.07.2022
2563 Clear 46 998 12 10000 6.17 280 15:34 18.07.2022
2564 Clear 46 999 10 10000 6.69 300 13:32 18.07.2022
2565 Clear 45 1000 11 10000 4.12 340 11:44 18.07.2022
2566 Clear 40 1000 18 10000 5.14 330 09:56 18.07.2022
2567 Clear 37 1000 22 9000 5.14 310 08:19 18.07.2022
2568 Clear 26 1000 34 10000 2.06 310 05:35 18.07.2022
2569 Clear 33 999 18 10000 3.6 310 23:19 17.07.2022
2570 Clear 35 999 17 10000 4.63 290 22:32 17.07.2022
2571 Clear 36 1000 17 10000 3.6 280 21:40 17.07.2022
2572 Clear 37 999 15 10000 3.6 260 20:46 17.07.2022
2573 Clear 37 999 15 10000 3.6 260 20:18 17.07.2022
2574 Clear 39 999 14 10000 4.63 270 19:25 17.07.2022
2575 Clear 41 998 12 10000 5.14 270 18:22 17.07.2022
2576 Clear 41 998 9 10000 5.01 292 17:37 17.07.2022
2577 Clear 44 998 10 10000 8.23 280 16:49 17.07.2022
2578 Clear 44 998 10 10000 8.23 280 16:24 17.07.2022
2579 Clear 45 999 10 10000 8.23 280 14:20 17.07.2022
2580 Clear 44 999 12 9000 7.2 280 13:24 17.07.2022
2581 Clear 41 1000 17 9000 8.23 290 10:34 17.07.2022
2582 Clear 36 1000 24 9000 6.69 320 08:38 17.07.2022
2583 Clear 31 999 27 10000 4.63 310 02:43 17.07.2022
2584 Clear 31 999 25 10000 3.6 300 01:47 17.07.2022
2585 Clear 34 999 20 10000 4.63 290 23:19 16.07.2022
2586 Clear 38 999 17 10000 6.17 290 20:59 16.07.2022
2587 Clear 39 998 17 10000 5.66 280 19:25 16.07.2022
2588 Clear 42 998 15 8000 6.17 280 17:53 16.07.2022
2589 Clear 43 998 14 6000 7.72 280 16:24 16.07.2022
2590 Clear 44 999 13 800 9.26 280 13:47 16.07.2022
2591 Clear 40 1000 15 900 8.23 300 10:40 16.07.2022
2592 Dust 38 1000 18 1000 8.23 300 09:30 16.07.2022
2593 Clear 41 999 16 10000 8.71 320 08:42 16.07.2022
2594 Dust 34 1000 26 1200 10.29 300 07:51 16.07.2022
2595 Clear 27 998 28 10000 3.6 290 03:40 16.07.2022
2596 Clear 29 998 28 10000 3.09 340 02:35 16.07.2022
2597 Clear 30 998 26 10000 1.03 290 23:28 15.07.2022
2598 Clear 30 998 28 10000 1.03 280 22:38 15.07.2022
2599 Clear 31 998 23 10000 1.03 260 21:24 15.07.2022
2600 Clear 36 998 19 10000 2.57 300 19:59 15.07.2022
2601 Clear 40 997 12 10000 4.57 317 18:35 15.07.2022
2602 Clear 41 997 11 10000 4.86 315 17:36 15.07.2022
2603 Clear 44 998 15 10000 5.66 280 14:48 15.07.2022
2604 Clear 42 998 14 10000 8.23 280 12:49 15.07.2022
2605 Clear 40 999 17 10000 8.75 290 10:54 15.07.2022
2606 Clear 36 998 26 8000 8.75 290 08:49 15.07.2022
2607 Clear 30 997 28 10000 5.14 300 05:56 15.07.2022
2608 Clear 34 995 17 10000 3.6 260 00:52 15.07.2022
2609 Clear 35 995 15 10000 3.6 260 23:36 14.07.2022
2610 Clear 36 996 14 10000 4.63 270 22:45 14.07.2022
2611 Clear 36 995 15 10000 4.12 270 21:46 14.07.2022
2612 Clear 36 995 15 10000 4.12 270 21:28 14.07.2022
2613 Clear 36 995 16 10000 3.6 260 20:44 14.07.2022
2614 Clear 36 995 16 10000 3.6 260 20:20 14.07.2022
2615 Clear 40 995 13 10000 5.14 270 18:52 14.07.2022
2616 Clear 43 995 10 10000 7.72 280 16:22 14.07.2022
2617 Clear 44 995 9 7000 10.29 290 15:30 14.07.2022
2618 Clear 44 996 11 7000 8.75 280 13:53 14.07.2022
2619 Dust 44 997 12 5000 9.26 290 12:58 14.07.2022
2620 Dust 44 997 12 3500 10.29 290 11:47 14.07.2022
2621 Dust 44 997 12 3500 10.29 290 11:23 14.07.2022
2622 Mist 39 998 18 3700 9.26 300 09:54 14.07.2022
2623 Dust 34 999 22 2500 8.75 320 07:47 14.07.2022
2624 Clear 33 998 18 10000 5.14 290 01:26 14.07.2022
2625 Clear 34 998 18 10000 6.17 290 00:53 14.07.2022
2626 Clear 36 998 16 10000 5.66 280 22:33 13.07.2022
2627 Clear 37 998 16 10000 7.2 280 21:59 13.07.2022
2628 Clear 37 998 16 10000 7.2 280 21:18 13.07.2022
2629 Clear 39 998 15 10000 7.2 280 19:34 13.07.2022
2630 Clear 42 997 13 9000 8.23 280 17:52 13.07.2022
2631 Dust 44 997 14 5000 9.77 280 16:46 13.07.2022
2632 Dust 44 998 15 3000 8.75 280 15:26 13.07.2022
2633 Dust 44 999 16 1500 9.77 300 13:24 13.07.2022
2634 Dust 41 1000 18 4000 8.23 290 10:46 13.07.2022
2635 Dust 41 1000 18 4000 8.23 290 10:25 13.07.2022
2636 Clear 39 1001 21 6000 8.75 290 09:26 13.07.2022
2637 Clear 34 1001 31 10000 7.72 300 07:52 13.07.2022
2638 Clear 29 1000 24 10000 3.09 280 03:26 13.07.2022
2639 Clear 33 1000 21 10000 4.12 270 00:18 13.07.2022
2640 Clear 34 1001 20 10000 3.6 280 22:18 12.07.2022
2641 Clear 35 1001 18 10000 4.63 270 21:35 12.07.2022
2642 Clear 36 1001 19 10000 5.14 270 20:42 12.07.2022
2643 Clear 38 1001 17 10000 5.66 280 19:37 12.07.2022
2644 Clear 39 1001 13 10000 5.66 280 18:21 12.07.2022
2645 Clear 42 1001 12 10000 8.23 280 16:20 12.07.2022
2646 Clear 42 1002 13 10000 8.75 300 14:31 12.07.2022
2647 Clear 42 1002 15 10000 8.23 300 13:24 12.07.2022
2648 Clear 40 1003 18 10000 8.75 290 11:46 12.07.2022
2649 Clear 39 1003 21 8000 9.26 300 10:25 12.07.2022
2650 Clear 35 1004 29 10000 7.2 310 08:40 12.07.2022
2651 Clear 33 1003 35 10000 8.75 310 07:47 12.07.2022
2652 Clear 28 1003 36 10000 3.09 290 05:45 12.07.2022
2653 Clear 28 1002 32 10000 4.63 300 04:18 12.07.2022
2654 Clear 31 1002 23 10000 4.12 280 00:20 12.07.2022
2655 Clear 33 1002 22 10000 4.63 280 22:39 11.07.2022
2656 Clear 35 1001 20 10000 5.14 290 20:56 11.07.2022
2657 Clear 35 1001 20 10000 5.14 290 20:32 11.07.2022
2658 Clear 37 1001 18 10000 5.66 310 18:48 11.07.2022
2659 Clear 37 1001 18 10000 5.66 310 18:23 11.07.2022
2660 Clear 37 1001 18 10000 5.66 310 18:23 11.07.2022
2661 Clear 40 1000 16 10000 9.26 290 16:26 11.07.2022
2662 Clear 41 1000 15 8000 8.75 280 15:23 11.07.2022
2663 Clear 41 1001 16 800 9.77 300 12:42 11.07.2022
2664 Clear 39 1001 19 500 8.23 290 11:23 11.07.2022
2665 Dust 37 1001 23 1400 8.75 290 09:55 11.07.2022
2666 Dust 36 1001 23 2500 8.23 290 09:25 11.07.2022
2667 Dust 34 1001 22 3500 10.29 300 08:31 11.07.2022
2668 Clear 32 998 25 8000 5.66 300 00:59 11.07.2022
2669 Clear 33 998 24 8000 6.17 300 23:54 10.07.2022
2670 Clear 34 998 21 9000 5.66 290 22:45 10.07.2022
2671 Clear 38 997 17 8000 8.23 280 20:55 10.07.2022
2672 Clear 38 997 17 8000 8.23 280 20:36 10.07.2022
2673 Clear 39 994 12 10000 9.73 302 19:29 10.07.2022
2674 Clear 40 995 17 700 9.26 280 18:25 10.07.2022
2675 Clear 40 994 11 10000 9.56 298 17:33 10.07.2022
2676 Dust 42 995 13 1500 8.75 280 16:21 10.07.2022
2677 Clear 43 995 14 800 9.26 280 14:47 10.07.2022
2678 Clear 43 995 14 600 9.26 280 13:30 10.07.2022
2679 Clear 42 996 16 900 10.29 290 11:44 10.07.2022
2680 Dust 37 996 30 900 8.23 290 09:46 10.07.2022
2681 Dust 35 996 28 2000 8.23 290 08:44 10.07.2022
2682 Dust 33 996 25 4000 7.72 300 07:20 10.07.2022
2683 Clear 35 995 15 10000 5.14 290 23:53 09.07.2022
2684 Clear 36 995 15 10000 5.14 280 22:26 09.07.2022
2685 Clear 38 995 12 10000 9.31 306 21:47 09.07.2022
2686 Clear 40 995 14 10000 6.69 280 19:57 09.07.2022
2687 Clear 41 995 13 10000 6.17 280 18:32 09.07.2022
2688 Clear 42 995 14 10000 7.2 280 17:32 09.07.2022
2689 Clear 43 995 12 8000 8.75 280 16:39 09.07.2022
2690 Clear 44 993 9 10000 10.86 299 15:39 09.07.2022
2691 Dust 44 996 12 5000 9.77 270 14:24 09.07.2022
2692 Dust 44 996 13 2000 9.77 270 13:48 09.07.2022
2693 Dust 44 997 12 1500 10.8 280 12:43 09.07.2022
2694 Dust 43 997 13 2000 11.32 290 11:19 09.07.2022
2695 Clear 43 998 14 7000 10.8 300 10:22 09.07.2022
2696 Clear 35 999 23 8000 6.69 300 07:45 09.07.2022
2697 Dust 32 998 25 5000 4.63 320 04:53 09.07.2022
2698 Clear 34 997 19 10000 5.73 304 00:59 09.07.2022
2699 Clear 35 998 21 6000 3.6 260 22:42 08.07.2022
2700 Clear 36 998 19 10000 4.12 240 21:34 08.07.2022
2701 Clear 38 999 17 10000 3.6 240 20:40 08.07.2022
2702 Clouds 39 998 17 10000 3.6 270 19:48 08.07.2022
2703 Clouds 40 998 17 10000 5.14 290 18:20 08.07.2022
2704 Clear 42 998 15 10000 4.63 290 16:40 08.07.2022
2705 Clear 43 999 12 10000 7.2 300 14:51 08.07.2022
2706 Clear 44 999 9 10000 7.1 297 13:26 08.07.2022
2707 Clear 41 1001 16 10000 3.6 0 11:28 08.07.2022
2708 Clear 43 1000 8 10000 5.54 318 10:28 08.07.2022
2709 Clear 37 1001 18 10000 3.6 290 08:27 08.07.2022
2710 Clear 32 1001 22 10000 4.63 290 06:49 08.07.2022
2711 Clear 30 999 25 10000 3.09 320 01:23 08.07.2022
2712 Clear 33 999 21 10000 2.57 280 22:59 07.07.2022
2713 Clear 33 999 21 10000 2.57 280 22:29 07.07.2022
2714 Clear 35 999 20 10000 2.57 320 20:22 07.07.2022
2715 Clear 41 998 12 10000 3.6 300 18:20 07.07.2022
2716 Clear 43 997 8 10000 7.56 312 16:51 07.07.2022
2717 Clear 44 998 12 10000 1.54 270 14:34 07.07.2022
2718 Clear 45 999 11 10000 2.57 0 13:18 07.07.2022
2719 Clear 44 999 10 10000 2.06 60 12:24 07.07.2022
2720 Clear 44 999 10 10000 2.06 60 12:24 07.07.2022
2721 Clear 43 999 14 10000 4.63 350 11:44 07.07.2022
2722 Clear 43 999 14 10000 4.63 350 11:24 07.07.2022
2723 Clear 42 1000 15 10000 5.14 340 10:40 07.07.2022
2724 Clear 42 1000 15 10000 5.14 340 10:22 07.07.2022
2725 Clear 33 999 19 10000 5.66 340 06:48 07.07.2022
2726 Clear 32 997 19 10000 3.6 300 01:43 07.07.2022
2727 Clear 36 997 13 10000 5.74 303 23:36 06.07.2022
2728 Clear 36 997 13 10000 5.65 296 23:18 06.07.2022
2729 Clear 35 998 18 9000 3.6 250 22:52 06.07.2022
2730 Clear 35 998 18 9000 3.6 250 22:34 06.07.2022
2731 Clear 36 997 21 10000 3.09 220 20:33 06.07.2022
2732 Clear 38 997 19 8000 2.57 220 19:34 06.07.2022
2733 Clear 43 996 10 9000 5.66 260 17:22 06.07.2022
2734 Clear 43 996 10 9000 5.66 260 17:22 06.07.2022
2735 Clear 43 996 10 10000 3.09 260 15:58 06.07.2022
2736 Dust 43 997 14 3000 6.17 270 13:56 06.07.2022
2737 Dust 42 997 16 3000 6.17 270 12:30 06.07.2022
2738 Dust 42 997 16 3000 6.17 270 12:30 06.07.2022
2739 Dust 41 997 18 3000 5.66 270 11:44 06.07.2022
2740 Dust 41 997 15 3500 5.14 300 10:18 06.07.2022
2741 Clear 39 997 13 10000 6.11 317 07:44 06.07.2022
2742 Clear 37 996 14 10000 7.02 320 07:19 06.07.2022
2743 Clear 32 996 20 10000 4.12 290 01:20 06.07.2022
2744 Clear 36 997 15 10000 5.14 280 22:44 05.07.2022
2745 Clear 36 997 16 10000 4.12 270 21:29 05.07.2022
2746 Clear 37 996 16 10000 4.12 270 20:35 05.07.2022
2747 Clear 39 996 15 10000 4.12 270 19:40 05.07.2022
2748 Clear 41 996 14 10000 5.66 280 18:26 05.07.2022
2749 Clear 43 995 12 10000 7.2 270 17:41 05.07.2022
2750 Clear 44 995 12 10000 7.72 280 16:39 05.07.2022
2751 Clear 44 996 13 10000 7.72 270 15:23 05.07.2022
2752 Clear 44 996 12 9000 9.26 280 13:47 05.07.2022
2753 Clear 45 995 9 10000 7.56 315 12:41 05.07.2022
2754 Clear 43 996 10 10000 7.07 302 10:46 05.07.2022
2755 Clear 42 997 11 10000 7.04 301 10:25 05.07.2022
2756 Clear 36 998 21 8000 5.66 300 08:24 05.07.2022
2757 Clear 33 998 27 6000 5.66 300 07:21 05.07.2022
2758 Clear 29 997 30 10000 4.12 300 04:46 05.07.2022
2759 Clear 31 996 23 10000 5.14 300 02:48 05.07.2022
2760 Clear 35 996 13 10000 5.66 280 23:42 04.07.2022
2761 Clear 36 997 14 10000 6.69 280 22:59 04.07.2022
2762 Clear 36 997 14 10000 6.69 280 22:20 04.07.2022
2763 Clear 37 997 14 10000 7.2 280 21:18 04.07.2022
2764 Clear 38 996 8 10000 9.45 294 20:50 04.07.2022
2765 Clear 38 996 8 10000 9.45 294 20:32 04.07.2022
2766 Clear 38 996 19 10000 3.6 250 19:44 04.07.2022
2767 Clear 38 996 19 10000 3.6 250 19:25 04.07.2022
2768 Clear 43 995 13 10000 4.63 270 17:40 04.07.2022
2769 Clear 44 995 13 10000 6.17 260 15:42 04.07.2022
2770 Clear 44 995 14 10000 6.69 270 14:39 04.07.2022
2771 Clear 44 996 16 10000 6.17 280 13:27 04.07.2022
2772 Clear 41 996 20 10000 5.66 260 11:43 04.07.2022
2773 Clear 40 996 20 8000 5.14 310 10:33 04.07.2022
2774 Clear 38 996 23 8000 4.63 280 09:36 04.07.2022
2775 Clear 32 996 27 10000 6.17 280 06:50 04.07.2022
2776 Clear 32 995 22 8000 6.69 290 03:23 04.07.2022
2777 Dust 36 995 15 3700 9.77 290 00:27 04.07.2022
2778 Dust 36 995 21 4000 8.75 290 22:55 03.07.2022
2779 Clear 38 994 17 6000 6.69 280 20:47 03.07.2022
2780 Clear 38 994 17 6000 6.69 280 20:21 03.07.2022
2781 Clear 39 993 16 6000 6.69 280 19:26 03.07.2022
2782 Clear 40 993 15 10000 5.66 270 18:32 03.07.2022
2783 Clear 42 993 13 10000 5.14 270 17:42 03.07.2022
2784 Dust 42 993 15 600 3.09 250 15:28 03.07.2022
2785 Dust 41 993 16 600 4.12 300 14:57 03.07.2022
2786 Dust 41 994 17 500 4.12 310 13:50 03.07.2022
2787 Dust 40 994 21 400 3.6 310 13:27 03.07.2022
2788 Dust 38 995 25 300 6.17 280 12:22 03.07.2022
2789 Dust 35 996 31 300 5.66 280 10:55 03.07.2022
2790 Dust 35 996 31 300 5.66 280 10:36 03.07.2022
2791 Dust 34 996 36 650 6.17 280 08:48 03.07.2022
2792 Dust 32 996 37 2300 7.2 280 07:34 03.07.2022
2793 Clear 31 996 27 10000 4.63 250 01:39 03.07.2022
2794 Clear 32 996 25 10000 3.09 250 23:50 02.07.2022
2795 Clear 33 997 22 10000 2.57 250 22:32 02.07.2022
2796 Clear 33 997 24 10000 2.06 300 20:37 02.07.2022
2797 Clear 34 997 21 10000 3.09 320 19:50 02.07.2022
2798 Clear 34 997 21 10000 3.09 320 19:19 02.07.2022
2799 Clear 40 997 15 10000 7.2 290 17:40 02.07.2022
2800 Clear 40 997 16 10000 7.2 250 16:38 02.07.2022
2801 Clear 41 997 13 10000 8.65 304 13:51 02.07.2022
2802 Clear 41 999 14 7000 8.75 300 11:52 02.07.2022
2803 Clear 40 999 17 8000 6.69 340 10:53 02.07.2022
2804 Clear 40 999 17 8000 6.69 340 10:33 02.07.2022
2805 Dust 35 1000 28 2000 6.69 290 08:54 02.07.2022
2806 Dust 35 1000 28 2000 7.72 300 08:19 02.07.2022
2807 Clear 30 999 26 6000 6.17 330 06:51 02.07.2022
2808 Clear 33 998 24 10000 5.14 300 00:55 02.07.2022
2809 Clear 35 998 19 10000 7.15 314 23:37 01.07.2022
2810 Clear 36 998 19 10000 6.17 290 22:40 01.07.2022
2811 Clear 37 998 16 10000 6.17 290 21:40 01.07.2022
2812 Clear 38 998 17 10000 6.17 290 20:59 01.07.2022
2813 Clear 38 998 17 10000 6.17 290 20:37 01.07.2022
2814 Clear 39 998 14 10000 6.69 290 19:41 01.07.2022
2815 Clear 43 997 11 8000 8.75 290 17:53 01.07.2022
2816 Clear 44 997 10 6000 8.75 270 15:50 01.07.2022
2817 Clear 45 998 9 6000 10.29 300 13:54 01.07.2022
2818 Clear 42 999 15 6000 6.69 300 11:50 01.07.2022
2819 Clear 41 999 15 10000 6.69 310 10:20 01.07.2022
2820 Clear 39 999 22 9000 7.2 290 09:31 01.07.2022
2821 Clear 28 997 23 10000 3.09 300 03:42 01.07.2022
2822 Clear 32 997 19 10000 3.6 320 00:26 01.07.2022
2823 Clear 34 998 17 8000 2.57 320 22:58 30.06.2022
2824 Clear 34 998 17 8000 2.57 320 22:33 30.06.2022
2825 Clear 33 998 18 8000 3.09 300 21:59 30.06.2022
2826 Clear 33 998 18 8000 3.09 300 21:41 30.06.2022
2827 Clear 38 998 14 7000 3.6 290 20:30 30.06.2022
2828 Clear 38 997 14 8000 4.12 310 19:54 30.06.2022
2829 Clear 38 997 14 8000 4.12 310 19:24 30.06.2022
2830 Clear 40 997 13 7000 3.09 320 18:42 30.06.2022
2831 Clear 43 997 11 6000 4.63 330 17:43 30.06.2022
2832 Clear 44 996 7 10000 8.07 324 16:55 30.06.2022
2833 Clear 45 997 9 10000 7.72 320 15:39 30.06.2022
2834 Dust 45 998 10 5000 6.69 340 13:34 30.06.2022
2835 Clear 44 998 12 9000 7.72 330 12:35 30.06.2022
2836 Clear 44 999 12 8000 7.2 320 11:37 30.06.2022
2837 Clear 40 999 14 8000 7.72 350 09:55 30.06.2022
2838 Clear 40 999 14 8000 7.72 350 09:34 30.06.2022
2839 Clear 38 999 16 8000 6.69 340 08:18 30.06.2022
2840 Clear 35 999 18 10000 6.17 330 07:18 30.06.2022
2841 Clear 29 999 26 10000 3.6 290 01:42 30.06.2022
2842 Clear 31 999 25 10000 2.06 330 23:34 29.06.2022
2843 Clear 30 1000 25 10000 2.57 320 22:40 29.06.2022
2844 Clear 35 1000 18 10000 3.09 290 21:39 29.06.2022
2845 Clear 37 1000 16 10000 4.12 280 20:34 29.06.2022
2846 Clear 38 999 18 10000 4.63 340 19:39 29.06.2022
2847 Clear 41 1000 14 10000 5.66 330 17:54 29.06.2022
2848 Clear 42 1000 13 10000 7.72 350 16:47 29.06.2022
2849 Clear 43 1000 12 10000 6.69 340 15:32 29.06.2022
2850 Clear 42 1001 13 10000 6.69 340 12:49 29.06.2022
2851 Clear 41 1002 13 10000 7.72 320 11:47 29.06.2022
2852 Clear 39 1003 16 10000 5.66 320 09:34 29.06.2022
2853 Clear 36 1002 20 10000 4.12 330 08:45 29.06.2022
2854 Clear 25 1002 33 10000 2.57 330 05:42 29.06.2022
2855 Clear 26 1002 31 10000 3.6 330 02:21 29.06.2022
2856 Clear 27 1002 29 10000 2.06 320 00:38 29.06.2022
2857 Clear 31 1002 23 10000 1.54 330 23:55 28.06.2022
2858 Clear 31 1003 25 10000 2.57 360 22:48 28.06.2022
2859 Clear 34 1003 15 10000 4.45 357 21:55 28.06.2022
2860 Clear 34 1003 15 10000 4.45 357 21:33 28.06.2022
2861 Clear 32 1003 22 10000 2.57 330 20:55 28.06.2022
2862 Clear 33 1003 21 10000 3.09 320 19:48 28.06.2022
2863 Clear 33 1003 21 10000 3.09 320 19:24 28.06.2022
2864 Clear 38 1002 14 10000 4.63 300 18:37 28.06.2022
2865 Clear 40 1002 12 10000 7.72 300 16:35 28.06.2022
2866 Clear 40 1002 12 9000 8.23 300 15:54 28.06.2022
2867 Clear 41 1002 12 8000 8.75 300 14:22 28.06.2022
2868 Clear 40 1003 12 6000 9.77 300 13:55 28.06.2022
2869 Clear 40 1003 12 6000 9.77 300 13:32 28.06.2022
2870 Clear 39 1003 14 8000 8.23 300 11:57 28.06.2022
2871 Clear 36 1004 19 9000 6.69 340 09:46 28.06.2022
2872 Clear 34 1004 21 9000 6.17 330 08:46 28.06.2022
2873 Clear 31 1004 27 10000 4.63 330 07:58 28.06.2022
2874 Clear 31 1004 27 10000 4.63 330 07:19 28.06.2022
2875 Clear 26 1003 34 10000 3.6 310 02:25 28.06.2022
2876 Clear 30 1004 26 10000 3.6 320 23:47 27.06.2022
2877 Clear 30 1004 26 10000 3.6 320 22:56 27.06.2022
2878 Clear 31 1004 25 10000 3.6 310 21:39 27.06.2022
2879 Clear 31 1004 25 10000 3.6 310 21:18 27.06.2022
2880 Clear 34 1003 22 10000 3.6 320 19:48 27.06.2022
2881 Clear 37 1003 18 6000 3.6 290 18:40 27.06.2022
2882 Clear 38 1002 17 9000 4.12 290 17:26 27.06.2022
2883 Clear 39 1003 17 6000 5.14 280 15:43 27.06.2022
2884 Clear 40 1002 12 10000 5.65 297 13:51 27.06.2022
2885 Dust 38 1004 18 5000 4.12 230 12:57 27.06.2022
2886 Dust 37 1005 19 2000 3.09 290 10:51 27.06.2022
2887 Dust 36 1004 19 2000 3.6 320 09:43 27.06.2022
2888 Dust 34 1004 24 2500 3.6 330 08:40 27.06.2022
2889 Dust 32 1004 27 2000 2.57 330 07:39 27.06.2022
2890 Dust 28 1004 30 1800 1.54 290 05:19 27.06.2022
2891 Clear 30 1003 28 6000 3.09 350 01:21 27.06.2022
2892 Clear 32 1004 27 6000 2.06 270 22:58 26.06.2022
2893 Dust 33 1004 24 5000 2.57 260 21:37 26.06.2022
2894 Clear 34 1003 18 10000 4.68 297 20:28 26.06.2022
2895 Dust 35 1002 23 5000 3.6 270 18:33 26.06.2022
2896 Clear 36 1002 21 9000 6.69 290 17:40 26.06.2022
2897 Clear 37 1002 23 8000 4.12 290 15:36 26.06.2022
2898 Clear 36 1002 26 8000 2.57 0 14:22 26.06.2022
2899 Clear 36 1003 26 10000 4.63 280 13:24 26.06.2022
2900 Dust 35 1003 26 10000 6.69 220 11:39 26.06.2022
2901 Clear 34 1003 27 9000 6.17 290 10:42 26.06.2022
2902 Clear 33 1003 31 8000 6.17 270 09:58 26.06.2022
2903 Clear 30 1002 39 6000 6.69 290 07:47 26.06.2022
2904 Clear 30 1002 39 6000 6.69 290 07:47 26.06.2022
2905 Dust 29 1002 45 1500 6.69 280 06:19 26.06.2022
2906 Clouds 30 999 31 10000 6.46 339 00:37 26.06.2022
2907 Clouds 34 998 27 300 9.77 300 00:18 26.06.2022
2908 Clouds 36 998 23 350 10.8 300 23:31 25.06.2022
2909 Clouds 36 998 21 500 11.83 300 22:46 25.06.2022
2910 Clouds 36 998 23 650 9.77 300 22:24 25.06.2022
2911 Dust 36 997 21 5000 3.09 300 21:21 25.06.2022
2912 Dust 37 996 20 5000 3.6 300 20:39 25.06.2022
2913 Clear 38 995 19 7000 3.6 320 19:59 25.06.2022
2914 Dust 41 994 17 4800 3.09 140 18:23 25.06.2022
2915 Clouds 42 994 17 6000 4.12 110 17:27 25.06.2022
2916 Clouds 44 995 13 8000 5.66 130 16:27 25.06.2022
2917 Clear 44 997 14 9000 6.17 140 14:31 25.06.2022
2918 Clear 43 999 14 7000 9.26 170 12:46 25.06.2022
2919 Clear 43 999 14 7000 9.26 170 12:27 25.06.2022
2920 Clear 40 1001 16 9000 6.17 180 09:35 25.06.2022
2921 Clear 39 1001 17 10000 5.66 170 08:54 25.06.2022
2922 Clear 39 1001 17 10000 5.66 170 08:20 25.06.2022
2923 Clear 38 1001 13 10000 6.02 171 06:35 25.06.2022
2924 Clear 34 1001 22 10000 3.6 60 00:50 25.06.2022
2925 Clear 35 1001 21 10000 3.6 70 23:57 24.06.2022
2926 Clear 36 1001 20 10000 3.6 80 22:28 24.06.2022
2927 Clear 36 1002 21 9000 2.57 60 21:26 24.06.2022
2928 Clear 36 1002 23 9000 2.06 60 20:23 24.06.2022
2929 Clear 35 1001 21 10000 3.09 100 19:37 24.06.2022
2930 Clear 35 1001 21 10000 3.09 100 19:18 24.06.2022
2931 Clear 39 1001 16 10000 3.09 110 18:31 24.06.2022
2932 Clear 40 1001 9 10000 2.33 310 17:57 24.06.2022
2933 Clear 41 1001 15 10000 2.06 0 16:46 24.06.2022
2934 Clear 43 1001 9 10000 3.34 264 14:32 24.06.2022
2935 Clouds 42 1003 13 10000 3.09 0 13:59 24.06.2022
2936 Clouds 42 1003 13 10000 3.09 0 13:35 24.06.2022
2937 Clear 40 1004 15 10000 3.6 0 11:41 24.06.2022
2938 Clear 40 1004 12 10000 1.82 251 10:36 24.06.2022
2939 Clear 39 1005 16 6000 2.57 70 09:42 24.06.2022
2940 Smoke 37 1005 19 4000 2.57 80 08:53 24.06.2022
2941 Clear 37 1005 14 10000 0.52 228 07:57 24.06.2022
2942 Clear 31 1005 30 10000 0 0 06:44 24.06.2022
2943 Clear 31 1005 30 10000 0 0 06:22 24.06.2022
2944 Clear 25 1004 41 8000 1.03 0 04:46 24.06.2022
2945 Clear 29 1004 34 10000 0 0 23:32 23.06.2022
2946 Clear 31 1004 27 10000 1.03 0 22:43 23.06.2022
2947 Clear 34 1003 24 10000 2.57 330 20:59 23.06.2022
2948 Clear 34 1003 24 10000 2.57 330 20:36 23.06.2022
2949 Clear 36 1002 21 10000 0 0 19:48 23.06.2022
2950 Clouds 37 1002 22 10000 1.03 0 18:26 23.06.2022
2951 Clouds 39 1001 18 10000 2.57 290 17:34 23.06.2022
2952 Clouds 39 1001 17 10000 3.09 250 16:26 23.06.2022
2953 Clouds 39 1001 18 10000 3.6 270 15:26 23.06.2022
2954 Clouds 40 1002 17 10000 5.14 250 14:18 23.06.2022
2955 Clear 39 1002 19 8000 2.57 0 11:33 23.06.2022
2956 Clear 37 1002 22 8000 2.06 260 10:40 23.06.2022
2957 Clear 36 1002 24 7000 2.57 0 09:19 23.06.2022
2958 Clear 25 1000 38 10000 1.03 0 04:43 23.06.2022
2959 Clear 31 999 28 10000 1.52 194 00:27 23.06.2022
2960 Clear 31 999 28 10000 1.52 194 23:49 22.06.2022
2961 Clear 31 1000 28 10000 0.3 171 22:53 22.06.2022
2962 Clear 32 1000 26 10000 1.82 4 21:28 22.06.2022
2963 Clear 32 1000 26 10000 1.82 4 20:48 22.06.2022
2964 Clear 32 1000 25 10000 2.83 354 20:18 22.06.2022
2965 Clear 33 998 22 10000 3.84 333 19:27 22.06.2022
2966 Clear 35 998 18 10000 4.94 315 17:31 22.06.2022
2967 Clear 36 997 14 10000 6.3 299 16:40 22.06.2022
2968 Clear 38 997 12 10000 7.11 288 15:28 22.06.2022
2969 Dust 36 998 16 9000 6.69 250 14:41 22.06.2022
2970 Clear 35 998 20 8000 6.69 290 13:46 22.06.2022
2971 Clear 35 998 20 8000 6.69 290 13:24 22.06.2022
2972 Clear 34 998 27 6000 7.72 270 11:50 22.06.2022
2973 Clear 34 998 27 6000 7.72 270 11:50 22.06.2022
2974 Dust 33 998 27 2000 8.75 290 10:58 22.06.2022
2975 Dust 33 998 27 2000 8.75 290 10:26 22.06.2022
2976 Clear 30 998 32 600 10.29 300 08:48 22.06.2022
2977 Clear 29 997 32 800 9.26 300 06:39 22.06.2022
2978 Clear 28 995 28 10000 3.09 330 01:52 22.06.2022
2979 Clear 28 995 30 10000 3.6 320 00:56 22.06.2022
2980 Clear 31 996 29 6000 3.6 320 22:40 21.06.2022
2981 Dust 33 996 25 4500 3.09 320 20:40 21.06.2022
2982 Dust 38 996 19 4200 3.6 290 19:18 21.06.2022
2983 Dust 40 996 17 2600 6.69 270 17:44 21.06.2022
2984 Dust 42 996 12 3100 6.69 270 16:34 21.06.2022
2985 Clear 43 998 8 10000 8.64 311 11:56 21.06.2022
2986 Clear 40 999 15 10000 5.66 310 10:33 21.06.2022
2987 Clear 37 999 16 10000 6.17 310 08:54 21.06.2022
2988 Clear 34 1000 20 8000 6.69 310 07:40 21.06.2022
2989 Clear 28 999 26 9000 3.6 330 04:42 21.06.2022
2990 Clear 34 1000 22 6000 4.63 310 23:45 20.06.2022
2991 Clear 36 1000 19 7000 5.14 300 22:21 20.06.2022
2992 Clear 36 1000 19 7000 5.14 300 22:21 20.06.2022
2993 Clear 38 1000 15 10000 6.71 313 21:36 20.06.2022
2994 Clear 39 1000 15 9000 5.66 300 20:27 20.06.2022
2995 Clear 41 1000 14 9000 5.14 290 19:23 20.06.2022
2996 Clear 44 999 13 8000 6.69 280 18:25 20.06.2022
2997 Clear 45 999 12 6000 7.72 280 17:45 20.06.2022
2998 Clear 47 999 7 10000 8.77 304 16:24 20.06.2022
2999 Clear 47 1000 11 10000 4.12 330 14:41 20.06.2022
3000 Clear 48 1000 7 10000 6.56 324 12:18 20.06.2022
3001 Clear 46 1001 7 10000 7.28 336 09:57 20.06.2022
3002 Clear 39 1002 17 7000 6.17 330 08:46 20.06.2022
3003 Clear 36 1002 21 7000 4.12 340 07:51 20.06.2022
3004 Clear 31 1001 27 10000 3.6 350 05:18 20.06.2022
3005 Clear 34 1000 21 8000 4.63 300 01:32 20.06.2022
3006 Clear 34 1000 22 10000 3.09 310 23:49 19.06.2022
3007 Clear 34 1001 22 10000 1.54 320 22:25 19.06.2022
3008 Clear 35 1001 26 10000 1.03 10 21:43 19.06.2022
3009 Clear 36 1001 20 10000 0 0 20:55 19.06.2022
3010 Clear 36 1001 20 10000 0 0 20:25 19.06.2022
3011 Clear 42 1000 8 10000 4.68 323 19:46 19.06.2022
3012 Clear 44 1000 13 10000 1.54 280 18:41 19.06.2022
3013 Clear 47 1000 10 10000 3.6 290 17:48 19.06.2022
3014 Clear 47 1000 10 10000 3.6 290 17:21 19.06.2022
3015 Clear 48 1000 10 10000 5.66 280 16:34 19.06.2022
3016 Clear 48 999 6 10000 6.63 310 15:38 19.06.2022
3017 Clear 48 1000 11 10000 6.17 270 14:55 19.06.2022
3018 Clear 49 1001 9 10000 4.63 310 13:58 19.06.2022
3019 Clear 48 1001 10 10000 3.6 330 12:56 19.06.2022
3020 Clear 45 1002 15 7000 4.12 340 10:54 19.06.2022
3021 Clear 43 1002 15 7000 3.6 340 09:40 19.06.2022
3022 Clear 45 1001 9 10000 6.05 325 08:47 19.06.2022
3023 Clear 45 1001 9 10000 6.05 325 08:47 19.06.2022
3024 Clear 37 1002 19 6000 2.57 310 07:48 19.06.2022
3025 Clear 27 1000 29 10000 3.09 320 04:45 19.06.2022
3026 Clear 32 999 23 10000 2.57 310 01:29 19.06.2022
3027 Clear 30 999 23 10000 2.06 310 00:24 19.06.2022
3028 Clear 30 999 26 10000 2.57 310 23:35 18.06.2022
3029 Clear 38 1000 13 10000 4.13 340 22:36 18.06.2022
3030 Clear 35 1000 20 8000 2.57 320 20:56 18.06.2022
3031 Clear 35 1000 20 8000 2.57 320 20:28 18.06.2022
3032 Clear 38 999 18 10000 2.06 310 19:38 18.06.2022
3033 Clear 41 999 15 10000 3.09 330 18:45 18.06.2022
3034 Clear 44 999 13 10000 4.63 340 17:34 18.06.2022
3035 Clear 46 999 12 10000 7.2 340 16:47 18.06.2022
3036 Clear 47 999 11 8000 8.23 340 15:31 18.06.2022
3037 Clear 46 999 11 9000 8.75 340 14:44 18.06.2022
3038 Clear 46 1000 12 6000 8.75 340 13:22 18.06.2022
3039 Dust 45 1001 11 7000 9.26 340 11:39 18.06.2022
3040 Dust 45 1001 9 2700 9.77 330 10:47 18.06.2022
3041 Clear 42 1001 11 10000 7.2 330 09:23 18.06.2022
3042 Clear 39 1002 15 8000 7.2 310 08:30 18.06.2022
3043 Clear 39 1002 15 8000 7.2 310 08:30 18.06.2022
3044 Clear 31 1001 22 10000 5.66 290 06:49 18.06.2022
3045 Clear 27 1000 28 9000 4.12 320 03:45 18.06.2022
3046 Clear 28 1001 24 10000 4.63 320 01:26 18.06.2022
3047 Clear 28 1001 24 10000 4.63 320 01:26 18.06.2022
3048 Clear 28 1001 24 10000 4.63 320 01:26 18.06.2022
3049 Clear 30 1001 21 10000 4.63 320 00:48 18.06.2022
3050 Clear 34 1001 18 6000 4.63 320 23:58 17.06.2022
3051 Clear 34 1001 18 6000 4.63 320 23:24 17.06.2022
3052 Clear 38 1002 16 6000 7.2 310 21:18 17.06.2022
3053 Clear 38 1002 11 10000 6.38 323 20:00 17.06.2022
3054 Dust 39 1002 14 3200 3.09 330 18:49 17.06.2022
3055 Dust 42 1002 10 3900 7.72 310 17:44 17.06.2022
3056 Clear 43 1001 7 10000 9.8 324 16:43 17.06.2022
3057 Clear 44 1001 7 10000 10.69 325 16:18 17.06.2022
3058 Dust 44 1002 10 4200 11.83 310 15:34 17.06.2022
3059 Dust 45 1003 10 5000 10.29 310 14:20 17.06.2022
3060 Dust 45 1003 10 5000 10.29 310 13:48 17.06.2022
3061 Clear 44 1003 10 6000 9.77 320 13:26 17.06.2022
3062 Clear 43 1004 12 10000 7.72 330 11:58 17.06.2022
3063 Clear 43 1004 12 10000 7.72 330 11:39 17.06.2022
3064 Clear 43 1004 12 10000 7.72 330 11:21 17.06.2022
3065 Clear 36 1005 20 10000 6.17 310 08:30 17.06.2022
3066 Clear 33 1005 22 10000 7.2 310 07:51 17.06.2022
3067 Clear 30 1005 26 10000 6.17 300 06:32 17.06.2022
3068 Clear 25 1005 33 10000 3.09 310 03:20 17.06.2022
3069 Clear 29 1005 30 10000 3.6 320 00:43 17.06.2022
3070 Clear 31 1005 25 10000 4.63 310 23:25 16.06.2022
3071 Clear 31 1006 23 10000 4.63 300 22:31 16.06.2022
3072 Clear 35 1006 16 10000 6.87 309 21:19 16.06.2022
3073 Clear 34 1006 20 10000 5.66 310 20:50 16.06.2022
3074 Clear 36 1006 14 10000 7.36 310 19:59 16.06.2022
3075 Clear 38 1005 16 10000 6.17 280 18:44 16.06.2022
3076 Clear 40 1005 14 10000 9.26 290 17:44 16.06.2022
3077 Clear 40 1005 14 10000 9.26 290 17:22 16.06.2022
3078 Clear 41 1006 14 10000 9.77 290 15:58 16.06.2022
3079 Clear 41 1006 14 10000 9.77 290 15:21 16.06.2022
3080 Clear 41 1006 15 9000 7.2 310 13:55 16.06.2022
3081 Clear 41 1006 15 9000 7.2 330 12:53 16.06.2022
3082 Clear 41 1006 15 9000 7.2 330 12:34 16.06.2022
3083 Clear 40 1007 14 10000 7.72 300 11:21 16.06.2022
3084 Clear 40 1007 15 10000 5.66 310 10:35 16.06.2022
3085 Clear 38 1007 19 10000 5.66 340 09:43 16.06.2022
3086 Clear 36 1007 21 10000 5.66 340 08:56 16.06.2022
3087 Clear 33 1007 25 10000 5.14 330 07:41 16.06.2022
3088 Clear 27 1006 29 10000 3.6 320 05:51 16.06.2022
3089 Clear 27 1006 32 10000 3.09 310 03:56 16.06.2022
3090 Clear 27 1006 32 10000 3.09 330 01:52 16.06.2022
3091 Clear 27 1006 32 10000 3.09 330 01:22 16.06.2022
3092 Clear 29 1006 30 10000 3.09 320 00:22 16.06.2022
3093 Clear 30 1007 26 10000 2.57 330 22:54 15.06.2022
3094 Clear 31 1007 22 10000 3.6 320 21:48 15.06.2022
3095 Clear 31 1007 22 10000 3.6 320 21:19 15.06.2022
3096 Clear 34 1006 18 10000 4.12 310 20:37 15.06.2022
3097 Clear 34 1006 18 10000 4.12 310 20:18 15.06.2022
3098 Clear 38 1006 15 10000 4.63 320 18:47 15.06.2022
3099 Clear 39 1005 13 10000 7.2 300 17:54 15.06.2022
3100 Clear 40 1005 11 10000 7.2 290 16:35 15.06.2022
3101 Clear 41 1005 12 10000 7.72 280 15:23 15.06.2022
3102 Clear 40 1006 17 10000 5.14 350 13:37 15.06.2022
3103 Clear 40 1007 17 10000 4.63 290 12:51 15.06.2022
3104 Clear 40 1007 17 10000 4.63 330 11:37 15.06.2022
3105 Clear 39 1007 17 10000 4.63 350 10:23 15.06.2022
3106 Clear 38 1007 18 10000 5.14 360 09:37 15.06.2022
3107 Clear 36 1007 20 8000 3.6 20 08:27 15.06.2022
3108 Clear 30 1007 32 7000 3.09 320 06:33 15.06.2022
3109 Clear 27 1005 34 10000 2.06 330 03:28 15.06.2022
3110 Clear 31 1005 27 10000 3.09 10 01:38 15.06.2022
3111 Clear 29 1005 32 10000 2.57 340 00:50 15.06.2022
3112 Clear 30 1005 28 10000 2.06 20 23:39 14.06.2022
3113 Clear 32 1006 27 10000 2.57 20 22:52 14.06.2022
3114 Clear 32 1006 29 9000 3.09 350 21:53 14.06.2022
3115 Clear 32 1006 29 9000 3.09 350 21:27 14.06.2022
3116 Clear 32 1005 27 10000 1.54 350 20:48 14.06.2022
3117 Clear 33 1005 24 10000 0.51 0 19:59 14.06.2022
3118 Clear 37 1005 19 10000 3.09 280 18:45 14.06.2022
3119 Clear 39 1004 18 10000 4.63 280 17:29 14.06.2022
3120 Clear 39 1004 16 10000 3.6 310 16:43 14.06.2022
3121 Clear 40 1005 15 10000 2.57 290 15:49 14.06.2022
3122 Clear 40 1005 16 10000 3.09 290 14:57 14.06.2022
3123 Clear 40 1005 16 10000 3.09 290 14:23 14.06.2022
3124 Dust 39 1005 16 10000 3.6 250 13:39 14.06.2022
3125 Clear 40 1006 16 10000 2.06 0 12:27 14.06.2022
3126 Clear 39 1006 17 10000 1.54 0 11:27 14.06.2022
3127 Clear 38 1006 18 10000 3.09 320 10:35 14.06.2022
3128 Clear 36 1006 20 8000 2.06 360 09:45 14.06.2022
3129 Clear 34 1006 26 7000 2.57 310 08:41 14.06.2022
3130 Clear 30 1006 35 9000 3.09 280 07:26 14.06.2022
3131 Clear 23 1004 43 10000 1.03 0 04:35 14.06.2022
3132 Clear 29 1004 26 10000 3.78 24 02:43 14.06.2022
3133 Clear 29 1004 30 10000 3.6 360 00:27 14.06.2022
3134 Clear 31 1004 22 10000 4.38 11 23:18 13.06.2022
3135 Clear 27 1004 34 9000 3.09 350 22:25 13.06.2022
3136 Clear 29 1004 32 9000 1.54 10 21:43 13.06.2022
3137 Clear 30 1003 32 10000 3.09 350 20:19 13.06.2022
3138 Clear 32 1003 27 10000 1.54 340 19:34 13.06.2022
3139 Clear 37 1002 19 10000 4.12 290 17:57 13.06.2022
3140 Clear 37 1002 19 10000 4.12 290 17:36 13.06.2022
3141 Clear 37 1002 22 7000 4.12 310 16:39 13.06.2022
3142 Dust 36 1002 23 4700 4.12 280 15:37 13.06.2022
3143 Dust 36 1002 23 3500 5.14 290 14:42 13.06.2022
3144 Dust 36 1003 23 600 6.69 280 13:46 13.06.2022
3145 Dust 36 1003 24 400 7.2 270 12:31 13.06.2022
3146 Clear 35 1003 24 300 7.72 290 11:26 13.06.2022
3147 Clear 34 1003 29 300 7.72 290 10:26 13.06.2022
3148 Clouds 32 1003 31 300 8.23 300 09:31 13.06.2022
3149 Clouds 31 1002 35 100 8.23 290 07:38 13.06.2022
3150 Dust 30 1001 32 200 7.72 310 05:42 13.06.2022
3151 Clear 29 998 24 10000 2.06 220 02:50 13.06.2022
3152 Clear 29 998 28 10000 2.06 200 01:37 13.06.2022
3153 Clear 28 998 24 10000 1.03 0 00:21 13.06.2022
3154 Clear 29 998 24 10000 1.03 210 23:25 12.06.2022
3155 Clear 31 998 22 10000 0.51 250 22:22 12.06.2022
3156 Clear 34 999 18 10000 3.09 240 21:22 12.06.2022
3157 Clear 35 998 16 10000 2.06 240 20:33 12.06.2022
3158 Clear 37 998 13 10000 3.09 240 19:30 12.06.2022
3159 Clear 42 997 11 10000 5.14 270 17:54 12.06.2022
3160 Clear 42 997 11 10000 7.2 300 16:34 12.06.2022
3161 Clear 43 997 10 10000 6.69 280 15:18 12.06.2022
3162 Clear 42 998 10 10000 6.69 290 14:29 12.06.2022
3163 Clear 41 999 10 10000 6.17 290 13:55 12.06.2022
3164 Clear 41 999 11 10000 7.2 270 12:43 12.06.2022
3165 Clear 39 1000 15 10000 7.2 270 11:40 12.06.2022
3166 Clear 39 1000 17 10000 6.17 280 10:45 12.06.2022
3167 Clear 37 1001 19 10000 6.17 300 09:25 12.06.2022
3168 Clear 34 1001 20 10000 5.14 300 08:46 12.06.2022
3169 Clear 31 1001 27 10000 5.66 290 07:38 12.06.2022
3170 Clear 25 1001 36 10000 2.57 270 05:29 12.06.2022
3171 Clear 23 1001 33 10000 1.54 280 03:29 12.06.2022
3172 Clear 25 1001 27 10000 1.54 270 01:43 12.06.2022
3173 Clear 29 1002 20 10000 2.06 260 00:58 12.06.2022
3174 Clear 29 1002 20 10000 2.06 260 00:25 12.06.2022
3175 Clear 28 1002 26 10000 2.06 300 23:48 11.06.2022
3176 Clear 28 1002 26 10000 2.06 300 23:48 11.06.2022
3177 Clear 29 1003 18 10000 1.54 290 22:39 11.06.2022
3178 Clear 29 1003 18 10000 1.54 290 22:18 11.06.2022
3179 Clear 33 1003 14 10000 3.6 290 20:50 11.06.2022
3180 Clear 33 1003 14 10000 3.6 290 20:21 11.06.2022
3181 Clear 36 1002 10 10000 6.04 300 19:26 11.06.2022
3182 Clear 38 1003 12 10000 5.14 290 18:34 11.06.2022
3183 Clear 39 1003 10 10000 7.2 280 17:51 11.06.2022
3184 Clear 39 1003 10 10000 7.2 280 17:29 11.06.2022
3185 Clear 39 1002 9 10000 8.1 300 16:58 11.06.2022
3186 Clear 39 1002 9 10000 8.1 300 16:30 11.06.2022
3187 Clear 40 1003 11 10000 9.26 300 15:43 11.06.2022
3188 Clear 40 1004 12 10000 7.2 300 13:53 11.06.2022
3189 Clear 40 1004 12 10000 7.2 300 13:24 11.06.2022
3190 Clear 38 1006 19 10000 6.17 310 10:55 11.06.2022
3191 Clear 38 1006 19 10000 6.17 310 10:19 11.06.2022
3192 Clear 36 1006 21 10000 5.66 300 09:29 11.06.2022
3193 Clear 31 1006 25 9000 5.14 290 07:46 11.06.2022
3194 Clear 29 1006 21 10000 5.14 290 06:30 11.06.2022
3195 Clear 26 1006 29 10000 5.66 300 05:19 11.06.2022
3196 Clear 25 1005 25 10000 1.03 230 01:53 11.06.2022
3197 Clear 25 1005 25 10000 1.03 230 01:33 11.06.2022
3198 Clear 27 1006 24 10000 1.03 0 00:22 11.06.2022
3199 Clear 29 1006 21 10000 1.54 300 22:33 10.06.2022
3200 Clear 29 1006 21 10000 1.54 300 21:53 10.06.2022
3201 Clear 31 1006 18 10000 3.6 320 20:43 10.06.2022
3202 Clear 31 1006 18 10000 3.6 320 20:23 10.06.2022
3203 Clear 32 1006 20 10000 3.09 330 19:48 10.06.2022
3204 Clear 32 1006 20 10000 3.09 330 19:18 10.06.2022
3205 Clear 36 1005 16 10000 2.57 330 18:19 10.06.2022
3206 Clear 38 1005 16 10000 4.63 290 17:36 10.06.2022
3207 Clear 39 1005 16 10000 5.14 300 16:56 10.06.2022
3208 Clear 39 1006 13 10000 6.69 290 15:48 10.06.2022
3209 Clear 39 1006 13 10000 6.69 290 15:19 10.06.2022
3210 Clear 39 1006 16 10000 4.12 300 13:49 10.06.2022
3211 Clear 39 1007 15 10000 5.66 300 12:35 10.06.2022
3212 Clear 38 1007 17 10000 5.14 300 11:40 10.06.2022
3213 Dust 36 1008 21 2400 5.14 300 10:40 10.06.2022
3214 Dust 35 1008 21 2600 4.63 300 09:44 10.06.2022
3215 Dust 33 1008 24 2500 5.66 310 08:28 10.06.2022
3216 Dust 30 1008 23 3000 4.12 300 06:53 10.06.2022
3217 Dust 30 1008 23 3000 4.12 300 06:32 10.06.2022
3218 Dust 27 1007 26 3200 2.57 310 05:48 10.06.2022
3219 Clear 28 1006 24 6000 2.06 350 03:41 10.06.2022
3220 Clear 27 1005 29 10000 3.09 340 01:38 10.06.2022
3221 Clear 28 1005 26 10000 2.57 330 00:27 10.06.2022
3222 Clear 29 1005 24 10000 3.6 320 23:28 09.06.2022
3223 Clear 32 1005 19 10000 3.6 320 21:48 09.06.2022
3224 Clear 32 1005 19 10000 3.6 320 21:29 09.06.2022
3225 Clear 32 1005 19 10000 3.6 320 20:54 09.06.2022
3226 Clear 32 1005 19 10000 3.6 320 20:54 09.06.2022
3227 Clear 37 1004 16 10000 5.66 300 19:59 09.06.2022
3228 Clear 39 1004 14 10000 5.66 280 18:54 09.06.2022
3229 Clear 39 1004 14 10000 5.66 280 18:21 09.06.2022
3230 Clear 42 1003 11 10000 4.12 290 16:48 09.06.2022
3231 Clear 43 1003 10 10000 4.63 290 15:48 09.06.2022
3232 Clear 42 1004 12 10000 3.6 250 14:35 09.06.2022
3233 Clear 42 1004 11 10000 3.6 270 13:48 09.06.2022
3234 Clear 42 1004 11 10000 3.6 270 13:27 09.06.2022
3235 Clear 41 1005 11 10000 2.57 290 11:54 09.06.2022
3236 Clear 39 1005 16 10000 4.63 270 10:53 09.06.2022
3237 Clear 39 1005 18 6000 4.63 270 09:43 09.06.2022
3238 Clear 39 1005 18 6000 4.63 270 09:23 09.06.2022
3239 Clear 33 1005 21 7000 2.57 320 07:44 09.06.2022
3240 Clear 26 1004 36 8000 2.57 320 05:48 09.06.2022
3241 Clear 28 1003 30 7000 1.03 330 02:20 09.06.2022
3242 Clear 31 1004 25 9000 1.03 50 23:36 08.06.2022
3243 Clear 31 1004 25 9000 1.54 80 22:58 08.06.2022
3244 Clear 31 1004 25 9000 1.54 80 22:26 08.06.2022
3245 Clear 32 1005 22 10000 1.54 20 21:52 08.06.2022
3246 Clear 33 1005 21 10000 1.54 20 20:59 08.06.2022
3247 Clear 35 1004 17 10000 3.09 340 19:55 08.06.2022
3248 Clear 35 1004 17 10000 3.09 340 19:27 08.06.2022
3249 Clear 38 1004 15 10000 3.6 320 18:42 08.06.2022
3250 Clear 42 1003 10 10000 4.12 350 16:39 08.06.2022
3251 Clear 42 1003 9 10000 4.63 360 15:44 08.06.2022
3252 Clear 43 1004 10 10000 4.12 320 13:44 08.06.2022
3253 Clear 42 1005 11 10000 3.09 340 11:52 08.06.2022
3254 Clear 42 1005 11 10000 3.09 340 11:29 08.06.2022
3255 Clear 40 1005 11 10000 4.63 340 09:55 08.06.2022
3256 Clear 40 1005 11 10000 4.63 340 09:21 08.06.2022
3257 Clear 37 1005 16 7000 4.12 340 08:22 08.06.2022
3258 Clear 27 1004 32 10000 2.06 290 05:51 08.06.2022
3259 Clear 26 1003 29 10000 3.6 320 03:52 08.06.2022
3260 Clear 30 1002 25 10000 2.57 330 00:29 08.06.2022
3261 Clear 31 1002 22 10000 3.6 330 23:27 07.06.2022
3262 Clear 32 1002 19 10000 4.12 320 22:44 07.06.2022
3263 Clear 32 1002 19 10000 4.12 320 22:22 07.06.2022
3264 Clear 35 1002 16 10000 4.12 300 21:33 07.06.2022
3265 Clear 36 1002 16 10000 4.12 280 20:58 07.06.2022
3266 Clear 36 1002 16 10000 4.12 280 20:32 07.06.2022
3267 Clear 37 1001 13 10000 4.63 280 19:38 07.06.2022
3268 Clear 40 1001 11 10000 5.14 280 18:22 07.06.2022
3269 Clear 41 1000 10 10000 5.66 270 17:25 07.06.2022
3270 Clouds 42 1000 10 8000 6.17 270 16:42 07.06.2022
3271 Clouds 43 1000 10 7000 6.17 270 15:47 07.06.2022
3272 Clouds 43 1000 10 7000 6.17 270 15:26 07.06.2022
3273 Clouds 43 1000 10 7000 6.17 270 15:26 07.06.2022
3274 Clouds 43 1000 10 7000 6.69 260 14:47 07.06.2022
3275 Clouds 43 1000 10 7000 6.69 260 14:29 07.06.2022
3276 Clouds 43 1001 10 7000 5.66 290 13:30 07.06.2022
3277 Dust 43 1001 11 3000 7.2 290 12:45 07.06.2022
3278 Dust 43 1001 9 7000 5.14 330 11:47 07.06.2022
3279 Clouds 42 1001 8 10000 5.89 318 10:26 07.06.2022
3280 Dust 35 1001 20 4000 4.12 310 08:49 07.06.2022
3281 Dust 34 1001 18 4600 4.12 310 07:34 07.06.2022
3282 Dust 35 1001 16 5000 3.09 340 06:18 07.06.2022
3283 Clouds 33 1000 17 6000 5.66 360 03:31 07.06.2022
3284 Clouds 35 1001 14 6000 5.14 320 00:45 07.06.2022
3285 Clouds 36 1001 14 7000 7.72 320 23:41 06.06.2022
3286 Clouds 36 1001 12 10000 8.3 329 22:53 06.06.2022
3287 Clouds 37 1001 14 7000 6.17 300 21:57 06.06.2022
3288 Clouds 38 1001 13 8000 5.66 300 20:42 06.06.2022
3289 Clouds 40 1000 11 7000 7.2 290 19:24 06.06.2022
3290 Clouds 40 1000 11 7000 7.2 290 19:24 06.06.2022
3291 Dust 41 1000 13 5000 2.57 300 18:48 06.06.2022
3292 Clouds 44 1000 10 9000 2.06 210 17:57 06.06.2022
3293 Clouds 46 1000 7 9000 1.54 0 16:57 06.06.2022
3294 Clouds 46 1000 8 9000 3.6 190 15:52 06.06.2022
3295 Clouds 46 1000 8 6000 3.6 210 14:59 06.06.2022
3296 Clouds 46 1000 8 6000 3.6 210 14:59 06.06.2022
3297 Clouds 46 1000 8 6000 3.6 210 14:18 06.06.2022
3298 Clouds 46 1000 7 10000 3.72 306 13:20 06.06.2022
3299 Clouds 45 1002 11 3900 3.6 360 12:34 06.06.2022
3300 Dust 44 1002 10 3000 3.6 340 11:47 06.06.2022
3301 Dust 42 1003 12 3000 6.17 310 09:53 06.06.2022
3302 Dust 42 1003 12 3000 6.17 310 09:18 06.06.2022
3303 Dust 40 1003 20 2200 4.12 260 08:31 06.06.2022
3304 Dust 40 1002 11 3800 1.54 30 07:20 06.06.2022
3305 Dust 31 1002 23 3300 2.06 20 04:42 06.06.2022
3306 Dust 33 1002 21 5000 2.57 360 02:19 06.06.2022
3307 Dust 32 1003 23 4200 2.57 320 00:57 06.06.2022
3308 Dust 32 1003 23 4200 2.57 320 00:35 06.06.2022
3309 Dust 35 1003 18 3900 3.09 330 23:25 05.06.2022
3310 Dust 35 1003 18 3700 2.57 340 22:27 05.06.2022
3311 Dust 37 1003 15 4000 2.06 340 20:34 05.06.2022
3312 Dust 40 1003 12 4400 3.09 10 19:26 05.06.2022
3313 Dust 41 1003 11 4400 3.09 350 18:26 05.06.2022
3314 Clouds 43 1003 9 7000 4.63 340 17:46 05.06.2022
3315 Clouds 43 1003 9 7000 4.63 340 17:22 05.06.2022
3316 Dust 45 1003 8 4000 6.69 330 16:48 05.06.2022
3317 Clouds 46 1003 7 8000 5.14 310 15:47 05.06.2022
3318 Clouds 46 1003 8 7000 3.6 270 14:21 05.06.2022
3319 Clouds 46 1003 7 8000 4.12 260 12:34 05.06.2022
3320 Clouds 45 1004 8 6000 2.57 230 11:30 05.06.2022
3321 Dust 43 1004 13 3000 2.57 250 10:25 05.06.2022
3322 Dust 42 1004 12 3000 4.12 260 09:58 05.06.2022
3323 Dust 40 1004 12 3900 1.54 0 08:26 05.06.2022
3324 Dust 35 1004 17 3400 2.57 330 06:54 05.06.2022
3325 Dust 29 1004 28 4000 3.09 310 05:20 05.06.2022
3326 Clouds 31 1003 22 6000 1.03 230 03:38 05.06.2022
3327 Clouds 32 1003 20 8000 2.06 30 01:31 05.06.2022
3328 Clear 32 1004 20 10000 3.6 330 23:58 04.06.2022
3329 Clear 33 1004 24 10000 1.03 0 21:49 04.06.2022
3330 Clear 37 1004 18 10000 1.54 310 20:21 04.06.2022
3331 Clouds 40 1004 15 8000 2.06 340 18:18 04.06.2022
3332 Clear 44 1004 7 10000 3.09 340 16:42 04.06.2022
3333 Clear 44 1004 7 10000 3.09 340 16:18 04.06.2022
3334 Clear 44 1004 7 10000 3.09 340 16:18 04.06.2022
3335 Clear 45 1005 6 10000 2.57 270 14:37 04.06.2022
3336 Clear 45 1005 7 10000 2.06 250 12:27 04.06.2022
3337 Clear 44 1006 6 10000 3.09 200 10:58 04.06.2022
3338 Clear 44 1006 6 10000 3.09 200 10:26 04.06.2022
3339 Clouds 42 1006 5 9000 3.09 200 09:42 04.06.2022
3340 Clear 40 1006 8 10000 3.09 210 08:40 04.06.2022
3341 Clouds 38 1005 11 6000 3.09 180 07:40 04.06.2022
3342 Clouds 31 1005 22 6000 2.06 220 04:38 04.06.2022
3343 Clear 30 1004 20 10000 1.54 140 01:25 04.06.2022
3344 Clear 32 1004 18 10000 1.54 160 23:53 03.06.2022
3345 Clear 33 1005 18 10000 1.54 130 22:30 03.06.2022
3346 Clouds 39 1005 6 10000 1.82 305 21:24 03.06.2022
3347 Clear 36 1005 14 10000 1.54 120 20:33 03.06.2022
3348 Clear 40 1004 10 10000 2.57 120 18:23 03.06.2022
3349 Clear 45 1004 5 10000 2.06 160 16:47 03.06.2022
3350 Clear 45 1004 4 10000 2.06 140 15:18 03.06.2022
3351 Clear 46 1005 4 10000 3.09 160 13:20 03.06.2022
3352 Clear 45 1006 6 10000 3.6 150 11:40 03.06.2022
3353 Clouds 41 1006 10 9000 4.12 140 09:38 03.06.2022
3354 Clear 39 1006 11 10000 3.09 100 08:58 03.06.2022
3355 Clouds 36 1006 16 6000 2.06 90 07:26 03.06.2022
3356 Clouds 36 1006 16 6000 2.06 90 07:26 03.06.2022
3357 Smoke 33 1006 22 3200 1.54 90 06:34 03.06.2022
3358 Dust 30 1005 26 1600 1.03 0 05:36 03.06.2022
3359 Clear 29 1005 23 10000 0 0 00:30 03.06.2022
3360 Clear 31 1005 20 10000 0 0 22:45 02.06.2022
3361 Clear 31 1005 30 10000 0 0 21:40 02.06.2022
3362 Clear 33 1005 18 10000 1.03 0 20:22 02.06.2022
3363 Clear 33 1005 18 10000 1.03 0 20:22 02.06.2022
3364 Clear 36 1004 14 10000 1.54 180 19:50 02.06.2022
3365 Clear 36 1004 14 10000 1.54 180 19:31 02.06.2022
3366 Clear 43 1004 8 10000 3.6 190 17:32 02.06.2022
3367 Clear 44 1004 6 10000 3.6 10 16:27 02.06.2022
3368 Dust 45 1005 6 10000 2.57 0 14:20 02.06.2022
3369 Clear 45 1005 6 10000 3.09 260 13:29 02.06.2022
3370 Clear 45 1004 5 10000 1.99 335 11:36 02.06.2022
3371 Clear 43 1006 10 6000 2.57 280 10:20 02.06.2022
3372 Clear 40 1006 12 8000 2.57 280 09:28 02.06.2022
3373 Clear 37 1006 13 7000 3.6 300 08:27 02.06.2022
3374 Clear 35 1006 15 9000 3.6 300 07:25 02.06.2022
3375 Clear 24 1005 35 8000 1.54 250 04:54 02.06.2022
3376 Clear 25 1004 36 9000 0.51 0 02:48 02.06.2022
3377 Clear 28 1004 21 10000 1.03 230 23:50 01.06.2022
3378 Clear 30 1004 23 10000 1.03 10 22:51 01.06.2022
3379 Clear 32 1004 18 10000 0 0 21:37 01.06.2022
3380 Clear 34 1004 12 10000 1.03 280 20:59 01.06.2022
3381 Clear 34 1004 12 10000 1.03 280 20:37 01.06.2022
3382 Clear 35 1004 16 10000 1.54 360 19:28 01.06.2022
3383 Clear 40 1003 8 10000 3.09 310 17:46 01.06.2022
3384 Clear 44 1003 7 10000 4.63 270 16:38 01.06.2022
3385 Clear 44 1003 7 10000 2.06 260 14:59 01.06.2022
3386 Clear 44 1002 5 10000 5.9 306 13:53 01.06.2022
3387 Clear 43 1004 6 8000 4.12 280 12:28 01.06.2022
3388 Clear 37 1004 11 8000 4.12 270 09:48 01.06.2022
3389 Clear 37 1004 11 8000 4.12 270 09:24 01.06.2022
3390 Clear 36 1004 9 10000 3.77 299 07:25 01.06.2022
3391 Clear 29 1004 30 7000 3.6 270 06:30 01.06.2022
3392 Clear 33 1002 12 10000 3.76 331 00:48 01.06.2022
3393 Clear 31 1002 20 9000 1.54 350 23:41 31.05.2022
3394 Clear 31 1003 18 8000 2.57 290 22:37 31.05.2022
3395 Clear 33 1003 15 6000 2.06 280 21:46 31.05.2022
3396 Dust 36 1003 10 5000 2.06 280 20:46 31.05.2022
3397 Dust 36 1003 10 5000 2.06 280 20:23 31.05.2022
3398 Dust 38 1003 9 4600 2.57 340 18:53 31.05.2022
3399 Dust 41 1002 9 5000 5.14 290 17:51 31.05.2022
3400 Dust 41 1002 9 5000 5.14 290 17:18 31.05.2022
3401 Clear 43 1003 8 8000 8.23 290 15:41 31.05.2022
3402 Clear 43 1003 8 8000 8.23 290 15:41 31.05.2022
3403 Clear 43 1003 7 8000 9.26 300 14:18 31.05.2022
3404 Clear 44 1004 6 8000 8.75 310 12:21 31.05.2022
3405 Clear 43 1005 7 8000 8.23 320 11:23 31.05.2022
3406 Clear 39 1005 14 8000 5.14 300 09:31 31.05.2022
3407 Clear 33 1006 21 9000 4.63 310 07:28 31.05.2022
3408 Clear 24 1005 29 10000 2.06 320 05:24 31.05.2022
3409 Clear 28 1004 21 10000 2.57 330 01:42 31.05.2022
3410 Clear 30 1005 21 10000 4.12 340 23:29 30.05.2022
3411 Clear 32 1006 19 10000 3.09 280 22:57 30.05.2022
3412 Clear 32 1006 19 10000 3.09 280 22:24 30.05.2022
3413 Clear 32 1006 17 8000 2.06 280 21:35 30.05.2022
3414 Clear 34 1006 14 8000 2.57 280 20:22 30.05.2022
3415 Clear 37 1005 12 6000 2.57 320 18:58 30.05.2022
3416 Clear 40 1005 10 10000 6.17 280 17:41 30.05.2022
3417 Clear 41 1005 9 10000 7.72 280 16:45 30.05.2022
3418 Clear 42 1005 8 8000 8.23 300 15:22 30.05.2022
3419 Clear 42 1007 9 10000 6.69 280 12:37 30.05.2022
3420 Clear 40 1008 10 8000 4.12 310 10:47 30.05.2022
3421 Clear 38 1008 14 6000 3.09 320 09:39 30.05.2022
3422 Clear 32 1008 23 7000 3.09 340 07:24 30.05.2022
3423 Clear 25 1007 22 10000 2.06 320 05:50 30.05.2022
3424 Clear 24 1007 27 10000 1.54 300 02:33 30.05.2022
3425 Clear 27 1007 28 9000 2.06 310 23:28 29.05.2022
3426 Clear 29 1007 18 10000 1.54 280 22:39 29.05.2022
3427 Clear 30 1007 17 10000 1.54 270 21:31 29.05.2022
3428 Clear 35 1007 13 10000 3.6 270 19:48 29.05.2022
3429 Clear 35 1007 13 10000 3.6 270 19:27 29.05.2022
3430 Clear 39 1006 9 10000 5.66 290 17:41 29.05.2022
3431 Clear 41 1006 8 10000 4.63 340 15:49 29.05.2022
3432 Clear 41 1006 8 10000 4.63 340 15:28 29.05.2022
3433 Dust 41 1007 7 10000 6.17 310 14:31 29.05.2022
3434 Clear 39 1008 7 10000 4.12 300 11:55 29.05.2022
3435 Clear 39 1009 8 10000 2.57 290 10:44 29.05.2022
3436 Clear 36 1009 14 10000 3.09 260 09:52 29.05.2022
3437 Clear 30 1009 20 10000 3.6 280 07:28 29.05.2022
3438 Clear 23 1007 27 10000 2.57 260 04:50 29.05.2022
3439 Clear 23 1007 27 10000 2.57 260 04:31 29.05.2022
3440 Clear 23 1007 27 10000 0.51 0 00:35 29.05.2022
3441 Clear 24 1007 25 10000 0.51 0 23:42 28.05.2022
3442 Clear 25 1007 25 9000 1.03 240 22:46 28.05.2022
3443 Clear 25 1007 25 9000 0.51 0 21:45 28.05.2022
3444 Clear 30 1006 15 10000 1.54 270 20:30 28.05.2022
3445 Clear 34 1006 12 10000 2.57 270 19:18 28.05.2022
3446 Clear 36 1005 8 10000 4.12 310 17:48 28.05.2022
3447 Clear 39 1005 8 10000 7.72 290 16:57 28.05.2022
3448 Clear 39 1005 7 9000 9.26 300 15:45 28.05.2022
3449 Clear 39 1005 7 9000 9.26 300 15:19 28.05.2022
3450 Clear 38 1006 7 10000 6.17 290 13:27 28.05.2022
3451 Clear 38 1007 6 10000 6.69 270 12:42 28.05.2022
3452 Clear 37 1007 8 10000 4.63 260 11:28 28.05.2022
3453 Clear 35 1007 11 10000 4.12 270 10:32 28.05.2022
3454 Clear 33 1007 15 10000 3.6 250 09:39 28.05.2022
3455 Clear 29 1007 23 10000 2.57 280 07:56 28.05.2022
3456 Clear 24 1007 27 10000 2.57 200 06:32 28.05.2022
3457 Clear 20 1006 30 10000 1.03 0 04:39 28.05.2022
3458 Clear 21 1006 28 10000 1.03 260 01:30 28.05.2022
3459 Clear 23 1007 23 10000 0.51 260 23:53 27.05.2022
3460 Clear 24 1007 20 10000 1.03 0 22:32 27.05.2022
3461 Clear 25 1007 19 10000 2.06 260 21:22 27.05.2022
3462 Clear 29 1007 14 10000 3.09 280 20:42 27.05.2022
3463 Clear 29 1007 14 10000 3.09 280 20:18 27.05.2022
3464 Clear 31 1007 13 10000 3.09 280 19:34 27.05.2022
3465 Clear 32 1007 12 10000 3.6 310 18:41 27.05.2022
3466 Clear 35 1007 10 10000 6.69 300 16:43 27.05.2022
3467 Clear 36 1006 7 10000 6.85 300 15:47 27.05.2022
3468 Clear 36 1007 10 10000 8.75 310 14:46 27.05.2022
3469 Clear 36 1008 10 10000 8.23 280 13:40 27.05.2022
3470 Clear 37 1009 10 9000 6.69 290 11:53 27.05.2022
3471 Clear 37 1009 10 9000 6.69 290 11:27 27.05.2022
3472 Clear 35 1009 10 10000 5.66 270 10:37 27.05.2022
3473 Clear 34 1010 10 10000 5.66 310 09:52 27.05.2022
3474 Clear 34 1010 10 10000 5.66 310 09:28 27.05.2022
3475 Clear 24 1009 19 10000 4.12 300 06:58 27.05.2022
3476 Clear 24 1009 25 10000 4.63 300 02:59 27.05.2022
3477 Clear 24 1010 25 7000 3.09 300 00:57 27.05.2022
3478 Clear 26 1010 24 6000 3.6 280 23:23 26.05.2022
3479 Dust 28 1011 15 3000 3.09 280 21:48 26.05.2022
3480 Dust 30 1010 10 3000 2.06 290 20:59 26.05.2022
3481 Dust 30 1010 10 3000 3.09 310 19:34 26.05.2022
3482 Dust 33 1010 9 1000 4.63 290 18:31 26.05.2022
3483 Dust 33 1010 8 1000 6.17 280 17:34 26.05.2022
3484 Dust 34 1010 7 1000 8.75 290 15:58 26.05.2022
3485 Dust 34 1010 7 1000 8.75 290 15:18 26.05.2022
3486 Clear 34 1010 7 700 7.72 280 13:56 26.05.2022
3487 Dust 33 1012 8 4000 8.23 320 11:49 26.05.2022
3488 Dust 33 1013 8 2500 8.23 310 10:39 26.05.2022
3489 Clear 31 1013 11 10000 5.66 300 09:38 26.05.2022
3490 Clear 29 1013 13 8000 5.66 310 08:38 26.05.2022
3491 Dust 20 1013 26 5000 3.09 310 05:26 26.05.2022
3492 Clear 22 1012 21 6000 3.6 320 02:19 26.05.2022
3493 Clear 26 1012 18 6000 4.63 320 23:50 25.05.2022
3494 Clear 27 1012 19 7000 5.66 310 22:51 25.05.2022
3495 Clear 28 1012 21 9000 6.69 310 21:41 25.05.2022
3496 Clear 30 1012 19 10000 6.69 300 20:47 25.05.2022
3497 Clear 31 1011 18 10000 5.14 300 19:32 25.05.2022
3498 Clear 32 1010 17 10000 6.17 300 18:36 25.05.2022
3499 Clouds 35 1009 16 6000 4.12 280 16:58 25.05.2022
3500 Clouds 35 1009 16 6000 4.12 280 16:27 25.05.2022
3501 Clear 35 1009 17 10000 4.12 250 15:36 25.05.2022
3502 Clear 36 1009 15 10000 4.12 280 14:50 25.05.2022
3503 Clear 36 1009 15 10000 4.12 280 14:31 25.05.2022
3504 Clear 35 1010 17 10000 2.06 0 13:23 25.05.2022
3505 Clear 35 1010 14 10000 3.23 281 11:49 25.05.2022
3506 Clear 34 1011 17 10000 2.06 0 10:24 25.05.2022
3507 Clear 32 1012 18 10000 2.06 0 09:38 25.05.2022
3508 Clear 31 1011 20 10000 2.87 324 07:36 25.05.2022
3509 Clear 21 1010 43 10000 1.03 360 05:41 25.05.2022
3510 Clear 26 1009 25 10000 0.97 9 02:41 25.05.2022
3511 Clear 22 1009 35 10000 1.54 180 23:48 24.05.2022
3512 Clear 23 1009 35 10000 0.51 0 22:59 24.05.2022
3513 Clear 23 1009 35 10000 0.51 0 22:59 24.05.2022
3514 Clear 25 1009 29 10000 0 0 21:57 24.05.2022
3515 Clear 25 1009 29 10000 0 0 21:37 24.05.2022
3516 Clear 25 1009 29 10000 0 0 21:18 24.05.2022
3517 Clear 28 1008 28 10000 2.06 350 19:27 24.05.2022
3518 Clear 31 1007 20 10000 3.6 320 18:29 24.05.2022
3519 Clear 33 1007 17 10000 4.12 250 16:39 24.05.2022
3520 Clear 33 1007 17 10000 5.14 290 15:52 24.05.2022
3521 Clear 33 1007 19 10000 5.14 240 14:41 24.05.2022
3522 Clear 32 1007 22 10000 4.63 250 13:47 24.05.2022
3523 Clear 32 1008 23 9000 5.14 250 12:31 24.05.2022
3524 Clear 30 1009 32 7000 5.14 260 09:52 24.05.2022
3525 Dust 29 1008 34 5000 4.12 270 08:57 24.05.2022
3526 Dust 27 1008 39 5000 4.12 290 08:38 24.05.2022
3527 Dust 25 1007 41 3500 7.2 310 06:41 24.05.2022
3528 Dust 25 1006 36 800 2.57 250 03:41 24.05.2022
3529 Dust 25 1005 38 800 1.03 0 01:47 24.05.2022
3530 Dust 25 1005 38 700 1.54 220 00:53 24.05.2022
3531 Dust 27 1005 32 700 1.03 210 22:25 23.05.2022
3532 Dust 28 1005 30 3000 1.03 350 21:53 23.05.2022
3533 Dust 27 1005 32 3500 1.54 340 20:53 23.05.2022
3534 Dust 28 1004 28 3500 2.06 330 19:56 23.05.2022
3535 Dust 28 1004 28 3500 2.06 330 19:30 23.05.2022
3536 Dust 28 1004 26 3000 2.06 350 18:41 23.05.2022
3537 Dust 28 1004 26 3000 2.06 350 18:22 23.05.2022
3538 Dust 31 1003 20 3000 3.6 280 16:46 23.05.2022
3539 Dust 30 1003 21 2000 6.69 280 14:44 23.05.2022
3540 Clouds 26 1004 34 300 8.75 290 11:58 23.05.2022
3541 Clouds 26 1004 34 300 8.75 290 11:25 23.05.2022
3542 Clouds 26 1004 31 200 9.77 290 09:49 23.05.2022
3543 Fog 25 1003 33 250 10.29 290 08:51 23.05.2022
3544 Clouds 25 1003 31 200 9.26 290 07:46 23.05.2022
3545 Clouds 26 1002 27 100 10.8 290 06:43 23.05.2022
3546 Dust 29 1001 21 2500 6.69 270 04:43 23.05.2022
3547 Clear 25 999 47 10000 1.03 0 02:19 23.05.2022
3548 Clouds 27 1000 28 8000 1.54 120 01:35 23.05.2022
3549 Clear 27 1001 26 8000 0.51 60 23:42 22.05.2022
3550 Clear 27 1002 26 10000 0.51 360 22:35 22.05.2022
3551 Clear 27 1002 22 10000 0.51 0 21:54 22.05.2022
3552 Clear 30 1002 16 10000 0.51 0 20:51 22.05.2022
3553 Clear 30 1002 16 10000 0.51 0 20:25 22.05.2022
3554 Clear 33 1002 14 10000 1.54 230 19:54 22.05.2022
3555 Clear 35 1002 11 10000 2.06 360 18:55 22.05.2022
3556 Clear 35 1002 11 10000 2.06 360 18:24 22.05.2022
3557 Clear 37 1002 10 10000 3.09 20 17:32 22.05.2022
3558 Clear 38 1003 8 10000 3.09 340 16:25 22.05.2022
3559 Clear 38 1004 8 10000 3.6 350 14:48 22.05.2022
3560 Clear 38 1005 8 10000 4.12 360 13:38 22.05.2022
3561 Clear 37 1006 5 10000 3.09 360 12:50 22.05.2022
3562 Clear 36 1007 7 10000 4.12 350 11:42 22.05.2022
3563 Dust 33 1008 11 4000 3.6 310 09:43 22.05.2022
3564 Dust 30 1008 15 5000 3.09 300 08:34 22.05.2022
3565 Dust 27 1009 19 5000 3.6 300 07:21 22.05.2022
3566 Dust 27 1009 19 5000 3.6 300 07:21 22.05.2022
3567 Dust 22 1008 28 4000 3.09 320 05:31 22.05.2022
3568 Dust 23 1009 17 4000 2.06 280 01:43 22.05.2022
3569 Dust 24 1009 15 4000 2.57 290 00:43 22.05.2022
3570 Dust 24 1010 19 4000 1.54 280 23:54 21.05.2022
3571 Dust 25 1010 18 5000 1.54 290 22:57 21.05.2022
3572 Clouds 26 1011 14 6000 1.54 270 21:42 21.05.2022
3573 Clouds 26 1011 14 6000 1.54 270 21:23 21.05.2022
3574 Clouds 27 1010 12 6000 2.06 300 20:24 21.05.2022
3575 Clouds 27 1010 14 7000 3.6 300 19:30 21.05.2022
3576 Clouds 33 1010 8 8000 3.6 340 17:51 21.05.2022
3577 Dust 34 1010 5 5000 4.12 290 16:46 21.05.2022
3578 Dust 34 1011 5 5000 7.2 310 14:38 21.05.2022
3579 Dust 33 1011 8 5000 6.17 310 13:52 21.05.2022
3580 Clouds 34 1010 6 10000 8.3 315 12:50 21.05.2022
3581 Clouds 34 1011 7 10000 8.05 315 12:26 21.05.2022
3582 Clouds 30 1012 15 8000 6.69 290 10:44 21.05.2022
3583 Clouds 28 1013 17 7000 6.17 300 09:48 21.05.2022
3584 Dust 27 1013 16 4000 6.69 300 08:58 21.05.2022
3585 Dust 27 1013 16 4000 6.69 300 08:33 21.05.2022
3586 Clouds 25 1011 23 10000 7.9 335 04:33 21.05.2022
3587 Clouds 28 1010 16 10000 6.62 342 00:38 21.05.2022
3588 Dust 30 1010 16 2800 8.23 310 23:22 20.05.2022
3589 Dust 31 1010 15 3300 8.75 310 22:24 20.05.2022
3590 Clouds 31 1010 16 10000 7.32 321 21:49 20.05.2022
3591 Dust 32 1010 13 4300 7.72 300 20:58 20.05.2022
3592 Clouds 32 1009 13 9000 7.72 290 20:29 20.05.2022
3593 Clear 32 1009 12 10000 6.69 300 19:29 20.05.2022
3594 Clouds 33 1008 10 8000 7.72 300 18:47 20.05.2022
3595 Dust 36 1007 8 3000 7.72 300 17:43 20.05.2022
3596 Clouds 37 1007 9 10000 8.78 309 16:21 20.05.2022
3597 Dust 38 1007 5 3000 9.77 290 15:53 20.05.2022
3598 Dust 39 1007 4 3000 7.72 310 14:31 20.05.2022
3599 Dust 40 1007 4 3000 7.2 320 13:56 20.05.2022
3600 Clouds 38 1008 9 5000 5.66 280 11:49 20.05.2022
3601 Dust 36 1009 11 5000 5.66 290 10:24 20.05.2022
3602 Dust 33 1008 19 5000 2.57 350 08:50 20.05.2022
3603 Dust 32 1008 18 4500 2.57 310 07:25 20.05.2022
3604 Clouds 33 1008 14 10000 4.32 326 06:36 20.05.2022
3605 Clouds 26 1008 27 6000 1.03 320 05:28 20.05.2022
3606 Clouds 30 1006 17 7000 3.09 90 00:54 20.05.2022
3607 Clouds 32 1006 18 7000 2.57 70 23:25 19.05.2022
3608 Clouds 32 1007 18 6000 3.09 60 22:26 19.05.2022
3609 Clouds 33 1007 13 10000 4.63 121 21:49 19.05.2022
3610 Clouds 34 1007 13 10000 4.4 117 21:23 19.05.2022
3611 Clouds 33 1007 21 6000 2.57 70 20:40 19.05.2022
3612 Clouds 33 1008 18 8000 2.06 100 19:54 19.05.2022
3613 Clouds 35 1007 13 9000 2.06 100 18:45 19.05.2022
3614 Clear 38 1007 7 10000 2.57 120 17:31 19.05.2022
3615 Clear 39 1008 15 10000 1.54 0 15:33 19.05.2022
3616 Clear 39 1009 4 10000 2.57 220 14:30 19.05.2022
3617 Clear 38 1009 5 10000 3.09 210 13:53 19.05.2022
3618 Clear 38 1011 5 10000 2.06 0 11:46 19.05.2022
3619 Clear 36 1011 9 10000 3.09 70 09:47 19.05.2022
3620 Clear 34 1011 11 9000 2.06 80 08:31 19.05.2022
3621 Clear 26 1011 31 7000 1.54 320 06:39 19.05.2022
3622 Clear 24 1009 35 10000 1.54 50 02:59 19.05.2022
3623 Clear 29 1008 17 10000 3.37 46 00:56 19.05.2022
3624 Clear 30 1009 16 10000 3.46 46 23:00 18.05.2022
3625 Clear 30 1009 16 10000 3.46 46 22:40 18.05.2022
3626 Clear 27 1010 28 10000 1.03 20 21:32 18.05.2022
3627 Clear 28 1010 24 10000 1.54 10 20:55 18.05.2022
3628 Clear 28 1010 24 10000 1.54 10 20:19 18.05.2022
3629 Clear 32 1009 17 10000 2.57 360 18:46 18.05.2022
3630 Clear 34 1008 12 10000 6.37 321 17:41 18.05.2022
3631 Clear 36 1008 11 10000 6.57 317 17:23 18.05.2022
3632 Clear 36 1008 10 10000 2.57 350 16:36 18.05.2022
3633 Clear 36 1009 10 10000 2.06 360 15:42 18.05.2022
3634 Clear 36 1009 10 10000 2.06 360 15:19 18.05.2022
3635 Clear 36 1009 9 10000 3.09 0 13:53 18.05.2022
3636 Clear 36 1010 10 10000 4.63 30 12:53 18.05.2022
3637 Clouds 35 1010 10 10000 3.6 20 11:47 18.05.2022
3638 Clouds 35 1010 10 10000 3.6 20 11:29 18.05.2022
3639 Clear 33 1011 13 8000 2.57 10 09:59 18.05.2022
3640 Clear 28 1011 23 8000 3.09 330 07:56 18.05.2022
3641 Clear 30 1010 17 10000 3.57 8 06:52 18.05.2022
3642 Clear 22 1008 46 10000 1.54 330 02:47 18.05.2022
3643 Clear 23 1009 38 6000 1.03 300 00:41 18.05.2022
3644 Clear 25 1009 33 8000 1.03 0 22:59 17.05.2022
3645 Clear 30 1009 20 10000 3.2 13 21:21 17.05.2022
3646 Clear 30 1009 20 10000 3.2 13 21:21 17.05.2022
3647 Clear 26 1009 31 10000 2.06 10 20:38 17.05.2022
3648 Clear 28 1009 28 10000 2.06 330 19:30 17.05.2022
3649 Clear 31 1008 23 10000 3.09 340 18:43 17.05.2022
3650 Clear 33 1008 21 10000 4.12 330 17:31 17.05.2022
3651 Clear 34 1009 21 10000 3.6 270 16:53 17.05.2022
3652 Clear 34 1009 21 10000 3.09 290 15:49 17.05.2022
3653 Clear 33 1009 21 10000 5.14 280 14:52 17.05.2022
3654 Clear 33 1009 21 10000 5.14 280 14:28 17.05.2022
3655 Dust 33 1010 24 8000 4.12 250 12:37 17.05.2022
3656 Dust 31 1011 27 5000 5.14 260 10:23 17.05.2022
3657 Dust 28 1012 34 800 4.63 250 08:51 17.05.2022
3658 Dust 26 1011 36 700 3.09 280 07:41 17.05.2022
3659 Dust 25 1011 36 500 2.57 300 06:21 17.05.2022
3660 Dust 26 1011 36 600 2.06 250 00:47 17.05.2022
3661 Clouds 26 1011 32 10000 3.82 320 23:35 16.05.2022
3662 Dust 28 1011 30 500 1.54 280 22:33 16.05.2022
3663 Dust 27 1011 34 600 2.06 330 20:56 16.05.2022
3664 Dust 27 1011 34 600 2.06 330 20:37 16.05.2022
3665 Dust 28 1010 30 500 2.06 330 18:46 16.05.2022
3666 Dust 30 1010 26 400 6.69 310 16:42 16.05.2022
3667 Dust 31 1010 23 600 6.17 280 15:29 16.05.2022
3668 Dust 31 1011 22 700 7.72 290 13:45 16.05.2022
3669 Clear 30 1011 25 750 7.2 290 12:37 16.05.2022
3670 Clear 29 1012 30 550 9.26 290 10:36 16.05.2022
3671 Clouds 25 1011 36 30 10.8 300 07:59 16.05.2022
3672 Clouds 25 1010 38 30 11.83 300 05:46 16.05.2022
3673 Clear 28 1007 34 10000 2.06 180 00:49 16.05.2022
3674 Clear 29 1007 30 10000 1.03 0 22:44 15.05.2022
3675 Clear 30 1008 28 10000 2.06 180 21:59 15.05.2022
3676 Clear 30 1008 28 10000 2.06 180 21:36 15.05.2022
3677 Clear 30 1008 25 9000 1.54 270 20:47 15.05.2022
3678 Clear 36 1007 19 10000 1.03 230 18:46 15.05.2022
3679 Clear 40 1007 11 10000 1.03 0 16:54 15.05.2022
3680 Clear 38 1009 15 10000 2.06 20 14:34 15.05.2022
3681 Clear 38 1009 3 10000 3.6 20 13:46 15.05.2022
3682 Clear 37 1010 5 10000 5.14 350 12:19 15.05.2022
3683 Clear 35 1011 7 10000 5.14 350 11:27 15.05.2022
3684 Clear 33 1012 8 10000 6.69 340 09:57 15.05.2022
3685 Clear 26 1012 21 10000 6.69 320 07:24 15.05.2022
3686 Clear 31 1012 18 10000 7.06 360 06:56 15.05.2022
3687 Clear 21 1011 24 10000 4.12 320 03:38 15.05.2022
3688 Clear 23 1012 21 10000 4.12 310 00:42 15.05.2022
3689 Clouds 30 1012 12 8000 6.69 330 23:37 14.05.2022
3690 Clear 26 1012 17 10000 5.14 310 22:39 14.05.2022
3691 Clear 27 1012 16 10000 5.14 310 21:26 14.05.2022
3692 Clear 29 1012 14 10000 5.14 300 20:28 14.05.2022
3693 Clear 30 1011 12 8000 5.66 290 19:21 14.05.2022
3694 Clear 32 1011 10 8000 5.14 300 18:59 14.05.2022
3695 Clear 34 1010 5 10000 4.63 330 17:53 14.05.2022
3696 Clear 35 1010 4 10000 5.14 340 16:23 14.05.2022
3697 Clear 35 1011 5 10000 5.66 340 14:41 14.05.2022
3698 Clear 35 1011 5 10000 5.66 340 14:22 14.05.2022
3699 Clear 32 1014 9 10000 6.69 340 11:51 14.05.2022
3700 Clear 32 1014 8 10000 8.23 320 10:45 14.05.2022
3701 Clear 32 1014 8 10000 8.23 320 10:19 14.05.2022
3702 Clear 32 1013 12 10000 8.59 345 09:34 14.05.2022
3703 Clear 25 1014 27 10000 4.63 330 07:43 14.05.2022
3704 Clear 17 1013 39 10000 4.12 310 04:49 14.05.2022
3705 Clear 23 1013 27 10000 6.42 334 01:42 14.05.2022
3706 Dust 24 1013 15 5000 4.63 290 23:28 13.05.2022
3707 Dust 24 1013 15 5000 4.63 290 23:28 13.05.2022
3708 Dust 25 1014 14 4000 4.63 290 22:56 13.05.2022
3709 Dust 26 1014 13 3000 4.63 290 22:22 13.05.2022
3710 Dust 28 1014 12 2200 3.6 300 21:19 13.05.2022
3711 Dust 29 1013 11 2500 3.09 320 20:40 13.05.2022
3712 Dust 29 1013 11 2500 3.09 320 20:21 13.05.2022
3713 Dust 29 1013 11 5000 5.66 290 19:18 13.05.2022
3714 Clear 31 1012 11 8000 8.23 280 17:47 13.05.2022
3715 Clear 31 1012 11 8000 8.23 280 17:23 13.05.2022
3716 Clear 32 1012 10 8000 9.26 290 15:48 13.05.2022
3717 Clear 32 1012 15 10000 9.25 304 14:45 13.05.2022
3718 Dust 32 1014 11 3000 7.72 290 12:54 13.05.2022
3719 Dust 32 1014 11 3000 7.72 290 12:25 13.05.2022
3720 Clear 31 1014 9 10000 8.23 310 10:23 13.05.2022
3721 Clear 30 1015 12 10000 5.66 310 09:29 13.05.2022
3722 Clear 26 1014 24 10000 6.17 310 07:59 13.05.2022
3723 Clear 26 1014 24 10000 6.17 310 07:30 13.05.2022
3724 Clear 21 1013 40 8000 4.12 280 05:46 13.05.2022
3725 Clear 21 1013 35 10000 3.09 310 01:37 13.05.2022
3726 Clear 24 1013 23 8000 4.12 310 23:43 12.05.2022
3727 Clear 26 1013 19 10000 6.17 300 22:42 12.05.2022
3728 Clear 27 1013 19 10000 7.2 290 21:36 12.05.2022
3729 Clear 28 1012 14 10000 5.14 300 20:22 12.05.2022
3730 Clear 31 1011 10 7000 5.66 300 18:30 12.05.2022
3731 Clear 34 1010 4 10000 5.66 270 16:52 12.05.2022
3732 Clear 34 1009 4 10000 4.12 280 15:49 12.05.2022
3733 Clear 34 1010 4 10000 4.12 250 13:59 12.05.2022
3734 Clear 34 1010 4 10000 4.12 250 13:21 12.05.2022
3735 Clear 33 1012 11 10000 2.54 272 10:35 12.05.2022
3736 Clear 28 1013 15 9000 2.06 220 08:58 12.05.2022
3737 Clear 28 1013 15 9000 2.06 220 08:39 12.05.2022
3738 Clear 26 1013 21 8000 2.57 220 07:37 12.05.2022
3739 Dust 18 1012 39 4000 2.06 310 05:30 12.05.2022
3740 Clouds 24 1012 18 10000 2.67 64 02:21 12.05.2022
3741 Clouds 26 1011 18 8000 2.06 50 23:56 11.05.2022
3742 Clouds 26 1012 18 9000 1.54 40 22:31 11.05.2022
3743 Clear 26 1012 21 10000 1.54 40 21:32 11.05.2022
3744 Clear 26 1012 21 10000 2.57 360 20:52 11.05.2022
3745 Clear 31 1011 10 10000 5.66 320 17:56 11.05.2022
3746 Clear 32 1011 9 10000 7.2 320 16:49 11.05.2022
3747 Clear 33 1011 5 10000 7.72 280 14:50 11.05.2022
3748 Clear 33 1011 5 10000 7.72 280 14:26 11.05.2022
3749 Clear 33 1011 4 10000 4.63 280 13:44 11.05.2022
3750 Clear 32 1013 12 10000 4.63 290 11:51 11.05.2022
3751 Clear 30 1013 19 8000 4.12 260 09:54 11.05.2022
3752 Clear 25 1013 27 5000 3.09 300 07:53 11.05.2022
3753 Clear 17 1010 48 9000 2.06 340 04:44 11.05.2022
3754 Clear 20 1009 37 10000 3.6 330 00:41 11.05.2022
3755 Clear 22 1009 28 10000 2.57 330 22:30 10.05.2022
3756 Clear 24 1009 25 10000 3.6 310 21:47 10.05.2022
3757 Clear 26 1008 22 10000 4.12 300 20:52 10.05.2022
3758 Clear 28 1008 18 10000 4.12 310 19:25 10.05.2022
3759 Clear 30 1006 18 10000 9.4 356 17:47 10.05.2022
3760 Dust 32 1004 11 1200 8.75 360 16:49 10.05.2022
3761 Dust 35 1004 5 2500 4.63 60 14:33 10.05.2022
3762 Dust 33 1006 8 3000 7.2 90 12:37 10.05.2022
3763 Dust 32 1007 10 2500 8.23 100 11:49 10.05.2022
3764 Dust 32 1007 10 2500 8.23 100 11:18 10.05.2022
3765 Dust 31 1008 13 1200 7.72 100 09:59 10.05.2022
3766 Dust 30 1009 14 3000 7.72 80 09:25 10.05.2022
3767 Clouds 25 1009 22 9000 5.66 120 06:44 10.05.2022
3768 Clear 21 1009 32 10000 3.6 90 03:29 10.05.2022
3769 Clear 22 1009 23 10000 3.6 100 00:33 10.05.2022
3770 Clear 25 1010 20 10000 3.6 70 22:44 09.05.2022
3771 Clear 26 1010 19 10000 2.57 70 21:48 09.05.2022
3772 Clear 26 1011 21 10000 3.09 50 20:30 09.05.2022
3773 Clear 28 1011 17 10000 2.06 360 18:43 09.05.2022
3774 Clear 28 1011 17 10000 2.78 357 17:40 09.05.2022
3775 Clouds 30 1011 11 10000 5.66 290 16:30 09.05.2022
3776 Clouds 30 1011 11 10000 5.66 290 16:30 09.05.2022
3777 Clouds 30 1011 11 10000 6.69 280 15:51 09.05.2022
3778 Clear 30 1012 10 9000 6.69 260 14:54 09.05.2022
3779 Clear 30 1012 10 9000 6.69 260 14:22 09.05.2022
3780 Clouds 31 1012 10 10000 6.17 250 13:40 09.05.2022
3781 Clear 31 1013 11 10000 6.17 260 12:18 09.05.2022
3782 Clear 29 1013 16 10000 3.56 288 11:18 09.05.2022
3783 Clear 29 1014 13 10000 5.14 270 10:42 09.05.2022
3784 Clear 28 1015 18 10000 1.03 0 08:36 09.05.2022
3785 Clear 26 1014 21 10000 1.76 326 07:53 09.05.2022
3786 Clear 17 1013 42 10000 3.09 310 03:19 09.05.2022
3787 Clear 20 1013 40 10000 2.06 360 23:34 08.05.2022
3788 Clear 20 1013 34 10000 2.57 300 22:55 08.05.2022
3789 Clear 22 1013 35 10000 2.06 330 21:55 08.05.2022
3790 Clear 22 1013 35 10000 2.06 330 21:55 08.05.2022
3791 Mist 22 1013 30 10000 3.09 330 20:35 08.05.2022
3792 Clear 25 1012 27 10000 2.57 350 19:44 08.05.2022
3793 Clouds 27 1012 19 10000 4.63 350 18:54 08.05.2022
3794 Clouds 29 1011 15 10000 4.12 340 17:59 08.05.2022
3795 Clouds 29 1011 13 10000 3.6 330 16:43 08.05.2022
3796 Clouds 30 1011 13 10000 4.12 330 15:31 08.05.2022
3797 Clouds 30 1011 13 10000 3.6 310 14:45 08.05.2022
3798 Clouds 30 1012 13 10000 2.06 0 12:27 08.05.2022
3799 Clear 28 1014 18 10000 2.57 300 10:32 08.05.2022
3800 Clear 27 1013 19 10000 2.2 291 09:57 08.05.2022
3801 Clear 25 1014 23 10000 4.12 260 08:56 08.05.2022
3802 Clear 24 1013 22 10000 0.5 71 07:25 08.05.2022
3803 Clear 15 1012 51 10000 1.54 160 03:40 08.05.2022
3804 Clear 17 1012 45 10000 1.54 160 02:47 08.05.2022
3805 Clear 18 1012 42 10000 1.54 140 00:28 08.05.2022
3806 Clear 18 1012 36 10000 1.54 130 23:50 07.05.2022
3807 Clear 20 1012 37 10000 2.06 130 22:46 07.05.2022
3808 Clear 22 1012 29 10000 2.05 3 21:59 07.05.2022
3809 Clear 22 1012 29 10000 2.05 3 21:34 07.05.2022
3810 Clear 22 1012 35 10000 1.54 120 20:34 07.05.2022
3811 Clouds 22 1011 33 9000 2.06 10 19:57 07.05.2022
3812 Clouds 26 1010 22 7000 2.57 280 17:43 07.05.2022
3813 Clouds 27 1009 15 10000 6.72 274 15:47 07.05.2022
3814 Dust 26 1010 27 3500 4.63 260 13:58 07.05.2022
3815 Dust 25 1010 29 700 5.14 340 10:56 07.05.2022
3816 Clear 25 1009 30 10000 8.35 294 09:20 07.05.2022
3817 Dust 21 1008 37 300 6.69 360 07:51 07.05.2022
3818 Dust 20 1008 42 50 3.6 340 06:43 07.05.2022
3819 Clear 22 1007 26 10000 3.33 144 04:56 07.05.2022
3820 Clear 17 1006 39 8000 1.03 130 01:24 07.05.2022
3821 Clear 18 1007 36 8000 0.51 0 23:38 06.05.2022
3822 Clear 20 1007 34 7000 0 0 22:28 06.05.2022
3823 Smoke 22 1007 26 4700 0 0 21:43 06.05.2022
3824 Clear 25 1007 19 10000 3.65 239 20:34 06.05.2022
3825 Clear 25 1006 23 8000 1.54 230 19:30 06.05.2022
3826 Dust 27 1006 18 5000 2.06 240 18:59 06.05.2022
3827 Clear 26 1006 16 10000 5.3 240 18:18 06.05.2022
3828 Dust 29 1005 12 5000 5.14 230 16:39 06.05.2022
3829 Dust 29 1005 12 4000 5.66 230 15:39 06.05.2022
3830 Dust 29 1006 15 3000 5.14 240 14:50 06.05.2022
3831 Dust 27 1007 22 5000 6.17 230 12:55 06.05.2022
3832 Dust 27 1007 22 5000 6.17 230 12:36 06.05.2022
3833 Dust 27 1007 22 4000 6.17 240 11:42 06.05.2022
3834 Clear 29 1006 20 10000 7.09 245 10:29 06.05.2022
3835 Dust 25 1007 31 1000 6.69 250 09:45 06.05.2022
3836 Dust 24 1006 35 700 5.14 250 08:27 06.05.2022
3837 Dust 21 1006 43 650 7.2 270 06:46 06.05.2022
3838 Dust 21 1005 43 1100 3.6 200 05:23 06.05.2022
3839 Dust 23 1004 43 3900 0 0 02:47 06.05.2022
3840 Dust 23 1004 38 4000 3.09 140 00:19 06.05.2022
3841 Dust 26 1005 34 4500 2.06 80 21:56 05.05.2022
3842 Dust 26 1005 34 4500 2.06 80 21:22 05.05.2022
3843 Dust 28 1006 28 4800 4.12 310 19:54 05.05.2022
3844 Dust 29 1006 26 1700 4.63 290 18:31 05.05.2022
3845 Dust 31 1005 23 800 4.63 270 16:33 05.05.2022
3846 Dust 31 1006 20 1500 4.63 300 14:50 05.05.2022
3847 Dust 32 1007 19 400 4.12 310 13:22 05.05.2022
3848 Dust 32 1007 19 400 4.12 310 12:49 05.05.2022
3849 Dust 28 1008 30 1500 6.17 300 10:48 05.05.2022
3850 Dust 27 1009 32 500 7.2 310 09:39 05.05.2022
3851 Clouds 25 1009 33 450 5.66 290 07:35 05.05.2022
3852 Clouds 25 1007 31 250 8.75 310 04:42 05.05.2022
3853 Clouds 28 1004 26 200 7.2 310 01:56 05.05.2022
3854 Clouds 28 1004 26 200 7.2 310 01:27 05.05.2022
3855 Clear 26 1003 19 7000 2.57 200 23:50 04.05.2022
3856 Clear 28 1003 15 7000 2.57 200 22:42 04.05.2022
3857 Clear 29 1002 16 6000 3.09 200 21:50 04.05.2022
3858 Clear 28 1002 20 6000 3.6 220 21:26 04.05.2022
3859 Clear 30 1002 16 8000 4.63 180 20:25 04.05.2022
3860 Clear 30 1001 16 9000 4.63 160 19:53 04.05.2022
3861 Clear 31 1001 15 8000 4.63 140 18:56 04.05.2022
3862 Dust 33 1001 12 5000 4.63 150 18:22 04.05.2022
3863 Clear 34 1001 10 6000 3.6 170 17:42 04.05.2022
3864 Clear 37 1001 6 9000 7.2 210 15:42 04.05.2022
3865 Clear 37 1001 6 9000 7.2 210 15:23 04.05.2022
3866 Clouds 37 1002 8 9000 7.72 200 14:21 04.05.2022
3867 Clear 37 1002 7 9000 8.75 190 13:35 04.05.2022
3868 Clear 36 1003 12 9000 8.23 180 12:33 04.05.2022
3869 Dust 35 1004 17 4100 9.26 180 10:41 04.05.2022
3870 Dust 34 1004 12 4500 12.86 160 09:44 04.05.2022
3871 Dust 32 1005 18 3900 9.77 140 08:47 04.05.2022
3872 Dust 32 1005 18 3900 9.77 140 08:47 04.05.2022
3873 Clear 28 1005 26 10000 6.17 110 06:47 04.05.2022
3874 Clear 27 1006 29 10000 4.63 90 02:59 04.05.2022
3875 Clear 28 1006 28 10000 4.63 100 00:47 04.05.2022
3876 Clear 29 1007 24 10000 3.6 90 22:40 03.05.2022
3877 Clear 30 1007 23 10000 3.6 90 21:46 03.05.2022
3878 Clouds 30 1007 22 10000 4.69 71 20:54 03.05.2022
3879 Clouds 30 1007 22 10000 4.69 71 20:30 03.05.2022
3880 Clear 31 1007 20 10000 3.09 120 18:54 03.05.2022
3881 Clear 31 1007 20 10000 3.09 120 18:21 03.05.2022
3882 Clear 33 1007 15 10000 2.57 120 17:19 03.05.2022
3883 Clouds 34 1007 12 10000 2.57 0 15:43 03.05.2022
3884 Clear 35 1007 16 10000 5.35 261 13:28 03.05.2022
3885 Clear 32 1009 17 10000 2.06 0 12:27 03.05.2022
3886 Clear 31 1010 18 10000 1.54 0 10:58 03.05.2022
3887 Clear 30 1011 21 10000 2.57 220 09:46 03.05.2022
3888 Clear 26 1011 31 10000 1.54 240 07:59 03.05.2022
3889 Clouds 23 1010 38 7000 1.54 300 06:45 03.05.2022
3890 Clouds 21 1009 43 10000 1.03 0 01:53 03.05.2022
3891 Clear 22 1010 43 10000 1.54 330 22:45 02.05.2022
3892 Clear 22 1010 43 10000 1.54 330 22:25 02.05.2022
3893 Clear 25 1010 33 10000 1.54 290 21:24 02.05.2022
3894 Clear 28 1008 24 10000 3.6 290 18:57 02.05.2022
3895 Clear 28 1008 24 10000 3.6 290 18:25 02.05.2022
3896 Clear 30 1008 21 10000 6.17 300 17:38 02.05.2022
3897 Clear 30 1008 19 10000 6.69 300 16:25 02.05.2022
3898 Clear 31 1008 19 10000 7.72 300 15:40 02.05.2022
3899 Clear 30 1008 20 10000 7.2 290 14:19 02.05.2022
3900 Clear 30 1009 21 10000 8.23 280 12:52 02.05.2022
3901 Clear 28 1009 28 10000 7.2 290 11:24 02.05.2022
3902 Clear 28 1009 35 10000 6.94 291 09:32 02.05.2022
3903 Clear 22 1009 53 10000 7.72 280 07:57 02.05.2022
3904 Clear 19 1007 63 2500 2.57 240 05:59 02.05.2022
3905 Dust 23 1006 46 2500 4.12 240 00:40 02.05.2022
3906 Dust 23 1006 46 2500 4.12 240 00:21 02.05.2022
3907 Dust 25 1006 38 1700 6.17 270 22:49 01.05.2022
3908 Dust 26 1005 38 700 4.12 260 21:41 01.05.2022
3909 Clouds 27 1004 36 600 4.63 320 20:29 01.05.2022
3910 Clear 30 1002 25 10000 8.88 276 19:20 01.05.2022
3911 Clouds 27 1004 32 200 8.75 300 18:52 01.05.2022
3912 Clouds 28 1003 26 100 9.77 290 17:47 01.05.2022
3913 Clouds 29 1002 24 200 11.32 280 16:26 01.05.2022
3914 Clear 33 1000 19 10000 11.18 282 15:45 01.05.2022
3915 Clouds 31 1001 22 400 10.29 270 14:45 01.05.2022
3916 Clouds 33 1001 21 400 8.23 250 12:23 01.05.2022
3917 Clouds 33 1002 21 10000 6.5 153 09:34 01.05.2022
3918 Clouds 32 1003 23 10000 6.96 145 08:49 01.05.2022
3919 Clear 26 1003 38 10000 6.17 130 06:31 01.05.2022
3920 Clouds 25 1004 36 10000 3.47 135 01:56 01.05.2022
3921 Clouds 29 1006 26 10000 3.94 123 22:18 30.04.2022
3922 Clouds 29 1006 26 10000 3.94 123 21:32 30.04.2022
3923 Clear 28 1006 32 10000 3.6 100 19:53 30.04.2022
3924 Clear 31 1006 21 10000 3.34 102 18:53 30.04.2022
3925 Clear 33 1007 19 9000 2.06 80 17:26 30.04.2022
3926 Clear 34 1008 17 10000 3.09 280 15:51 30.04.2022
3927 Clear 34 1008 17 10000 3.09 280 15:18 30.04.2022
3928 Clear 33 1010 21 9000 2.57 230 13:52 30.04.2022
3929 Clear 31 1011 27 7000 3.09 210 11:48 30.04.2022
3930 Clear 31 1011 27 7000 3.09 210 11:26 30.04.2022
3931 Clear 28 1013 39 9000 3.09 180 09:57 30.04.2022
3932 Clear 24 1014 53 9000 2.06 140 07:47 30.04.2022
3933 Clear 22 1012 60 10000 5.14 180 03:58 30.04.2022
3934 Clouds 26 1012 41 9000 2.57 80 23:57 29.04.2022
3935 Clear 24 1012 50 10000 1.54 120 22:51 29.04.2022
3936 Clouds 24 1012 43 9000 2.57 160 21:56 29.04.2022
3937 Clouds 24 1012 43 9000 2.57 160 21:25 29.04.2022
3938 Clouds 26 1012 41 9000 4.12 170 20:18 29.04.2022
3939 Clouds 26 1012 38 8000 2.57 160 19:27 29.04.2022
3940 Clouds 30 1011 23 10000 1.54 200 17:34 29.04.2022
3941 Clouds 31 1011 22 10000 2.57 240 16:38 29.04.2022
3942 Clouds 31 1012 23 9000 3.09 210 14:36 29.04.2022
3943 Clouds 30 1012 25 6000 4.12 200 13:36 29.04.2022
3944 Dust 30 1013 30 5000 4.12 200 12:37 29.04.2022
3945 Dust 28 1014 30 4500 3.09 190 10:32 29.04.2022
3946 Dust 25 1014 47 3000 2.57 220 07:55 29.04.2022
3947 Dust 25 1014 47 3000 2.57 220 07:25 29.04.2022
3948 Dust 24 1013 46 3000 2.57 200 06:32 29.04.2022
3949 Dust 24 1011 50 2500 4.12 260 02:23 29.04.2022
3950 Dust 25 1012 44 3000 1.54 170 23:58 28.04.2022
3951 Dust 25 1012 44 3000 1.54 170 23:25 28.04.2022
3952 Dust 26 1012 41 5000 2.57 150 22:33 28.04.2022
3953 Dust 27 1012 36 5000 4.63 190 21:43 28.04.2022
3954 Dust 27 1011 36 3200 5.66 260 20:48 28.04.2022
3955 Dust 27 1011 36 1200 6.17 260 19:55 28.04.2022
3956 Clouds 27 1011 36 500 8.75 250 19:24 28.04.2022
3957 Clouds 28 1011 32 200 10.29 240 18:52 28.04.2022
3958 Clouds 33 1009 15 10000 1.03 0 17:55 28.04.2022
3959 Clouds 33 1008 16 10000 1.54 0 16:58 28.04.2022
3960 Clouds 33 1008 16 10000 1.54 0 16:21 28.04.2022
3961 Clouds 34 1008 17 10000 1.03 0 15:49 28.04.2022
3962 Clouds 34 1008 17 10000 1.03 0 15:18 28.04.2022
3963 Clouds 33 1009 21 10000 1.54 0 13:42 28.04.2022
3964 Clouds 34 1010 21 10000 2.06 0 12:30 28.04.2022
3965 Clouds 32 1011 22 10000 2.57 70 11:38 28.04.2022
3966 Clouds 31 1011 23 10000 1.54 0 10:27 28.04.2022
3967 Clouds 30 1011 26 10000 2.06 0 09:50 28.04.2022
3968 Clouds 26 1010 36 7000 1.03 0 07:43 28.04.2022
3969 Dust 23 1010 40 5000 1.54 310 06:53 28.04.2022
3970 Dust 21 1010 43 5000 1.54 260 05:53 28.04.2022
3971 Clear 21 1009 43 7000 1.54 0 04:43 28.04.2022
3972 Clear 23 1009 40 7000 2.06 270 02:45 28.04.2022
3973 Clear 24 1010 38 7000 3.09 240 23:43 27.04.2022
3974 Clear 25 1010 33 6000 2.57 220 22:25 27.04.2022
3975 Dust 26 1010 31 5000 3.09 210 21:47 27.04.2022
3976 Dust 28 1010 26 5000 2.06 270 20:47 27.04.2022
3977 Dust 28 1010 26 5000 2.06 270 20:47 27.04.2022
3978 Dust 28 1010 26 5000 2.06 270 20:29 27.04.2022
3979 Dust 28 1009 26 3000 2.06 320 19:36 27.04.2022
3980 Dust 29 1008 28 4000 2.06 340 18:45 27.04.2022
3981 Dust 29 1008 28 4000 2.06 340 18:21 27.04.2022
3982 Clouds 32 1008 20 10000 5.66 300 16:21 27.04.2022
3983 Clear 32 1009 23 10000 5.66 280 13:29 27.04.2022
3984 Clear 30 1010 30 10000 3.6 290 11:37 27.04.2022
3985 Clear 29 1011 37 10000 3.6 310 10:51 27.04.2022
3986 Clear 26 1011 47 10000 4.12 310 08:53 27.04.2022
3987 Clear 23 1010 56 10000 3.6 310 06:45 27.04.2022
3988 Clear 21 1008 64 10000 3.09 300 03:30 27.04.2022
3989 Rain 23 1008 60 10000 4.63 340 01:27 27.04.2022
3990 Rain 22 1009 64 10000 3.6 320 00:35 27.04.2022
3991 Clear 24 1009 53 10000 4.12 10 23:24 26.04.2022
3992 Clear 25 1009 50 10000 3.6 340 22:52 26.04.2022
3993 Clear 25 1009 50 10000 3.6 340 22:34 26.04.2022
3994 Clear 25 1009 50 10000 4.12 350 21:26 26.04.2022
3995 Clear 26 1009 47 10000 5.66 350 20:40 26.04.2022
3996 Clear 26 1009 47 10000 5.66 350 20:40 26.04.2022
3997 Clear 28 1008 39 10000 5.66 360 19:48 26.04.2022
3998 Clear 28 1008 39 10000 5.66 360 19:26 26.04.2022
3999 Clear 29 1007 32 10000 4.12 350 18:42 26.04.2022
4000 Clear 30 1007 28 10000 2.57 30 17:50 26.04.2022
4001 Clear 31 1007 27 10000 3.09 340 16:19 26.04.2022
4002 Clear 31 1008 25 10000 2.57 210 13:58 26.04.2022
4003 Clouds 30 1007 29 10000 1.79 79 13:29 26.04.2022
4004 Clear 29 1010 37 10000 5.14 110 11:32 26.04.2022
4005 Clouds 28 1010 39 9000 6.17 120 10:31 26.04.2022
4006 Clouds 25 1010 50 8000 7.2 110 08:47 26.04.2022
4007 Clouds 22 1010 60 9000 4.63 100 06:57 26.04.2022
4008 Clouds 21 1009 64 10000 4.12 100 04:23 26.04.2022
4009 Clouds 24 1009 53 10000 5.66 90 00:53 26.04.2022
4010 Rain 24 1009 53 10000 5.66 90 00:20 26.04.2022
4011 Rain 22 1009 56 9000 1.54 120 22:19 25.04.2022
4012 Rain 24 1009 46 9000 3.09 150 21:33 25.04.2022
4013 Rain 23 1009 49 9000 1.54 120 20:34 25.04.2022
4014 Clouds 26 1008 41 8000 4.12 100 18:54 25.04.2022
4015 Rain 27 1008 36 7000 7.2 110 17:41 25.04.2022
4016 Rain 29 1007 34 9000 6.17 110 16:51 25.04.2022
4017 Clouds 29 1008 32 10000 6.17 130 15:23 25.04.2022
4018 Clouds 30 1008 28 10000 2.57 210 14:34 25.04.2022
4019 Clouds 30 1008 26 10000 1.54 0 13:29 25.04.2022
4020 Clear 25 1010 47 10000 4.63 250 10:58 25.04.2022
4021 Clouds 25 1010 44 8000 3.6 240 09:55 25.04.2022
4022 Dust 24 1010 46 8000 3.09 330 08:23 25.04.2022
4023 Clear 18 1010 68 10000 2.57 330 06:27 25.04.2022
4024 Clear 17 1009 67 10000 1.03 360 02:20 25.04.2022
4025 Clear 17 1009 67 10000 2.06 340 23:58 24.04.2022
4026 Clear 17 1009 67 10000 2.06 340 23:30 24.04.2022
4027 Clouds 18 1009 63 10000 1.54 360 22:40 24.04.2022
4028 Clouds 19 1010 55 10000 2.06 340 21:58 24.04.2022
4029 Clouds 19 1010 55 10000 2.06 340 21:23 24.04.2022
4030 Clouds 21 1009 49 10000 3.6 20 20:47 24.04.2022
4031 Clouds 21 1009 49 10000 3.6 20 20:21 24.04.2022
4032 Rain 23 1009 49 10000 6.17 360 18:58 24.04.2022
4033 Rain 23 1009 49 10000 5.14 340 17:55 24.04.2022
4034 Rain 23 1009 49 10000 5.14 340 17:22 24.04.2022
4035 Rain 24 1009 43 10000 5.66 10 16:58 24.04.2022
4036 Rain 24 1009 43 10000 5.66 10 16:30 24.04.2022
4037 Clouds 24 1009 46 10000 6.17 360 15:53 24.04.2022
4038 Rain 22 1009 56 10000 6.17 360 14:55 24.04.2022
4039 Clouds 20 1010 64 10000 5.14 350 13:45 24.04.2022
4040 Clouds 20 1010 64 10000 5.14 350 13:45 24.04.2022
4041 Clouds 20 1010 64 10000 5.14 350 13:23 24.04.2022
4042 Rain 18 1012 94 4000 4.63 320 11:53 24.04.2022
4043 Rain 19 1013 72 3500 3.6 50 11:22 24.04.2022
4044 Rain 26 1012 31 2000 8.75 150 09:47 24.04.2022
4045 Dust 26 1012 27 3000 6.17 150 08:31 24.04.2022
4046 Clouds 25 1009 23 10000 5.66 80 05:46 24.04.2022
4047 Clear 26 1008 15 10000 5.66 240 02:59 24.04.2022
4048 Clear 22 1008 26 10000 0.51 0 00:55 24.04.2022
4049 Clear 23 1008 23 10000 2.06 200 23:55 23.04.2022
4050 Clear 23 1008 23 10000 2.06 200 23:25 23.04.2022
4051 Clear 23 1008 23 10000 1.54 190 22:40 23.04.2022
4052 Clear 23 1008 23 10000 1.54 200 21:48 23.04.2022
4053 Clear 23 1008 23 10000 1.54 200 21:30 23.04.2022
4054 Clear 25 1008 22 10000 2.06 230 20:27 23.04.2022
4055 Clear 26 1008 18 10000 2.06 220 19:21 23.04.2022
4056 Clear 28 1008 14 10000 1.54 210 18:54 23.04.2022
4057 Clear 28 1008 14 10000 1.54 210 18:32 23.04.2022
4058 Clear 30 1008 11 10000 0.51 350 17:47 23.04.2022
4059 Clouds 32 1008 8 10000 2.57 340 16:46 23.04.2022
4060 Clouds 33 1008 7 10000 3.6 360 15:53 23.04.2022
4061 Clouds 33 1008 7 10000 3.6 360 15:52 23.04.2022
4062 Clear 32 1010 10 10000 3.6 310 13:33 23.04.2022
4063 Clear 31 1011 8 10000 5.14 310 11:57 23.04.2022
4064 Clouds 31 1011 8 10000 3.6 320 10:37 23.04.2022
4065 Clouds 26 1012 13 7000 4.12 300 08:27 23.04.2022
4066 Clear 16 1010 31 10000 3.6 280 04:18 23.04.2022
4067 Clear 17 1010 25 10000 2.57 270 03:27 23.04.2022
4068 Clear 19 1010 26 10000 1.54 330 23:38 22.04.2022
4069 Clear 19 1010 26 10000 1.54 330 23:20 22.04.2022
4070 Clear 20 1011 24 10000 1.03 0 21:58 22.04.2022
4071 Clear 20 1011 24 10000 1.03 0 21:39 22.04.2022
4072 Clear 22 1011 18 10000 3.09 300 20:34 22.04.2022
4073 Clear 24 1011 16 10000 3.6 310 19:27 22.04.2022
4074 Clear 26 1010 15 10000 3.09 300 18:57 22.04.2022
4075 Clear 26 1010 15 10000 3.09 300 18:26 22.04.2022
4076 Clear 31 1010 9 10000 7.72 280 16:57 22.04.2022
4077 Clear 32 1010 6 10000 8.75 290 15:59 22.04.2022
4078 Clear 32 1010 6 10000 8.75 290 15:30 22.04.2022
4079 Clear 32 1011 7 10000 7.72 290 14:38 22.04.2022
4080 Clear 32 1012 6 10000 8.23 310 13:41 22.04.2022
4081 Clear 32 1012 7 10000 8.23 300 12:48 22.04.2022
4082 Clear 31 1013 11 10000 7.72 290 11:23 22.04.2022
4083 Clear 29 1014 18 10000 5.66 290 10:57 22.04.2022
4084 Clear 29 1014 18 10000 5.66 290 10:34 22.04.2022
4085 Clear 27 1014 21 10000 5.14 290 09:59 22.04.2022
4086 Clear 27 1014 21 10000 5.14 290 09:22 22.04.2022
4087 Clear 24 1014 25 10000 5.14 300 08:48 22.04.2022
4088 Clear 18 1013 29 10000 4.63 300 06:42 22.04.2022
4089 Clear 17 1011 36 10000 3.6 310 01:24 22.04.2022
4090 Clear 21 1011 26 10000 4.12 280 23:35 21.04.2022
4091 Clear 23 1011 21 10000 5.03 310 22:47 21.04.2022
4092 Clear 24 1012 19 10000 5.66 280 21:42 21.04.2022
4093 Clear 24 1011 15 10000 4.12 270 20:32 21.04.2022
4094 Clear 25 1011 13 10000 4.63 280 19:24 21.04.2022
4095 Clear 27 1010 11 10000 5.66 280 18:32 21.04.2022
4096 Clear 29 1010 9 10000 7.2 290 17:20 21.04.2022
4097 Clear 30 1010 10 9000 8.23 290 16:21 21.04.2022
4098 Clear 31 1010 8 8000 8.75 290 15:19 21.04.2022
4099 Clear 31 1010 7 7000 8.75 290 14:29 21.04.2022
4100 Clear 30 1011 10 10000 6.17 310 13:22 21.04.2022
4101 Clear 30 1011 10 10000 7.2 300 12:29 21.04.2022
4102 Clear 26 1013 22 9000 8.75 310 09:58 21.04.2022
4103 Clear 23 1012 31 10000 6.69 310 08:47 21.04.2022
4104 Clear 23 1012 28 10000 8.15 328 06:46 21.04.2022
4105 Clear 17 1011 39 10000 5.14 310 04:21 21.04.2022
4106 Clear 19 1011 34 10000 5.14 320 03:23 21.04.2022
4107 Clear 20 1011 32 10000 4.12 330 02:45 21.04.2022
4108 Clear 20 1011 32 10000 4.12 330 02:45 21.04.2022
4109 Clear 22 1010 26 10000 6.69 310 00:35 21.04.2022
4110 Clouds 23 1011 25 8000 4.12 290 23:46 20.04.2022
4111 Clouds 23 1011 25 8000 4.12 290 23:21 20.04.2022
4112 Clouds 24 1010 23 7000 5.14 290 22:41 20.04.2022
4113 Clouds 25 1010 20 6000 5.14 300 21:57 20.04.2022
4114 Clouds 25 1010 20 6000 5.14 300 21:23 20.04.2022
4115 Clouds 26 1009 17 6000 5.66 290 20:22 20.04.2022
4116 Clouds 27 1009 19 10000 7.54 306 19:51 20.04.2022
4117 Dust 28 1008 15 2000 5.66 280 18:52 20.04.2022
4118 Dust 29 1008 16 1200 7.72 290 17:53 20.04.2022
4119 Dust 30 1007 16 1000 8.75 290 16:40 20.04.2022
4120 Clouds 30 1007 19 900 7.72 290 15:39 20.04.2022
4121 Clouds 29 1008 20 600 7.2 290 13:41 20.04.2022
4122 Clouds 24 1009 35 300 7.72 290 11:43 20.04.2022
4123 Clouds 25 1009 31 200 6.17 290 10:53 20.04.2022
4124 Clouds 24 1009 29 300 8.23 310 09:45 20.04.2022
4125 Dust 24 1009 31 200 7.72 310 08:54 20.04.2022
4126 Dust 24 1009 31 200 7.72 310 08:20 20.04.2022
4127 Dust 24 1009 31 200 7.72 310 08:20 20.04.2022
4128 Dust 23 1008 31 400 5.14 320 06:49 20.04.2022
4129 Clear 25 1007 18 10000 6.69 290 03:33 20.04.2022
4130 Clear 26 1006 18 10000 6.69 140 00:22 20.04.2022
4131 Clear 25 1006 22 10000 4.63 130 23:35 19.04.2022
4132 Clear 28 1007 18 10000 4.12 130 22:24 19.04.2022
4133 Clear 28 1007 18 10000 3.6 110 21:55 19.04.2022
4134 Clear 28 1007 18 10000 3.6 110 21:19 19.04.2022
4135 Clear 28 1008 18 10000 3.6 110 20:37 19.04.2022
4136 Clear 29 1007 18 10000 3.6 100 19:43 19.04.2022
4137 Clear 30 1008 16 10000 2.57 140 18:46 19.04.2022
4138 Clear 30 1008 16 10000 2.57 140 18:46 19.04.2022
4139 Clear 32 1007 12 10000 3.09 140 17:28 19.04.2022
4140 Clear 34 1008 8 10000 3.6 120 16:43 19.04.2022
4141 Clear 34 1008 8 10000 3.6 120 16:21 19.04.2022
4142 Clear 35 1008 6 10000 2.57 160 14:48 19.04.2022
4143 Clear 33 1009 7 10000 2.57 160 13:35 19.04.2022
4144 Clear 34 1010 5 10000 3.09 180 12:50 19.04.2022
4145 Clear 33 1010 9 10000 2.57 160 11:55 19.04.2022
4146 Clear 31 1011 11 10000 3.6 160 10:23 19.04.2022
4147 Clouds 30 1011 16 8000 2.06 200 09:18 19.04.2022
4148 Clear 16 1010 39 10000 1.54 250 04:42 19.04.2022
4149 Clear 16 1009 44 10000 1.03 360 03:25 19.04.2022
4150 Clear 18 1010 29 10000 1.03 300 00:54 19.04.2022
4151 Clear 21 1011 24 10000 2.06 300 23:29 18.04.2022
4152 Clear 22 1011 24 10000 1.54 280 21:30 18.04.2022
4153 Clear 22 1011 24 10000 1.54 280 21:30 18.04.2022
4154 Clear 24 1012 22 10000 1.54 270 20:54 18.04.2022
4155 Clear 24 1012 22 10000 1.54 270 20:30 18.04.2022
4156 Clear 24 1011 20 10000 1.03 280 19:49 18.04.2022
4157 Clear 27 1011 16 10000 2.57 310 18:56 18.04.2022
4158 Clear 31 1010 10 10000 4.12 310 17:57 18.04.2022
4159 Clear 31 1010 10 10000 4.12 310 17:33 18.04.2022
4160 Clear 32 1010 8 10000 4.12 330 16:50 18.04.2022
4161 Clear 32 1010 8 10000 4.12 330 16:31 18.04.2022
4162 Clear 32 1011 7 10000 5.14 330 14:45 18.04.2022
4163 Clear 32 1011 7 10000 6.17 330 13:35 18.04.2022
4164 Clouds 32 1011 9 10000 4.39 333 12:29 18.04.2022
4165 Clear 32 1013 8 10000 5.14 340 11:34 18.04.2022
4166 Clear 31 1013 9 10000 4.12 330 10:31 18.04.2022
4167 Clear 28 1014 17 10000 3.09 340 09:31 18.04.2022
4168 Clear 20 1013 30 10000 3.09 310 07:42 18.04.2022
4169 Clouds 18 1012 34 10000 3.6 280 05:37 18.04.2022
4170 Clouds 19 1012 24 10000 2.57 310 00:47 18.04.2022
4171 Clouds 22 1013 21 10000 2.57 270 22:41 17.04.2022
4172 Clouds 22 1013 20 10000 2.57 270 21:46 17.04.2022
4173 Clouds 22 1013 20 10000 2.57 270 21:24 17.04.2022
4174 Clouds 24 1013 17 10000 3.09 270 20:36 17.04.2022
4175 Clouds 24 1013 17 10000 3.09 270 20:36 17.04.2022
4176 Clear 25 1012 14 10000 3.09 280 19:38 17.04.2022
4177 Clear 28 1012 12 10000 5.14 280 17:48 17.04.2022
4178 Clear 30 1011 10 10000 5.14 280 15:40 17.04.2022
4179 Clear 30 1012 10 10000 5.66 310 14:55 17.04.2022
4180 Clear 30 1012 10 10000 5.66 310 14:19 17.04.2022
4181 Clear 29 1013 10 10000 2.06 290 12:59 17.04.2022
4182 Clear 29 1013 10 10000 2.06 290 12:27 17.04.2022
4183 Clear 28 1014 14 10000 4.63 300 10:46 17.04.2022
4184 Clear 28 1014 14 10000 4.63 300 10:28 17.04.2022
4185 Clear 26 1014 18 10000 3.6 300 09:34 17.04.2022
4186 Clear 22 1014 28 10000 3.6 290 08:51 17.04.2022
4187 Clear 20 1013 30 10000 4.63 310 07:37 17.04.2022
4188 Clear 14 1012 41 10000 1.54 280 04:30 17.04.2022
4189 Clear 16 1011 31 10000 2.06 270 01:27 17.04.2022
4190 Clear 17 1011 27 10000 1.03 280 23:52 16.04.2022
4191 Clear 18 1011 24 10000 1.54 280 22:35 16.04.2022
4192 Clear 19 1011 24 10000 2.06 290 21:39 16.04.2022
4193 Clear 21 1011 19 10000 2.57 300 20:32 16.04.2022
4194 Clear 26 1010 12 10000 4.63 290 18:59 16.04.2022
4195 Clear 28 1010 10 10000 6.69 300 17:52 16.04.2022
4196 Clear 29 1010 9 10000 6.17 290 16:40 16.04.2022
4197 Clear 30 1010 8 10000 6.69 310 15:45 16.04.2022
4198 Clear 30 1010 8 10000 6.69 310 15:45 16.04.2022
4199 Clear 29 1010 9 10000 5.66 330 14:56 16.04.2022
4200 Clear 29 1010 9 10000 5.66 310 13:58 16.04.2022
4201 Clear 29 1010 9 10000 5.66 310 13:37 16.04.2022
4202 Clear 28 1011 13 10000 6.17 310 12:26 16.04.2022
4203 Clear 26 1012 18 10000 5.66 320 10:50 16.04.2022
4204 Clear 24 1013 23 10000 4.12 310 09:56 16.04.2022
4205 Clear 22 1013 26 10000 4.12 310 08:59 16.04.2022
4206 Clear 19 1012 27 7000 3.6 290 07:57 16.04.2022
4207 Clear 17 1012 31 7000 2.57 290 06:58 16.04.2022
4208 Clear 16 1010 33 10000 1.54 290 02:52 16.04.2022
4209 Clear 17 1010 27 10000 2.06 290 00:30 16.04.2022
4210 Clear 19 1011 24 10000 2.06 260 23:23 15.04.2022
4211 Clear 19 1012 22 10000 2.57 280 22:36 15.04.2022
4212 Clear 19 1011 20 10000 1.03 280 21:55 15.04.2022
4213 Clear 19 1011 20 10000 1.03 280 21:18 15.04.2022
4214 Clear 21 1011 19 10000 3.09 280 20:24 15.04.2022
4215 Clear 22 1011 18 10000 3.09 270 19:40 15.04.2022
4216 Clear 24 1010 12 10000 3.09 270 18:54 15.04.2022
4217 Clear 24 1010 12 10000 3.09 270 18:25 15.04.2022
4218 Clear 26 1009 10 10000 4.12 340 17:35 15.04.2022
4219 Clear 27 1010 6 10000 7.2 320 16:53 15.04.2022
4220 Clear 27 1010 6 10000 7.2 320 16:19 15.04.2022
4221 Clear 28 1010 7 10000 6.69 320 15:24 15.04.2022
4222 Clear 28 1011 6 10000 8.75 300 13:41 15.04.2022
4223 Clear 27 1012 6 10000 8.23 310 12:42 15.04.2022
4224 Clear 27 1012 9 10000 7.72 340 11:57 15.04.2022
4225 Clear 27 1012 9 10000 7.72 340 11:57 15.04.2022
4226 Clear 27 1012 9 10000 7.72 340 11:34 15.04.2022
4227 Clear 26 1012 9 10000 8.23 340 10:43 15.04.2022
4228 Clear 23 1013 15 10000 7.2 320 09:46 15.04.2022
4229 Clear 23 1013 15 10000 7.2 320 09:21 15.04.2022
4230 Clear 18 1013 20 10000 6.17 300 07:44 15.04.2022
4231 Clear 16 1013 23 10000 6.69 310 06:36 15.04.2022
4232 Clear 16 1012 23 10000 5.14 320 03:21 15.04.2022
4233 Clear 19 1012 20 10000 6.69 320 23:32 14.04.2022
4234 Clear 21 1012 21 10000 5.66 320 22:49 14.04.2022
4235 Clear 21 1012 21 10000 5.66 320 22:30 14.04.2022
4236 Clear 21 1011 23 10000 6.69 330 21:59 14.04.2022
4237 Clear 21 1011 26 10000 4.63 320 20:57 14.04.2022
4238 Clear 22 1011 24 10000 6.17 320 19:23 14.04.2022
4239 Clear 23 1010 23 10000 6.17 320 18:30 14.04.2022
4240 Clear 25 1010 19 10000 6.69 320 17:44 14.04.2022
4241 Clear 25 1010 19 10000 6.69 320 17:44 14.04.2022
4242 Clear 27 1010 16 10000 7.2 330 16:46 14.04.2022
4243 Clear 28 1010 13 10000 7.72 330 15:28 14.04.2022
4244 Clear 28 1011 12 10000 6.17 320 13:47 14.04.2022
4245 Clear 28 1012 11 10000 6.17 340 12:58 14.04.2022
4246 Clear 28 1012 11 10000 6.17 340 12:31 14.04.2022
4247 Clouds 27 1011 12 9000 8.75 340 11:36 14.04.2022
4248 Clear 26 1012 13 10000 7.72 340 10:56 14.04.2022
4249 Clear 26 1012 13 10000 7.72 340 10:27 14.04.2022
4250 Clouds 24 1013 17 9000 8.75 350 09:26 14.04.2022
4251 Clear 20 1013 21 10000 6.17 350 07:36 14.04.2022
4252 Clear 16 1013 23 10000 5.66 350 05:23 14.04.2022
4253 Clear 18 1013 32 10000 5.66 320 23:50 13.04.2022
4254 Clear 19 1013 32 10000 5.14 290 22:29 13.04.2022
4255 Clear 21 1013 24 10000 5.66 290 21:42 13.04.2022
4256 Clear 22 1012 23 10000 5.14 280 20:27 13.04.2022
4257 Clouds 22 1012 23 9000 5.14 280 19:46 13.04.2022
4258 Clear 23 1011 21 8000 5.66 300 18:36 13.04.2022
4259 Clear 25 1010 18 6000 7.2 290 17:24 13.04.2022
4260 Dust 27 1010 16 5000 6.17 300 16:44 13.04.2022
4261 Dust 27 1010 17 5000 5.14 310 15:44 13.04.2022
4262 Dust 27 1010 17 5000 5.14 310 15:21 13.04.2022
4263 Dust 28 1011 16 5000 4.63 270 14:34 13.04.2022
4264 Dust 27 1011 17 4000 4.12 280 13:37 13.04.2022
4265 Dust 27 1011 17 4000 3.6 0 12:41 13.04.2022
4266 Dust 25 1012 22 1100 4.12 310 11:25 13.04.2022
4267 Dust 24 1012 23 800 5.14 320 09:53 13.04.2022
4268 Dust 22 1012 28 800 6.69 300 08:44 13.04.2022
4269 Dust 19 1011 34 2100 4.63 310 07:44 13.04.2022
4270 Dust 15 1011 47 2100 3.6 300 06:47 13.04.2022
4271 Dust 15 1011 47 2100 3.6 300 06:23 13.04.2022
4272 Clear 16 1009 41 7000 1.54 340 00:52 13.04.2022
4273 Clear 16 1009 41 7000 1.54 340 00:19 13.04.2022
4274 Clear 15 1010 38 10000 2.57 320 22:33 12.04.2022
4275 Clear 17 1010 31 10000 4.12 310 21:47 12.04.2022
4276 Clear 19 1009 26 10000 3.6 310 20:44 12.04.2022
4277 Clear 19 1009 26 10000 3.6 310 20:19 12.04.2022
4278 Clear 21 1009 18 10000 4.63 300 19:40 12.04.2022
4279 Clouds 23 1009 17 9000 5.14 280 18:53 12.04.2022
4280 Dust 25 1008 18 3500 7.2 290 17:38 12.04.2022
4281 Dust 26 1008 17 2500 7.72 300 16:38 12.04.2022
4282 Dust 26 1008 17 1500 7.2 290 15:34 12.04.2022
4283 Dust 26 1008 17 1500 7.72 300 14:41 12.04.2022
4284 Dust 26 1009 17 1200 7.2 300 13:45 12.04.2022
4285 Clouds 26 1009 17 700 7.72 300 13:24 12.04.2022
4286 Clouds 24 1010 23 300 8.23 310 11:57 12.04.2022
4287 Clouds 24 1010 23 300 8.23 310 11:32 12.04.2022
4288 Clouds 21 1011 30 100 9.26 320 09:47 12.04.2022
4289 Clouds 21 1011 32 300 8.75 310 08:38 12.04.2022
4290 Clouds 21 1009 30 200 7.72 310 06:46 12.04.2022
4291 Clouds 21 1008 32 200 9.26 300 05:38 12.04.2022
4292 Clear 24 1004 27 10000 6.17 140 01:48 12.04.2022
4293 Clear 26 1005 22 10000 5.66 140 23:20 11.04.2022
4294 Clear 26 1005 22 10000 6.17 140 21:59 11.04.2022
4295 Clear 26 1005 22 10000 6.17 140 21:18 11.04.2022
4296 Clear 27 1006 22 10000 5.66 140 20:34 11.04.2022
4297 Clear 28 1005 23 10000 4.63 120 19:58 11.04.2022
4298 Clear 28 1005 23 10000 4.63 120 19:26 11.04.2022
4299 Clear 29 1005 23 10000 4.63 130 18:53 11.04.2022
4300 Clear 32 1005 17 10000 5.66 140 17:58 11.04.2022
4301 Clear 32 1005 17 10000 5.66 140 17:33 11.04.2022
4302 Clear 33 1006 16 10000 5.66 130 16:26 11.04.2022
4303 Clear 34 1007 15 10000 4.12 140 14:42 11.04.2022
4304 Clear 34 1008 15 10000 5.66 160 13:34 11.04.2022
4305 Clear 33 1009 14 10000 4.12 170 12:38 11.04.2022
4306 Clear 32 1010 17 10000 7.2 170 11:54 11.04.2022
4307 Clear 31 1011 19 8000 4.63 150 10:36 11.04.2022
4308 Clouds 29 1011 20 8000 5.66 130 09:41 11.04.2022
4309 Dust 25 1012 31 5000 2.57 130 07:54 11.04.2022
4310 Clear 18 1010 45 7000 1.03 110 03:19 11.04.2022
4311 Clear 19 1011 37 10000 2.06 140 23:27 10.04.2022
4312 Clear 20 1011 34 10000 1.54 80 22:26 10.04.2022
4313 Clear 22 1012 28 10000 2.57 350 21:43 10.04.2022
4314 Clear 23 1012 28 10000 2.57 360 20:50 10.04.2022
4315 Clouds 22 1012 30 9000 2.57 320 19:54 10.04.2022
4316 Clouds 22 1012 30 9000 2.57 320 19:33 10.04.2022
4317 Clear 27 1011 21 10000 2.06 260 18:46 10.04.2022
4318 Clear 28 1011 21 10000 2.06 210 18:20 10.04.2022
4319 Clear 30 1010 17 10000 1.54 220 17:41 10.04.2022
4320 Clear 30 1011 17 10000 2.57 230 16:47 10.04.2022
4321 Clear 31 1011 16 10000 2.57 230 15:37 10.04.2022
4322 Clear 31 1011 18 10000 2.06 0 14:34 10.04.2022
4323 Clear 31 1013 18 10000 3.6 240 12:50 10.04.2022
4324 Clear 31 1013 18 10000 3.6 240 12:26 10.04.2022
4325 Clouds 30 1014 19 9000 4.12 250 11:29 10.04.2022
4326 Clouds 28 1014 24 9000 3.09 270 10:57 10.04.2022
4327 Clouds 28 1014 24 9000 3.09 270 10:20 10.04.2022
4328 Clouds 26 1014 27 9000 2.06 260 09:39 10.04.2022
4329 Clear 23 1014 31 8000 2.06 290 08:24 10.04.2022
4330 Clear 21 1014 35 10000 3.6 290 07:42 10.04.2022
4331 Clear 18 1013 45 10000 1.54 290 06:19 10.04.2022
4332 Clear 17 1012 39 10000 0 0 02:37 10.04.2022
4333 Clear 19 1012 39 8000 1.03 0 00:34 10.04.2022
4334 Clear 21 1012 35 6000 1.54 260 23:49 09.04.2022
4335 Dust 20 1011 34 5000 1.03 260 22:50 09.04.2022
4336 Dust 21 1011 32 4600 0.51 0 21:46 09.04.2022
4337 Dust 22 1011 30 4100 1.54 200 20:57 09.04.2022
4338 Dust 22 1011 30 4100 1.54 200 20:26 09.04.2022
4339 Dust 26 1010 24 3600 2.57 270 19:42 09.04.2022
4340 Dust 26 1010 24 3600 2.57 270 19:18 09.04.2022
4341 Dust 26 1010 24 2700 3.6 290 18:21 09.04.2022
4342 Dust 28 1009 23 1900 5.14 290 17:39 09.04.2022
4343 Dust 28 1009 23 2700 6.17 280 16:53 09.04.2022
4344 Dust 28 1009 23 3500 8.23 310 15:59 09.04.2022
4345 Dust 28 1009 23 3500 8.23 310 15:41 09.04.2022
4346 Dust 28 1009 24 2500 7.2 290 14:44 09.04.2022
4347 Dust 28 1009 24 2500 7.2 290 14:23 09.04.2022
4348 Dust 27 1009 28 1100 7.2 280 13:20 09.04.2022
4349 Dust 26 1010 31 1300 6.17 270 12:50 09.04.2022
4350 Dust 26 1010 29 2300 6.69 270 11:38 09.04.2022
4351 Dust 25 1010 33 4000 3.6 280 10:21 09.04.2022
4352 Dust 23 1010 38 4000 7.2 300 09:47 09.04.2022
4353 Dust 21 1009 43 5000 8.75 290 08:56 09.04.2022
4354 Clouds 20 1009 45 5000 10.8 290 07:29 09.04.2022
4355 Clouds 29 1006 18 10000 1.54 0 02:53 09.04.2022
4356 Clouds 27 1005 26 10000 3.09 90 00:25 09.04.2022
4357 Clouds 27 1006 22 10000 3.6 150 22:57 08.04.2022
4358 Clear 29 1006 20 10000 4.12 130 21:32 08.04.2022
4359 Clear 29 1006 20 10000 3.6 100 20:40 08.04.2022
4360 Clear 30 1006 21 10000 2.57 120 19:32 08.04.2022
4361 Clear 31 1006 20 10000 6.17 140 18:31 08.04.2022
4362 Clouds 32 1006 19 9000 5.14 150 17:53 08.04.2022
4363 Clouds 32 1006 19 9000 5.14 150 17:26 08.04.2022
4364 Clouds 33 1007 17 9000 5.66 140 16:51 08.04.2022
4365 Clouds 33 1007 17 9000 5.66 140 16:20 08.04.2022
4366 Clear 34 1007 15 10000 7.72 160 15:27 08.04.2022
4367 Clouds 34 1008 14 8000 8.23 160 14:40 08.04.2022
4368 Clouds 33 1009 17 6000 9.77 150 13:55 08.04.2022
4369 Clouds 33 1009 17 6000 9.77 150 13:30 08.04.2022
4370 Dust 32 1010 18 5000 7.72 150 12:42 08.04.2022
4371 Clouds 29 1012 23 6000 6.69 130 10:55 08.04.2022
4372 Clouds 29 1012 21 6000 5.14 130 09:41 08.04.2022
4373 Clouds 26 1012 24 6000 4.12 120 08:58 08.04.2022
4374 Clouds 23 1012 31 6000 2.57 140 07:42 08.04.2022
4375 Clouds 19 1012 42 6000 1.54 110 06:44 08.04.2022
4376 Clouds 20 1012 40 9000 1.03 180 02:29 08.04.2022
4377 Clouds 21 1011 35 8000 1.03 150 00:28 08.04.2022
4378 Clouds 21 1012 32 8000 1.03 150 23:41 07.04.2022
4379 Clouds 21 1011 35 8000 1.03 180 22:41 07.04.2022
4380 Clouds 21 1011 35 8000 1.03 180 22:22 07.04.2022
4381 Dust 23 1011 25 8000 1.54 160 21:56 07.04.2022
4382 Dust 23 1011 25 8000 1.54 160 21:23 07.04.2022
4383 Clouds 25 1011 22 8000 0.51 280 20:42 07.04.2022
4384 Clouds 29 1009 17 8000 3.09 270 18:58 07.04.2022
4385 Clouds 31 1008 14 7000 4.63 260 17:28 07.04.2022
4386 Clouds 33 1007 13 7000 7.2 260 16:51 07.04.2022
4387 Clouds 33 1007 13 7000 7.2 260 16:33 07.04.2022
4388 Clouds 33 1007 14 6000 6.17 230 15:39 07.04.2022
4389 Clear 32 1007 15 6000 7.72 240 13:52 07.04.2022
4390 Clear 32 1007 15 6000 7.72 240 13:23 07.04.2022
4391 Dust 29 1008 24 3500 3.6 260 11:49 07.04.2022
4392 Dust 27 1008 26 2000 5.66 270 10:40 07.04.2022
4393 Dust 25 1007 25 4300 6.69 290 08:43 07.04.2022
4394 Dust 23 1006 27 5000 4.12 250 06:59 07.04.2022
4395 Dust 23 1004 23 5000 4.12 220 04:36 07.04.2022
4396 Clear 25 1004 22 10000 4.63 180 02:32 07.04.2022
4397 Clear 26 1003 21 10000 8.75 140 00:43 07.04.2022
4398 Clear 27 1004 21 10000 8.23 140 23:28 06.04.2022
4399 Clear 27 1004 24 10000 8.75 140 22:44 06.04.2022
4400 Clear 27 1004 24 10000 8.75 140 22:19 06.04.2022
4401 Clear 27 1006 26 10000 7.72 130 20:47 06.04.2022
4402 Clear 27 1006 28 10000 6.69 130 19:59 06.04.2022
4403 Clear 29 1006 24 10000 7.2 130 19:24 06.04.2022
4404 Clear 30 1006 23 10000 5.66 120 18:48 06.04.2022
4405 Clear 32 1006 19 10000 5.66 120 17:36 06.04.2022
4406 Clear 34 1007 16 10000 6.69 140 16:56 06.04.2022
4407 Clear 34 1007 16 10000 6.69 140 16:32 06.04.2022
4408 Clear 34 1008 13 10000 7.72 170 15:43 06.04.2022
4409 Clear 34 1010 13 10000 6.69 160 13:48 06.04.2022
4410 Clear 33 1012 13 10000 6.69 160 12:30 06.04.2022
4411 Clear 33 1012 14 10000 6.69 150 11:44 06.04.2022
4412 Clear 31 1013 16 10000 6.17 150 10:33 06.04.2022
4413 Clear 29 1014 20 10000 4.12 140 09:59 06.04.2022
4414 Clear 29 1014 20 10000 4.12 140 09:25 06.04.2022
4415 Clouds 26 1014 24 9000 4.12 150 08:18 06.04.2022
4416 Clear 18 1013 39 10000 1.54 130 06:40 06.04.2022
4417 Clear 19 1013 37 10000 2.06 200 01:26 06.04.2022
4418 Clear 17 1014 39 10000 1.03 150 23:50 05.04.2022
4419 Clear 20 1014 30 10000 0.51 0 21:58 05.04.2022
4420 Clear 20 1014 30 10000 0.51 0 21:18 05.04.2022
4421 Clear 22 1014 24 10000 0.51 0 20:24 05.04.2022
4422 Clouds 27 1013 17 10000 2.06 300 18:45 05.04.2022
4423 Clear 30 1013 14 10000 4.63 300 17:22 05.04.2022
4424 Clear 31 1013 11 10000 7.72 300 16:44 05.04.2022
4425 Clear 32 1014 12 10000 7.2 310 15:52 05.04.2022
4426 Clear 32 1014 12 10000 7.2 310 15:31 05.04.2022
4427 Clear 32 1015 14 10000 7.72 310 13:59 05.04.2022
4428 Clouds 31 1015 18 9000 6.17 300 12:41 05.04.2022
4429 Clouds 30 1016 20 8000 7.2 300 11:43 05.04.2022
4430 Clouds 30 1016 20 8000 7.2 300 11:25 05.04.2022
4431 Clear 26 1017 31 7000 4.63 320 09:41 05.04.2022
4432 Clear 24 1017 33 6000 5.14 310 08:51 05.04.2022
4433 Clear 17 1015 31 9000 3.6 310 04:25 05.04.2022
4434 Clouds 21 1014 23 8000 4.12 310 23:51 04.04.2022
4435 Clouds 23 1014 20 7000 3.6 300 22:41 04.04.2022
4436 Clear 23 1014 18 10000 3.6 290 21:52 04.04.2022
4437 Clear 23 1014 18 10000 3.6 290 21:21 04.04.2022
4438 Clear 24 1014 17 10000 3.6 300 20:48 04.04.2022
4439 Clear 27 1013 14 10000 4.12 290 19:39 04.04.2022
4440 Clear 29 1012 14 10000 4.63 280 18:59 04.04.2022
4441 Clear 31 1012 12 10000 5.14 290 17:39 04.04.2022
4442 Clear 33 1012 11 6000 6.69 310 16:36 04.04.2022
4443 Clear 33 1012 11 6000 6.69 310 16:36 04.04.2022
4444 Clear 34 1011 9 7000 6.69 310 15:34 04.04.2022
4445 Clear 34 1012 9 10000 7.2 330 14:49 04.04.2022
4446 Clear 34 1012 9 10000 7.2 330 14:31 04.04.2022
4447 Clear 33 1012 11 10000 7.72 300 13:21 04.04.2022
4448 Clear 31 1014 16 10000 7.2 320 11:48 04.04.2022
4449 Clear 31 1014 16 10000 7.2 320 11:27 04.04.2022
4450 Clear 22 1013 26 10000 7.2 310 07:46 04.04.2022
4451 Clear 22 1013 26 10000 7.2 310 07:46 04.04.2022
4452 Clear 20 1011 28 10000 3.6 320 03:52 04.04.2022
4453 Clear 22 1010 26 10000 2.57 280 00:25 04.04.2022
4454 Clouds 22 1010 26 6000 0.51 0 22:33 03.04.2022
4455 Clouds 23 1010 27 8000 1.03 280 21:38 03.04.2022
4456 Clear 26 1009 27 10000 1.54 40 20:41 03.04.2022
4457 Clear 27 1009 21 10000 1.03 10 19:45 03.04.2022
4458 Clear 30 1009 16 10000 2.06 360 18:31 03.04.2022
4459 Clear 33 1009 12 10000 2.06 300 17:46 03.04.2022
4460 Clear 34 1009 12 10000 1.54 260 16:50 03.04.2022
4461 Clear 34 1009 12 10000 1.54 260 16:31 03.04.2022
4462 Clear 36 1010 11 10000 1.54 260 14:38 03.04.2022
4463 Clear 36 1011 11 10000 2.06 260 13:47 03.04.2022
4464 Clear 35 1012 10 10000 1.54 280 12:41 03.04.2022
4465 Clear 31 1013 18 10000 2.06 220 10:58 03.04.2022
4466 Dust 28 1013 24 5000 2.06 240 09:36 03.04.2022
4467 Dust 26 1013 25 10000 2.57 250 08:33 03.04.2022
4468 Clouds 15 1012 38 9000 1.54 330 04:42 03.04.2022
4469 Clouds 18 1012 32 7000 0 0 01:53 03.04.2022
4470 Clear 19 1013 32 10000 1.03 340 23:21 02.04.2022
4471 Clear 20 1013 28 10000 0 0 22:18 02.04.2022
4472 Clear 21 1014 24 10000 1.54 270 21:46 02.04.2022
4473 Clear 21 1014 24 10000 1.54 270 21:18 02.04.2022
4474 Clear 25 1013 18 10000 1.54 260 19:54 02.04.2022
4475 Clear 28 1013 15 10000 2.57 250 18:23 02.04.2022
4476 Clear 31 1013 11 10000 3.09 280 17:53 02.04.2022
4477 Clear 32 1013 10 10000 4.12 300 16:27 02.04.2022
4478 Clear 33 1013 9 10000 6.17 320 15:22 02.04.2022
4479 Clear 33 1014 10 10000 6.69 290 14:51 02.04.2022
4480 Clear 33 1014 11 10000 4.63 270 13:51 02.04.2022
4481 Clear 33 1015 11 10000 5.14 290 13:19 02.04.2022
4482 Clouds 31 1016 11 10000 4.63 300 11:33 02.04.2022
4483 Clear 26 1017 19 10000 2.06 320 09:30 02.04.2022
4484 Clouds 15 1016 33 9000 1.54 270 06:56 02.04.2022
4485 Clear 14 1016 35 10000 3.09 330 03:55 02.04.2022
4486 Clear 17 1016 27 10000 2.57 320 00:25 02.04.2022
4487 Clear 17 1017 25 10000 3.6 320 23:45 01.04.2022
4488 Clear 21 1016 18 10000 1.54 280 21:55 01.04.2022
4489 Clear 24 1016 14 10000 3.6 290 20:54 01.04.2022
4490 Clear 24 1016 14 10000 3.6 290 20:31 01.04.2022
4491 Clear 25 1016 15 10000 4.12 300 19:38 01.04.2022
4492 Clear 27 1015 16 10000 3.09 290 18:52 01.04.2022
4493 Clear 27 1015 16 10000 3.09 290 18:23 01.04.2022
4494 Clear 31 1015 11 10000 4.63 300 17:35 01.04.2022
4495 Clear 31 1015 11 10000 4.63 300 17:35 01.04.2022
4496 Clear 33 1015 11 10000 4.12 320 15:43 01.04.2022
4497 Clear 33 1015 13 10000 4.63 330 14:39 01.04.2022
4498 Clear 32 1016 14 10000 5.14 350 13:36 01.04.2022
4499 Clear 32 1017 15 10000 6.69 340 12:33 01.04.2022
4500 Clear 31 1017 19 10000 6.69 330 11:45 01.04.2022
4501 Clear 29 1018 23 10000 5.14 330 10:34 01.04.2022
4502 Clear 26 1018 27 10000 4.63 300 09:30 01.04.2022
4503 Clear 15 1017 47 10000 3.09 300 06:55 01.04.2022
4504 Clear 13 1016 47 10000 3.09 300 04:56 01.04.2022
4505 Clear 13 1016 47 10000 3.09 300 04:37 01.04.2022
4506 Clear 15 1015 41 10000 2.57 300 02:19 01.04.2022
4507 Clear 18 1016 36 10000 2.57 310 00:46 01.04.2022
4508 Clear 19 1016 30 10000 2.57 310 22:20 31.03.2022
4509 Clear 22 1015 26 10000 2.06 340 21:37 31.03.2022
4510 Clear 23 1015 23 10000 2.57 340 20:43 31.03.2022
4511 Clear 23 1015 23 10000 2.57 340 20:25 31.03.2022
4512 Clear 26 1014 18 10000 2.57 330 18:57 31.03.2022
4513 Clear 30 1014 11 10000 1.03 20 17:55 31.03.2022
4514 Clear 31 1013 10 10000 1.54 90 16:46 31.03.2022
4515 Clear 32 1013 11 10000 1.03 0 15:54 31.03.2022
4516 Clear 32 1013 11 10000 1.03 0 15:23 31.03.2022
4517 Clear 32 1014 10 10000 1.54 0 14:44 31.03.2022
4518 Clear 32 1014 10 10000 1.54 0 13:28 31.03.2022
4519 Clear 30 1015 11 10000 4.12 140 11:30 31.03.2022
4520 Clear 29 1016 13 10000 4.12 150 10:19 31.03.2022
4521 Clear 28 1016 13 10000 4.12 130 09:19 31.03.2022
4522 Dust 21 1015 37 3500 2.06 320 07:31 31.03.2022
4523 Clear 21 1012 35 10000 4.12 110 01:27 31.03.2022
4524 Clear 22 1013 35 10000 4.12 80 23:23 30.03.2022
4525 Clear 22 1015 37 10000 4.63 70 21:54 30.03.2022
4526 Clear 22 1015 37 10000 4.63 70 21:27 30.03.2022
4527 Clouds 21 1016 40 10000 2.06 0 20:32 30.03.2022
4528 Clouds 23 1016 27 10000 5.66 300 19:46 30.03.2022
4529 Clouds 23 1014 31 10000 1.03 0 18:41 30.03.2022
4530 Clouds 25 1014 29 7000 2.06 170 17:50 30.03.2022
4531 Clouds 27 1013 12 10000 1.54 150 16:59 30.03.2022
4532 Clouds 27 1013 12 10000 1.54 150 16:39 30.03.2022
4533 Clouds 27 1013 12 10000 2.06 190 15:47 30.03.2022
4534 Clear 27 1014 12 10000 3.09 0 14:22 30.03.2022
4535 Clear 27 1015 16 10000 2.57 210 13:21 30.03.2022
4536 Clouds 26 1016 19 8000 4.12 210 12:19 30.03.2022
4537 Clouds 24 1017 19 8000 2.06 10 10:48 30.03.2022
4538 Clear 22 1018 23 10000 1.54 270 09:43 30.03.2022
4539 Clouds 19 1018 32 8000 1.03 0 08:20 30.03.2022
4540 Clear 11 1018 54 10000 2.06 290 06:32 30.03.2022
4541 Clear 9 1018 53 10000 2.06 340 05:38 30.03.2022
4542 Clear 10 1017 46 10000 1.54 310 01:45 30.03.2022
4543 Clear 13 1018 38 10000 2.06 280 22:39 29.03.2022
4544 Clear 13 1018 33 10000 2.06 270 21:48 29.03.2022
4545 Clear 14 1019 30 10000 2.06 270 21:20 29.03.2022
4546 Clear 16 1019 27 10000 1.03 0 20:25 29.03.2022
4547 Clear 19 1019 24 10000 2.57 260 19:31 29.03.2022
4548 Clear 20 1019 22 10000 3.09 270 18:53 29.03.2022
4549 Clear 24 1019 15 10000 6.17 290 17:48 29.03.2022
4550 Clear 24 1019 15 10000 6.17 290 17:18 29.03.2022
4551 Clear 25 1019 15 10000 7.72 310 16:52 29.03.2022
4552 Clear 26 1020 14 10000 6.69 310 15:20 29.03.2022
4553 Clear 25 1020 14 10000 7.2 300 14:43 29.03.2022
4554 Clear 24 1021 17 10000 7.2 300 13:33 29.03.2022
4555 Clear 23 1023 21 10000 6.69 310 11:58 29.03.2022
4556 Clear 22 1024 23 10000 7.2 320 10:59 29.03.2022
4557 Clear 20 1025 28 10000 4.63 300 09:50 29.03.2022
4558 Clear 17 1025 31 10000 4.63 320 08:32 29.03.2022
4559 Clear 10 1024 43 10000 2.06 310 06:21 29.03.2022
4560 Clear 10 1024 37 10000 2.06 270 02:19 29.03.2022
4561 Clear 12 1025 32 10000 3.09 290 23:26 28.03.2022
4562 Clear 12 1026 35 10000 2.06 290 22:56 28.03.2022
4563 Clear 12 1026 35 10000 2.06 290 22:31 28.03.2022
4564 Clear 15 1026 31 10000 2.57 270 21:38 28.03.2022
4565 Clear 14 1026 33 10000 3.6 310 20:32 28.03.2022
4566 Clear 15 1025 29 10000 2.57 300 19:47 28.03.2022
4567 Clear 15 1025 29 10000 2.57 300 19:29 28.03.2022
4568 Clear 17 1025 25 10000 2.57 320 18:44 28.03.2022
4569 Clear 20 1024 21 10000 5.66 320 17:41 28.03.2022
4570 Clear 21 1024 19 10000 8.23 310 16:47 28.03.2022
4571 Clear 21 1025 24 10000 6.17 320 14:53 28.03.2022
4572 Clear 21 1025 24 10000 6.17 320 14:23 28.03.2022
4573 Clear 20 1026 28 10000 6.17 320 12:51 28.03.2022
4574 Clear 19 1027 32 10000 7.2 320 11:42 28.03.2022
4575 Clear 16 1027 44 10000 5.66 300 09:55 28.03.2022
4576 Clear 16 1027 44 10000 5.66 300 09:20 28.03.2022
4577 Clear 15 1027 42 10000 6.25 335 08:23 28.03.2022
4578 Clear 11 1027 58 10000 5.14 300 07:56 28.03.2022
4579 Clear 8 1026 61 10000 2.57 260 05:55 28.03.2022
4580 Clear 11 1025 50 10000 1.54 270 00:19 28.03.2022
4581 Clear 11 1025 46 10000 3.09 320 22:34 27.03.2022
4582 Clear 11 1025 40 9000 1.03 290 21:42 27.03.2022
4583 Clear 14 1024 38 9000 2.06 320 20:58 27.03.2022
4584 Clear 14 1024 38 9000 2.06 320 20:18 27.03.2022
4585 Clear 14 1024 35 8000 3.09 320 19:36 27.03.2022
4586 Clear 17 1023 27 10000 7.2 310 18:30 27.03.2022
4587 Clear 19 1022 22 10000 7.72 300 17:55 27.03.2022
4588 Clear 19 1022 22 10000 7.72 300 17:35 27.03.2022
4589 Clouds 21 1021 23 10000 8.23 240 15:46 27.03.2022
4590 Clouds 22 1022 21 10000 6.69 260 13:57 27.03.2022
4591 Clear 22 1022 17 10000 8.23 240 12:58 27.03.2022
4592 Clear 20 1023 26 10000 4.63 230 11:30 27.03.2022
4593 Clear 19 1024 24 10000 4.12 220 09:37 27.03.2022
4594 Clear 8 1023 57 10000 0.51 0 06:54 27.03.2022
4595 Clear 7 1022 61 10000 1.54 170 03:39 27.03.2022
4596 Clear 9 1022 57 10000 1.54 210 00:25 27.03.2022
4597 Clear 11 1023 46 10000 2.06 230 22:45 26.03.2022
4598 Clear 13 1023 41 10000 2.57 230 21:50 26.03.2022
4599 Clear 13 1023 41 10000 2.57 230 21:28 26.03.2022
4600 Clear 14 1023 41 10000 2.57 220 19:32 26.03.2022
4601 Clear 15 1023 29 10000 3.59 312 18:40 26.03.2022
4602 Clouds 15 1022 36 10000 1.54 310 17:34 26.03.2022
4603 Clouds 18 1022 29 10000 3.6 290 16:30 26.03.2022
4604 Clouds 19 1021 30 10000 4.63 280 15:37 26.03.2022
4605 Clouds 19 1021 32 10000 4.63 240 13:55 26.03.2022
4606 Clouds 19 1021 32 10000 4.63 240 13:19 26.03.2022
4607 Clear 18 1023 34 10000 4.63 240 11:42 26.03.2022
4608 Clouds 17 1023 42 10000 5.14 240 10:44 26.03.2022
4609 Clear 15 1023 55 10000 3.6 280 08:46 26.03.2022
4610 Clear 10 1022 71 10000 3.09 240 06:37 26.03.2022
4611 Clear 9 1021 71 10000 2.06 230 05:29 26.03.2022
4612 Clear 11 1018 62 10000 2.06 240 00:54 26.03.2022
4613 Clouds 13 1017 54 7000 4.63 300 21:58 25.03.2022
4614 Clouds 14 1017 47 7000 4.63 300 20:47 25.03.2022
4615 Clouds 16 1016 36 7000 2.57 250 20:24 25.03.2022
4616 Clouds 16 1016 36 9000 2.06 230 18:59 25.03.2022
4617 Clouds 17 1015 31 9000 2.06 220 18:22 25.03.2022
4618 Clouds 18 1015 29 8000 6.69 210 17:28 25.03.2022
4619 Clouds 17 1014 36 6000 6.69 270 16:27 25.03.2022
4620 Clouds 20 1013 22 10000 7.72 220 15:26 25.03.2022
4621 Clouds 21 1013 24 10000 7.72 230 13:28 25.03.2022
4622 Clear 18 1015 34 10000 5.14 230 10:49 25.03.2022
4623 Clear 17 1016 39 10000 4.63 230 09:28 25.03.2022
4624 Clear 16 1016 41 10000 4.12 240 08:36 25.03.2022
4625 Clear 15 1015 41 10000 4.12 280 07:32 25.03.2022
4626 Clear 12 1015 43 10000 3.6 260 06:29 25.03.2022
4627 Clear 9 1013 46 10000 1.54 170 02:28 25.03.2022
4628 Clear 12 1014 37 10000 2.06 220 22:56 24.03.2022
4629 Clear 14 1014 30 10000 2.57 250 21:56 24.03.2022
4630 Clear 14 1014 28 10000 3.09 240 20:45 24.03.2022
4631 Clear 15 1013 29 10000 2.57 230 19:49 24.03.2022
4632 Clear 15 1013 29 10000 2.57 230 19:49 24.03.2022
4633 Clear 17 1013 25 10000 3.09 230 18:22 24.03.2022
4634 Clouds 18 1012 22 10000 5.66 250 17:32 24.03.2022
4635 Clouds 20 1011 18 10000 5.66 270 15:56 24.03.2022
4636 Clear 21 1011 19 10000 6.69 270 14:51 24.03.2022
4637 Clear 21 1011 19 10000 6.69 270 14:21 24.03.2022
4638 Clear 21 1011 21 10000 5.66 250 13:26 24.03.2022
4639 Clear 20 1011 26 10000 5.66 260 11:59 24.03.2022
4640 Clear 19 1012 37 10000 5.66 240 10:28 24.03.2022
4641 Clear 18 1012 39 10000 4.63 250 09:23 24.03.2022
4642 Clear 16 1013 51 7000 4.63 260 07:39 24.03.2022
4643 Dust 11 1012 66 2000 3.09 270 04:43 24.03.2022
4644 Dust 15 1010 51 2000 6.69 320 23:38 23.03.2022
4645 Dust 15 1010 55 1200 8.23 320 22:18 23.03.2022
4646 Clouds 16 1010 55 800 13.38 290 21:20 23.03.2022
4647 Clear 21 1008 35 10000 5.66 190 19:50 23.03.2022
4648 Clear 21 1008 35 10000 5.66 190 19:25 23.03.2022
4649 Clear 22 1007 30 10000 3.6 130 17:39 23.03.2022
4650 Clear 26 1007 22 10000 3.6 140 16:53 23.03.2022
4651 Clear 28 1008 17 10000 6.17 130 14:57 23.03.2022
4652 Clear 28 1008 17 10000 6.17 130 14:38 23.03.2022
4653 Clear 28 1008 17 10000 4.12 70 13:22 23.03.2022
4654 Clear 25 1012 25 10000 2.06 0 10:37 23.03.2022
4655 Clear 19 1014 42 10000 2.06 20 07:56 23.03.2022
4656 Smoke 9 1013 71 5000 1.54 320 05:40 23.03.2022
4657 Clear 10 1012 66 10000 2.57 320 01:41 23.03.2022
4658 Clear 11 1012 62 10000 2.57 330 00:24 23.03.2022
4659 Clear 13 1013 54 10000 3.09 300 21:32 22.03.2022
4660 Clear 15 1013 51 10000 3.09 290 20:55 22.03.2022
4661 Clear 15 1013 51 10000 4.12 300 19:56 22.03.2022
4662 Clear 15 1013 51 10000 4.12 300 19:25 22.03.2022
4663 Clear 17 1013 48 10000 4.63 300 18:45 22.03.2022
4664 Clear 18 1012 48 10000 6.17 310 17:42 22.03.2022
4665 Clear 20 1011 40 10000 4.12 320 16:35 22.03.2022
4666 Clear 21 1011 37 10000 6.17 330 15:37 22.03.2022
4667 Clear 21 1011 37 10000 6.17 330 15:18 22.03.2022
4668 Clear 22 1011 35 10000 4.63 330 14:41 22.03.2022
4669 Clear 22 1011 37 10000 4.63 310 13:37 22.03.2022
4670 Clear 20 1012 49 10000 4.63 300 11:52 22.03.2022
4671 Clear 20 1013 45 10000 4.12 340 10:51 22.03.2022
4672 Clouds 14 1014 67 8000 4.12 340 08:43 22.03.2022
4673 Clouds 13 1016 50 8000 3.09 290 07:21 22.03.2022
4674 Clouds 10 1015 46 10000 3.6 300 03:55 22.03.2022
4675 Clear 10 1014 37 10000 4.63 330 00:46 22.03.2022
4676 Clear 10 1015 37 10000 6.17 310 22:46 21.03.2022
4677 Clear 9 1015 43 10000 7.72 310 21:20 21.03.2022
4678 Clear 10 1015 46 10000 6.69 310 20:43 21.03.2022
4679 Clear 10 1015 46 10000 6.69 310 20:21 21.03.2022
4680 Clear 11 1015 50 10000 7.2 310 19:35 21.03.2022
4681 Clouds 13 1015 32 10000 6.85 328 18:47 21.03.2022
4682 Clouds 12 1014 37 10000 6.17 320 17:35 21.03.2022
4683 Clouds 14 1014 28 10000 8.75 300 16:58 21.03.2022
4684 Clouds 14 1014 28 10000 8.75 300 16:24 21.03.2022
4685 Clear 16 1013 25 10000 4.63 330 15:37 21.03.2022
4686 Clear 18 1014 22 10000 5.14 330 14:29 21.03.2022
4687 Clear 17 1015 19 10000 5.66 320 12:58 21.03.2022
4688 Clear 17 1016 20 10000 5.66 310 11:57 21.03.2022
4689 Clear 16 1016 18 10000 5.66 320 10:59 21.03.2022
4690 Clear 15 1017 20 10000 7.2 330 09:42 21.03.2022
4691 Clear 12 1017 22 10000 6.17 340 07:22 21.03.2022
4692 Clouds 9 1017 29 10000 4.63 340 05:42 21.03.2022
4693 Clouds 9 1018 25 10000 5.14 320 00:46 21.03.2022
4694 Clear 10 1018 27 10000 5.66 320 22:57 20.03.2022
4695 Clear 10 1018 27 10000 5.66 320 22:23 20.03.2022
4696 Clouds 11 1018 25 10000 5.14 320 21:31 20.03.2022
4697 Clouds 11 1018 28 10000 5.14 320 20:54 20.03.2022
4698 Clouds 11 1018 28 10000 5.14 320 20:27 20.03.2022
4699 Clear 11 1018 30 10000 7.2 320 19:48 20.03.2022
4700 Clear 11 1018 30 10000 7.2 320 19:19 20.03.2022
4701 Clear 13 1018 30 10000 7.72 300 17:43 20.03.2022
4702 Clear 13 1018 30 10000 7.72 300 17:24 20.03.2022
4703 Clouds 14 1017 26 10000 6.69 310 15:57 20.03.2022
4704 Clouds 15 1018 25 10000 6.17 320 14:38 20.03.2022
4705 Clouds 16 1018 25 10000 6.69 310 13:31 20.03.2022
4706 Clouds 15 1019 25 10000 7.2 320 11:58 20.03.2022
4707 Clear 14 1019 28 10000 8.23 330 09:58 20.03.2022
4708 Clear 13 1019 33 10000 7.72 320 08:19 20.03.2022
4709 Clear 8 1017 61 10000 6.69 310 05:49 20.03.2022
4710 Clear 9 1016 57 10000 7.2 310 03:18 20.03.2022
4711 Dust 11 1014 54 2100 7.72 300 00:53 20.03.2022
4712 Dust 12 1014 50 1900 8.23 300 23:37 19.03.2022
4713 Clear 11 1014 40 10000 1.03 0 21:58 19.03.2022
4714 Clear 11 1014 40 10000 1.03 0 21:25 19.03.2022
4715 Clear 16 1014 36 10000 1.54 150 19:22 19.03.2022
4716 Clear 18 1014 27 10000 1.54 170 18:38 19.03.2022
4717 Clouds 20 1013 26 10000 2.06 210 17:48 19.03.2022
4718 Clouds 22 1013 23 10000 3.6 240 16:46 19.03.2022
4719 Clouds 24 1013 20 10000 5.14 240 15:26 19.03.2022
4720 Clouds 23 1014 20 10000 6.17 210 13:45 19.03.2022
4721 Clouds 24 1015 20 10000 7.72 230 12:42 19.03.2022
4722 Clouds 24 1015 20 10000 7.72 230 12:20 19.03.2022
4723 Clouds 24 1015 20 10000 6.69 200 11:45 19.03.2022
4724 Clouds 22 1017 18 10000 5.66 150 09:22 19.03.2022
4725 Clouds 12 1017 30 10000 2.06 50 04:53 19.03.2022
4726 Clear 11 1017 35 10000 3.09 360 02:33 19.03.2022
4727 Clear 10 1018 37 10000 3.09 330 23:51 18.03.2022
4728 Clear 11 1018 35 10000 3.6 330 22:48 18.03.2022
4729 Clear 11 1018 35 10000 3.6 330 22:21 18.03.2022
4730 Clouds 12 1018 20 10000 0 0 20:25 18.03.2022
4731 Clear 12 1018 28 10000 0 0 19:24 18.03.2022
4732 Clear 15 1017 21 10000 1.03 0 18:43 18.03.2022
4733 Clear 18 1017 15 10000 3.6 130 16:54 18.03.2022
4734 Clear 18 1017 15 10000 3.6 130 16:23 18.03.2022
4735 Clouds 21 1017 9 10000 6.17 180 14:27 18.03.2022
4736 Clear 21 1017 9 10000 6.17 190 13:39 18.03.2022
4737 Clear 19 1019 13 10000 5.14 180 11:35 18.03.2022
4738 Clear 18 1020 15 10000 4.12 150 10:21 18.03.2022
4739 Clear 16 1021 18 10000 4.63 170 08:46 18.03.2022
4740 Clear 12 1021 26 10000 2.57 120 06:59 18.03.2022
4741 Clouds 10 1021 25 10000 2.17 123 04:55 18.03.2022
4742 Clear 6 1021 39 10000 1.54 200 01:38 18.03.2022
4743 Clear 8 1022 31 10000 1.03 0 23:59 17.03.2022
4744 Clear 7 1022 33 10000 2.06 150 22:45 17.03.2022
4745 Clear 7 1022 33 10000 2.06 150 22:19 17.03.2022
4746 Clear 9 1023 31 10000 0 0 21:30 17.03.2022
4747 Clear 9 1023 27 10000 1.54 300 20:53 17.03.2022
4748 Clear 9 1023 27 10000 1.54 300 20:20 17.03.2022
4749 Clear 10 1023 29 10000 1.03 300 19:38 17.03.2022
4750 Clear 12 1023 20 10000 2.57 250 18:53 17.03.2022
4751 Clear 13 1022 15 10000 3.09 290 17:40 17.03.2022
4752 Clear 15 1022 13 10000 5.14 290 16:20 17.03.2022
4753 Clear 16 1022 16 10000 4.12 300 15:43 17.03.2022
4754 Clear 16 1022 16 10000 4.12 300 15:18 17.03.2022
4755 Clear 16 1022 17 10000 2.57 320 13:47 17.03.2022
4756 Clear 16 1023 17 10000 3.6 250 12:47 17.03.2022
4757 Clear 16 1024 20 10000 4.12 250 11:36 17.03.2022
4758 Clear 15 1024 25 10000 2.06 0 10:44 17.03.2022
4759 Clear 14 1025 30 10000 3.09 260 09:40 17.03.2022
4760 Clear 12 1025 40 10000 3.09 300 08:20 17.03.2022
4761 Clear 3 1023 38 10000 1.54 270 05:53 17.03.2022
4762 Clear 3 1023 38 10000 1.54 270 05:23 17.03.2022
4763 Clear 7 1022 31 7000 4.12 250 00:27 17.03.2022
4764 Clear 8 1022 31 10000 2.57 260 22:57 16.03.2022
4765 Clear 8 1022 31 10000 2.57 260 22:36 16.03.2022
4766 Clear 8 1022 34 10000 3.09 260 21:56 16.03.2022
4767 Clear 8 1022 34 10000 2.06 270 20:40 16.03.2022
4768 Clear 10 1022 32 10000 2.57 260 19:23 16.03.2022
4769 Clear 11 1021 30 10000 2.57 270 18:43 16.03.2022
4770 Clear 11 1021 28 10000 2.57 290 17:50 16.03.2022
4771 Clear 11 1021 28 10000 2.57 290 17:31 16.03.2022
4772 Clouds 12 1020 26 10000 6.69 310 16:35 16.03.2022
4773 Clear 14 1019 23 10000 6.17 280 14:58 16.03.2022
4774 Clouds 13 1019 24 10000 6.69 290 13:41 16.03.2022
4775 Clouds 13 1020 26 10000 6.17 260 12:56 16.03.2022
4776 Clouds 12 1021 28 10000 7.2 270 11:24 16.03.2022
4777 Clouds 13 1021 26 10000 6.69 280 10:37 16.03.2022
4778 Clear 13 1020 24 10000 7.35 290 09:57 16.03.2022
4779 Clear 12 1021 26 10000 7.26 297 08:33 16.03.2022
4780 Clouds 7 1018 39 10000 7.2 300 02:46 16.03.2022
4781 Clear 7 1018 42 10000 3.6 320 22:58 15.03.2022
4782 Clear 7 1018 42 10000 3.6 320 22:36 15.03.2022
4783 Clear 10 1018 37 10000 4.63 300 21:19 15.03.2022
4784 Clear 12 1018 30 10000 5.14 300 19:47 15.03.2022
4785 Clear 13 1018 30 10000 4.63 290 18:35 15.03.2022
4786 Clouds 15 1017 26 10000 7.72 310 16:42 15.03.2022
4787 Clouds 16 1016 25 10000 7.72 300 15:42 15.03.2022
4788 Clouds 17 1016 23 10000 8.23 300 14:54 15.03.2022
4789 Clouds 16 1016 23 10000 6.69 310 13:57 15.03.2022
4790 Clouds 16 1016 23 10000 6.69 310 13:24 15.03.2022
4791 Clouds 16 1017 25 10000 8.75 310 11:34 15.03.2022
4792 Clear 16 1018 25 10000 8.23 300 10:55 15.03.2022
4793 Clear 15 1018 23 10000 8.23 320 09:29 15.03.2022
4794 Clouds 14 1018 28 10000 6.69 320 08:32 15.03.2022
4795 Clouds 12 1019 35 10000 6.17 310 07:39 15.03.2022
4796 Clear 12 1018 32 10000 5.14 330 06:32 15.03.2022
4797 Clear 11 1018 35 10000 3.6 340 01:57 15.03.2022
4798 Clear 11 1018 37 10000 5.14 330 23:31 14.03.2022
4799 Clear 11 1019 35 10000 6.17 330 22:52 14.03.2022
4800 Clear 12 1019 32 10000 6.17 320 21:55 14.03.2022
4801 Clear 12 1019 32 10000 6.17 320 21:18 14.03.2022
4802 Clear 13 1019 33 10000 7.2 310 20:30 14.03.2022
4803 Clear 15 1018 36 10000 6.17 300 19:33 14.03.2022
4804 Clear 17 1017 31 10000 6.17 300 17:59 14.03.2022
4805 Clear 17 1017 31 10000 6.17 300 17:41 14.03.2022
4806 Clear 19 1017 27 10000 4.63 290 16:33 14.03.2022
4807 Clear 20 1016 28 10000 4.12 290 14:58 14.03.2022
4808 Clear 20 1016 28 10000 4.63 270 13:58 14.03.2022
4809 Clear 19 1018 30 10000 4.12 300 11:27 14.03.2022
4810 Clear 18 1019 27 10000 3.09 260 09:58 14.03.2022
4811 Clear 18 1019 27 10000 3.09 260 09:38 14.03.2022
4812 Clear 17 1019 27 10000 2.57 260 08:58 14.03.2022
4813 Clear 17 1019 27 10000 2.57 260 08:30 14.03.2022
4814 Clear 14 1019 35 10000 1.54 0 07:19 14.03.2022
4815 Clear 10 1018 46 10000 1.54 50 03:36 14.03.2022
4816 Clear 7 1017 53 10000 1.03 130 01:42 14.03.2022
4817 Clear 9 1018 49 10000 0.51 80 00:29 14.03.2022
4818 Clear 12 1019 40 10000 1.54 360 21:55 13.03.2022
4819 Clear 12 1019 40 10000 1.54 360 21:26 13.03.2022
4820 Clear 13 1019 38 10000 2.57 10 20:46 13.03.2022
4821 Clear 13 1019 38 10000 2.57 10 20:23 13.03.2022
4822 Clear 12 1019 40 10000 1.54 310 19:42 13.03.2022
4823 Clear 12 1019 40 10000 1.54 310 19:22 13.03.2022
4824 Clear 13 1019 38 10000 1.54 310 18:45 13.03.2022
4825 Clear 14 1019 33 10000 2.06 300 18:26 13.03.2022
4826 Clear 14 1018 33 10000 2.06 290 17:39 13.03.2022
4827 Clear 17 1017 29 10000 3.09 270 16:46 13.03.2022
4828 Clear 17 1017 29 10000 3.09 270 16:25 13.03.2022
4829 Clear 18 1017 27 10000 3.6 260 15:42 13.03.2022
4830 Clear 19 1017 26 10000 4.12 280 14:41 13.03.2022
4831 Clouds 19 1017 26 10000 4.63 240 13:29 13.03.2022
4832 Clouds 18 1018 27 10000 4.12 250 12:25 13.03.2022
4833 Clouds 18 1018 27 10000 3.6 260 11:44 13.03.2022
4834 Clear 18 1019 27 10000 3.6 290 10:50 13.03.2022
4835 Clear 18 1019 27 10000 3.6 290 10:30 13.03.2022
4836 Clear 17 1019 31 10000 4.12 270 09:43 13.03.2022
4837 Clear 16 1020 33 10000 3.6 280 08:50 13.03.2022
4838 Clear 16 1020 33 10000 3.6 280 08:31 13.03.2022
4839 Clear 13 1019 41 10000 2.57 270 07:34 13.03.2022
4840 Clear 6 1018 61 10000 1.03 170 04:59 13.03.2022
4841 Clear 9 1017 49 10000 2.06 150 01:48 13.03.2022
4842 Clear 8 1018 53 10000 2.06 140 23:28 12.03.2022
4843 Clear 9 1018 46 10000 3.09 160 21:43 12.03.2022
4844 Clear 11 1018 40 10000 3.6 170 20:20 12.03.2022
4845 Clear 12 1018 40 10000 3.6 160 19:46 12.03.2022
4846 Clear 13 1017 35 10000 3.09 150 18:44 12.03.2022
4847 Clear 13 1017 35 10000 3.09 150 18:19 12.03.2022
4848 Clouds 15 1017 31 10000 1.54 340 16:32 12.03.2022
4849 Clouds 16 1017 29 10000 2.57 310 15:52 12.03.2022
4850 Clouds 16 1017 29 10000 2.57 310 15:22 12.03.2022
4851 Clouds 16 1017 29 10000 3.09 270 13:54 12.03.2022
4852 Clouds 15 1018 31 10000 4.12 210 12:33 12.03.2022
4853 Clouds 15 1018 31 10000 3.6 220 11:55 12.03.2022
4854 Clouds 15 1018 31 10000 3.6 220 11:34 12.03.2022
4855 Dust 15 1019 36 5000 3.6 230 10:32 12.03.2022
4856 Dust 14 1019 41 5000 4.63 230 09:43 12.03.2022
4857 Dust 14 1020 44 4600 5.14 240 08:24 12.03.2022
4858 Dust 13 1019 50 2200 3.09 260 06:44 12.03.2022
4859 Dust 14 1016 30 2800 6.17 270 00:55 12.03.2022
4860 Dust 15 1016 31 1700 7.72 290 23:43 11.03.2022
4861 Dust 16 1016 36 2200 6.17 290 22:32 11.03.2022
4862 Dust 17 1015 34 2700 5.14 290 21:24 11.03.2022
4863 Dust 17 1015 34 2700 5.14 290 21:24 11.03.2022
4864 Dust 17 1015 34 3200 8.23 280 20:47 11.03.2022
4865 Dust 17 1015 34 3200 8.23 280 20:26 11.03.2022
4866 Dust 18 1014 34 800 7.2 280 19:35 11.03.2022
4867 Clear 20 1012 26 700 5.14 270 18:33 11.03.2022
4868 Clear 20 1011 24 8000 2.06 230 17:26 11.03.2022
4869 Clear 21 1010 21 7000 3.6 230 16:25 11.03.2022
4870 Clear 21 1010 21 10000 6.17 220 15:36 11.03.2022
4871 Clear 22 1009 18 8000 7.2 240 13:42 11.03.2022
4872 Dust 21 1009 24 4000 6.17 250 12:39 11.03.2022
4873 Dust 21 1009 24 4000 6.17 250 12:19 11.03.2022
4874 Clouds 20 1010 26 7000 8.23 260 10:53 11.03.2022
4875 Clouds 20 1010 26 10000 7.72 240 09:35 11.03.2022
4876 Clouds 19 1010 32 10000 5.66 260 08:28 11.03.2022
4877 Clouds 17 1010 39 10000 6.69 300 07:48 11.03.2022
4878 Clouds 16 1009 44 10000 6.17 300 06:44 11.03.2022
4879 Clouds 14 1008 47 10000 4.12 310 04:40 11.03.2022
4880 Clear 17 1006 45 10000 4.12 290 01:48 11.03.2022
4881 Clouds 18 1005 42 10000 2.06 10 22:33 10.03.2022
4882 Clear 16 1005 48 10000 2.57 340 21:54 10.03.2022
4883 Clear 16 1005 48 10000 2.57 340 21:25 10.03.2022
4884 Clear 18 1006 42 10000 2.57 330 20:36 10.03.2022
4885 Clouds 18 1006 45 8000 3.09 320 19:22 10.03.2022
4886 Clear 21 1005 37 10000 3.09 310 17:55 10.03.2022
4887 Clear 23 1005 35 10000 1.54 270 16:53 10.03.2022
4888 Clouds 24 1005 33 9000 0.51 0 15:29 10.03.2022
4889 Clouds 24 1005 31 8000 2.06 0 13:51 10.03.2022
4890 Clouds 24 1006 33 8000 2.57 340 12:43 10.03.2022
4891 Clouds 23 1006 35 8000 2.57 330 11:29 10.03.2022
4892 Clouds 22 1008 43 8000 5.14 310 09:43 10.03.2022
4893 Dust 20 1008 52 5000 5.14 300 08:39 10.03.2022
4894 Clouds 14 1007 67 6000 4.12 310 05:33 10.03.2022
4895 Clear 16 1005 55 8000 4.63 320 02:39 10.03.2022
4896 Clear 19 1004 42 10000 3.09 10 23:37 09.03.2022
4897 Clear 19 1004 39 10000 4.12 350 22:28 09.03.2022
4898 Clear 22 1004 30 10000 2.57 360 21:47 09.03.2022
4899 Clear 23 1004 27 10000 2.57 50 20:50 09.03.2022
4900 Clear 25 1005 27 10000 2.57 60 18:58 09.03.2022
4901 Clouds 25 1004 29 8000 3.09 70 17:28 09.03.2022
4902 Clouds 25 1004 29 8000 4.12 110 16:45 09.03.2022
4903 Clouds 26 1004 27 9000 5.14 130 15:37 09.03.2022
4904 Clouds 26 1004 25 9000 7.2 150 14:23 09.03.2022
4905 Clouds 27 1004 24 9000 9.77 160 13:38 09.03.2022
4906 Clear 26 1005 25 10000 10.29 150 12:20 09.03.2022
4907 Clear 26 1006 25 10000 10.8 150 11:46 09.03.2022
4908 Clear 25 1007 25 10000 9.77 150 10:54 09.03.2022
4909 Clouds 23 1008 33 9000 8.75 140 09:28 09.03.2022
4910 Clouds 19 1009 39 10000 6.69 130 08:44 09.03.2022
4911 Clouds 16 1010 51 6000 3.09 90 05:56 09.03.2022
4912 Clouds 15 1011 51 9000 2.06 90 00:58 09.03.2022
4913 Clouds 14 1012 58 10000 2.06 60 23:46 08.03.2022
4914 Clear 14 1012 58 10000 0 0 22:45 08.03.2022
4915 Clear 13 1012 58 10000 1.03 40 21:47 08.03.2022
4916 Clear 13 1012 58 10000 1.03 40 21:19 08.03.2022
4917 Clear 14 1013 51 10000 1.03 10 20:19 08.03.2022
4918 Clear 16 1013 48 10000 2.06 330 18:57 08.03.2022
4919 Clear 16 1013 48 10000 2.06 330 18:21 08.03.2022
4920 Clear 20 1012 37 10000 3.09 330 16:40 08.03.2022
4921 Clear 22 1012 35 10000 3.09 290 14:36 08.03.2022
4922 Clear 22 1012 33 10000 4.12 310 13:23 08.03.2022
4923 Clear 22 1013 33 10000 4.63 330 12:20 08.03.2022
4924 Clear 21 1013 37 10000 3.6 320 11:42 08.03.2022
4925 Clear 20 1014 40 10000 4.12 310 10:28 08.03.2022
4926 Clear 18 1014 42 10000 5.66 330 08:55 08.03.2022
4927 Clear 9 1012 71 10000 2.57 320 05:49 08.03.2022
4928 Clear 10 1011 71 10000 3.09 310 01:53 08.03.2022
4929 Clear 14 1010 58 10000 4.12 310 22:41 07.03.2022
4930 Clear 15 1010 55 10000 4.63 310 21:36 07.03.2022
4931 Clear 16 1009 55 10000 5.14 310 20:55 07.03.2022
4932 Clear 16 1009 55 10000 5.14 310 20:29 07.03.2022
4933 Clear 17 1009 55 10000 5.14 320 19:48 07.03.2022
4934 Clear 18 1008 52 10000 5.14 320 18:50 07.03.2022
4935 Clear 18 1008 52 10000 5.14 320 18:28 07.03.2022
4936 Clear 19 1008 48 10000 6.69 320 17:24 07.03.2022
4937 Clear 21 1007 46 10000 7.72 320 16:41 07.03.2022
4938 Clouds 24 1006 41 9000 8.75 320 14:49 07.03.2022
4939 Clouds 24 1005 33 8000 5.14 10 12:34 07.03.2022
4940 Clouds 24 1006 35 7000 4.12 50 11:21 07.03.2022
4941 Clear 23 1007 40 7000 4.63 60 10:26 07.03.2022
4942 Clouds 19 1008 52 8000 5.14 10 08:19 07.03.2022
4943 Clouds 17 1005 45 10000 4.63 20 01:23 07.03.2022
4944 Clear 18 1005 39 10000 5.14 80 00:20 07.03.2022
4945 Clouds 18 1006 45 10000 6.17 70 23:22 06.03.2022
4946 Clear 18 1008 42 10000 4.12 50 22:26 06.03.2022
4947 Clouds 19 1009 37 10000 4.12 360 21:24 06.03.2022
4948 Clouds 18 1009 39 10000 4.12 20 20:29 06.03.2022
4949 Clouds 18 1010 36 8000 2.06 310 19:39 06.03.2022
4950 Clouds 19 1009 37 9000 2.06 320 18:49 06.03.2022
4951 Clouds 20 1008 32 9000 4.12 50 17:46 06.03.2022
4952 Clouds 20 1008 32 9000 4.12 50 17:19 06.03.2022
4953 Clouds 20 1010 34 7000 2.57 360 16:26 06.03.2022
4954 Clouds 21 1010 32 8000 2.57 350 15:25 06.03.2022
4955 Clouds 22 1010 30 8000 3.6 320 14:42 06.03.2022
4956 Clouds 22 1011 30 8000 2.57 260 13:48 06.03.2022
4957 Clouds 23 1011 27 8000 3.09 210 12:39 06.03.2022
4958 Clouds 23 1011 25 9000 4.63 130 11:45 06.03.2022
4959 Clouds 21 1013 30 8000 5.66 120 10:39 06.03.2022
4960 Clear 20 1014 28 6000 4.12 70 09:18 06.03.2022
4961 Clear 18 1015 32 6000 3.6 70 08:27 06.03.2022
4962 Dust 17 1016 34 5000 3.6 40 07:23 06.03.2022
4963 Clear 10 1015 53 10000 2.06 350 01:54 06.03.2022
4964 Smoke 10 1015 50 7000 3.09 310 00:34 06.03.2022
4965 Clouds 11 1015 50 5000 3.09 330 23:59 05.03.2022
4966 Clouds 11 1015 50 5000 3.09 330 23:19 05.03.2022
4967 Clear 13 1015 47 10000 2.06 130 22:32 05.03.2022
4968 Clouds 14 1015 44 10000 3.6 120 21:29 05.03.2022
4969 Clear 16 1015 36 10000 3.09 120 20:27 05.03.2022
4970 Clear 17 1015 36 10000 3.6 120 19:18 05.03.2022
4971 Clouds 17 1015 36 10000 3.09 110 18:37 05.03.2022
4972 Clear 19 1015 32 10000 3.6 120 17:34 05.03.2022
4973 Clear 20 1015 28 10000 3.6 120 16:18 05.03.2022
4974 Clear 22 1015 23 10000 4.63 150 14:54 05.03.2022
4975 Clear 22 1015 23 10000 4.63 150 14:36 05.03.2022
4976 Clear 22 1015 24 10000 3.6 190 13:39 05.03.2022
4977 Clear 22 1016 24 10000 4.12 140 12:35 05.03.2022
4978 Clear 20 1017 28 10000 4.63 140 11:20 05.03.2022
4979 Clear 20 1018 28 10000 6.17 170 10:52 05.03.2022
4980 Clear 19 1019 27 10000 5.14 130 09:30 05.03.2022
4981 Clear 18 1019 27 10000 5.66 140 08:24 05.03.2022
4982 Dust 13 1019 38 5000 3.09 110 06:33 05.03.2022
4983 Dust 8 1019 57 5000 1.54 110 05:22 05.03.2022
4984 Clear 10 1017 43 9000 1.54 120 00:30 05.03.2022
4985 Clear 12 1018 37 8000 1.54 20 22:45 04.03.2022
4986 Clear 12 1018 37 8000 1.54 20 22:24 04.03.2022
4987 Clear 13 1018 35 9000 1.54 10 21:42 04.03.2022
4988 Clear 14 1019 30 8000 2.06 360 20:39 04.03.2022
4989 Clear 14 1019 30 9000 2.57 360 19:37 04.03.2022
4990 Clear 15 1018 33 10000 3.09 350 18:54 04.03.2022
4991 Clear 15 1018 33 10000 3.09 350 18:33 04.03.2022
4992 Clear 16 1017 33 10000 3.6 340 17:29 04.03.2022
4993 Clouds 19 1016 27 10000 4.63 300 15:48 04.03.2022
4994 Clouds 19 1016 27 10000 4.63 300 15:24 04.03.2022
4995 Clouds 19 1015 27 10000 4.63 290 13:35 04.03.2022
4996 Clouds 19 1016 27 10000 5.66 220 12:38 04.03.2022
4997 Clear 19 1016 27 10000 6.17 290 11:37 04.03.2022
4998 Clear 18 1017 29 10000 5.66 280 10:25 04.03.2022
4999 Clear 18 1017 32 9000 5.66 270 09:27 04.03.2022
5000 Clear 14 1016 47 8000 5.66 260 07:48 04.03.2022
5001 Dust 12 1016 50 4000 4.12 250 06:21 04.03.2022
5002 Clouds 16 1013 31 700 6.69 270 01:46 04.03.2022
5003 Clouds 18 1012 29 200 7.72 290 23:35 03.03.2022
5004 Clouds 19 1011 26 200 10.29 280 22:18 03.03.2022
5005 Clouds 21 1010 23 200 8.23 270 21:36 03.03.2022
5006 Clouds 21 1009 32 100 10.29 290 20:45 03.03.2022
5007 Clouds 23 1007 35 800 10.29 280 19:22 03.03.2022
5008 Dust 23 1006 40 3500 2.06 270 18:26 03.03.2022
5009 Dust 22 1005 43 3500 2.06 130 17:31 03.03.2022
5010 Dust 23 1003 40 1500 4.12 130 16:41 03.03.2022
5011 Dust 25 1003 33 1500 4.63 140 15:44 03.03.2022
5012 Dust 25 1003 31 2000 7.2 150 14:44 03.03.2022
5013 Dust 25 1003 31 2000 7.2 150 14:26 03.03.2022
5014 Clouds 26 1004 27 900 11.83 150 12:35 03.03.2022
5015 Dust 25 1004 29 2000 11.32 140 11:31 03.03.2022
5016 Dust 23 1005 31 2500 12.86 140 10:38 03.03.2022
5017 Dust 22 1007 28 4000 12.35 140 08:43 03.03.2022
5018 Clouds 20 1007 34 7000 11.32 110 06:58 03.03.2022
5019 Clouds 20 1008 32 10000 9.26 110 05:44 03.03.2022
5020 Clear 20 1011 30 10000 5.66 110 00:40 03.03.2022
5021 Clear 20 1012 30 10000 4.63 110 23:28 02.03.2022
5022 Clear 20 1013 32 10000 5.14 110 22:44 02.03.2022
5023 Clear 20 1013 34 10000 4.63 120 21:23 02.03.2022
5024 Clear 20 1014 40 10000 4.63 100 20:30 02.03.2022
5025 Clear 20 1014 40 10000 3.6 110 19:45 02.03.2022
5026 Clear 20 1014 40 10000 3.6 110 19:26 02.03.2022
5027 Clear 21 1014 37 10000 3.09 120 18:39 02.03.2022
5028 Clear 21 1014 37 10000 3.09 120 18:39 02.03.2022
5029 Clear 21 1014 37 10000 3.09 120 18:39 02.03.2022
5030 Clear 23 1014 35 10000 3.09 110 17:45 02.03.2022
5031 Clouds 24 1014 33 9000 3.09 130 16:54 02.03.2022
5032 Clouds 24 1014 33 9000 3.09 130 16:36 02.03.2022
5033 Clear 27 1014 26 10000 5.14 150 14:42 02.03.2022
5034 Clear 26 1014 24 10000 5.14 170 13:23 02.03.2022
5035 Clouds 26 1015 24 10000 5.14 170 12:40 02.03.2022
5036 Clear 26 1016 22 10000 6.69 170 11:39 02.03.2022
5037 Clear 26 1016 22 10000 6.69 170 11:18 02.03.2022
5038 Clouds 24 1018 29 9000 8.23 170 09:41 02.03.2022
5039 Clouds 21 1018 37 10000 6.69 160 08:51 02.03.2022
5040 Clouds 18 1019 42 10000 5.14 150 07:28 02.03.2022
5041 Clouds 15 1018 51 10000 3.09 140 05:44 02.03.2022
5042 Clouds 15 1018 51 10000 3.09 140 05:44 02.03.2022
5043 Clouds 14 1017 51 10000 4.12 140 00:58 02.03.2022
5044 Clouds 14 1017 51 10000 4.12 140 00:58 02.03.2022
5045 Clear 14 1017 51 10000 4.12 140 23:46 01.03.2022
5046 Clear 15 1017 47 10000 4.12 130 22:45 01.03.2022
5047 Clouds 16 1018 48 10000 4.12 130 21:57 01.03.2022
5048 Clouds 16 1018 48 10000 4.12 130 21:23 01.03.2022
5049 Clear 17 1018 45 10000 3.6 130 20:29 01.03.2022
5050 Clouds 18 1018 42 10000 3.6 130 19:24 01.03.2022
5051 Clouds 19 1018 39 10000 3.09 120 18:49 01.03.2022
5052 Clouds 19 1018 39 10000 3.09 120 18:19 01.03.2022
5053 Clouds 20 1018 37 10000 3.09 120 17:19 01.03.2022
5054 Clouds 22 1018 30 10000 3.09 110 16:31 01.03.2022
5055 Clouds 23 1017 28 10000 3.09 110 15:38 01.03.2022
5056 Clouds 24 1018 27 10000 2.57 140 14:34 01.03.2022
5057 Clouds 23 1019 28 10000 2.06 150 13:52 01.03.2022
5058 Clouds 23 1019 28 10000 2.06 150 13:24 01.03.2022
5059 Clouds 23 1019 28 10000 3.09 160 12:30 01.03.2022
5060 Clouds 22 1021 35 10000 3.6 160 10:34 01.03.2022
5061 Clouds 18 1022 39 10000 2.06 170 08:41 01.03.2022
5062 Clouds 16 1022 44 10000 1.03 0 07:44 01.03.2022
5063 Clouds 10 1020 62 10000 1.03 170 05:54 01.03.2022
5064 Clear 11 1019 58 10000 1.03 190 02:33 01.03.2022
5065 Clear 10 1020 62 10000 0 0 00:34 01.03.2022
5066 Clear 12 1020 58 10000 0.51 190 23:29 28.02.2022
5067 Clear 13 1020 50 10000 0 0 21:59 28.02.2022
5068 Clear 13 1020 50 10000 0 0 21:25 28.02.2022
5069 Clear 16 1020 39 10000 0.51 0 19:55 28.02.2022
5070 Clear 16 1020 39 10000 0.51 0 19:33 28.02.2022
5071 Clear 17 1020 42 10000 1.03 330 18:40 28.02.2022
5072 Clear 19 1019 34 10000 2.57 330 17:30 28.02.2022
5073 Clear 21 1019 30 10000 4.12 310 16:33 28.02.2022
5074 Clear 23 1019 25 10000 6.17 310 15:23 28.02.2022
5075 Clouds 24 1019 25 10000 6.69 300 14:31 28.02.2022
5076 Clouds 24 1019 25 10000 5.66 300 13:47 28.02.2022
5077 Clouds 24 1019 25 10000 6.69 310 12:47 28.02.2022
5078 Clear 23 1020 27 10000 6.69 300 11:57 28.02.2022
5079 Clear 22 1020 30 10000 4.63 310 10:48 28.02.2022
5080 Clear 22 1020 30 10000 4.63 310 10:20 28.02.2022
5081 Clear 21 1021 35 10000 4.12 330 09:33 28.02.2022
5082 Clear 19 1021 39 10000 3.09 340 08:32 28.02.2022
5083 Clear 16 1021 48 10000 2.57 320 07:35 28.02.2022
5084 Clouds 14 1020 49 10000 3.54 328 05:21 28.02.2022
5085 Clear 9 1020 66 10000 1.54 290 04:27 28.02.2022
5086 Clear 12 1020 54 10000 2.57 290 23:44 27.02.2022
5087 Clear 13 1020 54 10000 2.57 300 22:35 27.02.2022
5088 Clear 14 1021 47 10000 3.6 300 21:51 27.02.2022
5089 Clear 14 1021 47 10000 3.6 300 21:21 27.02.2022
5090 Clear 16 1021 41 10000 2.57 290 20:32 27.02.2022
5091 Clear 17 1021 42 10000 3.09 280 19:58 27.02.2022
5092 Clear 17 1021 42 10000 3.09 280 19:27 27.02.2022
5093 Clear 17 1021 42 10000 3.09 300 18:47 27.02.2022
5094 Clear 19 1020 39 10000 3.6 290 17:56 27.02.2022
5095 Clear 19 1020 39 10000 3.6 290 17:18 27.02.2022
5096 Clear 21 1020 37 10000 4.63 280 16:21 27.02.2022
5097 Clouds 22 1020 33 10000 5.66 300 13:34 27.02.2022
5098 Clouds 22 1020 35 10000 4.63 290 12:33 27.02.2022
5099 Clouds 21 1021 37 10000 3.6 320 11:27 27.02.2022
5100 Clouds 20 1022 42 10000 5.14 290 10:20 27.02.2022
5101 Clear 19 1022 45 10000 4.12 290 09:50 27.02.2022
5102 Clear 19 1022 45 10000 4.12 290 09:20 27.02.2022
5103 Clear 17 1022 51 10000 3.6 290 08:20 27.02.2022
5104 Clear 17 1022 51 10000 3.6 290 08:20 27.02.2022
5105 Clouds 9 1021 76 10000 2.06 300 05:39 27.02.2022
5106 Clear 10 1019 66 10000 2.06 300 02:35 27.02.2022
5107 Clear 12 1019 62 10000 0.51 270 23:34 26.02.2022
5108 Clear 12 1019 62 10000 2.57 300 22:31 26.02.2022
5109 Clear 14 1019 54 10000 2.57 310 21:19 26.02.2022
5110 Clear 14 1018 54 10000 1.54 310 20:33 26.02.2022
5111 Clear 16 1018 48 10000 1.54 350 19:52 26.02.2022
5112 Clear 16 1018 48 10000 1.54 350 19:31 26.02.2022
5113 Clear 17 1017 42 10000 1.54 320 17:55 26.02.2022
5114 Clear 17 1017 42 10000 1.54 320 17:29 26.02.2022
5115 Clouds 19 1016 37 10000 3.6 300 16:33 26.02.2022
5116 Clouds 21 1016 32 10000 4.12 260 15:26 26.02.2022
5117 Clouds 21 1016 35 10000 5.14 270 14:57 26.02.2022
5118 Clouds 21 1016 35 10000 5.14 270 14:38 26.02.2022
5119 Clear 21 1016 35 10000 3.09 260 13:40 26.02.2022
5120 Clear 20 1016 37 10000 5.14 240 12:52 26.02.2022
5121 Clear 20 1016 37 10000 5.66 230 11:38 26.02.2022
5122 Clear 19 1017 39 10000 4.63 230 10:56 26.02.2022
5123 Clouds 17 1017 48 8000 4.63 250 09:22 26.02.2022
5124 Dust 16 1017 48 5000 3.6 270 07:57 26.02.2022
5125 Dust 12 1015 58 4000 2.06 330 04:21 26.02.2022
5126 Clear 15 1014 41 10000 4.12 230 23:35 25.02.2022
5127 Clear 14 1014 47 10000 1.54 160 22:18 25.02.2022
5128 Clear 13 1013 47 10000 2.06 140 21:29 25.02.2022
5129 Clear 15 1014 41 10000 1.54 130 20:34 25.02.2022
5130 Clear 16 1013 39 10000 0 0 19:56 25.02.2022
5131 Clear 20 1012 30 10000 2.06 270 17:54 25.02.2022
5132 Clear 21 1011 28 10000 2.57 270 16:47 25.02.2022
5133 Clear 22 1011 26 10000 3.09 240 15:49 25.02.2022
5134 Clear 22 1011 26 10000 3.09 240 15:23 25.02.2022
5135 Clear 22 1011 26 10000 3.09 240 15:23 25.02.2022
5136 Clear 23 1011 25 10000 4.63 230 14:50 25.02.2022
5137 Clear 23 1011 25 10000 4.63 230 14:18 25.02.2022
5138 Clear 24 1011 22 10000 4.12 250 13:23 25.02.2022
5139 Clouds 23 1012 35 10000 4.12 300 11:56 25.02.2022
5140 Clouds 23 1012 35 10000 4.12 300 11:20 25.02.2022
5141 Clouds 22 1013 40 9000 4.12 270 10:23 25.02.2022
5142 Clouds 21 1013 43 9000 5.66 280 09:42 25.02.2022
5143 Clouds 21 1013 43 9000 5.66 280 09:42 25.02.2022
5144 Clouds 21 1013 43 9000 5.66 280 09:42 25.02.2022
5145 Dust 19 1013 42 4000 2.57 280 07:53 25.02.2022
5146 Dust 19 1013 39 2800 5.66 160 06:54 25.02.2022
5147 Clear 17 1010 42 6000 6.17 140 05:40 25.02.2022
5148 Clouds 20 1008 32 10000 8.23 120 01:23 25.02.2022
5149 Clear 20 1010 37 9000 6.69 130 22:37 24.02.2022
5150 Clear 20 1011 37 9000 6.69 130 21:50 24.02.2022
5151 Clear 20 1011 37 9000 6.69 130 21:30 24.02.2022
5152 Clear 21 1011 35 9000 6.17 120 20:44 24.02.2022
5153 Clear 21 1012 35 9000 5.66 120 19:31 24.02.2022
5154 Clear 23 1012 31 9000 5.14 110 18:20 24.02.2022
5155 Clear 23 1012 31 9000 4.63 110 17:54 24.02.2022
5156 Clear 23 1012 31 9000 4.63 110 17:20 24.02.2022
5157 Clear 24 1012 27 10000 5.14 100 16:28 24.02.2022
5158 Clear 26 1012 25 10000 5.66 90 15:43 24.02.2022
5159 Clear 26 1013 24 10000 7.2 90 14:45 24.02.2022
5160 Clear 26 1013 24 10000 6.17 100 13:59 24.02.2022
5161 Clear 26 1013 24 10000 6.17 100 13:37 24.02.2022
5162 Clear 25 1015 25 10000 7.2 100 11:38 24.02.2022
5163 Clear 25 1016 27 9000 6.17 120 10:32 24.02.2022
5164 Clear 21 1018 35 9000 3.6 90 08:43 24.02.2022
5165 Clear 18 1018 39 8000 4.12 100 07:22 24.02.2022
5166 Clear 12 1017 54 8000 2.06 90 05:40 24.02.2022
5167 Clouds 12 1017 66 6000 1.03 10 00:31 24.02.2022
5168 Clouds 13 1018 62 8000 0 0 22:22 23.02.2022
5169 Clouds 17 1018 45 8000 1.54 210 20:48 23.02.2022
5170 Clouds 17 1018 45 8000 1.54 210 20:28 23.02.2022
5171 Clouds 16 1017 48 9000 1.03 300 19:35 23.02.2022
5172 Clouds 19 1017 45 10000 1.54 110 18:27 23.02.2022
5173 Clouds 22 1016 37 10000 1.03 10 16:33 23.02.2022
5174 Clear 25 1016 29 10000 1.03 0 14:22 23.02.2022
5175 Clouds 25 1016 31 8000 2.06 0 12:37 23.02.2022
5176 Clouds 24 1017 33 8000 1.54 330 11:23 23.02.2022
5177 Clouds 23 1018 38 6000 1.03 0 10:24 23.02.2022
5178 Clouds 21 1019 43 5000 1.03 0 08:56 23.02.2022
5179 Haze 17 1019 55 4000 1.03 0 07:56 23.02.2022
5180 Clouds 10 1017 81 8000 0 0 03:47 23.02.2022
5181 Clouds 11 1017 71 10000 1.03 80 00:19 23.02.2022
5182 Clouds 12 1017 66 9000 0.51 0 23:34 22.02.2022
5183 Clear 12 1017 66 10000 0 0 22:28 22.02.2022
5184 Clear 13 1017 62 10000 0 0 21:48 22.02.2022
5185 Clear 13 1017 62 10000 0 0 21:25 22.02.2022
5186 Clear 15 1017 58 10000 0.51 360 20:49 22.02.2022
5187 Clear 15 1017 58 10000 0.51 360 20:29 22.02.2022
5188 Clear 16 1017 55 10000 1.03 350 19:34 22.02.2022
5189 Clear 17 1017 55 10000 1.54 20 18:58 22.02.2022
5190 Clear 17 1016 55 10000 2.06 330 17:36 22.02.2022
5191 Clear 17 1016 55 10000 2.06 330 17:18 22.02.2022
5192 Clear 19 1016 45 10000 2.06 340 16:36 22.02.2022
5193 Clouds 20 1015 38 10000 2.48 343 15:38 22.02.2022
5194 Clear 22 1016 40 10000 3.09 340 14:43 22.02.2022
5195 Clear 21 1017 43 10000 2.06 290 11:54 22.02.2022
5196 Clear 19 1018 52 10000 2.06 270 10:28 22.02.2022
5197 Clouds 16 1019 59 5000 1.54 240 07:48 22.02.2022
5198 Clouds 15 1019 67 5000 1.54 290 07:25 22.02.2022
5199 Clear 8 1017 81 10000 1.03 330 02:52 22.02.2022
5200 Clear 9 1017 76 10000 0.51 330 00:49 22.02.2022
5201 Clear 11 1017 66 10000 1.54 280 22:41 21.02.2022
5202 Clear 12 1018 58 10000 2.06 280 21:30 21.02.2022
5203 Clear 14 1017 58 10000 1.54 0 20:34 21.02.2022
5204 Clear 16 1017 48 10000 2.06 290 18:42 21.02.2022
5205 Clear 18 1017 42 10000 3.6 310 16:50 21.02.2022
5206 Clear 20 1016 42 10000 4.12 290 14:52 21.02.2022
5207 Clear 20 1016 42 10000 4.12 290 14:21 21.02.2022
5208 Clear 20 1016 45 10000 3.6 260 12:59 21.02.2022
5209 Clear 20 1016 45 10000 3.6 260 12:23 21.02.2022
5210 Clear 18 1017 55 10000 5.14 310 10:51 21.02.2022
5211 Clear 17 1018 59 8000 4.63 310 09:30 21.02.2022
5212 Clear 10 1016 93 10000 3.6 310 04:52 21.02.2022
5213 Clear 12 1014 76 10000 4.63 310 23:32 20.02.2022
5214 Clear 13 1013 76 10000 5.66 290 22:20 20.02.2022
5215 Clear 14 1013 72 10000 4.63 290 21:42 20.02.2022
5216 Clear 14 1013 72 10000 4.12 300 20:53 20.02.2022
5217 Clear 14 1013 72 10000 4.12 300 20:23 20.02.2022
5218 Clear 15 1012 67 10000 6.69 310 19:30 20.02.2022
5219 Clear 16 1012 67 10000 6.17 320 18:49 20.02.2022
5220 Clear 16 1012 67 10000 6.17 320 18:31 20.02.2022
5221 Clear 16 1011 63 10000 8.23 320 17:47 20.02.2022
5222 Clear 21 1009 37 10000 2.06 110 15:32 20.02.2022
5223 Clear 21 1009 35 10000 2.57 150 14:41 20.02.2022
5224 Clear 22 1008 33 10000 3.09 120 13:23 20.02.2022
5225 Clear 21 1008 35 10000 3.6 120 12:22 20.02.2022
5226 Clear 20 1009 37 10000 4.63 120 10:21 20.02.2022
5227 Clear 18 1009 42 10000 2.06 100 09:53 20.02.2022
5228 Clear 15 1008 51 10000 5.14 160 07:45 20.02.2022
5229 Clouds 16 1008 63 10000 3.09 80 00:54 20.02.2022
5230 Clouds 17 1008 51 10000 2.06 20 00:29 20.02.2022
5231 Clouds 17 1009 51 10000 1.54 20 22:44 19.02.2022
5232 Clouds 17 1009 51 10000 1.54 20 22:21 19.02.2022
5233 Clouds 18 1009 42 10000 1.03 0 20:51 19.02.2022
5234 Clouds 19 1009 39 10000 3.09 130 19:48 19.02.2022
5235 Clouds 19 1009 39 10000 3.09 130 19:25 19.02.2022
5236 Clouds 18 1008 42 10000 2.06 120 18:32 19.02.2022
5237 Clear 19 1007 37 10000 2.57 110 17:33 19.02.2022
5238 Clear 20 1007 34 10000 4.12 100 16:22 19.02.2022
5239 Clouds 22 1008 28 10000 9.77 110 14:56 19.02.2022
5240 Clouds 22 1008 28 10000 9.77 110 14:37 19.02.2022
5241 Clouds 23 1008 28 4000 9.26 110 12:50 19.02.2022
5242 Dust 22 1008 28 3000 10.29 100 11:36 19.02.2022
5243 Clouds 20 1010 28 8000 7.72 110 09:36 19.02.2022
5244 Clouds 16 1011 33 10000 4.63 80 06:53 19.02.2022
5245 Clouds 16 1011 39 10000 5.14 80 02:38 19.02.2022
5246 Clear 17 1012 36 10000 5.66 90 23:28 18.02.2022
5247 Clear 18 1012 32 10000 4.63 90 21:49 18.02.2022
5248 Clear 18 1013 34 10000 3.6 80 20:39 18.02.2022
5249 Clear 18 1012 34 10000 4.12 90 19:51 18.02.2022
5250 Clear 16 1012 41 10000 3.09 100 18:50 18.02.2022
5251 Clear 16 1012 41 10000 3.09 100 18:20 18.02.2022
5252 Clouds 18 1012 34 10000 3.09 100 17:25 18.02.2022
5253 Clouds 21 1012 24 10000 6.17 100 14:48 18.02.2022
5254 Clouds 21 1012 26 10000 5.66 120 13:54 18.02.2022
5255 Clouds 21 1012 24 10000 6.17 150 12:51 18.02.2022
5256 Clouds 21 1012 24 10000 5.66 130 11:58 18.02.2022
5257 Clouds 21 1012 24 10000 5.66 130 11:58 18.02.2022
5258 Clouds 21 1012 24 10000 5.66 130 11:58 18.02.2022
5259 Clouds 21 1012 24 10000 5.66 130 11:21 18.02.2022
5260 Clouds 18 1014 32 10000 4.63 130 09:33 18.02.2022
5261 Haze 13 1014 44 4400 2.06 130 06:52 18.02.2022
5262 Clouds 11 1014 50 6000 2.57 120 05:38 18.02.2022
5263 Clear 13 1013 41 10000 1.03 80 22:57 17.02.2022
5264 Clear 15 1014 33 10000 1.03 0 21:44 17.02.2022
5265 Clear 15 1014 36 10000 2.57 220 20:59 17.02.2022
5266 Clear 15 1014 36 10000 2.57 220 20:34 17.02.2022
5267 Clear 15 1014 33 10000 2.57 220 19:48 17.02.2022
5268 Clear 17 1014 29 10000 2.06 250 18:38 17.02.2022
5269 Clear 17 1013 27 10000 2.06 270 17:48 17.02.2022
5270 Clear 19 1013 24 10000 3.6 290 16:20 17.02.2022
5271 Clear 19 1013 24 10000 3.6 290 16:20 17.02.2022
5272 Clear 20 1013 21 10000 6.17 290 15:26 17.02.2022
5273 Clear 21 1013 21 10000 6.17 300 14:21 17.02.2022
5274 Clear 21 1014 23 10000 5.66 310 12:24 17.02.2022
5275 Clear 21 1015 26 10000 4.63 310 11:21 17.02.2022
5276 Clear 15 1017 38 10000 3.09 290 08:43 17.02.2022
5277 Clear 11 1015 50 10000 2.06 260 00:29 17.02.2022
5278 Clear 10 1015 53 10000 2.57 300 22:59 16.02.2022
5279 Clear 15 1016 40 10000 3.95 313 21:25 16.02.2022
5280 Clear 16 1016 33 10000 4.12 280 19:43 16.02.2022
5281 Clouds 16 1015 33 10000 2.57 260 18:36 16.02.2022
5282 -273 0 0 0 0 0 17:40 16.02.2022
5283 Clear 16 1016 35 10000 4.48 308 17:36 16.02.2022
5284 Clear 20 1015 26 10000 6.69 300 15:30 16.02.2022
5285 Clear 21 1015 26 10000 7.72 300 14:57 16.02.2022
5286 Clear 21 1016 24 10000 8.75 280 12:34 16.02.2022
5287 Clear 21 1016 28 10000 7.72 300 11:53 16.02.2022
5288 Clear 21 1016 28 10000 7.72 300 11:23 16.02.2022
5289 Clear 20 1017 28 10000 7.2 270 10:29 16.02.2022
5290 Clear 9 1018 61 10000 3.6 310 06:57 16.02.2022
5291 Clear 8 1017 61 10000 1.54 240 04:42 16.02.2022
5292 Clear 10 1018 53 10000 3.09 320 23:35 15.02.2022
5293 Clear 10 1018 53 10000 3.6 310 22:18 15.02.2022
5294 Clear 11 1018 54 10000 3.6 320 21:45 15.02.2022
5295 Clear 11 1018 54 10000 3.6 320 21:27 15.02.2022
5296 Clear 12 1018 50 10000 3.09 330 20:53 15.02.2022
5297 Clear 13 1018 44 10000 3.09 310 19:55 15.02.2022
5298 Clear 14 1018 41 10000 3.6 310 18:52 15.02.2022
5299 Clear 14 1018 41 10000 3.6 310 18:19 15.02.2022
5300 Clear 16 1017 39 10000 2.57 320 17:48 15.02.2022
5301 Clear 17 1017 35 10000 4.72 324 16:30 15.02.2022
5302 Clear 22 1017 24 10000 4.12 340 14:47 15.02.2022
5303 Clear 22 1017 24 10000 3.09 330 13:26 15.02.2022
5304 Clear 22 1018 26 10000 3.6 350 11:57 15.02.2022
5305 Clear 21 1019 30 10000 5.14 340 10:58 15.02.2022
5306 Clear 19 1019 37 10000 5.14 350 09:28 15.02.2022
5307 Clear 8 1019 57 7000 2.06 320 06:49 15.02.2022
5308 Clear 8 1017 53 10000 2.06 310 02:36 15.02.2022
5309 Clear 12 1017 40 6000 2.06 130 22:25 14.02.2022
5310 Smoke 12 1017 43 5000 1.54 110 21:27 14.02.2022
5311 Clear 13 1017 41 7000 2.57 120 20:30 14.02.2022
5312 Clear 13 1016 35 10000 1.03 0 19:32 14.02.2022
5313 Clear 15 1016 33 10000 0.51 70 18:30 14.02.2022
5314 Clear 17 1016 29 10000 0.51 0 17:58 14.02.2022
5315 Clear 17 1016 29 10000 0.51 0 17:24 14.02.2022
5316 Clear 22 1015 21 10000 4.12 330 15:59 14.02.2022
5317 Clear 23 1015 18 10000 3.6 290 13:44 14.02.2022
5318 Clear 23 1015 18 10000 3.6 290 13:23 14.02.2022
5319 Clear 23 1015 17 10000 4.12 280 12:32 14.02.2022
5320 Clear 22 1016 17 10000 5.14 290 11:54 14.02.2022
5321 Clear 21 1017 23 10000 4.63 280 10:37 14.02.2022
5322 Clear 15 1017 38 10000 4.12 270 08:43 14.02.2022
5323 Clear 11 1017 50 10000 3.6 280 07:30 14.02.2022
5324 Clear 8 1015 53 10000 3.6 300 23:45 13.02.2022
5325 Clear 9 1016 49 10000 2.57 290 22:42 13.02.2022
5326 Clear 9 1016 49 10000 2.57 290 22:23 13.02.2022
5327 Clear 11 1016 43 10000 3.6 290 21:30 13.02.2022
5328 Clear 11 1016 40 10000 3.6 300 20:33 13.02.2022
5329 Clear 14 1016 35 10000 4.12 290 19:30 13.02.2022
5330 Clear 14 1016 33 10000 4.12 300 18:46 13.02.2022
5331 Clear 14 1016 33 10000 4.12 300 18:26 13.02.2022
5332 Clear 22 1016 20 10000 7.72 310 15:54 13.02.2022
5333 Clear 22 1016 20 10000 7.72 310 15:24 13.02.2022
5334 Clear 22 1016 23 10000 8.23 310 14:22 13.02.2022
5335 Clear 22 1017 21 10000 7.72 310 12:51 13.02.2022
5336 Clear 21 1016 19 10000 7.13 319 11:44 13.02.2022
5337 Clear 21 1018 24 10000 7.72 300 10:33 13.02.2022
5338 Clear 18 1019 32 10000 6.69 300 09:45 13.02.2022
5339 Clear 12 1021 47 10000 5.66 300 07:49 13.02.2022
5340 Clear 10 1020 46 10000 4.63 310 00:35 13.02.2022
5341 Clear 9 1020 46 10000 4.12 310 23:42 12.02.2022
5342 Clear 10 1020 46 10000 3.09 310 22:33 12.02.2022
5343 Clear 12 1020 40 10000 4.63 310 21:30 12.02.2022
5344 Clear 12 1021 40 10000 4.12 310 20:45 12.02.2022
5345 Clear 13 1020 41 10000 4.12 310 19:35 12.02.2022
5346 Clear 14 1020 38 10000 4.12 300 18:53 12.02.2022
5347 Clear 14 1020 38 10000 4.12 300 18:35 12.02.2022
5348 Clear 15 1020 38 10000 3.6 300 17:20 12.02.2022
5349 Clear 18 1019 32 10000 4.63 310 16:29 12.02.2022
5350 Clear 20 1019 28 10000 6.17 330 15:51 12.02.2022
5351 Clear 20 1019 30 10000 7.2 320 14:44 12.02.2022
5352 Clear 20 1019 30 10000 7.2 320 14:24 12.02.2022
5353 Clear 19 1019 32 10000 7.2 310 11:18 12.02.2022
5354 Clear 15 1021 44 10000 6.69 310 09:51 12.02.2022
5355 Clear 15 1021 44 10000 6.69 310 09:27 12.02.2022
5356 Clear 13 1021 47 10000 6.69 310 08:45 12.02.2022
5357 Clear 8 1019 66 10000 4.63 300 05:40 12.02.2022
5358 Clear 8 1018 66 10000 4.63 310 04:33 12.02.2022
5359 Clear 8 1018 66 10000 4.12 310 02:18 12.02.2022
5360 Clear 11 1018 66 10000 5.14 300 22:55 11.02.2022
5361 Clear 11 1018 66 10000 5.14 300 22:20 11.02.2022
5362 Clouds 13 1017 58 10000 4.63 310 20:43 11.02.2022
5363 Clouds 15 1017 55 10000 4.63 20 19:50 11.02.2022
5364 Clouds 15 1017 55 10000 4.63 20 19:27 11.02.2022
5365 Clouds 15 1017 41 10000 3.6 350 18:28 11.02.2022
5366 Clouds 17 1016 36 10000 3.09 290 17:26 11.02.2022
5367 Clouds 18 1016 34 10000 3.09 280 16:26 11.02.2022
5368 Clouds 20 1015 30 10000 3.09 260 14:59 11.02.2022
5369 Clouds 20 1015 30 10000 3.09 260 14:37 11.02.2022
5370 Clouds 20 1015 30 10000 3.09 260 14:18 11.02.2022
5371 Clouds 20 1015 30 10000 3.6 220 13:40 11.02.2022
5372 Clouds 20 1015 32 10000 3.6 240 12:20 11.02.2022
5373 Clouds 19 1017 37 10000 0.51 0 10:30 11.02.2022
5374 Clear 17 1017 39 10000 1.54 330 09:22 11.02.2022
5375 Clear 15 1018 44 10000 2.06 330 08:28 11.02.2022
5376 Clear 13 1017 50 10000 1.54 300 07:39 11.02.2022
5377 Clear 8 1015 61 10000 2.57 120 02:40 11.02.2022
5378 Clear 8 1015 61 10000 2.57 120 02:20 11.02.2022
5379 Clear 10 1015 62 8000 1.03 0 23:40 10.02.2022
5380 Clear 9 1016 71 10000 1.54 20 21:55 10.02.2022
5381 Clear 9 1016 71 10000 1.54 20 21:26 10.02.2022
5382 Clear 11 1016 62 10000 1.54 40 20:48 10.02.2022
5383 Clear 14 1016 36 10000 2.14 8 19:49 10.02.2022
5384 Clear 15 1015 35 10000 2.4 351 19:20 10.02.2022
5385 Clear 15 1015 47 10000 2.06 270 17:43 10.02.2022
5386 Clear 15 1015 47 10000 2.06 270 17:20 10.02.2022
5387 Clear 18 1014 42 10000 1.54 250 16:30 10.02.2022
5388 Clear 20 1013 37 10000 2.57 240 15:37 10.02.2022
5389 Clear 20 1013 37 10000 2.57 240 15:18 10.02.2022
5390 Clouds 20 1013 37 10000 2.57 170 14:33 10.02.2022
5391 Clouds 20 1012 34 10000 2.06 200 13:33 10.02.2022
5392 Clouds 19 1012 37 8000 1.03 190 12:53 10.02.2022
5393 Clouds 18 1013 42 10000 6.17 150 11:48 10.02.2022
5394 Clouds 18 1013 42 10000 6.17 150 11:28 10.02.2022
5395 Clouds 16 1014 55 10000 4.12 140 10:21 10.02.2022
5396 Clouds 14 1014 62 10000 4.63 140 09:37 10.02.2022
5397 Clouds 14 1014 58 10000 7.2 140 08:21 10.02.2022
5398 Clouds 15 1012 47 10000 9.26 130 06:19 10.02.2022
5399 Clouds 16 1011 41 10000 9.26 130 02:28 10.02.2022
5400 Clouds 17 1012 36 10000 8.75 130 00:51 10.02.2022
5401 Clouds 17 1012 36 10000 8.75 130 00:30 10.02.2022
5402 Clouds 17 1011 34 10000 9.77 130 23:53 09.02.2022
5403 Clear 17 1012 36 10000 7.72 130 22:51 09.02.2022
5404 Clear 17 1012 36 10000 7.72 130 22:30 09.02.2022
5405 Clear 17 1013 36 10000 7.72 120 21:45 09.02.2022
5406 Clear 17 1013 36 10000 7.72 120 21:24 09.02.2022
5407 Clouds 17 1014 34 10000 8.56 127 20:41 09.02.2022
5408 Clouds 17 1015 36 10000 6.96 130 20:21 09.02.2022
5409 Clouds 17 1015 36 10000 6.96 130 20:21 09.02.2022
5410 Clear 18 1014 34 10000 7.2 120 19:39 09.02.2022
5411 Clear 18 1015 34 10000 5.66 120 17:50 09.02.2022
5412 Clear 19 1015 34 10000 5.14 120 16:54 09.02.2022
5413 Clear 21 1015 30 10000 6.69 130 15:56 09.02.2022
5414 Clear 21 1015 30 10000 6.69 130 15:22 09.02.2022
5415 Clear 22 1017 28 10000 6.17 150 12:42 09.02.2022
5416 Clear 22 1018 28 10000 4.12 140 11:20 09.02.2022
5417 Clear 20 1019 32 10000 4.12 170 10:32 09.02.2022
5418 Clear 19 1021 34 10000 3.6 150 09:45 09.02.2022
5419 Clear 19 1021 34 10000 3.6 150 09:20 09.02.2022
5420 Clear 16 1021 39 10000 3.6 130 08:43 09.02.2022
5421 Clear 5 1021 70 10000 2.57 170 05:37 09.02.2022
5422 Clouds 7 1020 61 8000 2.06 130 03:51 09.02.2022
5423 Dust 10 1021 53 4900 1.54 100 01:33 09.02.2022
5424 Clear 11 1021 54 10000 2.06 70 23:39 08.02.2022
5425 Clear 12 1021 47 10000 2.57 90 22:53 08.02.2022
5426 Clear 12 1021 47 10000 2.57 90 22:22 08.02.2022
5427 Clear 13 1021 47 10000 2.57 80 21:58 08.02.2022
5428 Clear 13 1021 47 10000 2.57 80 21:22 08.02.2022
5429 Clear 15 1022 41 10000 2.57 60 20:56 08.02.2022
5430 Clear 15 1022 41 10000 2.57 60 20:23 08.02.2022
5431 Clouds 15 1022 42 10000 3.44 60 18:55 08.02.2022
5432 Clear 17 1022 36 10000 2.57 60 17:50 08.02.2022
5433 Clear 18 1021 34 10000 0 0 16:42 08.02.2022
5434 Clear 20 1021 30 10000 1.54 250 15:39 08.02.2022
5435 Clear 20 1021 30 10000 1.54 230 14:57 08.02.2022
5436 Clear 20 1021 28 10000 1.03 0 13:30 08.02.2022
5437 Clear 20 1022 28 10000 2.57 180 12:21 08.02.2022
5438 Clear 19 1023 30 10000 1.54 0 10:47 08.02.2022
5439 Clear 18 1024 29 10000 1.54 0 09:46 08.02.2022
5440 Clear 16 1025 36 10000 1.54 90 08:34 08.02.2022
5441 Clear 6 1024 65 7000 1.03 0 05:46 08.02.2022
5442 Clear 6 1024 65 9000 1.03 0 04:40 08.02.2022
5443 Clear 6 1024 65 9000 1.03 0 04:22 08.02.2022
5444 Clear 5 1023 70 10000 0 0 03:36 08.02.2022
5445 Clear 5 1023 70 10000 0 0 03:18 08.02.2022
5446 Clear 7 1023 65 10000 0.51 40 02:59 08.02.2022
5447 Clear 7 1023 65 10000 0.51 40 02:36 08.02.2022
5448 Clear 7 1023 65 10000 0.51 40 02:18 08.02.2022
5449 Clouds 9 1023 57 10000 1.03 0 01:44 08.02.2022
5450 Clouds 9 1023 57 10000 1.03 0 01:24 08.02.2022
5451 Clear 9 1023 57 10000 1.03 350 00:55 08.02.2022
5452 Clear 9 1023 57 10000 1.03 350 00:19 08.02.2022
5453 Clear 10 1023 50 10000 1.03 350 23:43 07.02.2022
5454 Clear 10 1023 50 10000 1.03 350 23:18 07.02.2022
5455 Clear 10 1023 53 10000 1.03 340 22:59 07.02.2022
5456 Clear 10 1023 53 10000 1.03 340 22:18 07.02.2022
5457 Clear 11 1024 50 10000 1.03 330 21:49 07.02.2022
5458 Clear 11 1024 50 10000 1.03 330 21:27 07.02.2022
5459 Clear 13 1023 44 10000 2.57 20 20:41 07.02.2022
5460 Clear 13 1023 44 10000 2.57 20 20:18 07.02.2022
5461 Clear 13 1023 41 10000 2.57 20 19:46 07.02.2022
5462 Clear 13 1023 41 10000 2.06 20 18:24 07.02.2022
5463 Clear 15 1022 38 10000 2.06 350 16:53 07.02.2022
5464 Clear 15 1022 38 10000 2.06 350 16:21 07.02.2022
5465 Clear 17 1022 34 10000 1.54 40 15:48 07.02.2022
5466 Clear 18 1022 34 10000 3.09 300 13:39 07.02.2022
5467 Clear 18 1022 34 10000 3.09 300 13:21 07.02.2022
5468 Clear 17 1022 34 10000 2.57 260 11:58 07.02.2022
5469 Clear 17 1022 34 10000 2.57 260 11:38 07.02.2022
5470 Clear 16 1023 39 10000 2.57 280 10:53 07.02.2022
5471 Clear 16 1023 39 10000 2.57 280 10:33 07.02.2022
5472 Clear 15 1024 44 10000 1.54 0 09:53 07.02.2022
5473 Clear 15 1024 44 10000 1.54 0 09:18 07.02.2022
5474 Clear 12 1024 54 10000 2.06 260 08:44 07.02.2022
5475 Clouds 10 1024 53 10000 1.54 320 07:30 07.02.2022
5476 Clear 7 1023 61 10000 0.51 0 06:34 07.02.2022
5477 Clear 5 1022 75 10000 1.03 310 03:49 07.02.2022
5478 Clear 6 1022 70 10000 1.54 280 00:54 07.02.2022
5479 Clear 7 1022 61 10000 0.51 0 23:50 06.02.2022
5480 Clear 7 1022 61 10000 0.51 0 23:50 06.02.2022
5481 Clear 7 1022 61 10000 0.51 0 23:19 06.02.2022
5482 Clear 7 1023 57 10000 1.03 250 22:34 06.02.2022
5483 Clear 9 1023 49 10000 1.03 0 21:36 06.02.2022
5484 Clear 9 1023 53 10000 1.54 300 20:58 06.02.2022
5485 Clear 9 1023 53 10000 1.54 300 20:36 06.02.2022
5486 Clear 11 1023 46 10000 1.03 300 19:46 06.02.2022
5487 Clear 12 1023 43 10000 1.54 340 18:50 06.02.2022
5488 Clear 12 1023 43 10000 1.54 340 18:24 06.02.2022
5489 Clear 12 1022 40 10000 2.57 330 17:29 06.02.2022
5490 Clear 14 1022 35 10000 3.6 320 16:50 06.02.2022
5491 Clear 16 1022 29 10000 5.14 300 15:50 06.02.2022
5492 Clear 16 1022 29 10000 5.14 300 15:28 06.02.2022
5493 Clear 17 1021 27 10000 6.17 290 14:52 06.02.2022
5494 Clear 17 1021 25 10000 6.17 290 13:53 06.02.2022
5495 Clear 17 1021 25 10000 6.17 290 13:20 06.02.2022
5496 Clear 17 1022 31 10000 5.14 290 11:44 06.02.2022
5497 Clear 16 1023 29 10000 4.63 280 10:31 06.02.2022
5498 Clear 15 1023 38 10000 4.22 309 09:26 06.02.2022
5499 Clear 12 1023 54 10000 3.09 270 08:41 06.02.2022
5500 Clear 7 1022 70 10000 1.03 0 06:19 06.02.2022
5501 Clear 6 1021 81 10000 1.54 270 04:51 06.02.2022
5502 Clear 7 1020 76 10000 2.06 290 02:25 06.02.2022
5503 Clear 7 1020 81 10000 1.03 0 00:30 06.02.2022
5504 Clear 6 1019 87 10000 1.03 0 23:25 05.02.2022
5505 Clear 9 1019 71 10000 1.54 160 21:43 05.02.2022
5506 Clear 10 1019 66 10000 1.03 0 20:26 05.02.2022
5507 Clear 11 1018 62 10000 0.51 0 19:51 05.02.2022
5508 Clear 11 1018 62 10000 0.51 0 19:33 05.02.2022
5509 Clear 12 1018 58 10000 1.03 280 18:26 05.02.2022
5510 Clear 12 1017 58 10000 2.57 310 17:33 05.02.2022
5511 Clouds 16 1016 48 10000 3.09 310 15:43 05.02.2022
5512 Clouds 16 1016 48 10000 3.09 310 15:25 05.02.2022
5513 Clouds 16 1015 48 10000 2.57 320 13:24 05.02.2022
5514 Clouds 16 1015 44 10000 3.6 260 12:42 05.02.2022
5515 Clouds 15 1016 47 10000 4.12 310 11:18 05.02.2022
5516 Clear 14 1016 51 10000 3.09 290 10:43 05.02.2022
5517 Clear 13 1016 54 10000 3.6 240 09:49 05.02.2022
5518 Clear 11 1016 58 10000 3.09 260 08:21 05.02.2022
5519 Clear 11 1016 58 10000 3.09 260 08:21 05.02.2022
5520 Clear 7 1015 70 10000 2.06 250 06:58 05.02.2022
5521 Clear 5 1014 75 10000 2.57 230 05:38 05.02.2022
5522 Clear 8 1012 71 10000 1.54 250 01:40 05.02.2022
5523 Clear 8 1012 71 10000 1.54 250 01:18 05.02.2022
5524 Clear 10 1011 66 10000 2.06 250 23:59 04.02.2022
5525 Clear 10 1011 66 10000 2.06 250 23:33 04.02.2022
5526 Clear 11 1011 66 10000 3.09 230 22:18 04.02.2022
5527 Clouds 12 1012 62 10000 2.57 250 21:36 04.02.2022
5528 Clouds 12 1012 62 10000 2.57 250 21:18 04.02.2022
5529 Clouds 13 1011 58 10000 2.57 220 20:21 04.02.2022
5530 Clouds 15 1011 47 10000 8.23 280 18:27 04.02.2022
5531 Clouds 17 1008 42 10000 8.23 300 15:55 04.02.2022
5532 Dust 18 1007 42 4000 8.75 300 14:56 04.02.2022
5533 Dust 18 1007 42 4000 8.75 300 14:24 04.02.2022
5534 Clear 19 1007 37 9000 3.09 320 12:43 04.02.2022
5535 Clear 18 1007 45 10000 4.12 270 11:43 04.02.2022
5536 Clear 17 1008 45 10000 5.66 240 10:48 04.02.2022
5537 Clear 16 1009 51 10000 6.17 170 08:50 04.02.2022
5538 Clouds 13 1009 58 10000 3.09 160 06:58 04.02.2022
5539 Clouds 14 1009 54 10000 7.2 140 02:51 04.02.2022
5540 Clouds 13 1010 58 10000 6.17 130 01:56 04.02.2022
5541 Clear 13 1011 58 10000 5.66 130 23:31 03.02.2022
5542 Clouds 15 1012 47 10000 6.69 130 22:48 03.02.2022
5543 Clouds 15 1012 47 10000 6.17 130 21:50 03.02.2022
5544 Clouds 16 1012 44 10000 6.17 130 20:43 03.02.2022
5545 Clouds 16 1012 44 10000 6.17 130 20:20 03.02.2022
5546 Clouds 11 1016 54 8000 3.09 310 19:34 03.02.2022
5547 Clouds 18 1013 34 10000 7.2 140 18:44 03.02.2022
5548 Clouds 18 1013 34 10000 7.2 140 17:42 03.02.2022
5549 Clouds 18 1013 34 10000 6.17 130 16:35 03.02.2022
5550 Clouds 19 1014 32 10000 7.2 130 14:54 03.02.2022
5551 Clouds 18 1015 34 10000 8.23 130 13:18 03.02.2022
5552 Clouds 17 1017 42 10000 6.69 120 11:43 03.02.2022
5553 Clouds 13 1021 54 6000 3.09 70 08:38 03.02.2022
5554 Mist 10 1021 66 3600 3.09 90 07:20 03.02.2022
5555 Clear 6 1022 81 10000 0.51 0 00:33 03.02.2022
5556 Clear 6 1022 93 10000 1.03 330 23:45 02.02.2022
5557 Clear 7 1023 87 10000 1.03 300 22:35 02.02.2022
5558 Clear 8 1023 71 10000 1.54 310 21:37 02.02.2022
5559 Clear 8 1023 71 10000 1.54 310 21:37 02.02.2022
5560 Clear 9 1023 71 10000 2.06 320 20:53 02.02.2022
5561 Clear 9 1024 66 10000 1.54 280 19:59 02.02.2022
5562 Clear 9 1024 66 10000 1.54 280 19:32 02.02.2022
5563 Clear 12 1023 54 10000 2.06 260 18:50 02.02.2022
5564 Clear 12 1023 54 10000 2.06 260 18:22 02.02.2022
5565 Clear 12 1023 54 10000 1.03 310 17:20 02.02.2022
5566 Clear 14 1022 47 10000 2.06 320 16:46 02.02.2022
5567 Clear 17 1023 36 10000 3.09 290 13:57 02.02.2022
5568 Clear 17 1024 39 10000 4.63 300 12:25 02.02.2022
5569 Clear 16 1024 51 10000 4.12 310 11:34 02.02.2022
5570 Clear 15 1025 58 10000 4.63 300 10:38 02.02.2022
5571 Clouds 8 1026 100 7000 2.06 300 07:40 02.02.2022
5572 Clear 7 1024 100 10000 1.54 290 22:52 01.02.2022
5573 Clear 8 1024 87 10000 1.54 290 21:52 01.02.2022
5574 Clear 9 1024 76 10000 1.54 250 20:36 01.02.2022
5575 Clear 12 1023 66 10000 2.57 280 17:59 01.02.2022
5576 Clear 12 1022 66 10000 2.57 300 16:42 01.02.2022
5577 Clouds 15 1021 55 10000 5.14 340 14:49 01.02.2022
5578 Clouds 14 1020 58 10000 7.2 350 12:47 01.02.2022
5579 Clouds 14 1020 62 10000 6.17 340 11:34 01.02.2022
5580 Clouds 8 1018 100 10000 3.09 340 05:43 01.02.2022
5581 Clear 9 1014 93 10000 3.6 360 23:51 31.01.2022
5582 Clear 9 1014 93 10000 3.6 360 23:28 31.01.2022
5583 Clouds 9 1014 100 8000 4.63 350 22:26 31.01.2022
5584 Clouds 9 1015 93 10000 5.14 340 21:33 31.01.2022
5585 Clouds 10 1015 81 10000 5.14 20 20:33 31.01.2022
5586 Clouds 10 1016 87 10000 2.57 340 19:46 31.01.2022
5587 Clouds 11 1016 62 8000 1.54 250 18:29 31.01.2022
5588 Clouds 13 1015 44 10000 3.09 130 17:46 31.01.2022
5589 Clouds 15 1014 31 10000 1.54 0 16:48 31.01.2022
5590 Clouds 16 1014 25 10000 1.54 20 15:44 31.01.2022
5591 Clouds 15 1015 27 10000 3.53 46 14:25 31.01.2022
5592 Clouds 15 1016 27 10000 3.32 46 12:51 31.01.2022
5593 Clouds 15 1016 27 10000 2.8 48 11:59 31.01.2022
5594 Clouds 15 1017 29 10000 3.34 35 10:52 31.01.2022
5595 Clouds 15 1017 29 10000 3.34 35 10:34 31.01.2022
5596 Clear 16 1019 23 10000 4.12 70 09:34 31.01.2022
5597 Clouds 15 1020 29 9000 3.6 30 08:52 31.01.2022
5598 Clouds 15 1020 29 9000 3.6 30 08:20 31.01.2022
5599 Clear 4 1020 65 10000 0.51 160 06:36 31.01.2022
5600 Clear 4 1020 75 10000 1.03 50 05:24 31.01.2022
5601 Clear 7 1021 65 10000 1.54 10 23:30 30.01.2022
5602 Clear 7 1021 70 10000 1.54 20 22:30 30.01.2022
5603 Clear 7 1022 57 10000 1.03 350 21:44 30.01.2022
5604 Clear 7 1022 57 10000 1.03 350 21:21 30.01.2022
5605 Clear 8 1022 57 10000 1.54 350 20:50 30.01.2022
5606 Clear 8 1022 57 10000 1.54 350 20:30 30.01.2022
5607 Clear 11 1022 50 10000 2.06 360 19:54 30.01.2022
5608 Clear 11 1021 50 10000 2.06 340 18:51 30.01.2022
5609 Clear 11 1021 50 10000 2.06 340 18:21 30.01.2022
5610 Clear 12 1021 47 10000 2.57 340 17:30 30.01.2022
5611 Clouds 14 1021 41 10000 2.06 340 16:42 30.01.2022
5612 Clouds 14 1021 41 10000 2.06 340 16:22 30.01.2022
5613 Clouds 16 1020 31 10000 4.63 320 15:54 30.01.2022
5614 Clouds 16 1020 31 10000 4.63 320 15:32 30.01.2022
5615 Clouds 18 1021 27 10000 3.09 240 14:47 30.01.2022
5616 Clouds 18 1021 29 10000 4.12 250 13:37 30.01.2022
5617 Clear 18 1021 29 10000 2.06 270 12:41 30.01.2022
5618 Clear 17 1022 34 10000 2.06 110 10:39 30.01.2022
5619 Clear 15 1023 44 5000 0.51 0 09:58 30.01.2022
5620 Clear 15 1023 44 5000 0.51 0 09:21 30.01.2022
5621 Clear 9 1024 61 5000 1.03 0 07:57 30.01.2022
5622 Clear 4 1023 81 8000 2.06 270 02:44 30.01.2022
5623 Clear 5 1023 81 9000 0 0 01:52 30.01.2022
5624 Clear 4 1023 75 10000 1.03 290 23:46 29.01.2022
5625 Clear 6 1024 65 10000 2.06 140 22:50 29.01.2022
5626 Clear 7 1024 65 10000 1.54 330 21:29 29.01.2022
5627 Clear 8 1024 57 10000 1.03 330 20:53 29.01.2022
5628 Clear 7 1023 57 10000 1.03 330 19:51 29.01.2022
5629 Clear 7 1023 57 10000 1.03 330 19:30 29.01.2022
5630 Clear 10 1023 53 10000 1.54 330 18:43 29.01.2022
5631 Clear 12 1023 47 10000 2.06 280 17:46 29.01.2022
5632 Clouds 15 1023 38 10000 2.06 260 16:44 29.01.2022
5633 Clouds 16 1022 36 10000 2.57 290 15:25 29.01.2022
5634 Clouds 17 1022 34 10000 4.63 280 13:48 29.01.2022
5635 Clouds 17 1022 34 10000 4.63 280 13:26 29.01.2022
5636 Clouds 16 1022 36 10000 2.06 200 12:52 29.01.2022
5637 Clouds 15 1023 38 10000 4.12 190 11:39 29.01.2022
5638 Clouds 14 1023 47 10000 5.66 160 10:32 29.01.2022
5639 Clear 11 1024 54 10000 3.6 120 07:57 29.01.2022
5640 Clouds 6 1023 61 9000 0.51 70 01:38 29.01.2022
5641 Clouds 6 1023 70 9000 1.54 70 00:31 29.01.2022
5642 Clear 6 1023 61 10000 1.03 100 23:29 28.01.2022
5643 Clouds 10 1023 45 10000 1.48 38 22:46 28.01.2022
5644 Clouds 10 1023 44 10000 1.31 22 22:19 28.01.2022
5645 Clear 7 1024 57 10000 0.51 0 20:41 28.01.2022
5646 Clear 9 1024 49 10000 1.03 240 19:56 28.01.2022
5647 Clear 9 1024 49 10000 1.54 10 18:52 28.01.2022
5648 Clear 9 1024 46 10000 0 0 17:52 28.01.2022
5649 Clear 14 1023 35 10000 2.57 250 15:50 28.01.2022
5650 Clear 14 1023 35 10000 3.6 220 14:46 28.01.2022
5651 Clouds 14 1023 38 10000 3.6 240 12:41 28.01.2022
5652 Clear 14 1024 38 10000 3.6 260 11:43 28.01.2022
5653 Clear 13 1025 47 10000 1.54 0 10:26 28.01.2022
5654 Clear 12 1025 50 10000 1.54 230 09:46 28.01.2022
5655 Clear 8 1025 57 10000 3.09 250 07:41 28.01.2022
5656 Clear 2 1023 75 10000 1.03 230 05:31 28.01.2022
5657 Clear 3 1022 70 10000 1.54 270 03:50 28.01.2022
5658 Clear 5 1021 65 10000 2.06 290 02:24 28.01.2022
5659 Clear 7 1021 57 10000 2.57 280 01:35 28.01.2022
5660 Clear 7 1021 57 7000 2.06 260 00:39 28.01.2022
5661 Dust 9 1020 49 3800 3.6 240 22:18 27.01.2022
5662 Dust 9 1019 46 4000 2.57 230 21:34 27.01.2022
5663 Dust 11 1019 40 4400 2.06 230 20:58 27.01.2022
5664 Dust 12 1018 40 4800 2.57 240 19:37 27.01.2022
5665 Dust 11 1018 46 3500 2.57 200 18:18 27.01.2022
5666 Dust 14 1016 38 3500 2.57 200 16:45 27.01.2022
5667 Dust 15 1015 33 4000 6.17 240 13:48 27.01.2022
5668 Clouds 15 1014 33 6000 6.69 260 12:48 27.01.2022
5669 Clouds 15 1015 36 10000 6.69 250 11:24 27.01.2022
5670 Clouds 12 1016 47 10000 6.69 250 09:47 27.01.2022
5671 Clouds 10 1015 50 10000 5.66 220 08:39 27.01.2022
5672 Clouds 8 1015 49 10000 4.63 240 07:23 27.01.2022
5673 Clear 7 1011 57 10000 3.6 220 02:59 27.01.2022
5674 Clear 7 1010 57 10000 2.57 200 00:23 27.01.2022
5675 Clear 10 1011 37 7000 5.14 260 22:27 26.01.2022
5676 Clear 11 1010 46 10000 4.12 170 21:42 26.01.2022
5677 Clear 10 1010 46 10000 3.6 120 20:42 26.01.2022
5678 Clear 10 1010 46 10000 3.6 120 20:24 26.01.2022
5679 Clear 12 1010 50 10000 1.54 90 19:28 26.01.2022
5680 Clear 13 1010 41 10000 1.54 120 18:46 26.01.2022
5681 Clear 16 1010 36 10000 2.06 110 17:53 26.01.2022
5682 Clear 16 1010 36 10000 2.06 110 17:32 26.01.2022
5683 Clear 16 1010 36 10000 2.06 100 16:46 26.01.2022
5684 Clouds 18 1010 29 10000 3.09 110 15:50 26.01.2022
5685 Clear 20 1010 26 10000 4.12 110 14:30 26.01.2022
5686 Clear 19 1013 30 10000 4.63 120 11:59 26.01.2022
5687 Clear 18 1014 32 10000 3.6 80 10:49 26.01.2022
5688 Clouds 16 1016 36 9000 3.09 90 09:50 26.01.2022
5689 Haze 14 1017 44 4700 2.06 110 08:32 26.01.2022
5690 Clear 4 1018 65 10000 1.03 0 06:27 26.01.2022
5691 Clear 4 1018 65 10000 1.03 0 06:27 26.01.2022
5692 Clear 4 1018 65 10000 1.03 0 06:27 26.01.2022
5693 Clear 5 1018 75 9000 1.03 360 00:21 26.01.2022
5694 Clear 5 1019 70 10000 1.03 320 23:34 25.01.2022
5695 Clear 6 1019 65 10000 0 0 22:48 25.01.2022
5696 Clear 6 1019 65 10000 0 0 22:18 25.01.2022
5697 Clear 7 1019 57 10000 1.03 280 21:23 25.01.2022
5698 Clear 8 1020 57 8000 1.54 290 20:45 25.01.2022
5699 Clear 10 1020 50 10000 1.03 320 19:54 25.01.2022
5700 Clear 11 1020 46 10000 2.06 320 18:50 25.01.2022
5701 Clear 12 1020 40 10000 2.57 280 17:47 25.01.2022
5702 Clear 12 1020 40 10000 2.57 280 17:18 25.01.2022
5703 Clear 15 1020 33 10000 2.06 270 16:34 25.01.2022
5704 Clear 15 1020 32 10000 2.93 3 15:39 25.01.2022
5705 Clear 19 1019 26 10000 3.6 250 14:58 25.01.2022
5706 Clear 19 1019 26 10000 3.6 250 14:38 25.01.2022
5707 Clear 18 1020 32 10000 2.57 230 11:30 25.01.2022
5708 Clear 16 1022 33 10000 1.54 160 09:21 25.01.2022
5709 Clear 9 1022 46 9000 1.03 200 07:46 25.01.2022
5710 Haze 6 1022 56 3500 1.03 0 06:54 25.01.2022
5711 Smoke 4 1022 65 3800 1.03 130 05:23 25.01.2022
5712 Smoke 5 1022 60 5000 2.06 220 00:28 25.01.2022
5713 Smoke 5 1021 60 5000 1.03 10 23:36 24.01.2022
5714 Smoke 5 1021 60 5000 1.03 10 23:18 24.01.2022
5715 Smoke 5 1021 60 5000 1.03 10 23:18 24.01.2022
5716 Clear 6 1022 56 10000 0 0 22:42 24.01.2022
5717 Clear 7 1021 53 10000 1.03 0 21:57 24.01.2022
5718 Clear 7 1021 53 10000 1.03 0 21:32 24.01.2022
5719 Clear 8 1021 66 10000 1.54 100 20:34 24.01.2022
5720 Clear 9 1021 46 10000 1.03 150 19:58 24.01.2022
5721 Clear 9 1021 46 10000 1.03 150 19:37 24.01.2022
5722 Clear 10 1021 43 10000 0.51 0 18:37 24.01.2022
5723 Clear 11 1020 37 10000 0.51 0 17:24 24.01.2022
5724 Clear 13 1020 35 10000 1.03 220 16:58 24.01.2022
5725 Clear 13 1020 35 10000 1.03 220 16:58 24.01.2022
5726 Clear 13 1020 35 10000 1.03 220 16:58 24.01.2022
5727 Clear 13 1020 35 10000 1.03 220 16:30 24.01.2022
5728 Clear 18 1019 25 10000 2.06 180 14:54 24.01.2022
5729 Clear 18 1018 25 10000 2.57 220 13:38 24.01.2022
5730 Clear 18 1019 25 10000 2.57 220 12:32 24.01.2022
5731 Clear 16 1019 27 10000 3.09 180 11:21 24.01.2022
5732 Clear 15 1020 22 10000 1.91 160 09:50 24.01.2022
5733 Clear 13 1020 24 10000 2.01 156 09:25 24.01.2022
5734 Clear 8 1020 46 10000 3.6 110 07:28 24.01.2022
5735 Clear 6 1019 56 10000 2.06 70 01:34 24.01.2022
5736 Clouds 5 1019 52 7000 1.54 80 00:47 24.01.2022
5737 Clouds 5 1019 52 7000 1.54 80 00:28 24.01.2022
5738 Clouds 5 1019 56 7000 1.54 60 22:46 23.01.2022
5739 Clouds 5 1019 65 8000 1.54 80 21:51 23.01.2022
5740 Clear 5 1019 65 8000 1.54 80 21:27 23.01.2022
5741 Clear 6 1019 61 10000 1.54 70 20:54 23.01.2022
5742 Clear 6 1019 61 10000 1.54 70 20:21 23.01.2022
5743 Clear 7 1019 49 10000 1.54 150 18:53 23.01.2022
5744 Clear 9 1019 43 10000 1.03 160 17:56 23.01.2022
5745 Clear 11 1018 40 10000 2.57 110 16:55 23.01.2022
5746 Clear 13 1018 33 10000 3.6 110 15:45 23.01.2022
5747 Clear 14 1018 30 10000 4.12 100 14:48 23.01.2022
5748 Clear 14 1018 30 10000 4.12 100 14:18 23.01.2022
5749 Clear 14 1019 33 8000 2.06 0 12:44 23.01.2022
5750 Clear 14 1019 33 8000 2.06 0 12:19 23.01.2022
5751 Dust 13 1020 35 5000 3.09 80 11:25 23.01.2022
5752 Clear 12 1021 40 6000 1.54 0 10:57 23.01.2022
5753 Clear 12 1021 40 6000 1.54 0 10:24 23.01.2022
5754 Haze 11 1022 40 4000 1.54 70 09:26 23.01.2022
5755 Clear 9 1022 46 6000 1.03 0 08:33 23.01.2022
5756 Clear -1 1021 100 10000 0.51 320 03:34 23.01.2022
5757 Clear 0 1022 80 10000 1.03 0 01:37 23.01.2022
5758 Clear 0 1022 86 10000 0.51 290 00:47 23.01.2022
5759 Clear 2 1023 75 10000 1.03 290 23:59 22.01.2022
5760 Clear 1 1023 69 10000 1.03 270 22:53 22.01.2022
5761 Clear 1 1023 69 10000 1.03 270 22:19 22.01.2022
5762 Clear 2 1023 69 10000 2.06 310 20:33 22.01.2022
5763 Clear 7 1023 45 10000 2.57 3 19:46 22.01.2022
5764 Clear 8 1023 44 10000 2.79 3 18:38 22.01.2022
5765 Clear 8 1023 49 10000 2.06 320 17:47 22.01.2022
5766 Clear 8 1023 49 10000 2.06 320 17:25 22.01.2022
5767 Clear 9 1023 40 10000 3.37 360 16:54 22.01.2022
5768 Clear 11 1023 40 10000 4.63 330 15:45 22.01.2022
5769 Clear 12 1023 35 10000 5.14 320 14:55 22.01.2022
5770 Clear 12 1023 35 10000 5.14 320 13:31 22.01.2022
5771 Clear 12 1024 37 10000 5.14 300 12:40 22.01.2022
5772 Clear 12 1024 37 10000 5.14 300 12:20 22.01.2022
5773 Clear 9 1026 40 10000 5.14 300 10:54 22.01.2022
5774 Clear 9 1026 40 10000 5.14 300 10:25 22.01.2022
5775 Clear 8 1026 46 10000 3.6 330 09:25 22.01.2022
5776 Clear 6 1027 52 10000 3.09 330 08:50 22.01.2022
5777 Clear -1 1027 80 7000 2.06 300 06:56 22.01.2022
5778 Clear -1 1027 74 10000 2.06 310 03:26 22.01.2022
5779 Clear 0 1028 69 10000 2.57 310 00:31 22.01.2022
5780 Clear 0 1029 64 10000 2.06 290 23:21 21.01.2022
5781 Clear 1 1029 60 10000 2.06 290 22:19 21.01.2022
5782 Clear 2 1029 48 10000 1.03 280 19:52 21.01.2022
5783 Clear 4 1029 41 10000 2.57 300 18:21 21.01.2022
5784 Clear 6 1029 33 10000 3.6 300 16:58 21.01.2022
5785 Clear 9 1029 27 10000 5.14 310 15:26 21.01.2022
5786 Clear 10 1030 32 10000 5.66 290 12:53 21.01.2022
5787 Clear 9 1030 40 10000 4.63 270 11:42 21.01.2022
5788 Clear 9 1030 40 10000 4.63 270 11:23 21.01.2022
5789 Clear 7 1031 49 10000 4.12 290 09:34 21.01.2022
5790 Clear 5 1032 60 9000 3.09 280 08:21 21.01.2022
5791 Clear -1 1029 69 9000 2.57 280 04:37 21.01.2022
5792 Dust 3 1028 48 5000 3.09 250 23:19 20.01.2022
5793 Dust 5 1027 42 4100 3.6 260 21:50 20.01.2022
5794 Dust 5 1027 42 4100 3.6 260 21:31 20.01.2022
5795 Dust 6 1027 36 4400 3.6 260 20:21 20.01.2022
5796 Dust 6 1026 36 4300 4.63 260 19:19 20.01.2022
5797 Dust 7 1024 29 3500 6.17 260 17:46 20.01.2022
5798 Dust 8 1024 27 4000 6.17 270 16:35 20.01.2022
5799 Dust 8 1023 25 1800 8.75 280 15:40 20.01.2022
5800 Dust 9 1023 25 2600 7.72 280 14:40 20.01.2022
5801 Clear 9 1022 25 10000 8.75 280 13:32 20.01.2022
5802 Clouds 9 1022 27 10000 8.23 260 12:31 20.01.2022
5803 Clouds 9 1022 34 10000 7.2 250 11:36 20.01.2022
5804 Clouds 8 1022 46 10000 6.69 270 10:37 20.01.2022
5805 Clouds 8 1022 42 10000 7.72 270 09:29 20.01.2022
5806 Clouds 7 1021 61 10000 6.17 270 07:24 20.01.2022
5807 Clouds 8 1016 53 10000 6.69 150 00:41 20.01.2022
5808 Clouds 9 1016 37 10000 8.75 170 22:52 19.01.2022
5809 Clouds 8 1016 39 10000 8.23 150 21:45 19.01.2022
5810 Clouds 8 1016 39 10000 8.23 150 21:22 19.01.2022
5811 Clouds 10 1017 23 10000 8.67 150 20:46 19.01.2022
5812 Clouds 8 1017 42 10000 7.72 140 19:27 19.01.2022
5813 Clear 8 1018 42 10000 5.66 120 17:55 19.01.2022
5814 Clear 8 1018 42 10000 5.66 120 17:35 19.01.2022
5815 Clear 9 1017 40 10000 5.66 130 16:27 19.01.2022
5816 Clouds 13 1019 28 10000 7.72 150 13:42 19.01.2022
5817 Clouds 12 1019 32 10000 7.2 150 12:24 19.01.2022
5818 Clouds 12 1020 30 10000 6.69 150 11:39 19.01.2022
5819 Clouds 11 1022 37 10000 5.66 140 10:20 19.01.2022
5820 Clouds 9 1023 49 10000 5.66 150 09:33 19.01.2022
5821 Mist 1 1023 93 4000 3.09 100 06:35 19.01.2022
5822 Clear 0 1023 100 10000 1.54 50 01:55 19.01.2022
5823 Clear 1 1024 86 10000 0 0 23:19 18.01.2022
5824 Clear 1 1024 93 10000 1.03 280 22:18 18.01.2022
5825 Clear 3 1025 75 10000 1.03 270 20:55 18.01.2022
5826 Clear 4 1025 70 10000 2.06 260 19:54 18.01.2022
5827 Clear 4 1025 70 10000 2.06 260 19:36 18.01.2022
5828 Clear 5 1025 65 10000 2.06 300 18:38 18.01.2022
5829 Clear 6 1025 61 10000 2.57 300 17:57 18.01.2022
5830 Clear 7 1025 57 10000 2.57 300 16:38 18.01.2022
5831 Clouds 10 1025 43 10000 4.63 320 15:40 18.01.2022
5832 Clouds 10 1025 43 10000 4.63 320 15:20 18.01.2022
5833 Clear 10 1025 46 10000 4.12 310 12:30 18.01.2022
5834 Clear 9 1026 61 10000 3.6 310 10:46 18.01.2022
5835 Clear 5 1027 75 10000 3.6 300 08:49 18.01.2022
5836 Clear 3 1027 75 10000 2.06 280 07:46 18.01.2022
5837 Clear 1 1024 69 10000 2.57 260 02:32 18.01.2022
5838 Clear 3 1022 65 10000 3.6 230 23:22 17.01.2022
5839 Clear 3 1022 70 10000 3.6 220 22:23 17.01.2022
5840 Clear 3 1022 70 10000 2.57 220 21:33 17.01.2022
5841 Clear 5 1021 70 10000 2.57 200 19:57 17.01.2022
5842 Clear 5 1021 65 10000 1.03 0 18:29 17.01.2022
5843 Clear 6 1020 65 10000 1.03 320 17:25 17.01.2022
5844 Clouds 7 1019 57 10000 2.06 340 16:35 17.01.2022
5845 Clouds 9 1019 49 10000 3.6 290 14:59 17.01.2022
5846 Clouds 9 1019 49 10000 3.6 290 14:33 17.01.2022
5847 Clouds 9 1019 46 10000 4.12 290 13:20 17.01.2022
5848 Clouds 9 1018 46 10000 5.66 300 12:55 17.01.2022
5849 Clear 9 1018 49 10000 5.14 300 11:48 17.01.2022
5850 Clouds 8 1019 66 10000 4.12 260 10:21 17.01.2022
5851 Clouds 7 1019 70 10000 4.63 250 09:33 17.01.2022
5852 Clouds 8 1017 76 10000 3.09 260 07:22 17.01.2022
5853 Drizzle 8 1014 100 10000 1.54 320 02:54 17.01.2022
5854 Clouds 9 1014 100 10000 2.06 270 00:54 17.01.2022
5855 Clouds 9 1014 93 10000 2.06 290 22:18 16.01.2022
5856 Clouds 9 1013 93 10000 4.12 320 20:34 16.01.2022
5857 Clouds 10 1011 93 10000 5.66 350 18:51 16.01.2022
5858 Clouds 11 1011 93 10000 6.69 310 17:57 16.01.2022
5859 Clouds 14 1010 62 10000 5.66 280 16:59 16.01.2022
5860 Clouds 14 1010 62 10000 5.66 280 16:29 16.01.2022
5861 Clouds 17 1009 42 10000 5.66 190 14:30 16.01.2022
5862 Clouds 17 1009 42 10000 6.69 190 13:45 16.01.2022
5863 Clouds 17 1009 42 10000 5.14 190 12:44 16.01.2022
5864 Clouds 16 1009 44 10000 4.63 210 11:40 16.01.2022
5865 Clear 15 1011 51 10000 5.66 200 10:46 16.01.2022
5866 Clear 14 1011 51 10000 4.12 200 09:59 16.01.2022
5867 Clear 14 1011 51 10000 4.12 200 09:40 16.01.2022
5868 Clear 14 1011 51 10000 4.12 200 09:22 16.01.2022
5869 Clouds 10 1011 62 10000 4.63 230 07:25 16.01.2022
5870 Clear 8 1008 61 10000 3.09 150 00:38 16.01.2022
5871 Clear 8 1008 57 10000 2.57 150 23:34 15.01.2022
5872 Clear 10 1009 50 10000 1.54 130 21:23 15.01.2022
5873 Clear 10 1010 50 10000 1.54 0 20:56 15.01.2022
5874 Clear 10 1010 50 10000 1.54 0 20:36 15.01.2022
5875 Clouds 12 1009 43 10000 3.6 100 19:28 15.01.2022
5876 Clouds 11 1009 43 10000 2.57 120 18:31 15.01.2022
5877 Clouds 14 1009 35 10000 1.03 0 16:52 15.01.2022
5878 Clouds 16 1009 31 10000 2.06 210 15:39 15.01.2022
5879 Clear 16 1009 31 10000 2.57 220 13:39 15.01.2022
5880 Clear 16 1010 29 10000 1.54 0 11:46 15.01.2022
5881 Clouds 14 1011 44 10000 2.57 320 10:24 15.01.2022
5882 Clouds 8 1010 81 10000 3.09 290 05:27 15.01.2022
5883 Clear 10 1009 76 10000 1.03 0 23:44 14.01.2022
5884 Clear 8 1009 61 10000 0 0 21:37 14.01.2022
5885 Clear 10 1009 76 10000 0.51 0 20:37 14.01.2022
5886 Clear 12 1009 71 10000 1.03 340 19:57 14.01.2022
5887 Clear 14 1009 58 10000 3.6 300 18:46 14.01.2022
5888 Clear 15 1008 51 10000 2.06 240 17:54 14.01.2022
5889 Clouds 16 1008 48 10000 2.06 240 16:47 14.01.2022
5890 Clouds 18 1007 42 10000 2.06 270 15:33 14.01.2022
5891 Clouds 18 1007 42 10000 2.06 270 15:33 14.01.2022
5892 Clouds 19 1007 39 10000 3.6 300 14:30 14.01.2022
5893 Clouds 19 1007 42 10000 3.09 250 13:27 14.01.2022
5894 Clouds 17 1007 59 9000 3.6 250 12:20 14.01.2022
5895 Haze 16 1009 77 2500 3.09 240 10:46 14.01.2022
5896 Haze 15 1010 77 3100 4.12 230 08:54 14.01.2022
5897 Haze 14 1010 77 6000 3.6 180 07:56 14.01.2022
5898 Clear 13 1010 71 10000 2.06 150 03:50 14.01.2022
5899 Clouds 16 1010 63 10000 6.69 140 00:44 14.01.2022
5900 Clouds 16 1012 63 10000 5.66 140 21:57 13.01.2022
5901 Clouds 16 1012 63 10000 5.66 140 21:30 13.01.2022
5902 Clouds 16 1012 67 9000 5.14 130 20:54 13.01.2022
5903 Clouds 16 1012 72 8000 5.14 130 19:32 13.01.2022
5904 Clouds 17 1011 72 6000 6.69 120 18:51 13.01.2022
5905 Clouds 17 1012 72 7000 4.12 120 17:23 13.01.2022
5906 Clouds 19 1012 63 10000 5.66 140 16:18 13.01.2022
5907 Clouds 20 1011 60 10000 5.14 140 15:31 13.01.2022
5908 Clouds 22 1012 53 10000 3.6 190 13:47 13.01.2022
5909 Clouds 22 1012 53 10000 6.17 180 12:20 13.01.2022
5910 Clouds 20 1014 56 7000 7.72 150 09:38 13.01.2022
5911 Haze 19 1015 63 4000 7.72 150 08:54 13.01.2022
5912 Haze 19 1015 63 4000 7.72 150 08:24 13.01.2022
5913 Haze 16 1015 72 4400 4.12 140 07:21 13.01.2022
5914 Mist 14 1015 82 6000 5.14 110 05:57 13.01.2022
5915 Mist 14 1015 82 6000 5.14 110 05:18 13.01.2022
5916 Mist 13 1016 88 4800 3.09 110 01:49 13.01.2022
5917 Mist 15 1016 77 5000 4.12 100 23:54 12.01.2022
5918 Mist 15 1016 77 5000 4.12 100 23:35 12.01.2022
5919 Clouds 17 1017 59 10000 3.69 138 22:57 12.01.2022
5920 Mist 14 1017 82 3700 2.57 110 21:56 12.01.2022
5921 Mist 14 1017 82 3700 2.57 110 21:21 12.01.2022
5922 Mist 14 1018 94 3900 1.54 100 20:56 12.01.2022
5923 Mist 14 1018 94 4700 0 0 19:35 12.01.2022
5924 Mist 15 1018 82 4600 0 0 18:29 12.01.2022
5925 Mist 17 1018 67 7000 1.03 150 16:59 12.01.2022
5926 Mist 17 1018 67 7000 1.03 150 16:26 12.01.2022
5927 Clear 21 1018 52 6000 3.09 120 14:48 12.01.2022
5928 Haze 20 1018 60 4600 3.6 140 12:58 12.01.2022
5929 Mist 18 1019 72 2500 2.57 180 10:38 12.01.2022
5930 Mist 16 1021 77 2400 4.63 140 08:37 12.01.2022
5931 Mist 15 1021 82 2400 5.66 130 07:34 12.01.2022
5932 Mist 13 1021 94 1800 4.63 130 06:49 12.01.2022
5933 Clear 12 1020 71 10000 3.09 130 23:40 11.01.2022
5934 Clear 13 1020 67 10000 4.12 140 22:49 11.01.2022
5935 Clear 13 1020 67 10000 4.12 140 22:22 11.01.2022
5936 Clear 14 1019 58 10000 3.6 130 20:51 11.01.2022
5937 Clear 16 1019 55 10000 4.12 120 19:48 11.01.2022
5938 Clouds 16 1019 55 10000 3.6 130 18:31 11.01.2022
5939 Clouds 17 1019 55 10000 4.12 130 17:24 11.01.2022
5940 Clouds 17 1019 59 10000 3.65 126 16:37 11.01.2022
5941 Clouds 18 1018 63 10000 2.57 120 15:39 11.01.2022
5942 Clouds 19 1018 59 9000 4.63 150 14:42 11.01.2022
5943 Clouds 19 1018 59 6000 4.63 150 13:55 11.01.2022
5944 Clouds 19 1018 59 6000 4.63 150 13:35 11.01.2022
5945 Haze 18 1018 68 4000 6.17 150 12:43 11.01.2022
5946 Haze 17 1019 67 4000 5.14 150 11:43 11.01.2022
5947 Haze 17 1020 63 4000 7.72 140 09:39 11.01.2022
5948 Haze 15 1019 67 3000 6.17 130 07:18 11.01.2022
5949 Clouds 14 1017 72 6000 5.14 130 00:32 11.01.2022
5950 Clouds 14 1017 72 7000 5.14 130 23:43 10.01.2022
5951 Clouds 14 1017 72 7000 5.14 130 23:24 10.01.2022
5952 Clouds 14 1017 67 9000 4.63 130 22:19 10.01.2022
5953 Clouds 14 1017 67 10000 4.63 140 21:54 10.01.2022
5954 Clouds 14 1017 67 10000 4.63 140 21:21 10.01.2022
5955 Clouds 15 1017 58 10000 4.12 130 20:57 10.01.2022
5956 Clouds 15 1017 58 10000 4.12 130 20:28 10.01.2022
5957 Clouds 15 1017 58 10000 4.12 120 19:44 10.01.2022
5958 Clouds 15 1017 58 10000 4.12 120 19:21 10.01.2022
5959 Clouds 15 1016 58 10000 3.6 130 18:49 10.01.2022
5960 Clouds 15 1016 58 10000 3.6 140 17:42 10.01.2022
5961 Clouds 15 1015 58 10000 3.6 120 16:42 10.01.2022
5962 Clouds 16 1015 59 9000 3.09 160 15:49 10.01.2022
5963 Clouds 17 1014 51 8000 4.63 150 14:34 10.01.2022
5964 Clouds 17 1013 51 8000 9.26 110 12:18 10.01.2022
5965 Haze 15 1014 58 6000 6.69 110 11:25 10.01.2022
5966 Clouds 15 1017 55 5000 4.12 120 09:52 10.01.2022
5967 Clouds 14 1017 58 5000 6.17 120 08:22 10.01.2022
5968 Clear 11 1017 62 10000 4.63 100 05:49 10.01.2022
5969 Clear 11 1016 62 10000 4.12 100 01:33 10.01.2022
5970 Clear 10 1017 57 10000 3.6 120 00:29 10.01.2022
5971 Clear 11 1016 54 10000 3.6 100 23:43 09.01.2022
5972 Clear 12 1017 50 10000 4.12 100 22:40 09.01.2022
5973 Clear 12 1018 50 10000 2.06 110 21:47 09.01.2022
5974 Clear 12 1018 50 10000 2.06 110 21:24 09.01.2022
5975 Clear 12 1018 50 10000 2.06 110 21:24 09.01.2022
5976 Clear 13 1018 50 10000 3.09 110 20:53 09.01.2022
5977 Clear 13 1018 50 10000 3.09 110 20:34 09.01.2022
5978 Clear 13 1018 50 10000 2.57 70 19:45 09.01.2022
5979 Clear 13 1018 50 10000 2.57 70 19:23 09.01.2022
5980 Clear 14 1018 47 10000 1.54 110 18:56 09.01.2022
5981 Clear 14 1018 47 10000 1.54 110 18:35 09.01.2022
5982 Clear 15 1018 44 10000 2.06 90 17:48 09.01.2022
5983 Clear 15 1018 44 10000 2.06 90 17:25 09.01.2022
5984 Clear 17 1018 39 10000 2.06 110 16:34 09.01.2022
5985 Clear 18 1018 34 10000 2.57 120 15:37 09.01.2022
5986 Clear 20 1018 30 10000 2.06 70 14:41 09.01.2022
5987 Clear 20 1018 30 10000 2.57 70 13:56 09.01.2022
5988 Clear 20 1018 30 10000 3.09 70 13:36 09.01.2022
5989 Clear 19 1019 30 10000 4.12 70 11:56 09.01.2022
5990 Clear 19 1019 30 10000 4.12 70 11:24 09.01.2022
5991 Clear 18 1021 39 10000 3.09 70 09:53 09.01.2022
5992 Haze 16 1022 51 3700 2.06 70 08:54 09.01.2022
5993 Mist 5 1022 87 4300 1.03 300 05:54 09.01.2022
5994 Clear 6 1021 70 10000 1.54 300 01:26 09.01.2022
5995 Mist 7 1020 65 7000 0.51 350 00:37 09.01.2022
5996 Clear 7 1020 81 8000 1.03 320 23:30 08.01.2022
5997 Clear 7 1021 76 10000 1.54 260 22:35 08.01.2022
5998 Clear 7 1021 70 10000 1.03 0 21:27 08.01.2022
5999 Clear 10 1021 62 10000 1.54 270 20:43 08.01.2022
6000 Clear 10 1021 62 10000 1.54 270 20:21 08.01.2022
6001 Clear 11 1021 58 10000 1.54 300 19:22 08.01.2022
6002 Clear 14 1021 51 10000 1.54 290 17:25 08.01.2022
6003 Clear 14 1021 51 10000 2.57 310 16:42 08.01.2022
6004 Clear 18 1021 42 10000 3.09 320 15:28 08.01.2022
6005 Clear 20 1020 37 10000 2.57 320 13:57 08.01.2022
6006 Clear 19 1021 42 10000 2.57 300 11:30 08.01.2022
6007 Clear 19 1022 42 10000 2.06 330 10:33 08.01.2022
6008 Clear 17 1023 45 9000 2.06 350 09:57 08.01.2022
6009 Clear 17 1023 45 9000 2.06 350 09:33 08.01.2022
6010 Mist 5 1022 81 2000 1.03 250 05:51 08.01.2022
6011 Mist 7 1021 76 3300 1.03 260 01:24 08.01.2022
6012 Mist 7 1021 93 4000 0.51 0 23:31 07.01.2022
6013 Clouds 9 1021 71 8000 1.03 260 21:49 07.01.2022
6014 Clear 10 1021 71 10000 0 0 20:32 07.01.2022
6015 Clear 11 1021 62 10000 0 0 19:27 07.01.2022
6016 Clear 11 1021 62 10000 0 0 19:27 07.01.2022
6017 Clear 13 1021 58 10000 1.03 320 18:49 07.01.2022
6018 Clear 13 1021 58 10000 1.03 320 18:21 07.01.2022
6019 Clear 13 1021 58 10000 1.03 350 17:23 07.01.2022
6020 Clouds 19 1020 42 10000 2.57 330 14:56 07.01.2022
6021 Clouds 19 1020 42 10000 2.57 280 13:52 07.01.2022
6022 Clear 19 1021 45 10000 2.57 260 12:51 07.01.2022
6023 Clear 19 1021 45 10000 2.57 250 11:22 07.01.2022
6024 Clear 4 1022 87 9000 1.54 290 04:54 07.01.2022
6025 Clear 5 1022 75 10000 1.03 300 02:53 07.01.2022
6026 Clear 7 1022 70 10000 2.57 250 01:49 07.01.2022
6027 Clear 7 1022 70 10000 2.57 250 01:26 07.01.2022
6028 Clear 7 1022 76 10000 1.03 360 00:31 07.01.2022
6029 Clear 7 1022 76 10000 1.03 360 00:31 07.01.2022
6030 Clear 8 1022 66 10000 2.06 290 22:33 06.01.2022
6031 Clear 10 1021 62 10000 2.57 290 20:51 06.01.2022
6032 Clear 10 1021 62 10000 2.57 290 20:18 06.01.2022
6033 Clear 11 1021 58 10000 3.09 290 19:38 06.01.2022
6034 Clear 13 1022 58 10000 3.6 290 17:52 06.01.2022
6035 Clear 13 1022 58 10000 3.6 290 17:27 06.01.2022
6036 Clear 14 1021 51 10000 4.12 300 16:38 06.01.2022
6037 Clear 16 1021 44 10000 4.63 300 15:44 06.01.2022
6038 Clear 16 1021 44 10000 4.63 300 15:23 06.01.2022
6039 Clear 17 1021 42 10000 6.69 310 14:20 06.01.2022
6040 Clear 18 1021 39 10000 6.69 310 13:41 06.01.2022
6041 Clear 17 1022 39 10000 6.69 310 12:28 06.01.2022
6042 Clear 16 1023 48 10000 6.17 290 11:41 06.01.2022
6043 Clear 16 1023 48 10000 6.17 290 11:19 06.01.2022
6044 Clear 7 1025 87 6000 3.6 290 06:59 06.01.2022
6045 Mist 5 1024 87 8000 3.09 300 00:35 06.01.2022
6046 Clear 6 1024 93 8000 3.09 280 23:35 05.01.2022
6047 Clear 6 1024 93 8000 3.09 280 23:35 05.01.2022
6048 Clear 5 1024 87 7000 3.09 310 22:50 05.01.2022
6049 Clear 5 1024 87 7000 3.09 310 22:29 05.01.2022
6050 Clear 5 1024 100 8000 2.57 320 21:44 05.01.2022
6051 Clear 7 1024 81 8000 2.06 290 20:44 05.01.2022
6052 Clear 9 1024 76 7000 2.57 310 19:53 05.01.2022
6053 Clear 9 1023 71 8000 3.09 300 18:27 05.01.2022
6054 Clear 12 1023 66 10000 2.06 320 16:59 05.01.2022
6055 Clear 12 1023 66 10000 2.06 320 16:22 05.01.2022
6056 Clear 15 1022 55 10000 4.12 330 15:20 05.01.2022
6057 Clear 17 1021 45 10000 4.12 340 13:38 05.01.2022
6058 Clouds 16 1021 44 8000 3.6 350 12:49 05.01.2022
6059 Mist 11 1023 82 2000 2.57 110 08:57 05.01.2022
6060 Mist 9 1022 100 1200 2.06 90 07:34 05.01.2022
6061 Mist 3 1020 100 1700 1.03 90 01:59 05.01.2022
6062 Mist 5 1020 100 2500 1.03 170 00:33 05.01.2022
6063 Mist 4 1020 93 2400 1.03 140 23:26 04.01.2022
6064 Mist 4 1020 93 1700 2.06 130 22:27 04.01.2022
6065 Fog 5 1021 100 900 1.03 120 20:50 04.01.2022
6066 Clouds 11 1020 54 10000 1.25 307 19:19 04.01.2022
6067 Mist 9 1021 93 4500 2.06 180 17:38 04.01.2022
6068 Mist 9 1021 93 4900 3.09 100 16:41 04.01.2022
6069 Mist 9 1021 93 4900 3.09 100 16:22 04.01.2022
6070 Clear 12 1021 76 3700 1.03 0 14:52 04.01.2022
6071 Clear 12 1021 76 3700 1.03 0 14:33 04.01.2022
6072 Mist 11 1021 87 2600 2.06 320 13:26 04.01.2022
6073 Mist 7 1022 93 500 2.57 250 10:40 04.01.2022
6074 Fog 6 1022 100 350 2.06 230 09:20 04.01.2022
6075 Fog 5 1022 93 200 2.06 270 08:25 04.01.2022
6076 Clear 3 1019 100 8000 2.57 310 01:51 04.01.2022
6077 Clear 3 1018 87 10000 2.06 290 00:40 04.01.2022
6078 Clear 5 1018 75 10000 3.09 290 22:51 03.01.2022
6079 Clear 6 1018 93 6000 1.54 280 21:42 03.01.2022
6080 Clear 6 1018 93 6000 1.54 280 21:24 03.01.2022
6081 Mist 6 1017 100 3700 1.03 0 19:47 03.01.2022
6082 Mist 8 1017 93 4200 0 0 18:34 03.01.2022
6083 Mist 9 1016 93 4700 1.03 290 17:40 03.01.2022
6084 Clear 9 1016 87 8000 1.03 0 16:58 03.01.2022
6085 Clouds 12 1014 76 7000 2.06 270 14:55 03.01.2022
6086 Clouds 12 1014 76 7000 2.06 270 14:29 03.01.2022
6087 Clouds 11 1014 93 8000 3.09 270 12:39 03.01.2022
6088 Clouds 9 1014 93 5000 2.06 250 11:34 03.01.2022
6089 Clouds 10 1014 76 7000 4.12 260 10:25 03.01.2022
6090 Clouds 11 1015 54 10000 3.09 330 08:47 03.01.2022
6091 Clouds 10 1014 53 10000 2.06 240 07:32 03.01.2022
6092 Clear 6 1013 70 10000 2.06 310 23:54 02.01.2022
6093 Clear 6 1013 70 10000 2.06 310 23:20 02.01.2022
6094 Clear 8 1013 61 10000 2.06 260 22:43 02.01.2022
6095 Clear 9 1013 57 10000 2.57 300 21:39 02.01.2022
6096 Clear 10 1013 57 10000 3.09 300 20:33 02.01.2022
6097 Clear 9 1013 57 10000 1.54 290 19:54 02.01.2022
6098 Clear 9 1013 57 10000 1.54 290 19:29 02.01.2022
6099 Clear 10 1013 53 10000 1.54 310 18:39 02.01.2022
6100 Clear 9 1013 57 10000 2.06 310 17:43 02.01.2022
6101 Clear 9 1013 57 10000 2.06 310 17:22 02.01.2022
6102 Clear 12 1012 47 10000 3.09 320 16:59 02.01.2022
6103 Clear 12 1012 47 10000 3.09 320 16:24 02.01.2022
6104 Clear 16 1012 33 10000 7.72 300 14:21 02.01.2022
6105 Clear 16 1012 39 10000 6.69 310 12:49 02.01.2022
6106 Clear 15 1013 41 10000 6.17 300 11:57 02.01.2022
6107 Clear 15 1013 41 10000 6.17 300 11:23 02.01.2022
6108 Haze 14 1014 51 3700 4.63 300 10:44 02.01.2022
6109 Clouds 9 1015 71 5000 5.14 320 08:46 02.01.2022
6110 Clouds 7 1016 70 8000 3.09 310 03:49 02.01.2022
6111 Clear 7 1017 65 10000 3.09 300 00:58 02.01.2022
6112 Clear 8 1018 71 10000 1.03 290 23:39 01.01.2022
6113 Clear 8 1018 71 10000 1.03 290 23:39 01.01.2022
6114 Clear 8 1018 66 10000 2.57 310 22:55 01.01.2022
6115 Clear 8 1018 66 10000 2.57 310 22:21 01.01.2022
6116 Clouds 9 1018 66 9000 3.09 310 21:43 01.01.2022
6117 Clear 10 1018 66 10000 1.54 300 20:53 01.01.2022
6118 Clouds 11 1019 66 10000 1.54 330 19:57 01.01.2022
6119 Clouds 11 1019 62 10000 2.06 310 18:58 01.01.2022
6120 Clouds 11 1019 62 10000 1.54 310 17:58 01.01.2022
6121 Clouds 12 1019 62 10000 0.51 330 16:37 01.01.2022
6122 Clouds 12 1019 62 10000 0.51 330 16:19 01.01.2022
6123 Clouds 13 1019 58 10000 2.06 340 15:26 01.01.2022
6124 Clouds 13 1019 58 10000 2.06 350 13:46 01.01.2022
6125 Clouds 13 1019 58 10000 2.06 350 13:46 01.01.2022
6126 Clouds 13 1019 54 10000 3.09 330 12:49 01.01.2022
6127 Clear 13 1020 50 10000 3.09 310 11:56 01.01.2022
6128 Clear 13 1020 50 10000 3.09 310 11:22 01.01.2022
6129 Clear 13 1021 50 10000 2.06 290 10:27 01.01.2022
6130 Clouds 12 1022 50 9000 2.06 270 09:45 01.01.2022
6131 Clouds 10 1022 53 8000 1.54 290 08:25 01.01.2022
6132 Clouds 9 1022 57 8000 0.51 0 07:44 01.01.2022
6133 Clouds 7 1021 65 6000 0 0 06:47 01.01.2022
6134 Clouds 5 1021 70 8000 1.03 360 05:27 01.01.2022
6135 Clouds 5 1021 65 9000 0.51 280 04:38 01.01.2022
6136 Clouds 5 1022 70 8000 2.06 210 01:59 01.01.2022
6137 Clouds 6 1022 70 7000 1.03 0 23:36 31.12.2021
6138 Clouds 6 1022 65 8000 1.54 160 21:53 31.12.2021
6139 Clouds 6 1022 70 9000 0.51 280 20:38 31.12.2021
6140 Clouds 6 1022 65 9000 0.51 260 19:30 31.12.2021
6141 Clouds 9 1022 61 9000 1.03 290 18:37 31.12.2021
6142 Clear 10 1022 62 10000 1.54 300 17:43 31.12.2021
6143 Clear 10 1022 62 10000 1.54 300 17:19 31.12.2021
6144 Clear 12 1021 54 10000 2.57 260 16:38 31.12.2021
6145 Clear 14 1021 44 10000 2.57 260 15:57 31.12.2021
6146 Clear 14 1021 44 10000 2.57 260 15:29 31.12.2021
6147 Clear 15 1021 41 10000 4.12 290 14:57 31.12.2021
6148 Clear 15 1021 41 10000 4.12 290 14:30 31.12.2021
6149 Clear 15 1021 38 10000 4.12 270 13:37 31.12.2021
6150 Clear 16 1020 36 10000 4.12 290 12:49 31.12.2021
6151 Clear 15 1021 38 10000 4.63 270 11:52 31.12.2021
6152 Clear 15 1021 38 10000 4.63 270 11:33 31.12.2021
6153 Clear 15 1021 41 10000 3.6 310 10:38 31.12.2021
6154 Clear 15 1021 41 10000 3.6 310 10:38 31.12.2021
6155 Clear 15 1021 41 10000 3.6 310 10:38 31.12.2021
6156 Clear 15 1021 41 10000 3.6 310 10:20 31.12.2021
6157 Clear 13 1022 47 10000 4.12 310 09:33 31.12.2021
6158 Clear 10 1022 53 10000 3.6 300 08:43 31.12.2021
6159 Clear 7 1021 61 10000 3.09 310 07:32 31.12.2021
6160 Clear 5 1019 75 9000 1.54 300 23:36 30.12.2021
6161 Clear 7 1019 70 9000 1.54 280 22:38 30.12.2021
6162 Clear 7 1019 70 9000 1.54 280 22:20 30.12.2021
6163 Clear 8 1019 66 9000 1.54 260 21:37 30.12.2021
6164 Clear 9 1019 66 10000 1.54 300 20:48 30.12.2021
6165 Clear 9 1019 66 10000 1.54 300 20:28 30.12.2021
6166 Clear 11 1019 58 10000 2.06 260 19:48 30.12.2021
6167 Clear 11 1019 58 10000 2.06 260 19:18 30.12.2021
6168 Clouds 12 1019 54 10000 2.57 300 18:20 30.12.2021
6169 Clouds 13 1018 50 10000 3.6 310 16:34 30.12.2021
6170 Clouds 14 1018 51 8000 3.09 320 15:52 30.12.2021
6171 Clouds 15 1018 47 9000 4.12 320 14:49 30.12.2021
6172 Clouds 15 1018 47 9000 4.12 320 14:30 30.12.2021
6173 Clouds 15 1018 47 8000 3.6 320 13:24 30.12.2021
6174 Clouds 15 1018 47 8000 2.06 360 11:35 30.12.2021
6175 Clouds 13 1019 50 8000 3.09 350 10:27 30.12.2021
6176 Clouds 13 1020 54 6000 2.06 340 09:27 30.12.2021
6177 Clouds 5 1020 70 4200 0.51 0 06:56 30.12.2021
6178 Clouds 9 1019 69 10000 1.09 83 04:42 30.12.2021
6179 Clouds 6 1018 81 7000 1.03 310 03:40 30.12.2021
6180 Clouds 7 1019 76 8000 0.51 0 01:56 30.12.2021
6181 Clouds 7 1019 70 7000 1.03 0 23:36 29.12.2021
6182 Clouds 7 1019 76 9000 0 0 22:33 29.12.2021
6183 Clouds 8 1019 81 9000 0.51 0 21:54 29.12.2021
6184 Clear 8 1019 76 10000 1.03 160 20:56 29.12.2021
6185 Clear 8 1019 76 10000 1.03 160 20:25 29.12.2021
6186 Clouds 8 1019 71 10000 1.03 0 19:31 29.12.2021
6187 Clouds 9 1020 61 10000 1.03 150 18:35 29.12.2021
6188 Clouds 11 1019 58 10000 1.54 120 17:41 29.12.2021
6189 Clouds 11 1019 58 10000 1.54 120 17:20 29.12.2021
6190 Clouds 12 1019 50 10000 2.06 130 16:19 29.12.2021
6191 Clouds 14 1019 44 10000 2.06 280 14:59 29.12.2021
6192 Clouds 14 1019 41 10000 0.51 0 12:57 29.12.2021
6193 Clouds 14 1019 41 10000 0.51 0 12:30 29.12.2021
6194 Clouds 13 1019 44 10000 1.54 0 11:22 29.12.2021
6195 Clouds 12 1021 47 10000 1.54 290 09:24 29.12.2021
6196 Clouds 7 1021 65 10000 0.51 160 06:59 29.12.2021
6197 Clouds 7 1021 65 10000 0.51 160 06:30 29.12.2021
6198 Clouds 6 1020 65 10000 1.54 110 05:52 29.12.2021
6199 Clouds 7 1020 61 10000 2.57 130 04:57 29.12.2021
6200 Clear 6 1020 65 10000 0 0 00:32 29.12.2021
6201 Clear 6 1020 65 10000 0.51 250 23:58 28.12.2021
6202 Clear 6 1020 65 10000 1.03 0 22:57 28.12.2021
6203 Clear 8 1020 57 10000 2.06 310 22:25 28.12.2021
6204 Clear 8 1020 57 10000 2.06 310 22:25 28.12.2021
6205 Clear 8 1021 61 10000 2.06 270 21:54 28.12.2021
6206 Clear 8 1021 61 10000 2.06 270 21:54 28.12.2021
6207 Clear 8 1021 61 10000 2.06 270 21:34 28.12.2021
6208 Clear 9 1021 57 10000 2.06 330 19:53 28.12.2021
6209 Clear 9 1021 53 10000 2.57 300 18:54 28.12.2021
6210 Clear 9 1021 53 10000 2.57 300 18:27 28.12.2021
6211 Clear 10 1021 53 10000 2.57 320 17:34 28.12.2021
6212 Clear 12 1020 47 10000 3.09 320 16:20 28.12.2021
6213 Clear 14 1021 44 10000 2.57 290 15:41 28.12.2021
6214 Clouds 14 1021 47 10000 4.12 320 14:56 28.12.2021
6215 Clouds 14 1021 47 10000 4.12 320 14:38 28.12.2021
6216 Clouds 14 1021 47 10000 4.12 320 14:19 28.12.2021
6217 Clear 15 1021 41 10000 4.63 280 13:37 28.12.2021
6218 Clouds 15 1021 38 10000 4.12 290 12:56 28.12.2021
6219 Clouds 15 1021 38 10000 4.12 290 12:21 28.12.2021
6220 Clear 14 1022 38 10000 3.09 300 10:47 28.12.2021
6221 Clear 6 1023 56 10000 2.06 270 07:39 28.12.2021
6222 Clear 1 1022 64 10000 3.09 300 03:37 28.12.2021
6223 Clear 4 1022 60 10000 2.57 310 23:41 27.12.2021
6224 Clear 4 1022 60 10000 2.06 280 22:27 27.12.2021
6225 Clear 5 1022 60 10000 1.03 290 21:32 27.12.2021
6226 Clear 6 1023 52 10000 1.54 240 20:40 27.12.2021
6227 Clear 6 1023 56 10000 2.06 270 19:55 27.12.2021
6228 Clear 6 1023 56 10000 2.06 270 19:37 27.12.2021
6229 Clear 8 1022 49 10000 1.03 280 17:55 27.12.2021
6230 Clear 8 1022 49 10000 1.03 280 17:55 27.12.2021
6231 Clear 8 1022 49 10000 1.03 280 17:29 27.12.2021
6232 Clear 11 1023 43 10000 2.06 260 16:32 27.12.2021
6233 Clear 13 1022 35 10000 4.12 280 15:50 27.12.2021
6234 Clear 15 1022 33 10000 4.63 300 14:29 27.12.2021
6235 Clear 15 1022 33 10000 5.66 290 13:32 27.12.2021
6236 Clear 14 1023 35 10000 5.14 270 11:34 27.12.2021
6237 Clear 13 1023 44 10000 4.63 260 10:27 27.12.2021
6238 Clear 12 1024 37 10000 5.14 300 09:38 27.12.2021
6239 Clear 6 1025 52 10000 3.6 280 07:35 27.12.2021
6240 Clear 3 1025 65 10000 2.06 270 06:30 27.12.2021
6241 Clear 5 1024 52 10000 3.09 290 01:59 27.12.2021
6242 Clear 5 1024 52 10000 2.57 270 23:52 26.12.2021
6243 Clear 5 1024 52 10000 2.57 270 23:34 26.12.2021
6244 Clear 7 1025 49 10000 3.6 280 21:48 26.12.2021
6245 Clear 6 1025 52 10000 2.57 280 20:42 26.12.2021
6246 Clear 7 1024 53 10000 2.06 240 19:31 26.12.2021
6247 Clear 9 1024 46 10000 2.06 280 18:23 26.12.2021
6248 Clear 13 1024 33 10000 5.14 290 15:57 26.12.2021
6249 Clear 14 1023 30 10000 7.2 290 14:27 26.12.2021
6250 Clear 14 1023 30 10000 7.2 290 13:40 26.12.2021
6251 Clear 14 1023 30 10000 7.2 290 13:18 26.12.2021
6252 Clear 14 1023 33 10000 7.72 310 12:27 26.12.2021
6253 Clear 12 1025 47 10000 6.69 290 10:22 26.12.2021
6254 Clear 11 1026 46 10000 5.66 300 09:19 26.12.2021
6255 Clear 8 1026 57 10000 5.14 290 08:41 26.12.2021
6256 Clear 6 1026 61 10000 4.12 280 07:34 26.12.2021
6257 Clear 2 1025 55 10000 2.57 300 01:24 26.12.2021
6258 Clear 4 1025 48 10000 3.09 280 23:53 25.12.2021
6259 Clear 4 1025 48 10000 3.09 280 23:27 25.12.2021
6260 Clear 5 1025 52 10000 3.09 260 22:23 25.12.2021
6261 Clear 4 1025 60 10000 3.09 300 20:57 25.12.2021
6262 Clear 6 1025 52 10000 2.57 300 19:26 25.12.2021
6263 Clear 7 1025 53 10000 3.6 300 18:55 25.12.2021
6264 Clear 8 1025 46 10000 4.12 300 17:33 25.12.2021
6265 Clear 10 1025 43 10000 4.63 300 16:36 25.12.2021
6266 Clear 11 1024 40 10000 6.17 300 15:18 25.12.2021
6267 Clear 13 1024 47 10000 7.2 310 13:30 25.12.2021
6268 Clear 13 1024 47 10000 7.2 310 13:30 25.12.2021
6269 Clear 14 1024 41 10000 7.2 310 11:51 25.12.2021
6270 Clear 13 1025 47 10000 5.66 300 09:54 25.12.2021
6271 Clear 13 1025 47 10000 5.66 300 09:34 25.12.2021
6272 Clear 8 1022 81 10000 3.6 310 04:34 25.12.2021
6273 Mist 8 1021 93 5000 4.12 300 01:25 25.12.2021
6274 Clouds 9 1021 93 6000 2.57 310 23:42 24.12.2021
6275 Clouds 13 1020 71 10000 4.12 310 19:46 24.12.2021
6276 Clouds 13 1020 71 10000 4.12 310 19:23 24.12.2021
6277 Clouds 15 1018 55 10000 5.66 310 16:57 24.12.2021
6278 Clouds 15 1018 55 10000 5.66 310 16:22 24.12.2021
6279 Clouds 16 1017 51 10000 3.6 320 15:48 24.12.2021
6280 Clouds 16 1017 51 10000 3.6 320 15:18 24.12.2021
6281 Clouds 18 1017 48 10000 2.06 320 14:31 24.12.2021
6282 Clouds 18 1016 42 10000 2.06 250 13:42 24.12.2021
6283 Clouds 17 1016 48 9000 3.09 270 12:49 24.12.2021
6284 Clouds 17 1016 48 9000 3.09 270 12:23 24.12.2021
6285 Clouds 18 1016 48 7000 3.09 290 11:40 24.12.2021
6286 Clouds 18 1016 48 7000 3.09 290 11:18 24.12.2021
6287 Haze 18 1017 48 5000 0.51 0 10:33 24.12.2021
6288 Haze 15 1018 55 1600 2.06 80 08:36 24.12.2021
6289 Haze 12 1018 66 1000 1.54 130 07:58 24.12.2021
6290 Mist 10 1018 71 1300 1.54 140 06:18 24.12.2021
6291 Clear 9 1017 71 10000 0.51 120 00:20 24.12.2021
6292 Clear 8 1017 81 10000 1.54 340 23:33 23.12.2021
6293 Clear 9 1017 76 10000 0.51 360 22:50 23.12.2021
6294 Clear 9 1017 76 10000 0.51 360 22:22 23.12.2021
6295 Clear 10 1017 71 10000 1.03 330 21:39 23.12.2021
6296 Clear 10 1018 76 10000 1.54 330 20:27 23.12.2021
6297 Clear 11 1018 71 10000 1.54 340 19:28 23.12.2021
6298 Clear 12 1017 62 10000 3.6 320 17:58 23.12.2021
6299 Clear 12 1017 62 10000 3.6 320 17:29 23.12.2021
6300 Clear 14 1017 54 10000 1.54 310 16:26 23.12.2021
6301 Clouds 16 1016 51 10000 1.03 0 15:33 23.12.2021
6302 Clear 17 1016 48 10000 2.06 270 14:59 23.12.2021
6303 Clear 17 1016 48 10000 2.06 270 14:39 23.12.2021
6304 Clear 18 1016 45 10000 3.6 250 13:25 23.12.2021
6305 Clear 18 1017 42 10000 4.63 250 11:49 23.12.2021
6306 Mist 12 1018 58 10000 4.63 190 09:53 23.12.2021
6307 Mist 12 1018 58 10000 4.63 190 09:34 23.12.2021
6308 Mist 12 1019 58 10000 3.6 190 08:28 23.12.2021
6309 Clouds 10 1018 66 10000 4.12 130 05:39 23.12.2021
6310 Clouds 12 1019 51 10000 1.78 169 01:31 23.12.2021
6311 Clear 9 1020 66 10000 3.09 150 22:53 22.12.2021
6312 Clear 9 1020 66 10000 3.09 150 22:19 22.12.2021
6313 Clear 10 1020 71 10000 1.54 120 21:36 22.12.2021
6314 Clear 10 1020 71 10000 1.54 120 21:18 22.12.2021
6315 Clear 10 1020 66 10000 2.57 120 20:40 22.12.2021
6316 Clear 10 1020 71 10000 2.57 120 19:54 22.12.2021
6317 Clear 11 1020 66 10000 1.03 100 18:55 22.12.2021
6318 Clear 11 1020 66 10000 1.03 100 18:55 22.12.2021
6319 Clear 12 1020 66 10000 1.54 90 17:38 22.12.2021
6320 Clear 14 1020 51 10000 0 0 16:25 22.12.2021
6321 Clear 17 1020 45 10000 3.09 230 14:33 22.12.2021
6322 Clear 17 1020 48 10000 4.12 230 12:55 22.12.2021
6323 Clear 17 1020 51 10000 3.6 230 11:48 22.12.2021
6324 Clear 14 1022 62 10000 2.57 250 09:52 22.12.2021
6325 Clear 12 1023 62 10000 2.57 290 08:34 22.12.2021
6326 Clear 5 1022 81 10000 1.54 180 05:56 22.12.2021
6327 Clear 5 1022 81 10000 1.54 180 05:37 22.12.2021
6328 Clear 5 1022 81 10000 1.54 180 05:19 22.12.2021
6329 Clear 6 1021 75 10000 2.06 160 04:40 22.12.2021
6330 Clear 7 1021 76 10000 1.03 0 03:52 22.12.2021
6331 Clear 7 1021 76 10000 1.03 0 03:31 22.12.2021
6332 Clear 8 1021 66 10000 2.57 140 23:48 21.12.2021
6333 Clear 8 1021 66 10000 3.6 150 22:41 21.12.2021
6334 Clear 9 1021 61 10000 3.09 130 21:57 21.12.2021
6335 Clear 9 1021 61 10000 3.09 130 21:33 21.12.2021
6336 Clear 9 1021 61 10000 3.09 130 20:42 21.12.2021
6337 Clear 9 1021 61 10000 3.09 130 20:18 21.12.2021
6338 Clear 10 1021 57 10000 2.57 130 19:34 21.12.2021
6339 Clear 11 1021 58 10000 3.09 100 18:28 21.12.2021
6340 Clear 11 1021 54 10000 2.57 120 17:58 21.12.2021
6341 Clear 11 1021 54 10000 2.57 120 17:39 21.12.2021
6342 Clear 15 1020 44 10000 1.54 220 15:46 21.12.2021
6343 Clear 16 1020 44 10000 2.06 160 14:24 21.12.2021
6344 Clear 16 1019 44 10000 2.57 170 13:42 21.12.2021
6345 Clear 16 1019 44 10000 2.06 180 12:29 21.12.2021
6346 Clear 14 1020 47 9000 2.57 280 10:39 21.12.2021
6347 Clear 16 1019 42 10000 3.42 271 09:56 21.12.2021
6348 Clear 12 1021 54 6000 4.12 220 08:57 21.12.2021
6349 Dust 11 1021 54 4900 4.12 210 07:45 21.12.2021
6350 Dust 11 1021 54 4900 4.12 210 07:23 21.12.2021
6351 Dust 8 1019 66 800 2.06 190 04:26 21.12.2021
6352 Dust 9 1017 61 600 2.57 170 02:30 21.12.2021
6353 Dust 11 1017 58 800 3.09 170 23:55 20.12.2021
6354 Dust 14 1016 47 400 3.09 250 22:44 20.12.2021
6355 Dust 14 1016 47 400 3.09 250 22:25 20.12.2021
6356 Dust 15 1015 44 500 3.09 250 21:27 20.12.2021
6357 Fog 15 1015 47 800 3.6 260 20:55 20.12.2021
6358 Clear 15 1014 51 8000 5.66 260 20:24 20.12.2021
6359 Clear 15 1013 82 6000 5.14 190 19:38 20.12.2021
6360 Clouds 15 1013 82 6000 5.14 190 19:20 20.12.2021
6361 Clouds 15 1012 88 6000 6.69 160 18:33 20.12.2021
6362 Clouds 16 1011 82 6000 5.14 150 17:51 20.12.2021
6363 Clouds 15 1011 82 8000 4.12 160 16:47 20.12.2021
6364 Clouds 18 1010 71 10000 6.32 153 16:25 20.12.2021
6365 Clouds 17 1010 72 7000 4.12 140 15:40 20.12.2021
6366 Clouds 18 1010 68 7000 5.14 150 14:26 20.12.2021
6367 Clouds 16 1012 72 5000 2.57 150 12:40 20.12.2021
6368 Clouds 16 1014 72 8000 4.12 140 10:51 20.12.2021
6369 Clear 18 1015 39 10000 5.14 110 09:44 20.12.2021
6370 Clouds 16 1017 44 9000 1.54 60 08:56 20.12.2021
6371 Clouds 16 1017 44 9000 1.54 60 08:38 20.12.2021
6372 Clouds 13 1017 50 9000 2.06 90 07:44 20.12.2021
6373 Clouds 10 1018 62 6000 2.06 130 06:39 20.12.2021
6374 Clear 12 1018 58 10000 3.09 90 01:33 20.12.2021
6375 Clear 9 1019 71 10000 1.54 80 23:37 19.12.2021
6376 Clear 10 1020 62 10000 1.54 140 22:44 19.12.2021
6377 Clear 9 1020 71 10000 1.03 110 21:44 19.12.2021
6378 Clear 9 1020 71 10000 1.03 110 21:25 19.12.2021
6379 Clear 11 1020 58 10000 1.03 150 20:24 19.12.2021
6380 Clear 10 1020 57 10000 2.06 140 19:43 19.12.2021
6381 Clear 13 1020 47 10000 3.09 150 18:50 19.12.2021
6382 Clear 14 1019 47 10000 2.06 140 17:54 19.12.2021
6383 Clear 14 1019 47 10000 2.06 140 17:35 19.12.2021
6384 Clear 14 1019 44 10000 1.54 180 16:45 19.12.2021
6385 Clear 14 1019 44 10000 1.54 180 16:45 19.12.2021
6386 Clear 19 1018 34 10000 1.54 180 15:56 19.12.2021
6387 Clear 19 1018 34 10000 1.54 180 15:25 19.12.2021
6388 Clear 20 1018 32 10000 2.06 200 14:48 19.12.2021
6389 Clouds 20 1018 34 10000 3.09 190 13:38 19.12.2021
6390 Clear 20 1018 34 10000 4.12 190 12:59 19.12.2021
6391 Clear 20 1018 34 10000 4.12 190 12:32 19.12.2021
6392 Clear 20 1019 37 10000 3.6 170 11:38 19.12.2021
6393 Clear 19 1019 39 10000 3.6 180 10:50 19.12.2021
6394 Clear 19 1019 39 10000 3.6 180 10:22 19.12.2021
6395 Clear 16 1020 48 10000 3.09 130 08:55 19.12.2021
6396 Clear 8 1019 76 9000 1.03 0 06:54 19.12.2021
6397 Clear 8 1018 81 10000 1.54 130 02:30 19.12.2021
6398 Clear 9 1018 76 10000 1.03 90 00:55 19.12.2021
6399 Clear 9 1017 66 10000 2.06 170 23:21 18.12.2021
6400 Clear 10 1017 66 9000 1.03 130 22:29 18.12.2021
6401 Clear 10 1017 66 9000 1.54 160 21:44 18.12.2021
6402 Clear 10 1017 66 9000 1.54 160 21:26 18.12.2021
6403 Clear 10 1017 71 10000 1.03 80 20:43 18.12.2021
6404 Clear 11 1017 66 10000 1.03 0 19:40 18.12.2021
6405 Clear 13 1017 58 10000 1.54 320 18:26 18.12.2021
6406 Clear 14 1016 54 10000 1.54 350 17:49 18.12.2021
6407 Clear 16 1016 48 10000 2.06 250 16:55 18.12.2021
6408 Clear 16 1016 48 10000 2.06 250 16:21 18.12.2021
6409 Clear 19 1015 39 10000 1.54 270 15:25 18.12.2021
6410 Clear 20 1015 37 10000 3.6 240 14:19 18.12.2021
6411 Clear 20 1015 42 10000 3.09 240 12:21 18.12.2021
6412 Clear 18 1016 55 10000 2.57 230 10:42 18.12.2021
6413 Clear 16 1017 63 10000 2.57 260 09:32 18.12.2021
6414 Clear 13 1017 71 10000 3.09 260 08:37 18.12.2021
6415 Clear 11 1017 82 6000 2.57 240 07:42 18.12.2021
6416 Clear 11 1014 82 7000 2.06 260 01:48 18.12.2021
6417 Clear 12 1014 82 7000 3.09 250 00:23 18.12.2021
6418 Mist 14 1013 82 5000 2.06 250 23:35 17.12.2021
6419 Mist 15 1012 82 5000 2.57 290 21:50 17.12.2021
6420 Mist 16 1012 77 5000 4.63 290 20:49 17.12.2021
6421 Mist 16 1012 77 5000 4.63 290 20:21 17.12.2021
6422 Mist 18 1012 72 5000 3.6 300 18:50 17.12.2021
6423 Mist 18 1012 72 5000 3.6 300 18:19 17.12.2021
6424 Clouds 19 1012 68 9000 0 0 17:20 17.12.2021
6425 Clouds 19 1012 68 9000 1.54 170 16:29 17.12.2021
6426 Clouds 20 1012 64 8000 3.6 160 15:51 17.12.2021
6427 Clouds 21 1012 60 9000 5.14 170 14:43 17.12.2021
6428 Clouds 23 1011 53 6000 5.14 140 13:56 17.12.2021
6429 Clouds 22 1012 56 8000 6.17 130 12:38 17.12.2021
6430 Clouds 19 1014 72 6000 8.75 140 10:49 17.12.2021
6431 Clouds 19 1015 72 6000 8.75 140 09:51 17.12.2021
6432 Clouds 19 1015 68 6000 7.2 140 08:58 17.12.2021
6433 Clouds 19 1015 68 6000 7.2 140 08:18 17.12.2021
6434 Clouds 16 1015 77 8000 6.17 130 04:58 17.12.2021
6435 Clouds 18 1016 72 9000 5.66 130 00:58 17.12.2021
6436 Clouds 18 1016 72 10000 5.66 130 22:44 16.12.2021
6437 Clouds 18 1016 72 10000 5.66 130 22:22 16.12.2021
6438 Clouds 19 1016 63 10000 4.63 130 21:43 16.12.2021
6439 Clouds 19 1016 63 10000 5.14 140 20:42 16.12.2021
6440 Clouds 19 1016 63 10000 5.14 140 20:21 16.12.2021
6441 Clouds 19 1016 59 10000 4.63 130 19:30 16.12.2021
6442 Clouds 19 1016 63 10000 4.63 130 18:33 16.12.2021
6443 Clouds 20 1016 60 10000 4.63 130 17:46 16.12.2021
6444 Clouds 20 1016 60 10000 3.6 100 16:24 16.12.2021
6445 Clouds 21 1016 56 10000 2.06 130 15:38 16.12.2021
6446 Clouds 22 1015 56 9000 7.2 130 13:46 16.12.2021
6447 Clouds 20 1016 68 6000 4.12 130 12:26 16.12.2021
6448 Haze 20 1016 68 5000 5.66 130 11:19 16.12.2021
6449 Clouds 20 1017 64 5000 5.14 130 10:39 16.12.2021
6450 Haze 19 1018 68 5000 7.72 110 09:43 16.12.2021
6451 Mist 15 1018 77 4400 4.12 120 06:23 16.12.2021
6452 Clear 15 1017 72 10000 4.12 120 04:33 16.12.2021
6453 Clear 16 1017 59 10000 5.14 100 23:58 15.12.2021
6454 Clear 17 1017 45 10000 5.9 128 22:50 15.12.2021
6455 Clear 17 1017 41 10000 6.15 122 22:21 15.12.2021
6456 Clear 16 1017 59 10000 5.66 120 21:31 15.12.2021
6457 Clear 17 1017 59 10000 5.14 120 20:51 15.12.2021
6458 Clear 17 1017 59 10000 6.17 120 19:53 15.12.2021
6459 Clear 18 1017 26 10000 5.71 128 19:18 15.12.2021
6460 Clear 17 1017 59 10000 6.17 120 18:19 15.12.2021
6461 Clear 18 1016 48 10000 6.17 110 17:45 15.12.2021
6462 Clear 18 1016 48 10000 6.17 110 17:21 15.12.2021
6463 Clear 20 1015 37 10000 4.63 110 15:48 15.12.2021
6464 Clear 20 1015 37 10000 4.63 110 15:29 15.12.2021
6465 Clear 21 1015 16 10000 5.7 130 14:44 15.12.2021
6466 Clouds 24 1015 12 10000 8.19 139 13:28 15.12.2021
6467 Clear 22 1016 33 10000 7.72 130 11:41 15.12.2021
6468 Clear 20 1017 37 10000 7.72 130 10:18 15.12.2021
6469 Clouds 16 1018 51 10000 5.14 130 08:25 15.12.2021
6470 Clear 12 1017 62 10000 5.66 100 05:51 15.12.2021
6471 Clear 13 1017 54 10000 4.12 110 00:32 15.12.2021
6472 Clouds 16 1016 20 10000 4.87 127 23:21 14.12.2021
6473 Clear 13 1017 54 10000 4.12 100 22:42 14.12.2021
6474 Clear 13 1017 54 10000 4.63 110 21:40 14.12.2021
6475 Clouds 17 1017 18 10000 4.22 142 20:21 14.12.2021
6476 Clouds 13 1017 54 9000 3.09 110 19:26 14.12.2021
6477 Clouds 15 1017 47 9000 3.09 90 18:38 14.12.2021
6478 Clouds 15 1017 47 9000 3.09 90 17:53 14.12.2021
6479 Clear 16 1017 44 10000 2.57 120 16:43 14.12.2021
6480 Clear 16 1017 44 10000 2.57 120 16:21 14.12.2021
6481 Clear 19 1017 39 10000 3.09 120 13:59 14.12.2021
6482 Clear 19 1017 37 10000 3.6 140 12:50 14.12.2021
6483 Clouds 19 1017 34 7000 3.09 90 11:25 14.12.2021
6484 Clear 18 1018 39 10000 2.06 80 10:59 14.12.2021
6485 Clouds 16 1019 44 10000 1.54 80 09:54 14.12.2021
6486 Clouds 13 1020 62 9000 1.03 0 08:49 14.12.2021
6487 Clouds 13 1020 62 9000 1.03 0 08:21 14.12.2021
6488 Clouds 11 1020 66 9000 0.51 0 07:23 14.12.2021
6489 Clouds 10 1019 57 10000 1.54 270 23:52 13.12.2021
6490 Clear 9 1020 66 10000 1.03 200 22:26 13.12.2021
6491 Clear 10 1020 57 10000 1.03 0 21:39 13.12.2021
6492 Clear 11 1020 62 10000 0 0 20:54 13.12.2021
6493 Clear 11 1020 62 10000 0 0 20:22 13.12.2021
6494 Clear 11 1020 66 10000 1.03 40 19:49 13.12.2021
6495 Clear 15 1021 47 10000 2.06 270 17:39 13.12.2021
6496 Clear 15 1021 47 10000 2.06 270 17:18 13.12.2021
6497 Clear 19 1020 34 10000 2.57 270 15:43 13.12.2021
6498 Clear 21 1020 28 10000 3.6 300 14:43 13.12.2021
6499 Clear 22 1020 26 10000 4.12 320 13:37 13.12.2021
6500 Clear 21 1020 28 10000 4.63 280 12:40 13.12.2021
6501 Clear 21 1021 28 10000 5.14 300 11:53 13.12.2021
6502 Clear 21 1021 28 10000 5.14 300 11:34 13.12.2021
6503 Clear 20 1021 34 10000 4.63 300 10:37 13.12.2021
6504 Clear 15 1023 51 10000 5.14 290 08:44 13.12.2021
6505 Clear 9 1022 61 10000 3.09 270 06:55 13.12.2021
6506 Clear 8 1022 71 10000 3.6 280 05:19 13.12.2021
6507 Clear 11 1022 66 10000 3.6 290 00:41 13.12.2021
6508 Clear 13 1023 58 10000 4.12 280 21:59 12.12.2021
6509 Clear 13 1023 58 10000 4.12 280 21:29 12.12.2021
6510 Clear 13 1023 50 10000 3.6 270 19:36 12.12.2021
6511 Clear 15 1023 44 10000 4.12 290 18:23 12.12.2021
6512 Clear 17 1023 39 10000 4.12 280 16:47 12.12.2021
6513 Clear 17 1023 39 10000 4.12 280 16:22 12.12.2021
6514 Clear 18 1022 36 10000 4.12 300 15:28 12.12.2021
6515 Clear 20 1022 30 10000 6.69 310 14:54 12.12.2021
6516 Clear 20 1022 30 10000 6.69 310 14:19 12.12.2021
6517 Clear 21 1023 28 10000 7.72 300 12:51 12.12.2021
6518 Clear 21 1023 28 10000 7.72 300 12:23 12.12.2021
6519 Clear 21 1023 28 10000 7.72 300 12:23 12.12.2021
6520 Clear 20 1023 32 10000 7.2 300 11:43 12.12.2021
6521 Clear 18 1024 36 10000 6.69 310 10:44 12.12.2021
6522 Clear 18 1024 36 10000 6.69 310 10:44 12.12.2021
6523 Clear 18 1024 36 10000 6.69 310 10:21 12.12.2021
6524 Clear 14 1026 44 10000 5.14 310 08:50 12.12.2021
6525 Clear 11 1026 50 10000 3.09 290 07:30 12.12.2021
6526 Clear 6 1025 65 10000 3.6 300 05:56 12.12.2021
6527 Clear 4 1024 70 10000 3.09 310 04:53 12.12.2021
6528 Clear 12 1024 40 10000 4.12 323 01:26 12.12.2021
6529 Clear 8 1024 57 10000 3.09 290 23:28 11.12.2021
6530 Clear 7 1024 61 10000 2.06 290 22:21 11.12.2021
6531 Clear 8 1024 57 10000 3.09 290 21:47 11.12.2021
6532 Clear 9 1024 53 10000 3.09 300 20:20 11.12.2021
6533 Clear 10 1024 50 10000 3.6 310 19:21 11.12.2021
6534 Clear 13 1024 47 10000 3.09 280 18:49 11.12.2021
6535 Clear 13 1024 47 10000 3.09 290 17:56 11.12.2021
6536 Clear 16 1024 39 10000 3.6 290 16:39 11.12.2021
6537 Clear 17 1023 39 10000 4.12 320 15:46 11.12.2021
6538 Clear 19 1023 32 10000 5.66 310 14:54 11.12.2021
6539 Clear 20 1023 34 10000 7.2 310 12:41 11.12.2021
6540 Clear 19 1024 37 10000 6.17 290 11:18 11.12.2021
6541 Clear 17 1025 45 10000 4.63 300 09:45 11.12.2021
6542 Clear 16 1025 41 10000 4.83 316 07:30 11.12.2021
6543 Clear 8 1024 71 10000 2.57 290 00:50 11.12.2021
6544 Clear 8 1024 66 10000 1.54 280 23:45 10.12.2021
6545 Clear 8 1024 66 10000 1.54 280 23:18 10.12.2021
6546 Clear 9 1025 61 10000 3.6 320 21:52 10.12.2021
6547 Clear 10 1025 62 10000 3.6 310 20:56 10.12.2021
6548 Clear 11 1025 62 10000 3.6 300 19:20 10.12.2021
6549 Clear 13 1025 54 10000 3.09 300 17:54 10.12.2021
6550 Clear 16 1025 48 10000 3.6 290 16:55 10.12.2021
6551 Clear 18 1025 42 10000 4.63 290 15:47 10.12.2021
6552 Clear 18 1025 42 10000 4.63 290 15:29 10.12.2021
6553 Clear 19 1025 39 10000 6.69 300 14:57 10.12.2021
6554 Clear 20 1025 40 10000 7.2 310 13:50 10.12.2021
6555 Clear 20 1025 40 10000 7.2 310 13:25 10.12.2021
6556 Clear 20 1024 40 10000 6.17 320 12:23 10.12.2021
6557 Clear 19 1025 45 10000 6.69 310 11:28 10.12.2021
6558 Clear 16 1027 55 10000 5.14 300 09:54 10.12.2021
6559 Clear 14 1027 58 10000 5.14 300 08:30 10.12.2021
6560 Clear 6 1026 75 10000 3.6 310 05:56 10.12.2021
6561 Clear 8 1025 66 10000 2.57 320 02:48 10.12.2021
6562 Clear 10 1024 66 10000 2.57 340 23:46 09.12.2021
6563 Clear 10 1024 66 10000 2.57 340 23:20 09.12.2021
6564 Clear 9 1024 61 8000 1.54 340 22:24 09.12.2021
6565 Clear 10 1024 62 7000 2.57 310 21:49 09.12.2021
6566 Clear 11 1024 58 6000 1.54 310 20:41 09.12.2021
6567 Clear 16 1024 45 10000 3.58 326 20:20 09.12.2021
6568 Clear 11 1024 54 7000 3.09 290 19:21 09.12.2021
6569 Clear 12 1024 54 6000 1.03 270 18:36 09.12.2021
6570 Clear 14 1023 51 7000 1.54 330 17:51 09.12.2021
6571 Clear 14 1023 51 7000 1.54 330 17:25 09.12.2021
6572 Clear 15 1023 44 7000 2.57 310 16:53 09.12.2021
6573 Clear 17 1022 39 5000 2.06 300 15:32 09.12.2021
6574 Clear 19 1022 34 6000 2.06 280 14:46 09.12.2021
6575 Haze 19 1021 37 5000 3.6 310 13:20 09.12.2021
6576 Haze 20 1021 34 5000 5.14 290 12:37 09.12.2021
6577 Haze 20 1021 34 5000 4.12 300 11:21 09.12.2021
6578 Haze 17 1022 39 4800 4.12 270 08:54 09.12.2021
6579 Clouds 13 1020 50 7000 4.63 260 06:44 09.12.2021
6580 Clouds 12 1019 62 10000 1.03 0 03:40 09.12.2021
6581 Clear 15 1016 58 10000 4.63 130 23:43 08.12.2021
6582 Clear 15 1016 58 10000 4.63 130 23:21 08.12.2021
6583 Clear 15 1016 58 10000 4.63 120 22:47 08.12.2021
6584 Clear 13 1017 62 10000 3.09 140 21:42 08.12.2021
6585 Clear 13 1017 62 10000 3.09 140 21:24 08.12.2021
6586 Clear 18 1016 48 10000 5.66 140 19:58 08.12.2021
6587 Clear 18 1016 48 10000 5.66 140 19:34 08.12.2021
6588 Clear 18 1015 52 10000 5.14 140 18:45 08.12.2021
6589 Clouds 18 1016 52 10000 6.17 150 17:37 08.12.2021
6590 Clouds 20 1015 49 10000 6.69 140 15:51 08.12.2021
6591 Clouds 20 1015 49 10000 6.69 140 15:28 08.12.2021
6592 Clouds 20 1015 49 8000 6.69 120 14:31 08.12.2021
6593 Clouds 20 1016 45 8000 6.17 130 11:36 08.12.2021
6594 Clouds 19 1017 45 10000 6.17 120 10:31 08.12.2021
6595 Haze 16 1019 55 2500 5.14 130 08:56 08.12.2021
6596 Mist 15 1020 55 3800 3.6 110 07:26 08.12.2021
6597 Clear 12 1019 66 10000 2.06 80 04:57 08.12.2021
6598 Clear 11 1019 66 10000 1.03 130 23:34 07.12.2021
6599 Clouds 11 1020 71 9000 1.03 130 21:51 07.12.2021
6600 Clouds 11 1020 71 9000 1.03 130 21:23 07.12.2021
6601 Clouds 13 1020 67 9000 1.54 160 20:20 07.12.2021
6602 Clouds 15 1021 63 9000 2.06 160 18:47 07.12.2021
6603 Clear 15 1021 63 10000 1.03 0 17:53 07.12.2021
6604 Clear 15 1021 63 10000 1.03 0 17:20 07.12.2021
6605 Clear 17 1021 55 10000 1.03 0 16:31 07.12.2021
6606 Clouds 17 1021 55 9000 1.03 140 15:34 07.12.2021
6607 Clouds 19 1021 48 10000 1.54 200 14:23 07.12.2021
6608 Clear 19 1021 48 10000 2.06 230 12:56 07.12.2021
6609 Clear 19 1021 48 10000 2.06 230 12:56 07.12.2021
6610 Clouds 19 1021 48 8000 1.54 230 11:52 07.12.2021
6611 Clouds 17 1022 51 8000 2.06 240 10:36 07.12.2021
6612 Clouds 13 1023 58 10000 1.03 0 08:39 07.12.2021
6613 Clouds 7 1023 70 8000 2.06 290 06:20 07.12.2021
6614 Clear 8 1022 66 10000 2.06 310 05:37 07.12.2021
6615 Clear 10 1022 62 10000 2.57 290 23:49 06.12.2021
6616 Clouds 15 1022 42 10000 3.19 349 22:58 06.12.2021
6617 Clouds 15 1022 42 10000 3.19 349 22:37 06.12.2021
6618 Clear 10 1022 62 10000 2.57 320 21:52 06.12.2021
6619 Clear 10 1022 62 10000 2.57 300 20:40 06.12.2021
6620 Clear 10 1022 62 10000 2.57 300 20:22 06.12.2021
6621 Clear 17 1022 35 10000 2.73 337 19:22 06.12.2021
6622 Clear 17 1021 31 10000 2.74 337 18:29 06.12.2021
6623 Clear 15 1021 47 10000 1.54 300 17:41 06.12.2021
6624 Clear 16 1020 48 10000 1.54 340 16:49 06.12.2021
6625 Clear 18 1020 42 10000 2.57 340 15:41 06.12.2021
6626 Clear 20 1020 34 10000 4.63 310 13:46 06.12.2021
6627 Clear 20 1020 37 10000 3.6 310 12:40 06.12.2021
6628 Clear 19 1019 42 10000 4.12 310 11:48 06.12.2021
6629 Clear 18 1020 42 9000 5.14 320 09:20 06.12.2021
6630 Clear 9 1019 71 7000 2.57 320 06:43 06.12.2021
6631 Clouds 15 1014 44 10000 6.69 120 23:44 05.12.2021
6632 Clouds 14 1016 51 10000 6.17 120 21:52 05.12.2021
6633 Clouds 14 1016 51 10000 6.17 120 21:24 05.12.2021
6634 Clouds 14 1014 38 10000 2.06 140 20:19 05.12.2021
6635 Clear 15 1014 38 10000 2.57 100 19:36 05.12.2021
6636 Clear 15 1014 38 10000 2.57 100 19:18 05.12.2021
6637 Clear 15 1014 38 10000 2.06 130 18:20 05.12.2021
6638 Clear 12 1014 50 10000 2.06 90 17:49 05.12.2021
6639 Clear 14 1014 38 10000 1.03 0 16:52 05.12.2021
6640 Clear 14 1014 38 10000 1.03 0 16:27 05.12.2021
6641 Clear 16 1013 39 10000 4.12 120 15:58 05.12.2021
6642 Clouds 18 1012 34 10000 6.17 120 14:45 05.12.2021
6643 Clouds 18 1012 34 10000 6.17 120 14:26 05.12.2021
6644 Clouds 18 1013 34 10000 6.69 110 13:27 05.12.2021
6645 Clouds 18 1015 34 8000 5.66 110 12:40 05.12.2021
6646 Clouds 18 1015 34 8000 5.66 110 12:18 05.12.2021
6647 Clear 17 1016 36 10000 4.63 110 11:35 05.12.2021
6648 Clear 16 1017 39 10000 4.12 130 10:19 05.12.2021
6649 Haze 14 1019 47 4500 3.09 110 08:45 05.12.2021
6650 Clear 7 1019 61 10000 0.51 180 04:56 05.12.2021
6651 Clear 8 1020 61 10000 1.54 30 01:23 05.12.2021
6652 Clear 8 1020 53 10000 1.03 0 22:24 04.12.2021
6653 Clear 10 1020 50 10000 2.57 250 21:20 04.12.2021
6654 Clear 9 1020 53 10000 0.51 0 20:32 04.12.2021
6655 Clear 8 1020 53 10000 1.54 230 19:33 04.12.2021
6656 Clear 13 1020 38 10000 1.54 250 18:23 04.12.2021
6657 Clouds 12 1020 37 8000 1.03 340 17:45 04.12.2021
6658 Clouds 12 1020 37 8000 1.03 340 17:20 04.12.2021
6659 Clouds 13 1020 38 8000 1.03 300 16:42 04.12.2021
6660 Clouds 13 1020 38 8000 1.03 300 16:24 04.12.2021
6661 Clear 17 1021 39 10000 3.09 260 11:56 04.12.2021
6662 Clear 17 1021 39 10000 3.09 260 11:33 04.12.2021
6663 Clear 16 1022 41 10000 3.6 260 10:57 04.12.2021
6664 Clouds 13 1023 44 8000 2.06 270 08:53 04.12.2021
6665 Clouds 13 1023 44 8000 2.06 270 08:27 04.12.2021
6666 Clear 4 1023 70 10000 2.06 240 04:42 04.12.2021
6667 Clear 6 1022 65 10000 2.06 330 00:49 04.12.2021
6668 Clear 6 1023 61 10000 1.03 290 23:33 03.12.2021
6669 Clear 8 1023 53 10000 2.06 270 22:51 03.12.2021
6670 Clear 9 1023 49 10000 2.06 280 21:54 03.12.2021